# Wetter Temperatur Luftdruck Luftfeuchtigkeit Sichtweite Windgeschwindigkeit Windrichtung Zeit
1 Clouds 11 1033 76 10000 1.03 0 14:22 01.02.2023
2 Clouds 10 1034 76 10000 0.51 0 13:19 01.02.2023
3 Clouds 10 1034 76 10000 0 0 12:26 01.02.2023
4 Clouds 8 1034 81 10000 0 0 11:49 01.02.2023
5 Clouds 5 1032 93 10000 0 0 08:41 01.02.2023
6 Clouds 8 1032 93 10000 1.54 310 23:41 31.01.2023
7 Clouds 9 1032 87 10000 1.54 290 21:20 31.01.2023
8 Clouds 10 1032 81 10000 3.09 240 19:24 31.01.2023
9 Clear 11 1032 76 10000 3.6 250 17:41 31.01.2023
10 Clouds 12 1031 66 10000 4.12 270 15:36 31.01.2023
11 Clouds 12 1031 66 10000 4.12 270 15:18 31.01.2023
12 Clouds 12 1033 66 10000 3.6 250 13:34 31.01.2023
13 Clouds 9 1034 81 10000 3.09 220 11:28 31.01.2023
14 Clouds 6 1033 93 10000 3.6 210 10:25 31.01.2023
15 Clouds 6 1033 87 10000 2.06 200 09:44 31.01.2023
16 Clouds 6 1032 87 10000 3.09 210 08:36 31.01.2023
17 Clouds 6 1032 87 10000 2.57 200 06:25 31.01.2023
18 Clouds 5 1032 87 10000 1.03 150 01:54 31.01.2023
19 Clouds 6 1033 81 10000 1.03 170 23:26 30.01.2023
20 Clouds 7 1033 81 10000 1.03 0 22:49 30.01.2023
21 Clouds 7 1032 76 10000 0 0 21:38 30.01.2023
22 Clouds 7 1032 76 10000 1.54 290 20:43 30.01.2023
23 Clouds 8 1031 66 10000 1.54 310 18:26 30.01.2023
24 Clouds 9 1031 57 10000 1.54 290 16:58 30.01.2023
25 Clear 9 1031 57 10000 1.03 0 14:35 30.01.2023
26 Clear 8 1032 61 10000 0.51 0 13:39 30.01.2023
27 Clouds 3 1033 81 10000 1.54 0 11:30 30.01.2023
28 Clouds 1 1032 93 9000 0.51 180 10:19 30.01.2023
29 Clouds 0 1032 93 10000 0.51 170 09:52 30.01.2023
30 Clouds -1 1031 93 9000 1.03 240 08:18 30.01.2023
31 Clear -2 1031 93 10000 0 0 02:33 30.01.2023
32 Clouds 1 1031 80 10000 0.51 0 23:35 29.01.2023
33 Clouds 2 1031 80 10000 0 0 22:38 29.01.2023
34 Clouds 3 1031 75 10000 2.06 10 21:53 29.01.2023
35 Clouds 4 1031 70 10000 3.09 350 20:50 29.01.2023
36 Clouds 4 1030 70 10000 2.06 360 20:18 29.01.2023
37 Clouds 5 1030 65 10000 1.54 340 19:32 29.01.2023
38 Clouds 6 1029 61 10000 3.09 10 17:51 29.01.2023
39 Clouds 7 1029 53 10000 3.6 340 16:22 29.01.2023
40 Clouds 6 1029 56 10000 2.57 30 15:50 29.01.2023
41 Clouds 5 1030 60 10000 3.6 30 13:34 29.01.2023
42 Clouds 5 1030 65 10000 3.09 10 12:52 29.01.2023
43 Clouds 4 1031 70 10000 3.09 30 12:24 29.01.2023
44 Clouds 3 1031 75 10000 3.6 10 11:58 29.01.2023
45 Clouds 3 1031 75 10000 3.6 360 11:28 29.01.2023
46 Clouds 2 1030 80 10000 3.6 10 10:19 29.01.2023
47 Clouds 2 1029 80 10000 2.57 10 07:48 29.01.2023
48 Clouds 3 1029 81 10000 4.63 360 03:42 29.01.2023
49 Clouds 4 1029 70 10000 4.12 10 23:46 28.01.2023
50 Clouds 5 1029 70 10000 4.12 10 20:45 28.01.2023
51 Clouds 5 1028 70 10000 4.63 10 19:53 28.01.2023
52 Clouds 5 1027 70 10000 5.14 10 18:39 28.01.2023
53 Clouds 5 1027 75 10000 5.14 10 17:21 28.01.2023
54 Clouds 5 1026 81 10000 4.12 360 16:27 28.01.2023
55 Clouds 5 1026 81 10000 3.6 350 15:49 28.01.2023
56 Clouds 5 1026 81 10000 4.12 360 15:22 28.01.2023
57 Clouds 6 1026 70 10000 4.63 10 13:44 28.01.2023
58 Clouds 4 1027 81 10000 3.6 10 11:55 28.01.2023
59 Clouds 4 1026 81 10000 4.12 360 10:34 28.01.2023
60 Clouds 4 1025 75 10000 4.12 360 08:39 28.01.2023
61 Clouds 5 1024 70 10000 4.63 10 01:45 28.01.2023
62 Clouds 5 1024 81 10000 4.63 360 00:26 28.01.2023
63 Clouds 5 1024 75 10000 4.12 360 21:48 27.01.2023
64 Clouds 6 1023 70 10000 4.63 350 18:53 27.01.2023
65 Clouds 6 1023 65 10000 4.63 360 17:58 27.01.2023
66 Clouds 6 1022 70 10000 5.14 360 17:19 27.01.2023
67 Clouds 7 1022 65 10000 4.63 350 16:35 27.01.2023
68 Clouds 7 1021 65 10000 5.14 360 14:58 27.01.2023
69 Clouds 7 1022 65 10000 5.14 360 14:25 27.01.2023
70 Clouds 7 1023 65 10000 5.66 10 13:18 27.01.2023
71 Clouds 4 1022 81 10000 3.6 360 08:47 27.01.2023
72 Drizzle 4 1022 93 10000 3.09 360 06:21 27.01.2023
73 Clouds 4 1023 81 10000 3.6 20 00:24 27.01.2023
74 Clouds 4 1023 87 10000 4.12 10 21:43 26.01.2023
75 Clouds 4 1023 87 7000 3.09 330 20:39 26.01.2023
76 Clouds 4 1023 87 7000 2.57 330 19:54 26.01.2023
77 Clouds 4 1022 75 10000 4.63 30 17:55 26.01.2023
78 Clouds 3 1022 75 10000 5.14 40 16:29 26.01.2023
79 Clouds 3 1022 75 10000 6.17 30 15:58 26.01.2023
80 Clouds 3 1022 75 10000 4.12 30 15:38 26.01.2023
81 Clouds 3 1022 75 10000 4.12 30 15:20 26.01.2023
82 Clouds 1 1024 86 10000 4.12 10 13:32 26.01.2023
83 Clouds 2 1024 80 10000 3.09 20 12:24 26.01.2023
84 Clouds 2 1023 80 10000 2.57 30 10:33 26.01.2023
85 Clouds 2 1023 80 10000 1.54 50 09:44 26.01.2023
86 Clouds 2 1023 87 10000 2.57 20 08:26 26.01.2023
87 Clouds 2 1024 93 9000 2.06 20 06:27 26.01.2023
88 Clouds 3 1028 93 7000 2.06 350 23:40 25.01.2023
89 Clouds 3 1029 93 7000 2.57 10 22:36 25.01.2023
90 Mist 3 1029 93 5000 3.09 340 21:25 25.01.2023
91 Mist 3 1030 93 4100 2.57 330 20:48 25.01.2023
92 Clouds 3 1030 87 9000 2.57 310 18:24 25.01.2023
93 Clouds 4 1030 81 10000 2.57 310 15:57 25.01.2023
94 Clouds 4 1031 81 10000 2.57 310 14:30 25.01.2023
95 Clouds 4 1033 87 8000 2.57 330 11:53 25.01.2023
96 Clouds 3 1033 93 6000 2.06 320 09:52 25.01.2023
97 Clouds 3 1033 93 6000 2.06 330 09:18 25.01.2023
98 Mist 2 1032 93 5000 1.03 260 06:18 25.01.2023
99 Clouds 3 1033 87 8000 2.06 330 00:27 25.01.2023
100 Clouds 4 1033 81 10000 2.06 360 21:55 24.01.2023
101 Clouds 4 1033 81 10000 2.06 360 21:26 24.01.2023
102 Clouds 4 1032 81 10000 3.09 360 19:28 24.01.2023
103 Clouds 5 1032 75 10000 3.09 360 18:29 24.01.2023
104 Clouds 5 1031 75 10000 3.09 20 17:18 24.01.2023
105 Clouds 5 1031 75 10000 3.09 20 16:47 24.01.2023
106 Clouds 4 1031 81 10000 3.09 40 13:57 24.01.2023
107 Clouds 3 1032 81 10000 4.63 30 12:21 24.01.2023
108 Clouds 3 1030 81 10000 4.12 30 09:36 24.01.2023
109 Clouds 3 1030 81 10000 4.12 10 08:20 24.01.2023
110 Clouds 3 1029 81 10000 3.6 20 07:49 24.01.2023
111 Clouds 3 1029 75 10000 4.12 10 02:54 24.01.2023
112 Clouds 3 1029 75 10000 4.12 360 00:41 24.01.2023
113 Clouds 3 1030 75 10000 4.12 360 23:29 23.01.2023
114 Clouds 3 1030 70 10000 3.6 360 20:54 23.01.2023
115 Clouds 3 1029 70 10000 3.6 20 19:24 23.01.2023
116 Clouds 3 1029 75 10000 4.12 10 17:29 23.01.2023
117 Clouds 3 1029 75 10000 4.63 20 15:33 23.01.2023
118 Clouds 3 1029 75 10000 4.63 20 15:33 23.01.2023
119 Clouds 3 1030 75 10000 5.66 30 13:57 23.01.2023
120 Clouds 2 1030 80 10000 3.6 30 12:58 23.01.2023
121 Clouds 2 1030 80 10000 3.09 20 12:34 23.01.2023
122 Clouds 2 1031 80 10000 3.6 360 11:29 23.01.2023
123 Clouds 1 1031 80 10000 2.06 350 08:25 23.01.2023
124 Clouds 1 1031 80 10000 2.06 350 08:25 23.01.2023
125 Clouds 0 1031 86 9000 2.57 350 02:23 23.01.2023
126 Clear 0 1032 80 10000 3.09 350 22:49 22.01.2023
127 Clear 0 1032 80 10000 3.09 20 21:19 22.01.2023
128 Clouds 0 1032 80 8000 2.06 10 20:24 22.01.2023
129 Clouds 0 1032 80 8000 2.57 20 19:45 22.01.2023
130 Clouds 0 1031 80 8000 3.09 10 18:49 22.01.2023
131 Clear 1 1031 75 10000 2.06 20 17:56 22.01.2023
132 Clear 1 1031 75 10000 2.57 20 17:25 22.01.2023
133 Clouds 1 1031 75 10000 3.6 10 15:34 22.01.2023
134 Clouds 1 1031 80 10000 3.09 350 14:47 22.01.2023
135 Clouds 0 1032 86 8000 2.06 330 13:39 22.01.2023
136 Clouds 0 1032 86 7000 2.57 30 12:34 22.01.2023
137 Mist -1 1032 86 5000 3.09 40 11:35 22.01.2023
138 Mist -2 1031 93 5000 2.57 360 09:35 22.01.2023
139 Clear -1 1030 86 7000 2.06 310 06:40 22.01.2023
140 Clear -1 1030 86 10000 2.06 290 01:46 22.01.2023
141 Clear 0 1029 86 10000 3.09 10 23:31 21.01.2023
142 Clear 1 1028 80 10000 5.14 10 21:40 21.01.2023
143 Clear 2 1028 69 10000 5.14 20 19:46 21.01.2023
144 Clouds 5 1026 70 10000 6.17 360 17:22 21.01.2023
145 Clouds 6 1025 65 10000 4.63 350 14:34 21.01.2023
146 Clouds 5 1026 81 10000 4.63 10 12:57 21.01.2023
147 Clear 5 1026 81 10000 4.63 350 11:42 21.01.2023
148 Clear 3 1026 87 10000 3.09 330 10:56 21.01.2023
149 Clear -1 1025 100 10000 1.54 310 08:57 21.01.2023
150 Clouds -1 1025 93 6000 0.51 230 04:32 21.01.2023
151 Mist -1 1025 100 3200 0 0 22:29 20.01.2023
152 Mist 0 1025 93 4400 0 0 21:38 20.01.2023
153 Mist 0 1025 100 3300 0 0 20:56 20.01.2023
154 Clouds 2 1024 93 10000 0.51 0 19:31 20.01.2023
155 Clouds 8 1023 79 10000 0.71 1 16:39 20.01.2023
156 Clouds 3 1023 93 9000 1.54 210 14:46 20.01.2023
157 Clouds 3 1024 93 6000 1.54 210 13:51 20.01.2023
158 Mist 1 1023 100 4300 1.03 0 10:24 20.01.2023
159 Clouds 0 1022 100 6000 1.03 0 08:53 20.01.2023
160 Clear 0 1020 93 10000 1.03 320 05:54 20.01.2023
161 Clear 2 1017 93 10000 3.6 330 02:30 20.01.2023
162 Clear 2 1017 93 10000 3.6 330 02:30 20.01.2023
163 Clouds 3 1009 93 10000 6.17 20 22:33 19.01.2023
164 Clouds 2 1002 100 10000 7.2 60 20:32 19.01.2023
165 Clouds 6 999 93 10000 4.63 60 19:28 19.01.2023
166 Snow 5 1002 100 5000 6.17 140 16:29 19.01.2023
167 Rain 5 1010 93 10000 5.14 180 13:29 19.01.2023
168 Clouds 2 1014 100 10000 3.09 210 09:36 19.01.2023
169 Clouds 2 1012 93 10000 2.57 270 00:45 19.01.2023
170 Snow 0 1012 100 6000 1.03 0 22:24 18.01.2023
171 Fog 0 1010 100 500 0 0 20:20 18.01.2023
172 Fog 1 1009 93 700 0.51 0 19:37 18.01.2023
173 Clouds 1 1008 100 10000 1.54 340 17:51 18.01.2023
174 Snow 1 1006 93 7000 1.54 160 15:48 18.01.2023
175 Snow 2 1006 87 2000 1.54 0 13:30 18.01.2023
176 Clear 6 1006 70 10000 1.03 130 11:28 18.01.2023
177 Clear 1 1005 86 10000 2.06 280 09:22 18.01.2023
178 Clouds 4 994 93 10000 0.51 290 02:29 18.01.2023
179 Clouds 5 993 87 10000 4.63 210 00:19 18.01.2023
180 Snow 5 991 81 5000 6.69 300 20:40 17.01.2023
181 Rain 6 991 87 10000 3.09 0 19:35 17.01.2023
182 Clouds 6 990 87 10000 2.06 300 18:36 17.01.2023
183 Clouds 6 990 87 10000 2.06 200 17:31 17.01.2023
184 Rain 7 990 81 10000 10.8 270 14:57 17.01.2023
185 Clouds 7 990 81 10000 6.17 270 14:24 17.01.2023
186 Rain 6 989 92 10000 7.69 290 13:27 17.01.2023
187 Rain 7 990 87 10000 4.63 260 11:44 17.01.2023
188 Rain 7 989 81 9000 4.12 280 09:35 17.01.2023
189 Clouds 7 988 87 10000 5.66 280 08:20 17.01.2023
190 Rain 7 987 93 10000 6.69 310 05:51 17.01.2023
191 Clouds 6 991 93 10000 3.09 190 00:57 17.01.2023
192 Rain 6 993 100 10000 3.6 180 23:40 16.01.2023
193 Rain 7 995 93 8000 4.12 190 21:59 16.01.2023
194 Rain 7 996 93 10000 4.12 170 20:49 16.01.2023
195 Rain 7 997 87 7000 4.63 210 19:42 16.01.2023
196 Rain 7 997 93 7000 1.54 300 18:55 16.01.2023
197 Rain 8 997 81 10000 2.06 270 18:21 16.01.2023
198 Clouds 8 998 87 10000 4.12 280 17:35 16.01.2023
199 Clouds 9 999 87 10000 5.66 250 15:49 16.01.2023
200 Rain 9 1000 81 10000 5.14 270 13:39 16.01.2023
201 Clouds 8 1001 76 10000 7.72 290 11:57 16.01.2023
202 Clouds 9 1000 76 10000 6.69 270 10:20 16.01.2023
203 Clouds 8 1011 87 10000 8.23 220 23:38 15.01.2023
204 Rain 8 1013 87 7000 7.2 250 22:27 15.01.2023
205 Clouds 8 1016 87 6000 4.63 220 20:41 15.01.2023
206 Clouds 9 1016 76 10000 4.63 230 19:59 15.01.2023
207 Clouds 11 1018 62 10000 6.17 260 17:55 15.01.2023
208 Clouds 12 1019 58 10000 6.69 260 16:18 15.01.2023
209 Clear 11 1021 76 10000 3.6 260 12:34 15.01.2023
210 Clouds 9 1021 81 10000 2.57 210 11:36 15.01.2023
211 Clouds 7 1020 87 10000 2.57 210 10:30 15.01.2023
212 Clouds 8 1020 87 10000 4.12 300 09:35 15.01.2023
213 Clouds 14 1013 77 10000 6.69 250 01:48 15.01.2023
214 Clear 14 1015 72 10000 4.12 240 22:57 14.01.2023
215 Clear 14 1014 72 10000 3.6 210 21:58 14.01.2023
216 Clear 14 1014 72 10000 4.12 190 21:36 14.01.2023
217 Clear 14 1014 72 10000 4.12 190 21:36 14.01.2023
218 Clear 14 1014 72 10000 4.12 190 21:18 14.01.2023
219 Clouds 14 1015 72 10000 4.63 180 20:39 14.01.2023
220 Clear 14 1016 77 10000 2.06 200 18:40 14.01.2023
221 Clear 15 1016 72 10000 4.12 230 16:59 14.01.2023
222 Clear 15 1017 72 10000 4.63 210 15:28 14.01.2023
223 Clear 15 1018 72 10000 4.12 220 14:25 14.01.2023
224 Clear 14 1019 77 10000 4.12 210 13:41 14.01.2023
225 Clear 10 1020 81 10000 3.09 190 11:39 14.01.2023
226 Clear 9 1020 81 10000 3.6 190 10:46 14.01.2023
227 Clear 9 1020 81 10000 3.6 190 10:46 14.01.2023
228 Clear 9 1020 81 10000 3.6 190 10:46 14.01.2023
229 Clear 8 1021 93 10000 4.12 180 08:19 14.01.2023
230 Clear 7 1027 93 10000 2.57 220 23:30 13.01.2023
231 Clear 8 1026 87 10000 2.06 220 22:45 13.01.2023
232 Clear 8 1027 93 10000 2.57 190 22:20 13.01.2023
233 Clear 8 1027 93 10000 2.57 200 21:34 13.01.2023
234 Clear 9 1027 87 10000 1.54 210 19:38 13.01.2023
235 Clouds 11 1027 82 10000 2.06 250 18:21 13.01.2023
236 Clouds 13 1026 76 10000 2.57 290 16:24 13.01.2023
237 Clouds 13 1026 82 10000 2.57 220 13:19 13.01.2023
238 Mist 12 1027 87 3600 4.63 320 12:20 13.01.2023
239 Clouds 11 1025 93 10000 2.57 260 10:26 13.01.2023
240 Clouds 11 1025 93 10000 3.09 240 09:45 13.01.2023
241 Clouds 11 1024 100 10000 4.12 270 08:52 13.01.2023
242 Clouds 11 1024 100 10000 4.63 240 08:21 13.01.2023
243 Clouds 11 1023 93 10000 3.09 240 06:52 13.01.2023
244 Clouds 11 1022 100 6000 7.72 240 04:43 13.01.2023
245 Rain 11 1023 87 10000 4.12 210 23:58 12.01.2023
246 Clouds 10 1023 87 10000 4.12 210 22:41 12.01.2023
247 Clouds 10 1024 87 10000 3.09 190 20:55 12.01.2023
248 Clouds 11 1024 82 10000 3.6 210 19:38 12.01.2023
249 Clouds 13 1024 76 10000 4.63 240 17:34 12.01.2023
250 Clouds 14 1024 72 10000 5.14 240 16:18 12.01.2023
251 Clouds 14 1025 72 10000 6.17 240 14:44 12.01.2023
252 Clouds 14 1025 72 10000 5.66 250 14:22 12.01.2023
253 Clouds 13 1026 82 10000 4.63 220 12:48 12.01.2023
254 Clouds 9 1027 100 10000 4.63 190 10:36 12.01.2023
255 Clouds 8 1027 93 10000 3.6 180 08:31 12.01.2023
256 Clouds 8 1028 93 10000 3.09 210 03:58 12.01.2023
257 Clear 8 1029 93 10000 3.09 210 23:59 11.01.2023
258 Clear 9 1029 87 10000 3.6 210 23:40 11.01.2023
259 Clear 9 1029 87 10000 3.6 210 23:21 11.01.2023
260 Clouds 9 1029 87 10000 3.09 210 21:45 11.01.2023
261 Clouds 10 1029 87 10000 4.12 250 19:59 11.01.2023
262 Clouds 11 1028 76 10000 2.57 240 18:35 11.01.2023
263 Clouds 14 1027 62 10000 5.66 290 16:49 11.01.2023
264 Clouds 14 1027 72 10000 5.66 270 14:57 11.01.2023
265 Clouds 13 1026 82 10000 4.63 280 12:50 11.01.2023
266 Clouds 12 1026 87 10000 3.09 260 11:54 11.01.2023
267 Clouds 12 1024 94 10000 2.57 280 10:20 11.01.2023
268 Clouds 11 1022 93 10000 2.06 220 07:59 11.01.2023
269 Clouds 11 1022 93 10000 3.6 220 07:22 11.01.2023
270 Clouds 11 1022 93 10000 3.6 220 07:22 11.01.2023
271 Clear 12 1022 71 10000 5.14 180 00:42 11.01.2023
272 Clouds 12 1023 76 10000 3.6 180 22:46 10.01.2023
273 Clouds 12 1023 76 10000 3.09 170 21:33 10.01.2023
274 Clouds 12 1023 76 10000 3.6 180 20:39 10.01.2023
275 Clouds 13 1024 76 10000 3.6 190 19:38 10.01.2023
276 Clouds 13 1024 71 10000 3.09 190 18:47 10.01.2023
277 Clouds 14 1024 72 10000 2.57 220 17:58 10.01.2023
278 Clouds 15 1024 63 10000 5.14 220 16:39 10.01.2023
279 Clouds 14 1024 72 10000 3.6 220 15:31 10.01.2023
280 Clouds 14 1025 77 10000 4.12 210 14:31 10.01.2023
281 Clouds 11 1026 93 10000 3.6 190 12:22 10.01.2023
282 Clouds 9 1026 100 10000 3.09 200 09:21 10.01.2023
283 Clouds 9 1026 93 10000 1.54 150 08:29 10.01.2023
284 Clear 9 1025 87 10000 1.54 210 07:26 10.01.2023
285 Clouds 9 1026 87 10000 2.06 200 04:54 10.01.2023
286 Clear 8 1026 87 10000 2.57 200 23:28 09.01.2023
287 Clouds 8 1025 87 10000 1.54 290 21:51 09.01.2023
288 Clouds 9 1025 87 10000 3.09 260 20:44 09.01.2023
289 Clouds 9 1024 87 10000 3.09 280 19:21 09.01.2023
290 Clouds 10 1022 76 10000 5.14 290 17:54 09.01.2023
291 Clouds 11 1021 66 10000 5.66 280 17:19 09.01.2023
292 Clouds 11 1020 71 10000 7.2 290 16:32 09.01.2023
293 Clouds 12 1019 66 10000 5.14 300 15:26 09.01.2023
294 Rain 11 1019 76 10000 6.69 300 14:43 09.01.2023
295 Clouds 11 1018 71 10000 6.69 280 12:56 09.01.2023
296 Clouds 10 1018 81 10000 5.66 260 12:35 09.01.2023
297 Rain 8 1017 87 10000 4.63 270 11:21 09.01.2023
298 Clouds 7 1014 93 10000 3.6 240 08:42 09.01.2023
299 Clouds 8 1013 87 10000 5.14 260 06:37 09.01.2023
300 Clouds 8 1011 87 10000 3.6 220 02:53 09.01.2023
301 Clouds 10 1009 76 10000 5.14 260 22:53 08.01.2023
302 Clouds 10 1007 93 10000 4.12 230 21:23 08.01.2023
303 Clouds 10 1007 93 10000 4.63 240 20:57 08.01.2023
304 Clouds 12 1005 82 10000 7.72 240 19:44 08.01.2023
305 Clouds 13 1005 82 10000 8.23 240 17:41 08.01.2023
306 Clouds 13 1004 88 10000 6.17 240 17:19 08.01.2023
307 Rain 12 1004 94 3200 4.12 230 15:39 08.01.2023
308 Clouds 11 1005 93 10000 4.12 170 14:20 08.01.2023
309 Clouds 10 1006 100 10000 4.12 160 13:32 08.01.2023
310 Rain 10 1007 100 10000 4.63 150 12:59 08.01.2023
311 Rain 10 1008 93 10000 3.6 160 11:37 08.01.2023
312 Clouds 10 1009 93 10000 4.12 170 09:37 08.01.2023
313 Rain 10 1010 93 10000 3.6 190 08:31 08.01.2023
314 Clouds 10 1011 93 8000 5.14 180 04:26 08.01.2023
315 Rain 10 1013 100 10000 3.6 200 23:23 07.01.2023
316 Rain 11 1013 93 8000 4.12 190 22:39 07.01.2023
317 Rain 11 1013 93 7000 4.12 200 21:59 07.01.2023
318 Rain 11 1013 93 10000 3.09 220 20:59 07.01.2023
319 Rain 11 1013 93 7000 4.12 230 20:25 07.01.2023
320 Rain 11 1012 82 10000 4.12 170 19:23 07.01.2023
321 Clouds 12 1012 76 10000 4.63 170 18:18 07.01.2023
322 Rain 13 1012 71 10000 3.6 170 17:40 07.01.2023
323 Clouds 13 1012 67 10000 3.6 190 16:41 07.01.2023
324 Clouds 13 1013 67 10000 4.12 190 15:52 07.01.2023
325 Clear 12 1012 71 10000 5.14 170 15:31 07.01.2023
326 Clear 11 1013 76 10000 5.14 170 14:50 07.01.2023
327 Rain 10 1013 76 10000 4.63 170 13:58 07.01.2023
328 Rain 10 1014 76 10000 4.12 180 13:40 07.01.2023
329 Rain 10 1014 71 10000 5.66 180 12:44 07.01.2023
330 Rain 9 1015 71 10000 4.63 180 11:59 07.01.2023
331 Clear 7 1015 76 10000 5.14 170 10:27 07.01.2023
332 Clear 5 1016 93 10000 3.6 170 08:48 07.01.2023
333 Clear 6 1016 87 10000 4.12 160 07:47 07.01.2023
334 Clear 6 1016 87 10000 4.12 160 07:20 07.01.2023
335 Clear 6 1016 93 10000 3.6 150 04:59 07.01.2023
336 Clear 8 1020 81 10000 2.57 140 22:57 06.01.2023
337 Clear 8 1021 81 10000 2.57 130 22:20 06.01.2023
338 Clear 9 1021 81 10000 2.57 140 21:44 06.01.2023
339 Clear 9 1022 81 10000 2.57 120 19:59 06.01.2023
340 Clouds 10 1022 76 10000 2.06 120 19:41 06.01.2023
341 Clouds 10 1022 76 10000 2.06 120 19:23 06.01.2023
342 Clouds 11 1022 71 10000 2.06 120 18:50 06.01.2023
343 Clouds 13 1023 62 10000 2.57 130 17:31 06.01.2023
344 Clear 14 1023 54 10000 3.09 120 16:50 06.01.2023
345 Clouds 15 1023 55 10000 3.6 130 16:20 06.01.2023
346 Clouds 14 1023 58 10000 2.57 130 15:50 06.01.2023
347 Clouds 14 1024 54 10000 2.57 140 14:55 06.01.2023
348 Clear 14 1025 62 10000 2.57 170 12:50 06.01.2023
349 Clouds 10 1026 87 10000 0 0 10:59 06.01.2023
350 Clouds 9 1026 93 10000 1.54 140 09:32 06.01.2023
351 Clouds 9 1025 93 10000 1.03 0 07:57 06.01.2023
352 Clouds 11 1026 93 7000 2.06 120 01:52 06.01.2023
353 Clouds 12 1026 87 10000 1.03 0 22:55 05.01.2023
354 Clouds 12 1026 87 10000 1.03 0 22:55 05.01.2023
355 Clouds 12 1027 87 10000 1.54 140 21:54 05.01.2023
356 Clouds 12 1027 87 10000 1.54 120 19:46 05.01.2023
357 Clouds 13 1027 82 10000 1.03 0 17:28 05.01.2023
358 Clouds 13 1028 82 10000 2.06 20 16:28 05.01.2023
359 Clouds 13 1028 82 10000 2.57 350 15:47 05.01.2023
360 Clouds 15 1028 82 10000 0 0 14:51 05.01.2023
361 Clouds 13 1030 88 10000 1.54 0 12:44 05.01.2023
362 Clouds 12 1031 94 10000 2.06 190 11:54 05.01.2023
363 Clouds 10 1030 93 10000 1.03 170 09:55 05.01.2023
364 Clouds 11 1031 93 10000 1.54 180 08:31 05.01.2023
365 Clouds 11 1031 100 10000 1.03 150 07:20 05.01.2023
366 Clouds 12 1031 94 10000 2.06 200 05:20 05.01.2023
367 Clouds 12 1033 94 10000 2.57 210 23:26 04.01.2023
368 Clouds 12 1033 87 10000 2.57 210 21:33 04.01.2023
369 Clouds 12 1033 87 10000 2.06 210 20:55 04.01.2023
370 Clouds 12 1033 87 10000 2.57 210 19:57 04.01.2023
371 Clouds 12 1033 87 10000 2.06 210 19:33 04.01.2023
372 Clouds 13 1033 82 10000 1.54 200 18:37 04.01.2023
373 Clouds 14 1033 77 10000 4.12 230 16:32 04.01.2023
374 Clouds 14 1033 77 10000 4.12 230 16:32 04.01.2023
375 Clouds 14 1033 77 10000 5.14 230 15:48 04.01.2023
376 Clouds 13 1033 82 10000 3.6 210 14:22 04.01.2023
377 Clouds 9 1034 93 10000 3.09 190 11:41 04.01.2023
378 Clouds 9 1034 93 10000 3.09 190 11:20 04.01.2023
379 Clouds 7 1034 100 8000 3.09 170 10:42 04.01.2023
380 Clouds 7 1034 100 8000 3.09 170 10:21 04.01.2023
381 Clouds 5 1033 100 10000 1.54 150 07:40 04.01.2023
382 Clouds 4 1033 100 6000 1.03 130 02:53 04.01.2023
383 Mist 5 1033 100 2700 2.06 130 00:31 04.01.2023
384 Fog 6 1033 93 3000 1.54 130 23:34 03.01.2023
385 Mist 6 1033 93 5000 2.06 130 22:41 03.01.2023
386 Clouds 6 1032 100 8000 1.54 130 20:52 03.01.2023
387 Clouds 8 1032 87 10000 1.03 210 19:21 03.01.2023
388 Clouds 14 1031 62 10000 1.54 240 16:55 03.01.2023
389 Clouds 14 1031 62 10000 1.54 210 15:51 03.01.2023
390 Clouds 14 1031 67 10000 2.06 220 13:53 03.01.2023
391 Clouds 13 1032 76 10000 2.06 220 13:29 03.01.2023
392 Clear 13 1032 76 10000 2.06 210 12:57 03.01.2023
393 Clear 12 1032 82 10000 2.06 180 12:29 03.01.2023
394 Clear 6 1032 100 10000 1.54 0 10:30 03.01.2023
395 Fog 4 1030 100 900 0 0 06:21 03.01.2023
396 Fog 5 1030 100 1100 1.03 220 03:57 03.01.2023
397 Fog 6 1029 93 1000 1.03 210 03:39 03.01.2023
398 Clouds 7 1029 100 6000 0.51 0 00:36 03.01.2023
399 Clouds 9 1029 93 10000 2.57 200 22:41 02.01.2023
400 Clear 9 1029 93 10000 2.57 190 21:55 02.01.2023
401 Clear 9 1028 93 10000 2.06 210 20:39 02.01.2023
402 Clear 9 1028 93 10000 2.06 210 19:28 02.01.2023
403 Clouds 13 1026 76 10000 1.54 270 16:56 02.01.2023
404 Clouds 13 1026 71 10000 2.06 260 14:46 02.01.2023
405 Clouds 13 1026 82 10000 3.6 210 12:57 02.01.2023
406 Clear 11 1026 93 10000 3.09 210 11:40 02.01.2023
407 Clear 10 1024 93 10000 2.06 190 09:48 02.01.2023
408 Rain 11 1020 93 6000 7.2 290 07:32 02.01.2023
409 Clear 13 1016 71 10000 1.54 0 00:40 02.01.2023
410 Clear 15 1015 72 10000 5.14 150 21:55 01.01.2023
411 Clear 14 1015 77 10000 4.63 140 21:22 01.01.2023
412 Clear 15 1015 72 10000 5.14 140 20:45 01.01.2023
413 Clear 16 1014 67 10000 6.69 150 19:42 01.01.2023
414 Clear 17 1014 63 10000 5.66 140 17:53 01.01.2023
415 Clear 19 1014 52 10000 7.2 160 17:20 01.01.2023
416 Clear 20 1014 49 10000 6.69 160 16:31 01.01.2023
417 Clear 17 1015 59 10000 6.69 140 14:47 01.01.2023
418 Clear 17 1016 59 10000 6.69 150 13:29 01.01.2023
419 Clear 14 1017 72 10000 6.17 130 12:32 01.01.2023
420 Clear 13 1017 76 10000 6.17 140 11:36 01.01.2023
421 Clear 11 1018 87 10000 4.63 130 09:53 01.01.2023
422 Clear 11 1018 82 10000 5.14 130 08:46 01.01.2023
423 Clear 11 1018 76 10000 4.63 130 08:18 01.01.2023
424 Clear 10 1019 76 10000 2.57 100 06:51 01.01.2023
425 Clear 12 1019 76 10000 3.6 160 00:33 01.01.2023
426 Clear 13 1018 71 10000 4.63 160 23:40 31.12.2022
427 Clear 14 1018 67 10000 5.66 160 22:30 31.12.2022
428 Clear 14 1018 67 10000 4.12 140 21:25 31.12.2022
429 Clear 15 1018 55 10000 5.14 150 20:34 31.12.2022
430 Clear 17 1017 39 10000 4.63 170 18:59 31.12.2022
431 Clear 17 1017 39 10000 6.17 180 18:39 31.12.2022
432 Clear 18 1017 34 10000 3.6 180 17:58 31.12.2022
433 Clear 19 1017 32 10000 5.14 190 17:34 31.12.2022
434 Clear 20 1017 32 10000 4.12 190 16:32 31.12.2022
435 Clear 20 1017 37 10000 5.66 200 15:43 31.12.2022
436 Clear 19 1017 45 10000 5.14 200 14:35 31.12.2022
437 Clear 17 1017 59 10000 4.12 190 13:28 31.12.2022
438 Clear 13 1018 82 10000 3.6 170 12:25 31.12.2022
439 Clear 12 1018 82 10000 1.54 0 11:57 31.12.2022
440 Clear 12 1018 82 10000 3.6 150 11:38 31.12.2022
441 Clear 12 1018 82 10000 3.6 150 11:38 31.12.2022
442 Clear 11 1018 87 10000 3.6 160 10:20 31.12.2022
443 Clear 11 1017 87 10000 4.12 160 09:50 31.12.2022
444 Clear 11 1017 87 10000 4.63 140 08:39 31.12.2022
445 Clear 12 1017 87 10000 4.12 150 05:40 31.12.2022
446 Clear 14 1017 82 10000 2.57 180 00:34 31.12.2022
447 Clear 15 1016 77 10000 3.6 190 23:24 30.12.2022
448 Clear 14 1016 88 10000 3.6 170 22:19 30.12.2022
449 Clear 14 1016 88 10000 2.06 150 21:38 30.12.2022
450 Clear 14 1016 88 10000 2.06 140 21:19 30.12.2022
451 Clear 16 1015 82 10000 3.09 220 18:29 30.12.2022
452 Clear 17 1015 77 10000 3.6 200 17:35 30.12.2022
453 Clear 17 1014 77 10000 4.12 210 16:49 30.12.2022
454 Clear 17 1014 77 10000 4.12 210 14:55 30.12.2022
455 Clear 14 1014 88 10000 3.6 190 12:56 30.12.2022
456 Rain 11 1012 93 10000 5.14 180 08:24 30.12.2022
457 Clouds 10 1014 93 10000 4.12 160 03:58 30.12.2022
458 Clouds 10 1015 93 10000 5.14 170 02:27 30.12.2022
459 Drizzle 11 1016 93 10000 4.63 160 23:46 29.12.2022
460 Clouds 11 1017 93 10000 4.12 180 21:56 29.12.2022
461 Rain 10 1017 100 10000 3.09 180 21:25 29.12.2022
462 Rain 10 1018 93 4000 3.09 220 20:46 29.12.2022
463 Rain 11 1018 93 5000 4.12 220 19:21 29.12.2022
464 Clouds 11 1017 100 10000 3.09 220 17:53 29.12.2022
465 Clouds 12 1017 94 10000 3.6 210 17:25 29.12.2022
466 Rain 12 1016 94 10000 3.09 220 16:54 29.12.2022
467 Rain 12 1016 94 9000 3.09 240 15:49 29.12.2022
468 Clouds 13 1016 94 10000 3.6 250 13:41 29.12.2022
469 Rain 12 1017 100 7000 2.57 240 11:52 29.12.2022
470 Clouds 12 1016 100 7000 3.09 200 09:47 29.12.2022
471 Clouds 12 1016 82 10000 3.6 210 03:35 29.12.2022
472 Clear 14 1016 67 10000 5.14 200 23:29 28.12.2022
473 Clear 13 1017 71 10000 3.6 190 21:57 28.12.2022
474 Clear 13 1017 71 10000 3.09 180 21:19 28.12.2022
475 Clear 13 1017 71 10000 1.54 200 19:54 28.12.2022
476 Clear 13 1018 71 10000 2.06 210 18:25 28.12.2022
477 Clear 16 1017 59 10000 4.12 210 16:21 28.12.2022
478 Clouds 17 1019 63 10000 7.2 240 13:55 28.12.2022
479 Clear 14 1020 77 10000 3.6 200 12:48 28.12.2022
480 Clear 11 1021 87 10000 3.6 170 11:33 28.12.2022
481 Fog 8 1021 100 900 2.57 140 09:30 28.12.2022
482 Fog 8 1022 100 650 2.06 130 07:31 28.12.2022
483 Fog 8 1023 100 750 1.54 120 06:44 28.12.2022
484 Fog 8 1026 93 550 0 0 00:46 28.12.2022
485 Clouds 9 1027 100 10000 1.54 210 21:18 27.12.2022
486 Fog 9 1028 100 2000 0 0 19:50 27.12.2022
487 Clouds 11 1028 93 10000 0 0 18:21 27.12.2022
488 Clouds 14 1028 82 10000 1.54 110 16:58 27.12.2022
489 Clouds 14 1028 82 10000 2.06 120 15:53 27.12.2022
490 Clouds 13 1029 94 10000 0.51 0 13:57 27.12.2022
491 Mist 10 1030 100 5000 1.54 160 11:42 27.12.2022
492 Fog 8 1030 100 450 1.03 150 09:47 27.12.2022
493 Fog 8 1030 100 450 1.03 150 09:23 27.12.2022
494 Mist 8 1030 100 4800 1.54 110 08:41 27.12.2022
495 Fog 6 1030 100 650 1.03 110 04:32 27.12.2022
496 Fog 9 1030 100 800 0 0 22:48 26.12.2022
497 Fog 10 1029 100 400 0.51 240 21:32 26.12.2022
498 Fog 11 1029 93 400 1.03 0 20:42 26.12.2022
499 Clouds 12 1028 94 10000 2.57 240 18:50 26.12.2022
500 Rain 13 1028 94 10000 2.06 240 17:52 26.12.2022
501 Clouds 14 1026 82 10000 4.63 240 16:22 26.12.2022
502 Clouds 14 1026 88 10000 4.12 260 14:34 26.12.2022
503 Clouds 14 1026 82 10000 4.12 240 12:51 26.12.2022
504 Clear 9 1023 100 10000 1.03 170 08:27 26.12.2022
505 Clear 12 1018 82 10000 3.09 160 23:59 25.12.2022
506 Clear 13 1018 76 10000 3.09 160 23:38 25.12.2022
507 Clear 13 1017 76 10000 3.6 160 22:38 25.12.2022
508 Clear 13 1017 76 10000 2.57 160 21:49 25.12.2022
509 Clear 15 1016 72 10000 2.57 150 18:50 25.12.2022
510 Clear 16 1015 67 10000 2.06 160 17:52 25.12.2022
511 Clear 17 1015 63 10000 2.06 190 17:34 25.12.2022
512 Clear 16 1014 67 10000 3.09 170 15:23 25.12.2022
513 Clear 16 1014 63 10000 5.66 200 12:42 25.12.2022
514 Clear 9 1012 93 10000 3.6 150 08:44 25.12.2022
515 Clear 11 1015 87 10000 3.09 160 23:51 24.12.2022
516 Clear 12 1016 82 10000 3.09 170 21:50 24.12.2022
517 Clear 15 1016 67 10000 3.09 190 18:32 24.12.2022
518 Clear 18 1016 55 10000 2.57 210 16:45 24.12.2022
519 Clear 18 1016 59 10000 4.63 220 14:53 24.12.2022
520 Clear 14 1017 82 10000 4.12 170 12:43 24.12.2022
521 Clouds 12 1017 94 10000 3.09 150 10:45 24.12.2022
522 Fog 12 1017 94 1300 3.09 140 10:20 24.12.2022
523 Clouds 12 1017 94 10000 2.06 140 09:36 24.12.2022
524 Clouds 12 1019 100 10000 1.03 140 05:48 24.12.2022
525 Clear 13 1019 94 10000 2.06 210 02:24 24.12.2022
526 Clear 14 1019 88 10000 3.09 270 23:37 23.12.2022
527 Clouds 14 1019 88 10000 2.57 270 22:27 23.12.2022
528 Drizzle 15 1019 88 10000 3.09 260 20:40 23.12.2022
529 Clear 15 1018 82 10000 3.6 230 19:39 23.12.2022
530 Clear 15 1018 82 10000 3.6 230 19:21 23.12.2022
531 Clear 16 1017 77 10000 2.06 250 18:39 23.12.2022
532 Clear 16 1017 77 10000 2.06 250 18:19 23.12.2022
533 Clouds 17 1017 72 10000 3.09 240 16:33 23.12.2022
534 Clear 17 1017 77 10000 4.12 210 14:51 23.12.2022
535 Clear 15 1018 88 10000 5.66 180 11:42 23.12.2022
536 Clouds 15 1018 88 10000 3.6 210 09:37 23.12.2022
537 Clouds 15 1018 88 10000 3.09 220 07:52 23.12.2022
538 Clouds 16 1018 82 10000 3.6 230 06:51 23.12.2022
539 Clouds 15 1018 88 10000 3.6 220 05:27 23.12.2022
540 Clouds 16 1019 82 10000 4.63 240 23:21 22.12.2022
541 Clouds 16 1019 88 10000 6.69 260 22:34 22.12.2022
542 Clouds 16 1019 88 10000 9.26 260 20:26 22.12.2022
543 Clouds 16 1019 88 10000 8.23 250 19:23 22.12.2022
544 Clouds 15 1018 88 10000 7.2 240 18:38 22.12.2022
545 Rain 14 1018 94 3100 6.69 230 16:59 22.12.2022
546 Rain 14 1018 94 10000 3.6 200 16:37 22.12.2022
547 Rain 14 1019 94 8000 3.6 210 15:33 22.12.2022
548 Rain 15 1019 82 10000 3.09 200 14:45 22.12.2022
549 Clouds 16 1020 77 10000 4.63 210 13:32 22.12.2022
550 Clouds 15 1020 82 10000 3.6 210 12:40 22.12.2022
551 Clouds 15 1020 82 10000 3.6 200 10:32 22.12.2022
552 Clouds 15 1020 82 10000 3.09 200 09:59 22.12.2022
553 Clouds 15 1020 82 10000 4.63 240 09:19 22.12.2022
554 Clouds 15 1020 82 10000 5.14 240 07:54 22.12.2022
555 Clouds 14 1020 88 10000 5.66 250 04:19 22.12.2022
556 Clouds 15 1019 82 10000 7.72 250 00:51 22.12.2022
557 Clouds 14 1019 88 10000 4.63 230 22:42 21.12.2022
558 Clouds 13 1019 94 10000 4.12 220 21:53 21.12.2022
559 Clouds 13 1018 94 10000 3.6 210 21:21 21.12.2022
560 Clouds 13 1018 94 10000 4.12 220 20:45 21.12.2022
561 Rain 13 1019 88 10000 3.09 250 19:58 21.12.2022
562 Clouds 13 1018 88 10000 1.03 0 19:39 21.12.2022
563 Clouds 13 1018 88 10000 3.09 220 19:21 21.12.2022
564 Clouds 14 1018 82 9000 6.69 240 18:43 21.12.2022
565 Rain 16 1017 67 10000 4.12 220 17:35 21.12.2022
566 Clear 17 1017 63 10000 5.66 220 14:24 21.12.2022
567 Clear 14 1018 82 10000 3.6 190 12:33 21.12.2022
568 Clear 12 1019 94 10000 4.12 190 11:41 21.12.2022
569 Clear 12 1019 94 10000 4.12 190 11:19 21.12.2022
570 Clear 10 1018 100 10000 3.09 180 08:51 21.12.2022
571 Clouds 10 1018 93 10000 3.09 180 06:55 21.12.2022
572 Clouds 12 1017 100 10000 4.12 210 00:32 21.12.2022
573 Clouds 12 1016 94 10000 3.6 190 22:38 20.12.2022
574 Rain 12 1016 94 10000 4.12 180 20:58 20.12.2022
575 Clouds 13 1015 82 10000 4.63 160 19:59 20.12.2022
576 Rain 14 1015 77 10000 4.12 180 18:49 20.12.2022
577 Clouds 14 1015 77 10000 4.12 170 18:25 20.12.2022
578 Clouds 14 1015 77 10000 4.12 170 17:51 20.12.2022
579 Clear 14 1015 77 10000 4.63 170 17:25 20.12.2022
580 Clear 15 1014 72 10000 4.63 170 16:19 20.12.2022
581 Clear 15 1014 72 10000 5.14 170 14:56 20.12.2022
582 Clear 14 1014 72 10000 5.66 180 14:36 20.12.2022
583 Clear 14 1015 72 10000 5.14 180 13:49 20.12.2022
584 Clouds 13 1015 76 10000 5.14 170 12:37 20.12.2022
585 Clear 13 1015 76 10000 5.14 160 11:55 20.12.2022
586 Clear 12 1015 82 10000 3.09 140 10:29 20.12.2022
587 Clear 13 1015 76 10000 4.63 150 07:31 20.12.2022
588 Clear 13 1018 76 10000 5.14 150 00:20 20.12.2022
589 Clear 13 1018 76 10000 4.63 140 22:29 19.12.2022
590 Clear 14 1018 77 10000 5.14 140 21:30 19.12.2022
591 Clear 14 1019 77 10000 5.14 150 19:42 19.12.2022
592 Clear 14 1019 77 10000 4.63 150 18:59 19.12.2022
593 Clear 14 1019 77 10000 4.12 140 17:58 19.12.2022
594 Clear 15 1020 67 10000 3.09 130 16:20 19.12.2022
595 Clear 15 1020 63 10000 5.14 160 13:20 19.12.2022
596 Clear 12 1021 82 10000 3.6 160 11:46 19.12.2022
597 Clear 11 1019 82 10000 4.63 150 08:23 19.12.2022
598 Clear 11 1019 82 10000 6.17 140 06:58 19.12.2022
599 Clear 10 1021 87 10000 5.66 140 00:50 19.12.2022
600 Clear 10 1021 81 10000 6.17 150 21:49 18.12.2022
601 Clear 10 1021 81 10000 5.66 150 21:31 18.12.2022
602 Clear 10 1021 81 10000 5.66 150 20:54 18.12.2022
603 Clear 10 1021 76 10000 6.69 140 19:44 18.12.2022
604 Clear 11 1020 76 10000 6.69 140 18:59 18.12.2022
605 Clear 11 1021 76 10000 5.14 130 17:52 18.12.2022
606 Clear 13 1020 67 10000 4.63 130 15:43 18.12.2022
607 Clear 13 1020 67 10000 4.63 130 15:24 18.12.2022
608 Clear 13 1021 62 10000 5.14 130 14:58 18.12.2022
609 Clear 11 1021 71 10000 5.14 140 13:29 18.12.2022
610 Clear 10 1021 76 10000 4.63 140 12:50 18.12.2022
611 Clear 8 1022 81 10000 4.63 140 11:51 18.12.2022
612 Mist 4 1022 100 3300 3.6 120 09:36 18.12.2022
613 Mist 3 1021 100 2800 4.12 120 08:46 18.12.2022
614 Mist 2 1021 100 1700 3.09 130 06:51 18.12.2022
615 Mist 2 1021 100 3900 3.6 130 06:18 18.12.2022
616 Clouds 3 1021 93 8000 2.57 130 01:53 18.12.2022
617 Mist 2 1021 100 5000 2.57 110 22:58 17.12.2022
618 Clear 2 1020 93 7000 2.06 110 20:57 17.12.2022
619 Clear 5 1019 75 10000 2.06 70 17:52 17.12.2022
620 Clear 7 1018 61 10000 3.6 110 15:32 17.12.2022
621 Clear 4 1019 65 10000 2.06 70 13:20 17.12.2022
622 Clear 0 1020 69 10000 1.54 40 11:19 17.12.2022
623 Clear -1 1019 74 10000 3.09 40 10:40 17.12.2022
624 Clear -3 1018 86 10000 2.06 50 08:37 17.12.2022
625 Clear -3 1018 86 10000 2.06 40 07:22 17.12.2022
626 Clear -3 1018 86 10000 2.06 50 06:44 17.12.2022
627 Clear 0 1017 74 10000 3.09 10 22:55 16.12.2022
628 Clear 2 1015 64 10000 3.6 20 20:29 16.12.2022
629 Clear 4 1013 65 10000 3.09 20 18:33 16.12.2022
630 Clear 7 1011 65 10000 5.14 20 15:32 16.12.2022
631 Clear 6 1010 65 10000 5.66 20 14:42 16.12.2022
632 Clear 5 1010 70 10000 6.17 20 12:49 16.12.2022
633 Clear 4 1010 75 10000 6.17 40 11:56 16.12.2022
634 Clear 2 1007 87 10000 6.17 20 09:40 16.12.2022
635 Clouds 2 1007 87 10000 5.66 30 08:49 16.12.2022
636 Clouds 3 1006 93 10000 6.17 30 07:54 16.12.2022
637 Clouds 4 1005 87 9000 6.17 30 06:45 16.12.2022
638 Clouds 6 1001 93 10000 5.66 40 22:46 15.12.2022
639 Drizzle 7 1000 93 6000 4.63 50 21:36 15.12.2022
640 Clouds 7 999 93 10000 6.69 40 19:49 15.12.2022
641 Clouds 9 999 87 10000 5.14 30 18:54 15.12.2022
642 Clouds 11 998 93 10000 3.09 20 17:28 15.12.2022
643 Clouds 12 997 87 10000 0 0 15:47 15.12.2022
644 Clouds 12 997 87 10000 2.57 40 14:57 15.12.2022
645 Clouds 11 997 93 10000 3.09 80 12:54 15.12.2022
646 Clouds 11 997 93 10000 2.57 70 12:24 15.12.2022
647 Clouds 10 997 100 10000 3.09 90 08:59 15.12.2022
648 Clouds 10 996 100 10000 4.12 90 08:21 15.12.2022
649 Rain 10 997 100 7000 4.12 90 05:43 15.12.2022
650 Clear 11 999 100 10000 4.12 130 22:59 14.12.2022
651 Clouds 11 1000 100 9000 3.09 120 21:24 14.12.2022
652 Clear 11 1000 93 10000 2.06 110 20:45 14.12.2022
653 Clear 11 1000 93 10000 2.06 100 19:51 14.12.2022
654 Clear 15 1001 77 10000 1.54 210 17:19 14.12.2022
655 Clear 16 1001 72 10000 2.06 210 16:53 14.12.2022
656 Clouds 17 1001 72 10000 4.12 250 14:55 14.12.2022
657 Clouds 16 1001 82 10000 5.14 240 13:19 14.12.2022
658 Clouds 13 1001 100 10000 3.6 210 10:55 14.12.2022
659 Clouds 13 1001 100 10000 3.09 210 10:23 14.12.2022
660 Clouds 12 1000 100 9000 3.09 210 07:44 14.12.2022
661 Fog 8 999 100 450 2.06 120 22:19 13.12.2022
662 Fog 8 998 93 550 2.57 100 21:37 13.12.2022
663 Fog 7 999 100 600 2.06 90 20:47 13.12.2022
664 Fog 7 999 100 1000 2.57 100 19:21 13.12.2022
665 Fog 6 1000 100 650 3.09 100 16:36 13.12.2022
666 Fog 6 1000 100 550 3.09 120 14:59 13.12.2022
667 Fog 5 1001 100 800 2.57 90 13:33 13.12.2022
668 Mist 4 1002 100 3300 1.03 0 10:42 13.12.2022
669 Clouds 4 1002 100 10000 1.03 0 09:48 13.12.2022
670 Mist 4 1002 100 5000 0.51 0 08:18 13.12.2022
671 Rain 4 996 93 6000 3.09 100 22:37 12.12.2022
672 Clouds 4 996 93 10000 3.6 100 21:58 12.12.2022
673 Clouds 3 997 93 10000 5.66 90 19:46 12.12.2022
674 Drizzle 2 999 93 3400 6.17 90 17:53 12.12.2022
675 Clouds 2 1001 87 7000 5.66 110 15:32 12.12.2022
676 Rain 2 1004 75 10000 5.14 110 13:37 12.12.2022
677 Clear 0 1008 86 10000 2.06 120 09:20 12.12.2022
678 Clear -1 1008 93 10000 2.57 120 08:56 12.12.2022
679 Clouds -3 1010 93 6000 0.51 0 04:34 12.12.2022
680 Clouds -2 1009 93 6000 0 0 01:50 12.12.2022
681 Clouds -2 1008 93 7000 1.03 100 22:18 11.12.2022
682 Clear 0 1007 86 10000 1.03 90 20:34 11.12.2022
683 Clear 2 1007 75 10000 2.57 20 19:38 11.12.2022
684 Clear 2 1007 75 10000 2.57 20 19:38 11.12.2022
685 Clear 2 1007 75 10000 2.57 60 18:31 11.12.2022
686 Clear 3 1007 70 10000 2.57 40 17:33 11.12.2022
687 Clear 4 1007 65 10000 2.57 50 16:53 11.12.2022
688 Clear 4 1006 65 10000 3.6 40 16:20 11.12.2022
689 Clear 5 1006 56 10000 3.09 50 15:43 11.12.2022
690 Clear 3 1007 65 10000 3.6 80 13:35 11.12.2022
691 Clear 2 1008 75 10000 3.09 100 12:41 11.12.2022
692 Clear -2 1008 93 10000 3.6 110 10:25 11.12.2022
693 Clouds -3 1013 100 6000 2.06 130 00:57 11.12.2022
694 Mist -2 1013 93 5000 2.06 120 00:22 11.12.2022
695 Mist -2 1014 93 4400 1.03 130 22:35 10.12.2022
696 Mist -2 1014 93 4500 0.51 130 21:52 10.12.2022
697 Mist -2 1014 93 4900 1.03 140 20:57 10.12.2022
698 Clear -2 1015 93 6000 1.03 140 20:19 10.12.2022
699 Clear 1 1014 86 10000 2.06 150 17:44 10.12.2022
700 Clouds 2 1014 80 10000 2.06 80 16:37 10.12.2022
701 Clouds 1 1014 86 8000 2.57 70 15:40 10.12.2022
702 Clouds 1 1014 86 8000 2.57 70 15:20 10.12.2022
703 Clouds 2 1014 87 7000 2.06 40 13:33 10.12.2022
704 Clear 2 1014 87 10000 2.57 20 11:57 10.12.2022
705 Clouds 0 1014 93 7000 1.03 0 10:49 10.12.2022
706 Mist -2 1014 93 5000 1.03 260 09:41 10.12.2022
707 Mist -2 1012 93 5000 1.54 270 07:22 10.12.2022
708 Clear -1 1010 93 10000 3.09 360 04:56 10.12.2022
709 Clear 1 1006 86 10000 4.12 360 23:34 09.12.2022
710 Clear 2 1005 80 10000 4.63 10 22:41 09.12.2022
711 Clear 2 1004 87 10000 3.6 10 21:27 09.12.2022
712 Clear 2 1004 87 10000 4.63 10 20:57 09.12.2022
713 Clear 3 1003 81 10000 5.14 10 19:43 09.12.2022
714 Clear 5 1002 81 10000 4.12 10 17:56 09.12.2022
715 Clear 6 1001 81 10000 3.6 10 16:37 09.12.2022
716 Clear 6 1001 81 10000 3.6 10 16:18 09.12.2022
717 Clouds 6 1000 87 10000 3.6 10 15:19 09.12.2022
718 Clouds 4 1001 93 8000 3.6 20 12:25 09.12.2022
719 Clouds 4 1001 93 6000 3.6 20 10:48 09.12.2022
720 Mist 4 1000 93 4500 3.09 20 09:44 09.12.2022
721 Mist 5 999 93 4900 4.12 20 05:36 09.12.2022
722 Clouds 5 999 93 10000 3.6 40 02:29 09.12.2022
723 Rain 6 1001 93 7000 2.06 50 22:32 08.12.2022
724 Clear 5 1001 93 10000 3.09 60 20:51 08.12.2022
725 Rain 6 1002 87 10000 3.6 70 18:41 08.12.2022
726 Rain 6 1003 81 10000 3.09 60 15:45 08.12.2022
727 Clear 6 1004 81 10000 3.09 60 14:28 08.12.2022
728 Clear 4 1006 87 10000 3.6 50 11:42 08.12.2022
729 Clear 3 1007 87 10000 3.09 50 10:22 08.12.2022
730 Clouds 3 1007 87 10000 4.12 30 09:27 08.12.2022
731 Clear 3 1010 87 10000 2.57 30 02:56 08.12.2022
732 Clear 4 1012 87 10000 3.09 50 22:19 07.12.2022
733 Clear 4 1013 87 10000 3.09 30 21:50 07.12.2022
734 Clear 4 1013 87 10000 3.09 30 21:31 07.12.2022
735 Clear 5 1014 81 10000 3.09 30 19:44 07.12.2022
736 Clear 6 1014 81 10000 2.57 30 17:37 07.12.2022
737 Clear 7 1015 70 10000 3.09 40 14:41 07.12.2022
738 Clouds 4 1017 81 10000 4.12 30 12:37 07.12.2022
739 Clouds 2 1017 93 7000 3.6 50 10:43 07.12.2022
740 Mist 2 1017 93 4300 4.12 40 09:51 07.12.2022
741 Mist 2 1017 93 4600 3.09 50 08:47 07.12.2022
742 Fog 1 1017 100 700 3.09 70 06:48 07.12.2022
743 Fog 1 1017 100 600 3.09 40 05:23 07.12.2022
744 Clear 6 1017 81 10000 4.12 40 22:41 06.12.2022
745 Clear 7 1017 76 10000 3.6 30 20:48 06.12.2022
746 Clouds 10 1016 66 10000 2.57 50 18:21 06.12.2022
747 Clouds 11 1016 62 10000 2.06 50 16:42 06.12.2022
748 Clear 11 1016 62 10000 2.57 60 15:52 06.12.2022
749 Clear 11 1016 62 10000 3.09 50 15:33 06.12.2022
750 Clear 11 1016 62 10000 3.09 80 14:28 06.12.2022
751 Clear 11 1016 58 10000 3.09 60 12:58 06.12.2022
752 Clear 11 1016 58 10000 4.12 90 12:40 06.12.2022
753 Clear 6 1016 81 10000 2.57 60 09:41 06.12.2022
754 Clear 7 1015 76 10000 3.09 70 06:32 06.12.2022
755 Clear 7 1016 76 10000 2.06 50 01:26 06.12.2022
756 Clear 7 1016 76 10000 2.06 70 22:36 05.12.2022
757 Clear 8 1017 71 10000 2.57 70 20:56 05.12.2022
758 Clear 8 1016 71 10000 3.09 70 20:36 05.12.2022
759 Clear 8 1016 71 10000 2.57 70 19:45 05.12.2022
760 Clear 9 1016 61 10000 3.6 70 17:56 05.12.2022
761 Clear 10 1016 62 10000 4.12 70 16:47 05.12.2022
762 Clear 11 1016 58 10000 4.63 80 15:22 05.12.2022
763 Clear 9 1017 71 10000 4.12 100 12:59 05.12.2022
764 Clear 8 1018 76 10000 4.12 90 12:40 05.12.2022
765 Clear 8 1018 76 10000 4.12 90 12:19 05.12.2022
766 Clear 5 1018 81 10000 4.12 100 10:58 05.12.2022
767 Clouds 4 1015 93 10000 1.54 140 00:21 05.12.2022
768 Clear 4 1014 100 8000 2.57 120 22:45 04.12.2022
769 Clear 4 1014 100 9000 1.54 90 22:20 04.12.2022
770 Clear 4 1014 100 9000 1.54 90 21:59 04.12.2022
771 Clear 5 1013 93 10000 2.57 160 20:49 04.12.2022
772 Clouds 6 1012 87 10000 1.54 140 19:28 04.12.2022
773 Clouds 7 1012 81 10000 2.06 110 18:59 04.12.2022
774 Clouds 8 1011 76 10000 1.54 120 17:23 04.12.2022
775 Clear 9 1011 71 10000 1.54 140 16:56 04.12.2022
776 Clouds 9 1010 71 10000 1.03 140 16:36 04.12.2022
777 Clouds 10 1010 62 10000 2.06 170 16:18 04.12.2022
778 Clouds 11 1010 62 10000 2.06 180 14:44 04.12.2022
779 Clouds 9 1010 66 10000 2.06 180 13:37 04.12.2022
780 Clouds 9 1010 71 10000 3.6 170 12:44 04.12.2022
781 Clouds 8 1010 76 10000 2.57 150 11:58 04.12.2022
782 Mist 3 1010 100 4600 1.54 160 09:33 04.12.2022
783 Mist 2 1009 100 5000 0 0 07:31 04.12.2022
784 Fog 1 1009 93 4800 0.51 340 00:55 04.12.2022
785 Clouds 2 1009 93 6000 0.51 0 23:43 03.12.2022
786 Clouds 3 1009 93 7000 0.51 0 22:19 03.12.2022
787 Clouds 5 1009 87 10000 1.54 50 21:21 03.12.2022
788 Clouds 5 1009 87 10000 1.54 40 20:22 03.12.2022
789 Clouds 6 1009 81 10000 2.06 30 18:39 03.12.2022
790 Clouds 7 1008 76 10000 3.09 60 15:54 03.12.2022
791 Clouds 7 1009 70 10000 2.06 70 14:23 03.12.2022
792 Clouds 6 1009 75 10000 3.09 70 12:54 03.12.2022
793 Clouds 6 1010 75 10000 2.06 50 12:22 03.12.2022
794 Clouds 4 1010 93 8000 1.54 40 10:21 03.12.2022
795 Clouds 3 1010 93 9000 2.57 20 06:56 03.12.2022
796 Clouds 5 1013 87 10000 2.06 10 01:29 03.12.2022
797 Clouds 5 1014 87 10000 2.06 20 22:41 02.12.2022
798 Clear 5 1015 87 10000 2.57 40 20:53 02.12.2022
799 Clouds 6 1016 81 10000 2.57 40 19:23 02.12.2022
800 Clouds 7 1016 76 10000 3.6 20 15:59 02.12.2022
801 Clouds 7 1017 76 10000 4.12 50 14:43 02.12.2022
802 Clouds 7 1017 76 10000 4.12 50 14:23 02.12.2022
803 Clouds 7 1018 76 10000 4.12 30 12:55 02.12.2022
804 Clouds 7 1019 81 10000 4.12 40 11:32 02.12.2022
805 Clouds 6 1019 87 8000 2.57 40 08:35 02.12.2022
806 Clouds 5 1019 93 7000 2.57 30 07:23 02.12.2022
807 Clouds 5 1021 93 8000 1.03 0 23:35 01.12.2022
808 Clouds 5 1021 93 8000 1.54 360 21:46 01.12.2022
809 Clouds 5 1021 93 8000 1.54 360 21:27 01.12.2022
810 Clouds 8 1021 81 10000 4.63 20 19:24 01.12.2022
811 Clouds 9 1021 76 10000 5.14 20 17:48 01.12.2022
812 Clouds 10 1020 71 10000 5.66 10 15:39 01.12.2022
813 Clear 7 1022 87 10000 3.6 30 11:37 01.12.2022
814 Clear 5 1022 93 8000 3.09 30 10:23 01.12.2022
815 Clear 5 1022 93 8000 2.57 10 09:53 01.12.2022
816 Clear 4 1021 93 7000 2.06 30 09:35 01.12.2022
817 Clear 5 1020 93 10000 2.57 20 23:59 30.11.2022
818 Clear 6 1019 93 9000 3.09 40 22:35 30.11.2022
819 Clear 6 1019 93 9000 2.06 30 21:19 30.11.2022
820 Fog 6 1019 93 9000 1.54 20 20:25 30.11.2022
821 Clear 6 1019 93 10000 1.54 10 19:36 30.11.2022
822 Clear 6 1018 87 10000 1.54 0 18:33 30.11.2022
823 Clear 9 1018 76 10000 2.57 80 17:35 30.11.2022
824 Clear 9 1018 71 10000 3.09 50 15:49 30.11.2022
825 Clouds 8 1019 81 10000 2.57 40 14:27 30.11.2022
826 Clouds 7 1019 87 10000 1.54 30 13:31 30.11.2022
827 Fog 4 1020 100 550 3.09 50 10:24 30.11.2022
828 Fog 4 1019 100 650 2.57 80 08:39 30.11.2022
829 Fog 4 1019 100 800 3.09 80 07:26 30.11.2022
830 Fog 6 1020 100 300 1.54 90 23:33 29.11.2022
831 Fog 6 1021 100 300 2.06 90 22:46 29.11.2022
832 Fog 6 1021 100 1000 1.03 0 21:25 29.11.2022
833 Clouds 7 1021 93 10000 0.51 100 20:36 29.11.2022
834 Clouds 9 1020 87 10000 0 0 18:57 29.11.2022
835 Clouds 12 1020 71 10000 1.03 20 16:58 29.11.2022
836 Clouds 12 1020 71 10000 2.06 30 16:22 29.11.2022
837 Clouds 12 1020 71 10000 2.06 30 16:22 29.11.2022
838 Clouds 13 1020 71 10000 1.54 30 14:49 29.11.2022
839 Clouds 12 1020 82 10000 1.54 20 12:46 29.11.2022
840 Clouds 11 1021 93 10000 1.54 320 11:32 29.11.2022
841 Clouds 10 1020 93 10000 1.03 270 10:52 29.11.2022
842 Clouds 8 1020 100 10000 2.06 240 09:37 29.11.2022
843 Clouds 8 1019 100 10000 2.06 230 07:48 29.11.2022
844 Clouds 7 1019 93 9000 1.54 200 00:36 29.11.2022
845 Clouds 7 1019 93 10000 1.54 210 23:34 28.11.2022
846 Clouds 7 1019 93 10000 3.09 230 22:32 28.11.2022
847 Clouds 7 1019 100 10000 2.06 250 21:43 28.11.2022
848 Clouds 8 1019 93 10000 2.06 230 20:33 28.11.2022
849 Clouds 10 1018 81 10000 3.09 290 19:38 28.11.2022
850 Clouds 10 1018 87 10000 2.06 240 18:29 28.11.2022
851 Clouds 10 1018 87 10000 2.06 270 17:44 28.11.2022
852 Rain 14 1017 67 10000 6.17 290 15:22 28.11.2022
853 Clouds 13 1017 76 10000 8.75 260 13:59 28.11.2022
854 Clouds 15 1017 67 10000 7.2 260 13:37 28.11.2022
855 Clouds 13 1018 82 10000 3.09 250 11:53 28.11.2022
856 Clouds 8 1018 100 10000 2.57 210 09:27 28.11.2022
857 Clouds 8 1018 100 10000 2.57 210 09:27 28.11.2022
858 Rain 10 1016 93 10000 2.57 240 04:58 28.11.2022
859 Clouds 11 1016 87 10000 3.09 250 04:40 28.11.2022
860 Clear 11 1016 93 10000 3.09 220 03:23 28.11.2022
861 Rain 12 1016 94 10000 3.6 240 00:42 28.11.2022
862 Clouds 12 1016 94 10000 2.06 200 22:24 27.11.2022
863 Rain 12 1016 94 8000 2.57 230 21:19 27.11.2022
864 Clear 10 1016 81 10000 2.57 150 18:57 27.11.2022
865 Clear 11 1016 82 10000 2.57 130 16:44 27.11.2022
866 Clear 11 1017 76 10000 4.12 130 14:22 27.11.2022
867 Clear 10 1020 76 10000 2.57 120 12:27 27.11.2022
868 Clouds 6 1021 93 10000 2.57 140 10:36 27.11.2022
869 Clear 5 1021 100 10000 2.06 120 07:55 27.11.2022
870 Clear 7 1025 87 10000 2.06 110 23:39 26.11.2022
871 Clear 8 1025 87 10000 4.12 120 21:44 26.11.2022
872 Clear 9 1026 87 10000 4.12 130 20:20 26.11.2022
873 Clear 10 1026 81 10000 3.6 120 18:57 26.11.2022
874 Clear 10 1026 81 10000 3.6 120 18:57 26.11.2022
875 Clear 12 1027 76 10000 3.09 110 16:49 26.11.2022
876 Clear 12 1027 76 10000 4.12 120 15:38 26.11.2022
877 Clear 10 1029 87 10000 3.6 130 12:54 26.11.2022
878 Clear 10 1029 87 10000 3.6 130 12:54 26.11.2022
879 Clouds 8 1030 100 10000 3.09 110 11:23 26.11.2022
880 Fog 6 1030 93 350 1.03 120 09:43 26.11.2022
881 Clouds 5 1030 100 8000 2.06 110 08:39 26.11.2022
882 Mist 7 1030 93 2800 1.03 210 22:59 25.11.2022
883 Clouds 7 1029 93 10000 1.03 230 21:38 25.11.2022
884 Clear 8 1029 93 10000 2.57 240 20:33 25.11.2022
885 Clear 13 1026 71 10000 2.57 300 16:59 25.11.2022
886 Clouds 13 1025 76 10000 3.09 290 15:42 25.11.2022
887 Clouds 14 1024 77 10000 3.09 250 12:20 25.11.2022
888 Clouds 10 1020 100 10000 2.57 170 08:53 25.11.2022
889 Clouds 11 1019 93 10000 4.12 190 08:33 25.11.2022
890 Rain 11 1018 93 4400 2.57 210 06:42 25.11.2022
891 Clouds 11 1016 93 10000 3.6 210 01:25 25.11.2022
892 Clear 10 1015 93 10000 3.6 190 23:22 24.11.2022
893 Clear 10 1015 93 10000 2.57 190 22:35 24.11.2022
894 Clear 11 1014 93 10000 2.06 170 21:39 24.11.2022
895 Clear 11 1014 93 10000 2.06 170 19:48 24.11.2022
896 Clear 12 1012 87 10000 4.63 200 17:47 24.11.2022
897 Clear 12 1012 87 10000 4.63 200 17:23 24.11.2022
898 Clear 13 1012 76 10000 6.17 190 16:39 24.11.2022
899 Rain 14 1014 77 10000 2.57 160 14:23 24.11.2022
900 Clear 12 1014 82 10000 3.09 150 12:40 24.11.2022
901 Clear 12 1015 82 10000 3.09 160 10:52 24.11.2022
902 Clouds 10 1016 93 10000 0.51 0 08:45 24.11.2022
903 Clouds 9 1016 93 10000 3.6 190 04:46 24.11.2022
904 Clouds 10 1015 93 10000 4.12 200 00:40 24.11.2022
905 Clouds 10 1015 87 10000 3.6 200 23:31 23.11.2022
906 Clouds 10 1014 93 10000 2.06 190 21:47 23.11.2022
907 Clouds 10 1014 93 10000 2.06 210 20:49 23.11.2022
908 Clouds 11 1013 87 10000 2.06 260 19:34 23.11.2022
909 Clouds 11 1013 82 10000 3.6 220 18:54 23.11.2022
910 Clouds 12 1012 76 10000 3.09 240 17:29 23.11.2022
911 Clouds 12 1012 76 10000 3.09 240 17:29 23.11.2022
912 Rain 14 1009 82 10000 7.2 280 13:42 23.11.2022
913 Clouds 15 1008 67 8000 11.32 290 13:21 23.11.2022
914 Clouds 16 1007 72 10000 8.23 270 12:23 23.11.2022
915 Clouds 16 1006 67 10000 10.29 270 11:45 23.11.2022
916 Clouds 15 1004 88 10000 8.75 280 10:46 23.11.2022
917 Rain 14 1003 100 7000 7.72 250 09:45 23.11.2022
918 Rain 14 1003 100 10000 6.69 240 09:27 23.11.2022
919 Rain 14 1002 94 4500 5.14 220 08:57 23.11.2022
920 Clouds 14 1002 94 10000 6.17 220 08:30 23.11.2022
921 Rain 12 1001 94 6000 3.6 220 05:19 23.11.2022
922 Clouds 13 1001 100 7000 6.17 250 01:21 23.11.2022
923 Rain 10 1003 100 10000 4.12 180 22:37 22.11.2022
924 Rain 11 1004 93 10000 4.12 190 21:34 22.11.2022
925 Rain 11 1004 93 10000 3.09 190 20:51 22.11.2022
926 Rain 11 1004 93 8000 2.06 160 20:30 22.11.2022
927 Rain 10 1004 100 4900 2.06 160 19:44 22.11.2022
928 Rain 10 1004 100 9000 1.54 180 17:48 22.11.2022
929 Rain 10 1005 93 8000 0 0 16:32 22.11.2022
930 Rain 11 1006 87 7000 4.12 210 14:20 22.11.2022
931 Rain 12 1007 71 10000 5.14 260 12:27 22.11.2022
932 Clouds 9 1007 87 10000 4.12 230 09:27 22.11.2022
933 Clouds 10 1007 76 10000 2.57 270 07:59 22.11.2022
934 Clouds 9 1006 87 10000 4.12 250 06:37 22.11.2022
935 Clouds 10 1006 71 10000 9.26 280 23:42 21.11.2022
936 Clouds 10 1006 71 10000 9.26 280 23:42 21.11.2022
937 Rain 9 1005 76 10000 5.66 270 22:51 21.11.2022
938 Clouds 8 1005 81 10000 4.12 240 22:20 21.11.2022
939 Clouds 8 1005 87 10000 4.12 250 21:23 21.11.2022
940 Clouds 9 1004 87 10000 2.57 320 19:49 21.11.2022
941 Clouds 9 1005 81 10000 5.66 300 19:31 21.11.2022
942 Clouds 9 1005 81 10000 5.66 300 19:31 21.11.2022
943 Clouds 9 1005 81 10000 5.66 300 19:31 21.11.2022
944 Rain 10 1005 71 10000 8.75 310 18:46 21.11.2022
945 Rain 12 1003 82 10000 3.6 270 16:59 21.11.2022
946 Clouds 11 1003 82 10000 5.14 280 16:40 21.11.2022
947 Rain 13 1003 76 10000 8.75 280 15:58 21.11.2022
948 Clouds 13 1002 76 10000 7.72 270 15:23 21.11.2022
949 Clouds 14 1001 88 10000 6.69 290 13:53 21.11.2022
950 Clouds 16 1002 77 10000 7.2 260 12:47 21.11.2022
951 Rain 10 1004 93 2700 6.69 150 09:31 21.11.2022
952 Rain 10 1007 93 10000 4.63 140 07:43 21.11.2022
953 Clear 9 1019 93 10000 2.57 210 22:51 20.11.2022
954 Clear 9 1020 93 10000 1.54 210 21:36 20.11.2022
955 Clouds 9 1020 93 10000 0.51 220 20:47 20.11.2022
956 Clear 11 1019 87 10000 2.57 250 18:58 20.11.2022
957 Clear 12 1019 87 10000 2.57 280 16:50 20.11.2022
958 Clouds 14 1018 77 10000 4.63 300 15:35 20.11.2022
959 Clouds 13 1018 82 10000 5.14 300 14:55 20.11.2022
960 Clouds 15 1017 77 10000 5.66 300 13:51 20.11.2022
961 Clouds 14 1017 88 10000 4.63 290 13:23 20.11.2022
962 Drizzle 10 1017 100 7000 5.14 190 11:38 20.11.2022
963 Rain 10 1017 93 9000 5.14 180 10:57 20.11.2022
964 Rain 9 1017 93 7000 4.12 180 09:42 20.11.2022
965 Clouds 8 1017 93 10000 4.12 170 08:49 20.11.2022
966 Clouds 8 1017 93 10000 3.6 180 07:30 20.11.2022
967 Clouds 8 1017 93 10000 4.63 190 06:43 20.11.2022
968 Clear 5 1019 100 10000 0 0 01:24 20.11.2022
969 Clouds 4 1019 100 10000 1.03 0 00:44 20.11.2022
970 Clouds 4 1019 100 10000 1.03 0 00:25 20.11.2022
971 Clouds 4 1019 93 10000 1.03 170 23:54 19.11.2022
972 Clouds 4 1019 100 10000 0 0 23:25 19.11.2022
973 Clouds 4 1019 93 10000 0 0 22:42 19.11.2022
974 Clouds 6 1019 93 10000 1.54 230 21:36 19.11.2022
975 Clouds 6 1019 93 10000 1.54 230 21:18 19.11.2022
976 Clouds 6 1018 93 10000 0.51 220 20:38 19.11.2022
977 Clear 8 1018 87 10000 1.54 270 19:34 19.11.2022
978 Clear 10 1017 71 10000 1.54 330 17:42 19.11.2022
979 Clear 12 1017 62 10000 2.57 340 17:23 19.11.2022
980 Clear 13 1016 58 10000 2.57 320 16:28 19.11.2022
981 Clouds 12 1016 66 10000 3.09 340 14:40 19.11.2022
982 Clouds 12 1016 76 10000 2.57 10 12:42 19.11.2022
983 Clouds 11 1016 82 10000 1.03 0 11:19 19.11.2022
984 Clouds 7 1015 100 10000 1.54 300 09:31 19.11.2022
985 Clouds 7 1013 93 10000 1.03 250 07:52 19.11.2022
986 Clouds 8 1013 93 10000 1.54 260 04:43 19.11.2022
987 Rain 9 1012 93 10000 0 0 00:24 19.11.2022
988 Rain 9 1012 100 4300 2.06 260 23:25 18.11.2022
989 Clouds 9 1012 100 10000 2.57 170 21:54 18.11.2022
990 Clouds 9 1012 100 10000 2.06 200 21:33 18.11.2022
991 Rain 10 1012 93 10000 3.09 230 20:39 18.11.2022
992 Clouds 10 1012 93 10000 3.6 200 19:47 18.11.2022
993 Rain 10 1012 87 10000 4.12 340 18:49 18.11.2022
994 Clouds 10 1011 87 10000 3.6 180 17:44 18.11.2022
995 Clouds 13 1011 71 10000 2.57 0 14:33 18.11.2022
996 Clear 12 1011 87 10000 1.54 190 11:41 18.11.2022
997 Clouds 9 1010 93 10000 1.54 0 09:19 18.11.2022
998 Clouds 8 1009 93 10000 1.03 0 07:51 18.11.2022
999 Clouds 9 1009 93 10000 3.6 230 05:24 18.11.2022
1000 Clouds 9 1007 93 10000 1.03 200 00:51 18.11.2022
1001 Clouds 12 1006 82 10000 4.63 240 22:20 17.11.2022
1002 Clouds 13 1004 82 10000 6.69 270 20:46 17.11.2022
1003 Clouds 13 1003 88 10000 5.66 260 19:51 17.11.2022
1004 Clouds 13 1002 88 10000 3.6 250 18:50 17.11.2022
1005 Clouds 14 1002 82 10000 6.69 260 17:34 17.11.2022
1006 Clouds 14 1002 88 10000 6.17 240 16:53 17.11.2022
1007 Clouds 15 1001 88 7000 5.66 240 14:57 17.11.2022
1008 Clear 17 1002 72 10000 6.69 260 11:24 17.11.2022
1009 Clouds 14 1002 82 10000 3.6 250 08:39 17.11.2022
1010 Clouds 14 1002 82 10000 4.12 210 05:47 17.11.2022
1011 Clouds 15 1001 82 10000 7.72 250 00:22 17.11.2022
1012 Mist 15 1000 100 3000 7.2 270 22:30 16.11.2022
1013 Rain 15 999 82 10000 6.17 200 20:54 16.11.2022
1014 Rain 16 999 72 10000 5.66 190 19:54 16.11.2022
1015 Clear 16 999 72 10000 4.12 190 18:45 16.11.2022
1016 Clouds 16 999 72 10000 5.14 180 17:26 16.11.2022
1017 Clouds 17 1003 67 10000 5.14 190 13:59 16.11.2022
1018 Clouds 13 1005 94 10000 2.57 210 09:56 16.11.2022
1019 Clouds 12 1005 94 10000 3.6 190 06:38 16.11.2022
1020 Rain 11 1007 93 10000 3.09 190 01:26 16.11.2022
1021 Clouds 11 1007 100 10000 2.57 210 22:33 15.11.2022
1022 Clouds 12 1006 94 10000 3.6 240 20:45 15.11.2022
1023 Clouds 13 1006 100 9000 4.12 230 19:34 15.11.2022
1024 Clouds 13 1005 94 10000 3.09 230 18:42 15.11.2022
1025 Rain 13 1004 94 10000 2.57 220 17:21 15.11.2022
1026 Rain 14 1005 94 10000 4.63 260 16:19 15.11.2022
1027 Clouds 17 1004 77 10000 6.69 210 14:45 15.11.2022
1028 Clouds 16 1005 77 10000 4.12 170 12:59 15.11.2022
1029 Clouds 14 1006 88 10000 3.6 150 11:43 15.11.2022
1030 Rain 14 1006 82 10000 3.6 170 11:18 15.11.2022
1031 Clouds 13 1006 88 10000 4.63 140 08:35 15.11.2022
1032 Rain 12 1013 94 10000 2.57 170 00:36 15.11.2022
1033 Clear 12 1014 94 10000 3.6 170 23:34 14.11.2022
1034 Clear 13 1015 88 10000 2.57 180 21:30 14.11.2022
1035 Clear 13 1015 82 10000 2.57 180 20:39 14.11.2022
1036 Clear 14 1015 77 10000 2.06 210 18:37 14.11.2022
1037 Clouds 16 1015 77 10000 4.63 250 15:51 14.11.2022
1038 Clouds 14 1016 88 10000 4.12 280 12:54 14.11.2022
1039 Rain 15 1015 88 9000 3.09 290 11:42 14.11.2022
1040 Rain 14 1014 94 10000 3.6 240 09:28 14.11.2022
1041 Clear 11 1013 87 10000 4.12 160 07:54 14.11.2022
1042 Clear 11 1012 87 10000 4.12 150 06:37 14.11.2022
1043 Clear 13 1014 76 10000 4.12 140 00:18 14.11.2022
1044 Clear 14 1015 77 10000 3.09 140 21:54 13.11.2022
1045 Clear 14 1015 82 10000 2.57 140 21:27 13.11.2022
1046 Clear 14 1016 88 10000 1.54 110 19:44 13.11.2022
1047 Clear 17 1015 77 10000 2.57 90 18:19 13.11.2022
1048 Clear 20 1016 64 10000 2.57 90 17:21 13.11.2022
1049 Clouds 21 1017 60 10000 2.57 140 14:58 13.11.2022
1050 Clear 20 1017 64 10000 2.06 140 13:58 13.11.2022
1051 Clear 18 1019 72 10000 1.54 130 12:37 13.11.2022
1052 Clear 14 1019 88 10000 2.06 110 10:58 13.11.2022
1053 Clouds 10 1019 93 7000 2.57 110 07:58 13.11.2022
1054 Clear 12 1021 94 7000 1.54 110 01:34 13.11.2022
1055 Clear 13 1022 100 10000 1.03 0 22:29 12.11.2022
1056 Clear 13 1022 94 10000 0.51 80 21:24 12.11.2022
1057 Clear 15 1023 88 10000 1.54 80 19:55 12.11.2022
1058 Clear 19 1023 72 10000 2.57 100 17:57 12.11.2022
1059 Clouds 22 1024 60 10000 3.09 120 16:25 12.11.2022
1060 Clear 22 1024 64 10000 3.09 100 15:22 12.11.2022
1061 Clear 18 1026 77 10000 2.57 120 12:27 12.11.2022
1062 Clear 12 1026 100 10000 3.09 90 09:20 12.11.2022
1063 Clear 11 1025 100 10000 1.54 110 05:31 12.11.2022
1064 Clear 11 1027 93 10000 1.03 0 22:30 11.11.2022
1065 Clear 12 1027 87 10000 1.03 0 20:46 11.11.2022
1066 Clear 11 1027 93 10000 0 0 20:46 11.11.2022
1067 Clear 13 1026 88 10000 0 0 19:44 11.11.2022
1068 Clear 14 1026 82 10000 2.06 100 19:20 11.11.2022
1069 Clear 16 1026 72 10000 2.57 110 17:56 11.11.2022
1070 Clear 16 1026 72 10000 2.57 110 17:56 11.11.2022
1071 Clear 16 1026 72 10000 2.57 110 17:56 11.11.2022
1072 Clear 18 1026 68 10000 4.12 110 16:27 11.11.2022
1073 Clear 18 1026 68 10000 5.14 130 14:20 11.11.2022
1074 Clear 17 1026 72 10000 5.66 130 13:29 11.11.2022
1075 Clear 9 1028 93 10000 2.57 100 09:48 11.11.2022
1076 Clouds 8 1027 93 10000 2.57 90 08:27 11.11.2022
1077 Mist 10 1027 93 2500 3.6 90 05:44 11.11.2022
1078 Clouds 11 1028 93 8000 2.57 100 23:22 10.11.2022
1079 Clouds 11 1028 93 10000 2.57 100 22:35 10.11.2022
1080 Clouds 11 1028 93 10000 2.57 80 21:33 10.11.2022
1081 Clouds 11 1028 93 10000 2.57 90 20:50 10.11.2022
1082 Clouds 11 1028 93 10000 3.6 100 20:21 10.11.2022
1083 Clouds 11 1028 93 10000 3.6 90 19:42 10.11.2022
1084 Clouds 12 1028 94 10000 3.09 100 18:32 10.11.2022
1085 Clear 14 1027 88 10000 3.6 120 16:26 10.11.2022
1086 Clouds 12 1027 94 10000 3.6 100 13:57 10.11.2022
1087 Fog 11 1027 100 1400 3.09 100 11:40 10.11.2022
1088 Mist 9 1026 100 4800 2.57 110 08:44 10.11.2022
1089 Fog 10 1023 100 7000 1.03 0 01:34 10.11.2022
1090 Clear 10 1023 100 10000 1.03 0 23:39 09.11.2022
1091 Mist 10 1022 100 3300 1.03 170 22:36 09.11.2022
1092 Clouds 11 1021 93 10000 2.06 200 20:48 09.11.2022
1093 Clouds 11 1021 93 10000 2.06 200 20:29 09.11.2022
1094 Clouds 12 1021 94 9000 1.03 220 19:42 09.11.2022
1095 Clear 12 1020 94 10000 1.03 220 18:51 09.11.2022
1096 Mist 15 1018 82 5000 4.12 290 16:19 09.11.2022
1097 Drizzle 15 1018 94 10000 3.09 220 14:48 09.11.2022
1098 Clouds 15 1018 88 10000 2.57 220 14:25 09.11.2022
1099 Rain 15 1017 94 10000 2.57 220 13:19 09.11.2022
1100 Rain 14 1017 94 10000 3.09 230 11:46 09.11.2022
1101 Clouds 13 1014 94 10000 1.03 170 08:42 09.11.2022
1102 Clouds 13 1014 94 10000 0.51 170 07:46 09.11.2022
1103 Clouds 13 1014 94 10000 0.51 170 07:46 09.11.2022
1104 Clouds 13 1014 94 10000 0.51 170 07:46 09.11.2022
1105 Clear 13 1012 94 10000 1.54 150 00:54 09.11.2022
1106 Clear 14 1011 94 10000 1.03 220 21:46 08.11.2022
1107 Clear 14 1011 94 10000 1.03 220 21:28 08.11.2022
1108 Clouds 14 1011 94 10000 1.54 260 20:41 08.11.2022
1109 Clear 16 1011 82 10000 1.54 220 19:37 08.11.2022
1110 Clear 17 1010 77 10000 2.06 140 18:31 08.11.2022
1111 Clear 18 1010 68 10000 2.06 210 17:26 08.11.2022
1112 Clear 20 1010 60 10000 6.17 190 14:56 08.11.2022
1113 Clear 20 1010 56 10000 5.66 190 13:41 08.11.2022
1114 Clear 18 1010 68 10000 3.09 170 13:22 08.11.2022
1115 Clear 13 1011 82 10000 4.12 150 09:20 08.11.2022
1116 Clear 12 1010 87 10000 4.12 150 07:25 08.11.2022
1117 Clear 14 1011 72 10000 3.6 150 00:33 08.11.2022
1118 Clear 15 1011 72 10000 5.66 150 22:25 07.11.2022
1119 Clear 14 1011 77 10000 5.14 130 21:22 07.11.2022
1120 Clear 14 1012 82 10000 3.09 130 20:40 07.11.2022
1121 Clear 17 1012 67 10000 3.09 110 18:48 07.11.2022
1122 Clear 18 1013 63 10000 3.09 110 17:19 07.11.2022
1123 Clear 20 1014 52 10000 3.09 130 15:35 07.11.2022
1124 Clear 20 1015 56 10000 3.09 120 14:48 07.11.2022
1125 Clear 17 1018 63 10000 4.12 180 12:38 07.11.2022
1126 Clear 16 1018 67 10000 3.6 170 11:30 07.11.2022
1127 Clear 11 1018 87 10000 4.63 150 09:36 07.11.2022
1128 Clear 10 1017 93 10000 2.06 130 07:50 07.11.2022
1129 Clear 12 1018 94 10000 4.12 190 04:27 07.11.2022
1130 Clouds 13 1018 94 10000 3.6 190 01:29 07.11.2022
1131 Clear 12 1018 100 10000 3.09 190 22:26 06.11.2022
1132 Clear 14 1018 88 10000 3.6 190 21:20 06.11.2022
1133 Clouds 14 1018 94 10000 3.6 220 20:32 06.11.2022
1134 Clouds 14 1017 94 10000 2.57 210 19:55 06.11.2022
1135 Clouds 15 1017 82 10000 2.06 220 18:41 06.11.2022
1136 Clouds 15 1017 82 10000 2.06 220 18:41 06.11.2022
1137 Clouds 15 1017 82 10000 2.06 220 18:19 06.11.2022
1138 Clouds 17 1016 77 10000 6.17 260 17:21 06.11.2022
1139 Clouds 17 1016 77 10000 7.2 270 16:40 06.11.2022
1140 Clouds 17 1015 82 10000 5.66 260 15:43 06.11.2022
1141 Clear 17 1015 72 10000 5.66 230 12:49 06.11.2022
1142 Clear 15 1015 77 10000 3.6 210 12:28 06.11.2022
1143 Clear 11 1015 71 10000 3.09 180 10:48 06.11.2022
1144 Clear 8 1014 81 10000 3.09 150 08:30 06.11.2022
1145 Clear 9 1018 87 10000 1.54 120 02:19 06.11.2022
1146 Clear 9 1019 87 10000 2.57 130 23:18 05.11.2022
1147 Clear 11 1020 82 10000 0 0 19:37 05.11.2022
1148 Clear 15 1020 63 10000 1.03 180 17:45 05.11.2022
1149 Clouds 17 1021 51 10000 1.03 0 16:21 05.11.2022
1150 Clouds 17 1022 55 10000 2.57 180 14:33 05.11.2022
1151 Clouds 16 1022 63 10000 3.09 200 12:51 05.11.2022
1152 Clear 12 1023 82 10000 2.06 210 10:31 05.11.2022
1153 Clear 8 1023 93 10000 2.57 200 08:47 05.11.2022
1154 Clouds 8 1023 93 10000 2.06 200 06:57 05.11.2022
1155 Clouds 9 1023 93 10000 0.51 200 03:49 05.11.2022
1156 Clouds 8 1023 93 10000 1.54 240 23:35 04.11.2022
1157 Clear 9 1022 87 10000 1.54 270 22:28 04.11.2022
1158 Clouds 11 1021 82 10000 3.09 290 20:20 04.11.2022
1159 Clouds 14 1019 67 10000 4.12 320 17:46 04.11.2022
1160 Clouds 16 1018 59 10000 8.23 310 16:34 04.11.2022
1161 Clouds 15 1016 67 10000 8.23 320 13:39 04.11.2022
1162 Clouds 14 1015 82 10000 6.69 300 12:23 04.11.2022
1163 Clouds 11 1013 87 10000 6.69 290 09:40 04.11.2022
1164 Rain 10 1012 87 10000 3.6 250 08:21 04.11.2022
1165 Rain 10 1012 87 10000 2.57 220 07:41 04.11.2022
1166 Clouds 12 1014 87 10000 4.12 230 01:35 04.11.2022
1167 Clouds 12 1015 87 10000 4.12 230 22:30 03.11.2022
1168 Rain 13 1016 76 10000 4.12 250 20:49 03.11.2022
1169 Clouds 13 1015 76 10000 4.12 240 19:44 03.11.2022
1170 Clouds 13 1014 82 10000 4.63 250 18:46 03.11.2022
1171 Clouds 15 1013 82 10000 5.66 290 17:40 03.11.2022
1172 Clouds 16 1012 72 10000 8.23 290 15:49 03.11.2022
1173 Clouds 20 1009 60 10000 15.95 240 13:51 03.11.2022
1174 Clear 19 1010 68 10000 4.63 200 12:35 03.11.2022
1175 Clouds 18 1010 72 10000 3.6 210 11:43 03.11.2022
1176 Clear 14 1011 77 10000 4.12 160 07:51 03.11.2022
1177 Rain 14 1012 72 10000 4.63 160 06:47 03.11.2022
1178 Clear 15 1020 72 10000 2.57 140 20:57 02.11.2022
1179 Clear 15 1020 72 10000 3.09 140 20:33 02.11.2022
1180 Clear 16 1020 67 10000 3.09 120 18:58 02.11.2022
1181 Clear 19 1022 59 10000 3.09 130 16:31 02.11.2022
1182 Clouds 20 1022 56 10000 3.09 130 15:35 02.11.2022
1183 Clouds 18 1024 68 10000 2.57 150 13:26 02.11.2022
1184 Clear 18 1025 68 10000 3.6 150 12:35 02.11.2022
1185 Clouds 15 1026 82 10000 2.06 150 10:25 02.11.2022
1186 Clouds 11 1026 93 10000 0 0 08:41 02.11.2022
1187 Clear 11 1025 93 10000 1.54 190 02:56 02.11.2022
1188 Clear 11 1025 93 10000 2.57 200 22:41 01.11.2022
1189 Clear 11 1025 93 10000 2.57 230 22:18 01.11.2022
1190 Clear 12 1025 87 10000 2.06 220 21:20 01.11.2022
1191 Clear 12 1025 87 10000 2.06 220 21:20 01.11.2022
1192 Clear 13 1024 88 10000 2.06 240 20:23 01.11.2022
1193 Clear 14 1024 88 10000 2.06 250 19:41 01.11.2022
1194 Clouds 16 1023 77 10000 1.54 240 18:26 01.11.2022
1195 Clouds 17 1023 77 10000 2.57 270 16:48 01.11.2022
1196 Clouds 19 1023 63 10000 4.12 230 14:45 01.11.2022
1197 Clouds 18 1023 68 10000 4.12 230 13:20 01.11.2022
1198 Clouds 18 1024 63 10000 5.14 200 12:26 01.11.2022
1199 Clear 18 1024 68 10000 3.6 190 11:20 01.11.2022
1200 Clouds 12 1023 94 10000 3.09 190 09:24 01.11.2022
1201 Clouds 10 1022 100 10000 2.06 200 07:53 01.11.2022
1202 Clear 10 1022 100 10000 2.57 190 07:28 01.11.2022
1203 Clouds 11 1021 93 10000 2.57 180 06:46 01.11.2022
1204 Clouds 11 1021 93 10000 1.54 180 05:23 01.11.2022
1205 Rain 16 1017 94 10000 4.63 240 22:44 31.10.2022
1206 Clouds 17 1016 77 10000 7.2 270 21:33 31.10.2022
1207 Clouds 18 1014 82 10000 5.66 240 19:57 31.10.2022
1208 Clouds 20 1012 68 10000 4.12 190 18:36 31.10.2022
1209 Clouds 19 1011 77 10000 4.12 170 16:44 31.10.2022
1210 Rain 19 1011 77 10000 4.12 140 15:34 31.10.2022
1211 Clear 19 1013 77 10000 3.09 160 12:30 31.10.2022
1212 Clear 15 1014 94 10000 4.63 140 09:36 31.10.2022
1213 Clear 14 1014 100 10000 4.12 140 07:35 31.10.2022
1214 Thunderstorm 16 1017 100 2900 3.09 310 02:46 31.10.2022
1215 Clouds 16 1017 94 10000 2.06 90 01:46 31.10.2022
1216 Clear 17 1019 88 10000 2.57 50 22:19 30.10.2022
1217 Clear 17 1020 82 10000 2.06 20 20:38 30.10.2022
1218 Clear 18 1020 77 10000 2.57 360 19:34 30.10.2022
1219 Clouds 20 1019 73 10000 2.06 20 16:29 30.10.2022
1220 Clouds 21 1020 68 10000 1.03 0 14:34 30.10.2022
1221 Clear 21 1020 68 10000 1.03 0 13:50 30.10.2022
1222 Clouds 20 1020 77 10000 2.06 350 12:20 30.10.2022
1223 Clear 16 1019 88 10000 1.54 150 09:58 30.10.2022
1224 Clear 15 1018 94 10000 2.57 160 08:57 30.10.2022
1225 Clear 15 1017 94 10000 2.06 150 07:45 30.10.2022
1226 Clear 15 1017 94 10000 1.54 0 00:29 30.10.2022
1227 Clear 15 1017 94 10000 1.54 0 00:29 30.10.2022
1228 Clear 15 1017 94 10000 1.54 0 23:46 29.10.2022
1229 Clear 16 1017 94 10000 1.03 60 21:57 29.10.2022
1230 Clear 19 1017 82 10000 1.54 20 19:22 29.10.2022
1231 Clear 23 1016 64 10000 1.54 130 17:22 29.10.2022
1232 Clear 22 1016 68 10000 2.57 120 15:38 29.10.2022
1233 Clear 21 1017 73 10000 2.57 120 14:52 29.10.2022
1234 Clear 20 1017 73 10000 4.63 130 13:29 29.10.2022
1235 Clear 19 1017 77 10000 3.09 130 12:32 29.10.2022
1236 Clear 17 1016 88 10000 6.69 130 09:32 29.10.2022
1237 Clear 17 1017 88 10000 4.12 120 06:50 29.10.2022
1238 Clear 18 1017 82 10000 4.12 120 05:53 29.10.2022
1239 Clear 20 1019 73 10000 3.09 130 23:44 28.10.2022
1240 Clear 22 1019 60 10000 4.63 130 21:33 28.10.2022
1241 Clear 21 1020 64 10000 1.54 90 19:57 28.10.2022
1242 Clouds 24 1020 57 10000 1.54 130 18:33 28.10.2022
1243 Clear 25 1020 50 10000 2.57 110 17:39 28.10.2022
1244 Clear 24 1021 57 10000 2.06 150 14:51 28.10.2022
1245 Clear 23 1021 60 10000 1.03 0 13:43 28.10.2022
1246 Clear 21 1021 68 10000 2.06 120 11:55 28.10.2022
1247 Clear 20 1021 68 10000 2.06 100 11:32 28.10.2022
1248 Clear 19 1021 72 10000 1.03 110 10:45 28.10.2022
1249 Clear 18 1020 68 10000 1.03 0 09:36 28.10.2022
1250 Clear 19 1017 68 10000 3.6 150 06:57 28.10.2022
1251 Clear 20 1017 73 10000 5.14 130 01:44 28.10.2022
1252 Clear 21 1018 68 10000 5.14 130 23:46 27.10.2022
1253 Clear 22 1017 60 10000 4.63 140 22:32 27.10.2022
1254 Clear 22 1017 60 10000 4.63 130 20:57 27.10.2022
1255 Clear 24 1017 57 10000 4.63 130 18:31 27.10.2022
1256 Clear 25 1017 53 10000 5.66 150 17:22 27.10.2022
1257 Clouds 20 1019 73 10000 4.63 110 12:33 27.10.2022
1258 Clear 19 1017 77 10000 3.09 140 07:41 27.10.2022
1259 Clear 18 1017 88 10000 4.63 140 02:51 27.10.2022
1260 Clear 18 1018 77 10000 3.6 120 23:53 26.10.2022
1261 Clear 17 1018 82 10000 2.06 100 22:41 26.10.2022
1262 Clear 18 1018 72 10000 2.06 130 21:33 26.10.2022
1263 Clear 25 1017 47 10000 1.54 260 18:21 26.10.2022
1264 Clear 25 1018 50 10000 3.6 160 14:54 26.10.2022
1265 Clear 21 1018 60 10000 3.09 160 13:34 26.10.2022
1266 Clear 21 1018 64 10000 4.12 120 12:32 26.10.2022
1267 Clear 13 1017 94 10000 2.57 110 09:20 26.10.2022
1268 Clear 14 1016 88 10000 1.54 100 08:53 26.10.2022
1269 Clear 14 1016 94 10000 3.6 130 07:30 26.10.2022
1270 Clear 18 1013 77 10000 4.63 230 00:38 26.10.2022
1271 Clouds 19 1011 68 10000 4.12 190 22:43 25.10.2022
1272 Clouds 19 1011 72 10000 2.57 150 21:46 25.10.2022
1273 Rain 20 1011 68 10000 5.66 210 20:45 25.10.2022
1274 Clear 22 1009 56 10000 3.6 140 18:57 25.10.2022
1275 Clear 23 1009 53 10000 5.14 120 17:38 25.10.2022
1276 Clear 20 1013 60 10000 5.66 130 13:26 25.10.2022
1277 Clear 17 1015 67 10000 4.12 130 11:38 25.10.2022
1278 Clear 15 1014 72 10000 4.12 110 10:36 25.10.2022
1279 Clear 13 1015 76 10000 3.09 120 08:43 25.10.2022
1280 Clear 13 1015 76 10000 3.09 120 08:18 25.10.2022
1281 Clear 13 1015 76 10000 2.57 120 07:53 25.10.2022
1282 Clear 12 1015 87 10000 2.06 130 06:53 25.10.2022
1283 Clear 12 1017 94 10000 1.03 100 03:35 25.10.2022
1284 Clear 13 1018 94 10000 1.54 110 00:32 25.10.2022
1285 Clear 14 1018 88 10000 0 0 22:29 24.10.2022
1286 Clear 14 1018 88 10000 0 0 21:50 24.10.2022
1287 Clear 15 1017 82 10000 1.54 270 21:31 24.10.2022
1288 Clear 16 1017 72 10000 0.51 190 20:40 24.10.2022
1289 Clear 20 1016 56 10000 2.57 250 18:46 24.10.2022
1290 Clear 22 1016 49 10000 6.17 250 16:59 24.10.2022
1291 Clouds 22 1016 46 10000 7.72 260 15:43 24.10.2022
1292 Clouds 23 1016 46 10000 8.23 250 14:20 24.10.2022
1293 Clouds 22 1016 53 10000 6.17 220 12:53 24.10.2022
1294 Clear 17 1015 82 10000 0.51 200 09:42 24.10.2022
1295 Clear 17 1013 77 10000 2.57 200 07:56 24.10.2022
1296 Clear 19 1011 59 10000 2.57 220 22:50 23.10.2022
1297 Clear 20 1010 52 10000 2.06 200 20:40 23.10.2022
1298 Clear 22 1009 46 10000 3.6 190 19:29 23.10.2022
1299 Clear 26 1008 31 10000 9.26 220 17:30 23.10.2022
1300 Clear 26 1008 31 10000 9.26 220 17:30 23.10.2022
1301 Clear 26 1007 31 10000 10.8 210 16:37 23.10.2022
1302 Clear 25 1007 38 10000 12.35 210 14:58 23.10.2022
1303 Clear 22 1007 56 10000 5.14 180 12:21 23.10.2022
1304 Clear 20 1007 64 10000 5.66 170 10:58 23.10.2022
1305 Clear 19 1007 68 10000 3.6 150 06:36 23.10.2022
1306 Rain 21 1009 56 10000 4.63 160 23:26 22.10.2022
1307 Clear 21 1009 52 10000 5.14 130 22:30 22.10.2022
1308 Clear 20 1009 56 10000 4.12 120 21:40 22.10.2022
1309 Clear 21 1010 52 10000 3.09 140 20:25 22.10.2022
1310 Clear 23 1010 49 10000 2.57 140 19:31 22.10.2022
1311 Clear 25 1010 44 10000 5.14 140 17:41 22.10.2022
1312 Clear 24 1011 46 10000 6.17 130 16:50 22.10.2022
1313 Clear 23 1012 53 10000 5.14 130 14:57 22.10.2022
1314 Clear 22 1013 60 10000 5.14 130 14:31 22.10.2022
1315 Clear 19 1014 68 10000 4.12 140 11:35 22.10.2022
1316 Clear 13 1013 94 10000 2.06 140 09:46 22.10.2022
1317 Clear 12 1013 94 10000 2.57 110 08:37 22.10.2022
1318 Clear 13 1012 94 10000 0.51 110 05:50 22.10.2022
1319 Clear 16 1012 88 10000 3.09 170 00:31 22.10.2022
1320 Clear 17 1011 82 10000 2.06 180 22:50 21.10.2022
1321 Clear 17 1011 82 10000 2.57 180 21:32 21.10.2022
1322 Clear 19 1010 72 10000 2.06 180 20:27 21.10.2022
1323 Clear 21 1009 64 10000 2.57 210 18:27 21.10.2022
1324 Clear 21 1010 68 10000 3.09 170 14:40 21.10.2022
1325 Clear 20 1010 68 10000 1.54 200 13:39 21.10.2022
1326 Clear 19 1010 72 10000 2.57 190 11:46 21.10.2022
1327 Clear 18 1010 72 10000 2.06 180 10:23 21.10.2022
1328 Clear 18 1009 68 10000 3.09 200 08:45 21.10.2022
1329 Clear 18 1009 68 10000 3.09 200 08:20 21.10.2022
1330 Clear 20 1008 56 10000 4.63 190 03:52 21.10.2022
1331 Clear 22 1007 49 10000 5.14 170 23:23 20.10.2022
1332 Clear 22 1007 53 10000 4.12 170 20:57 20.10.2022
1333 Clear 23 1007 49 10000 4.63 170 19:43 20.10.2022
1334 Clear 24 1007 50 10000 2.57 180 18:34 20.10.2022
1335 Clear 25 1008 47 10000 4.63 200 17:38 20.10.2022
1336 Rain 20 1010 83 10000 2.57 160 13:47 20.10.2022
1337 Clear 21 1010 78 10000 5.14 140 12:32 20.10.2022
1338 Clear 20 1010 83 10000 4.63 140 11:29 20.10.2022
1339 Clear 19 1010 88 10000 5.14 140 10:51 20.10.2022
1340 Clear 16 1010 94 10000 4.63 140 08:55 20.10.2022
1341 Clear 16 1011 94 10000 7.72 130 06:24 20.10.2022
1342 Clouds 17 1014 94 10000 1.03 280 01:58 20.10.2022
1343 Rain 21 1014 78 10000 6.17 280 22:53 19.10.2022
1344 Thunderstorm 21 1012 73 10000 2.57 40 22:23 19.10.2022
1345 Clear 21 1012 83 10000 1.03 0 21:20 19.10.2022
1346 Clear 22 1012 78 10000 1.03 100 19:53 19.10.2022
1347 Clear 25 1012 65 10000 2.06 140 17:44 19.10.2022
1348 Clear 25 1012 65 10000 2.57 110 16:22 19.10.2022
1349 Clear 24 1013 64 10000 4.12 110 14:20 19.10.2022
1350 Clear 22 1014 73 10000 5.14 120 11:42 19.10.2022
1351 Clouds 18 1014 88 10000 6.17 120 08:47 19.10.2022
1352 Clear 19 1015 82 10000 4.12 130 07:22 19.10.2022
1353 Clear 21 1018 73 10000 5.14 130 01:32 19.10.2022
1354 Clear 22 1019 68 10000 5.14 130 23:22 18.10.2022
1355 Clear 23 1019 64 10000 4.12 130 21:49 18.10.2022
1356 Clear 23 1019 64 10000 3.09 120 21:19 18.10.2022
1357 Clear 24 1019 64 10000 3.6 110 20:24 18.10.2022
1358 Clear 28 1019 54 10000 3.6 100 18:32 18.10.2022
1359 Clear 29 1019 51 10000 5.14 120 16:55 18.10.2022
1360 Clear 27 1020 57 10000 6.69 120 14:58 18.10.2022
1361 Clear 25 1022 65 10000 5.66 120 13:22 18.10.2022
1362 Clear 21 1023 83 10000 5.66 120 11:39 18.10.2022
1363 Clear 20 1023 88 10000 5.14 120 10:24 18.10.2022
1364 Clear 17 1023 100 10000 2.57 110 08:40 18.10.2022
1365 Clear 18 1022 94 10000 2.57 120 05:45 18.10.2022
1366 Clear 20 1022 88 10000 0 0 22:56 17.10.2022
1367 Clear 21 1022 88 10000 0.51 0 21:21 17.10.2022
1368 Clear 21 1021 88 10000 1.54 120 20:43 17.10.2022
1369 Clear 21 1021 88 10000 1.54 120 20:20 17.10.2022
1370 Clear 24 1021 69 10000 1.54 110 19:34 17.10.2022
1371 Clouds 25 1020 69 10000 3.6 140 17:28 17.10.2022
1372 Clear 24 1020 69 10000 4.63 120 15:54 17.10.2022
1373 Clear 24 1020 73 10000 5.66 140 14:35 17.10.2022
1374 Clear 20 1020 88 10000 3.09 100 12:29 17.10.2022
1375 Rain 19 1019 94 6000 1.03 170 07:25 17.10.2022
1376 Clear 21 1014 78 10000 5.66 130 00:27 17.10.2022
1377 Clear 23 1013 64 10000 6.17 130 22:25 16.10.2022
1378 Clear 24 1013 60 10000 4.12 130 20:59 16.10.2022
1379 Clear 24 1013 60 10000 1.54 130 19:50 16.10.2022
1380 Clear 28 1012 47 10000 2.57 110 18:35 16.10.2022
1381 Clear 29 1012 37 10000 3.09 180 17:41 16.10.2022
1382 Clear 29 1012 39 10000 6.17 190 15:59 16.10.2022
1383 Clear 29 1012 39 10000 5.66 210 15:41 16.10.2022
1384 Clear 21 1013 73 10000 4.12 130 12:25 16.10.2022
1385 Clear 18 1013 88 10000 3.6 110 10:28 16.10.2022
1386 Clear 15 1013 100 10000 1.54 80 09:39 16.10.2022
1387 Clear 16 1012 94 10000 2.57 90 03:22 16.10.2022
1388 Clear 18 1013 88 10000 2.06 330 23:41 15.10.2022
1389 Clear 19 1012 82 10000 1.54 40 21:29 15.10.2022
1390 Clear 20 1012 77 10000 1.54 0 20:57 15.10.2022
1391 Clear 21 1012 73 10000 2.06 350 19:28 15.10.2022
1392 Clear 23 1012 60 10000 2.06 150 15:59 15.10.2022
1393 Clear 23 1013 60 10000 2.06 190 15:38 15.10.2022
1394 Clear 21 1015 68 10000 4.12 170 12:33 15.10.2022
1395 Clouds 19 1015 77 10000 4.12 180 11:27 15.10.2022
1396 Clouds 16 1015 88 10000 4.63 170 08:56 15.10.2022
1397 Clouds 17 1016 94 10000 2.57 180 03:53 15.10.2022
1398 Clouds 17 1018 94 10000 3.09 200 00:39 15.10.2022
1399 Clouds 17 1018 94 10000 4.12 210 22:25 14.10.2022
1400 Clouds 18 1018 88 10000 3.6 220 21:37 14.10.2022
1401 Clouds 18 1018 88 10000 3.6 220 21:37 14.10.2022
1402 Clouds 19 1019 82 10000 4.12 230 20:27 14.10.2022
1403 Clouds 20 1019 77 10000 7.2 250 17:21 14.10.2022
1404 Clouds 21 1020 78 10000 7.2 250 14:56 14.10.2022
1405 Clouds 20 1021 83 10000 6.69 250 12:45 14.10.2022
1406 Drizzle 18 1021 94 5000 5.14 250 10:36 14.10.2022
1407 Clouds 17 1020 94 10000 2.57 230 07:58 14.10.2022
1408 Clouds 17 1020 94 10000 3.09 240 06:18 14.10.2022
1409 Clouds 17 1020 94 10000 3.6 240 05:59 14.10.2022
1410 Clouds 17 1020 94 10000 3.6 260 05:41 14.10.2022
1411 Drizzle 18 1021 94 7000 6.69 240 00:55 14.10.2022
1412 Clouds 18 1021 100 8000 5.66 240 22:37 13.10.2022
1413 Mist 18 1021 94 4400 5.14 230 21:30 13.10.2022
1414 Rain 17 1021 100 3400 3.6 220 20:19 13.10.2022
1415 Clouds 18 1020 88 10000 3.6 210 19:39 13.10.2022
1416 Clouds 19 1021 77 10000 5.66 230 18:44 13.10.2022
1417 Clouds 20 1020 68 10000 7.72 230 17:31 13.10.2022
1418 Clouds 20 1020 68 10000 7.72 230 17:31 13.10.2022
1419 Clouds 20 1021 73 10000 4.63 230 15:48 13.10.2022
1420 Clouds 20 1022 77 10000 3.6 220 14:29 13.10.2022
1421 Clouds 18 1022 88 10000 3.09 210 12:56 13.10.2022
1422 Clouds 17 1022 88 10000 2.57 190 11:39 13.10.2022
1423 Clouds 13 1023 100 8000 2.06 170 09:46 13.10.2022
1424 Clouds 13 1022 100 8000 1.03 120 08:32 13.10.2022
1425 Clouds 13 1023 94 9000 0 0 07:35 13.10.2022
1426 Clouds 13 1023 100 10000 1.03 270 01:59 13.10.2022
1427 Clouds 13 1024 94 10000 1.03 170 01:28 13.10.2022
1428 Clouds 15 1024 88 9000 1.54 0 22:58 12.10.2022
1429 Clouds 15 1023 88 10000 0 0 22:37 12.10.2022
1430 Clear 16 1023 82 10000 0 0 21:22 12.10.2022
1431 Clear 17 1023 77 10000 1.03 0 20:52 12.10.2022
1432 Clear 17 1023 77 10000 2.06 10 20:23 12.10.2022
1433 Clouds 20 1022 73 10000 3.09 10 18:26 12.10.2022
1434 Clouds 21 1022 68 10000 3.09 10 17:50 12.10.2022
1435 Clear 20 1023 77 10000 2.57 40 15:50 12.10.2022
1436 Clouds 20 1023 77 10000 2.57 350 13:57 12.10.2022
1437 Clouds 19 1023 77 10000 2.06 360 13:22 12.10.2022
1438 Clouds 15 1023 94 7000 1.54 330 09:45 12.10.2022
1439 Fog 15 1022 94 2000 1.54 300 07:59 12.10.2022
1440 Fog 15 1021 94 1300 0.51 0 07:41 12.10.2022
1441 Mist 15 1021 100 5000 1.54 0 06:43 12.10.2022
1442 Clear 16 1022 100 10000 1.03 0 01:32 12.10.2022
1443 Clear 17 1022 94 10000 2.06 10 22:39 11.10.2022
1444 Clouds 18 1021 94 10000 2.06 340 20:54 11.10.2022
1445 Clouds 18 1021 88 10000 2.06 90 19:43 11.10.2022
1446 Rain 18 1021 88 10000 2.06 50 16:50 11.10.2022
1447 Rain 18 1022 88 10000 2.06 110 14:48 11.10.2022
1448 Rain 18 1022 88 10000 2.06 50 12:57 11.10.2022
1449 Rain 17 1022 94 9000 1.54 50 10:29 11.10.2022
1450 Mist 17 1021 94 5000 1.54 360 09:36 11.10.2022
1451 Mist 16 1020 100 5000 2.57 10 06:57 11.10.2022
1452 Rain 17 1020 94 7000 2.06 330 02:31 11.10.2022
1453 Clouds 17 1020 94 9000 1.03 0 00:31 11.10.2022
1454 Clouds 17 1019 94 10000 0 0 21:37 10.10.2022
1455 Clouds 18 1019 88 10000 2.57 30 19:59 10.10.2022
1456 Clouds 19 1018 82 10000 3.09 30 18:36 10.10.2022
1457 Clouds 20 1018 77 10000 1.03 0 17:21 10.10.2022
1458 Rain 19 1018 82 10000 1.54 260 15:58 10.10.2022
1459 Rain 17 1017 94 8000 1.54 0 12:54 10.10.2022
1460 Rain 16 1017 94 8000 2.06 200 11:56 10.10.2022
1461 Clouds 15 1015 88 10000 1.54 140 09:21 10.10.2022
1462 Clear 15 1014 88 10000 2.06 100 05:43 10.10.2022
1463 Clear 15 1014 82 10000 0 0 04:56 10.10.2022
1464 Clear 16 1014 77 10000 0 0 00:34 10.10.2022
1465 Clear 16 1014 82 10000 0 0 23:31 09.10.2022
1466 Clear 19 1013 68 10000 0 0 22:19 09.10.2022
1467 Clear 20 1013 60 10000 1.03 230 21:26 09.10.2022
1468 Clear 22 1013 53 10000 2.57 260 20:24 09.10.2022
1469 Clear 22 1013 53 10000 2.57 260 20:24 09.10.2022
1470 Clear 23 1013 53 10000 2.06 280 19:46 09.10.2022
1471 Clear 26 1012 44 10000 3.09 250 18:44 09.10.2022
1472 Clear 27 1013 41 10000 3.6 170 16:57 09.10.2022
1473 Clear 27 1013 41 10000 3.6 170 16:57 09.10.2022
1474 Clear 27 1013 44 10000 3.6 180 16:37 09.10.2022
1475 Clear 26 1014 50 10000 3.6 140 15:38 09.10.2022
1476 Clear 24 1015 57 10000 4.12 130 14:31 09.10.2022
1477 Clear 23 1015 60 10000 4.63 120 13:48 09.10.2022
1478 Clear 21 1016 68 10000 3.6 120 12:35 09.10.2022
1479 Clear 17 1017 77 10000 3.6 100 10:49 09.10.2022
1480 Clear 12 1017 87 10000 2.06 100 08:31 09.10.2022
1481 Clear 12 1017 87 10000 2.06 100 08:31 09.10.2022
1482 Clear 13 1018 76 10000 2.57 40 03:48 09.10.2022
1483 Clear 14 1019 72 10000 2.06 50 02:53 09.10.2022
1484 Clear 16 1020 63 10000 2.06 40 00:39 09.10.2022
1485 Clear 17 1021 59 10000 3.6 50 22:59 08.10.2022
1486 Clear 17 1021 59 10000 4.63 40 22:22 08.10.2022
1487 Clear 19 1020 48 10000 3.09 20 20:31 08.10.2022
1488 Clear 22 1020 37 10000 3.6 40 18:57 08.10.2022
1489 Clear 23 1021 31 10000 3.6 50 17:33 08.10.2022
1490 Clouds 22 1022 46 10000 4.63 20 15:26 08.10.2022
1491 Clear 21 1023 49 10000 4.63 10 13:31 08.10.2022
1492 Clouds 18 1023 59 10000 4.63 30 10:48 08.10.2022
1493 Clouds 17 1023 63 10000 3.6 30 10:24 08.10.2022
1494 Clouds 16 1022 77 10000 4.12 360 08:49 08.10.2022
1495 Clouds 15 1021 88 10000 2.57 340 04:46 08.10.2022
1496 Clear 17 1021 82 10000 2.57 340 00:58 08.10.2022
1497 Clear 18 1021 82 10000 3.09 10 23:39 07.10.2022
1498 Clear 18 1021 82 10000 3.09 10 23:20 07.10.2022
1499 Clear 19 1021 77 10000 3.6 360 21:48 07.10.2022
1500 Clear 22 1020 64 10000 3.09 30 19:51 07.10.2022
1501 Clear 25 1020 50 10000 2.06 120 17:54 07.10.2022
1502 Clear 24 1020 53 10000 1.54 0 16:42 07.10.2022
1503 Clear 24 1021 57 10000 2.57 100 15:25 07.10.2022
1504 Clear 22 1023 64 10000 3.6 120 13:55 07.10.2022
1505 Clear 19 1024 77 10000 1.54 100 11:29 07.10.2022
1506 Clear 14 1023 100 10000 0 0 09:25 07.10.2022
1507 Fog 12 1024 100 5000 0 0 08:21 07.10.2022
1508 Clear 15 1026 94 10000 2.06 30 02:52 07.10.2022
1509 Clouds 16 1027 88 10000 1.54 20 22:54 06.10.2022
1510 Clear 16 1028 88 10000 1.03 0 21:57 06.10.2022
1511 Clear 17 1028 82 10000 1.03 0 21:36 06.10.2022
1512 Clear 19 1028 77 10000 1.54 30 20:39 06.10.2022
1513 Clouds 20 1028 68 10000 3.6 30 18:56 06.10.2022
1514 Clouds 20 1028 73 10000 3.6 20 18:32 06.10.2022
1515 Clouds 20 1029 73 10000 1.54 0 15:38 06.10.2022
1516 Clouds 17 1030 82 10000 2.57 40 12:49 06.10.2022
1517 Clouds 15 1030 94 10000 4.12 20 08:51 06.10.2022
1518 Clouds 17 1029 94 10000 1.03 200 04:37 06.10.2022
1519 Clouds 17 1028 88 10000 1.03 220 00:51 06.10.2022
1520 Clouds 17 1026 82 10000 2.06 270 21:54 05.10.2022
1521 Clear 20 1024 73 10000 6.17 290 19:44 05.10.2022
1522 Clear 25 1022 53 10000 5.14 280 17:37 05.10.2022
1523 Clear 26 1021 47 10000 4.63 240 16:40 05.10.2022
1524 Clear 27 1021 39 10000 4.63 240 14:57 05.10.2022
1525 Clear 26 1021 47 10000 2.57 170 14:23 05.10.2022
1526 Clear 20 1021 73 10000 2.06 130 12:43 05.10.2022
1527 Mist 14 1021 100 5000 2.06 110 10:48 05.10.2022
1528 Fog 13 1021 100 350 1.03 120 08:23 05.10.2022
1529 Fog 14 1020 100 300 0 0 06:36 05.10.2022
1530 Fog 14 1020 100 300 1.03 150 05:31 05.10.2022
1531 Clear 14 1021 88 10000 1.54 260 02:29 05.10.2022
1532 Clear 15 1022 88 10000 1.03 130 00:28 05.10.2022
1533 Clear 16 1022 88 10000 1.54 120 22:54 04.10.2022
1534 Clear 20 1021 68 10000 1.54 320 20:44 04.10.2022
1535 Clear 23 1021 56 10000 2.57 300 19:47 04.10.2022
1536 Clear 25 1020 50 10000 2.06 310 18:40 04.10.2022
1537 Clear 26 1020 47 10000 2.57 290 17:53 04.10.2022
1538 Clear 26 1021 44 10000 2.57 290 16:51 04.10.2022
1539 Clear 23 1021 53 10000 1.54 10 13:59 04.10.2022
1540 Clear 14 1021 94 10000 1.03 210 09:57 04.10.2022
1541 Clear 10 1020 100 10000 0 0 07:48 04.10.2022
1542 Fog 12 1020 87 4500 0 0 04:42 04.10.2022
1543 Clear 16 1022 82 10000 2.06 10 23:48 03.10.2022
1544 Clear 17 1021 77 10000 0.51 0 22:19 03.10.2022
1545 Clear 18 1021 72 10000 0.51 0 21:23 03.10.2022
1546 Clear 20 1021 64 10000 1.03 0 20:33 03.10.2022
1547 Clear 23 1021 53 10000 3.6 30 18:47 03.10.2022
1548 Clear 24 1022 50 10000 4.12 20 17:30 03.10.2022
1549 Clear 23 1023 49 10000 3.09 60 15:51 03.10.2022
1550 Clear 22 1024 53 10000 2.57 60 14:22 03.10.2022
1551 Clear 20 1024 64 10000 3.09 90 12:34 03.10.2022
1552 Clear 16 1025 88 10000 2.57 90 10:40 03.10.2022
1553 Clouds 13 1025 100 10000 0 0 09:44 03.10.2022
1554 Fog 12 1024 94 4100 1.54 20 08:43 03.10.2022
1555 Clouds 13 1025 100 10000 0 0 03:52 03.10.2022
1556 Clouds 16 1026 94 10000 0 0 22:55 02.10.2022
1557 Clouds 18 1026 82 10000 1.03 0 21:33 02.10.2022
1558 Clouds 20 1026 73 10000 3.09 310 19:39 02.10.2022
1559 Clouds 21 1025 68 10000 3.6 300 17:55 02.10.2022
1560 Clouds 21 1026 68 10000 3.6 250 16:50 02.10.2022
1561 Clouds 21 1026 73 10000 3.09 250 16:27 02.10.2022
1562 Clouds 21 1026 73 10000 3.09 260 14:53 02.10.2022
1563 Clouds 20 1027 77 10000 4.12 240 13:46 02.10.2022
1564 Clouds 20 1027 77 10000 3.6 220 12:38 02.10.2022
1565 Clouds 19 1027 88 10000 3.6 200 11:41 02.10.2022
1566 Clouds 19 1027 88 10000 3.6 200 11:23 02.10.2022
1567 Clouds 17 1027 100 10000 2.06 200 09:45 02.10.2022
1568 Clouds 17 1026 94 10000 2.06 220 08:23 02.10.2022
1569 Clouds 17 1026 94 10000 3.6 200 05:18 02.10.2022
1570 Clouds 17 1026 100 10000 3.09 230 00:56 02.10.2022
1571 Clouds 17 1026 100 10000 3.09 230 00:36 02.10.2022
1572 Clouds 18 1026 94 10000 3.09 220 23:24 01.10.2022
1573 Clouds 19 1025 88 10000 4.12 250 20:55 01.10.2022
1574 Clouds 19 1024 94 10000 4.12 260 18:53 01.10.2022
1575 Rain 19 1024 94 4400 5.66 250 17:22 01.10.2022
1576 Mist 19 1023 94 2900 8.75 240 14:43 01.10.2022
1577 Clouds 19 1022 88 10000 7.2 250 13:35 01.10.2022
1578 Clouds 19 1021 94 10000 8.23 250 12:33 01.10.2022
1579 Drizzle 18 1021 94 10000 7.2 250 11:21 01.10.2022
1580 Drizzle 17 1020 100 7000 7.2 240 10:38 01.10.2022
1581 Drizzle 17 1020 100 7000 7.2 240 10:20 01.10.2022
1582 Drizzle 16 1019 100 4600 7.2 230 08:59 01.10.2022
1583 Drizzle 16 1018 94 3800 4.63 220 07:30 01.10.2022
1584 Clear 14 1018 94 10000 3.6 190 03:37 01.10.2022
1585 Clear 14 1018 82 10000 3.6 190 01:22 01.10.2022
1586 Clear 14 1018 82 10000 3.6 190 01:22 01.10.2022
1587 Clear 14 1018 77 10000 3.09 190 22:56 30.09.2022
1588 Clear 14 1018 77 10000 2.57 200 21:44 30.09.2022
1589 Clear 15 1018 67 10000 1.54 240 20:45 30.09.2022
1590 Clear 16 1017 63 10000 2.57 260 20:20 30.09.2022
1591 Clear 20 1016 40 10000 4.63 280 17:41 30.09.2022
1592 Clear 20 1015 42 10000 3.6 250 16:29 30.09.2022
1593 Clouds 18 1016 52 10000 1.54 0 14:21 30.09.2022
1594 Clouds 17 1015 59 10000 2.06 340 12:24 30.09.2022
1595 Clear 16 1015 63 10000 2.06 320 11:48 30.09.2022
1596 Fog 9 1012 93 3400 1.03 320 08:38 30.09.2022
1597 Clear 10 1011 93 10000 0.51 240 06:29 30.09.2022
1598 Clear 9 1009 93 10000 1.54 240 02:45 30.09.2022
1599 Clouds 11 1008 87 10000 1.54 290 23:47 29.09.2022
1600 Clear 13 1007 71 10000 2.06 300 21:29 29.09.2022
1601 Clear 14 1006 67 10000 3.09 320 20:59 29.09.2022
1602 Clouds 16 1005 63 10000 3.09 310 18:47 29.09.2022
1603 Clouds 16 1004 72 10000 3.6 360 17:45 29.09.2022
1604 Clouds 15 1004 82 10000 1.54 300 16:28 29.09.2022
1605 Clouds 17 1004 63 10000 2.57 240 15:36 29.09.2022
1606 Clouds 17 1004 77 10000 2.06 270 14:54 29.09.2022
1607 Clouds 16 1004 82 10000 1.03 0 11:48 29.09.2022
1608 Mist 13 1004 100 5000 2.57 230 07:26 29.09.2022
1609 Clouds 14 1006 88 10000 2.57 220 02:55 29.09.2022
1610 Clouds 14 1007 94 10000 2.57 240 00:28 29.09.2022
1611 Clouds 15 1007 88 10000 2.57 260 23:19 28.09.2022
1612 Rain 16 1006 88 10000 4.63 270 21:30 28.09.2022
1613 Rain 16 1006 88 10000 4.63 270 21:30 28.09.2022
1614 Clouds 16 1006 88 10000 4.63 270 20:31 28.09.2022
1615 Clouds 17 1006 88 10000 7.72 270 18:42 28.09.2022
1616 Clouds 20 1006 60 10000 10.29 280 15:34 28.09.2022
1617 Clouds 19 1007 72 10000 10.29 310 13:28 28.09.2022
1618 Clouds 18 1008 82 10000 5.66 270 11:23 28.09.2022
1619 Drizzle 16 1008 94 9000 6.69 260 09:18 28.09.2022
1620 Rain 16 1008 94 10000 4.63 260 07:40 28.09.2022
1621 Clouds 16 1009 94 10000 4.63 270 04:41 28.09.2022
1622 Clouds 17 1011 94 10000 6.69 270 01:38 28.09.2022
1623 Mist 17 1012 94 4900 7.2 260 23:27 27.09.2022
1624 Rain 16 1013 94 6000 6.17 250 21:55 27.09.2022
1625 Clouds 17 1013 82 10000 5.14 240 20:49 27.09.2022
1626 Clouds 16 1014 88 10000 5.14 270 19:49 27.09.2022
1627 Clouds 18 1013 68 10000 7.72 280 19:30 27.09.2022
1628 Clouds 18 1014 72 10000 6.17 260 17:46 27.09.2022
1629 Clouds 19 1014 59 10000 6.69 290 15:59 27.09.2022
1630 Clouds 19 1014 59 10000 7.2 280 14:59 27.09.2022
1631 Clouds 18 1014 63 10000 5.66 270 13:28 27.09.2022
1632 Clouds 18 1014 63 10000 2.57 250 12:22 27.09.2022
1633 Clouds 14 1014 82 10000 2.57 260 09:46 27.09.2022
1634 Clouds 13 1013 88 10000 1.03 260 07:28 27.09.2022
1635 Clear 13 1012 88 10000 3.09 240 02:59 27.09.2022
1636 Clear 14 1012 88 10000 3.6 280 01:35 27.09.2022
1637 Clouds 15 1011 94 10000 4.63 280 23:38 26.09.2022
1638 Clouds 15 1011 94 10000 4.63 280 23:18 26.09.2022
1639 Clouds 17 1011 72 10000 7.2 250 20:47 26.09.2022
1640 Clouds 17 1012 72 10000 6.69 240 19:34 26.09.2022
1641 Clouds 19 1013 52 10000 9.26 280 18:35 26.09.2022
1642 Clouds 20 1013 45 10000 10.29 280 16:58 26.09.2022
1643 Clouds 20 1014 45 10000 6.17 260 14:46 26.09.2022
1644 Clouds 17 1015 59 10000 3.09 220 11:36 26.09.2022
1645 Clear 14 1015 82 10000 1.03 0 10:41 26.09.2022
1646 Clear 14 1015 82 10000 1.03 0 10:21 26.09.2022
1647 Clear 11 1015 93 10000 0 0 09:56 26.09.2022
1648 Clear 10 1015 87 10000 1.03 0 09:24 26.09.2022
1649 Clouds 8 1015 100 8000 0 0 08:57 26.09.2022
1650 Clear 9 1016 93 10000 0.51 0 02:57 26.09.2022
1651 Clear 12 1017 82 10000 0.51 280 00:35 26.09.2022
1652 Clear 14 1017 72 10000 1.54 290 22:59 25.09.2022
1653 Clear 16 1017 63 10000 2.57 290 21:41 25.09.2022
1654 Clear 16 1016 63 10000 3.09 300 20:54 25.09.2022
1655 Clear 18 1016 55 10000 2.57 350 19:55 25.09.2022
1656 Clear 20 1015 45 10000 3.09 320 18:43 25.09.2022
1657 Clear 21 1015 46 10000 3.6 300 18:20 25.09.2022
1658 Clear 20 1015 45 10000 3.6 300 16:49 25.09.2022
1659 Clear 20 1016 45 10000 1.03 0 15:45 25.09.2022
1660 Clouds 20 1016 45 10000 1.54 0 14:29 25.09.2022
1661 Clouds 19 1016 52 10000 3.09 280 13:19 25.09.2022
1662 Clear 14 1016 77 10000 0 0 10:36 25.09.2022
1663 Clear 9 1015 100 10000 1.54 0 08:25 25.09.2022
1664 Clear 10 1015 93 10000 1.03 270 06:23 25.09.2022
1665 Clear 10 1015 93 10000 1.03 270 06:23 25.09.2022
1666 Clouds 12 1015 87 10000 2.06 290 03:20 25.09.2022
1667 Clear 15 1015 77 10000 2.57 270 22:50 24.09.2022
1668 Clear 17 1015 67 10000 4.12 300 21:19 24.09.2022
1669 Clouds 19 1014 59 10000 6.69 310 19:23 24.09.2022
1670 Clouds 20 1014 52 10000 6.69 280 17:50 24.09.2022
1671 Clouds 22 1013 46 10000 7.72 280 16:27 24.09.2022
1672 Clouds 23 1013 40 10000 6.69 290 15:22 24.09.2022
1673 Clouds 21 1014 56 10000 2.06 340 13:35 24.09.2022
1674 Clouds 20 1015 60 10000 5.14 310 12:51 24.09.2022
1675 Clear 18 1015 77 10000 4.63 300 11:21 24.09.2022
1676 Clear 13 1014 100 10000 1.03 180 09:46 24.09.2022
1677 Clouds 12 1014 94 10000 1.03 150 08:45 24.09.2022
1678 Fog 12 1014 100 10000 1.03 0 07:38 24.09.2022
1679 Fog 13 1015 94 5000 0 0 04:46 24.09.2022
1680 Fog 13 1016 94 10000 1.54 200 02:24 24.09.2022
1681 Clear 17 1016 82 10000 2.06 260 22:29 23.09.2022
1682 Clear 18 1016 77 10000 2.06 260 21:28 23.09.2022
1683 Clear 18 1016 72 10000 2.57 260 20:56 23.09.2022
1684 Clear 19 1016 72 10000 2.57 250 20:20 23.09.2022
1685 Clear 20 1015 68 10000 3.6 230 18:28 23.09.2022
1686 Clear 20 1017 68 10000 4.12 260 13:45 23.09.2022
1687 Clear 15 1017 88 10000 1.03 0 10:45 23.09.2022
1688 Clear 13 1016 88 10000 1.54 170 09:29 23.09.2022
1689 Clear 11 1016 82 10000 1.03 120 05:20 23.09.2022
1690 Clear 14 1018 67 10000 1.54 230 00:31 23.09.2022
1691 Clear 16 1018 59 10000 1.03 280 23:21 22.09.2022
1692 Clear 18 1018 52 10000 1.03 0 22:26 22.09.2022
1693 Clear 22 1017 37 10000 2.57 290 20:46 22.09.2022
1694 Clear 25 1017 25 10000 3.6 280 19:27 22.09.2022
1695 Clear 27 1017 24 10000 3.09 0 16:57 22.09.2022
1696 Clear 20 1019 42 10000 1.03 0 11:58 22.09.2022
1697 Clear 16 1019 55 10000 1.03 0 10:20 22.09.2022
1698 Clear 9 1019 81 10000 0 0 08:46 22.09.2022
1699 Clear 11 1019 71 10000 1.03 0 06:42 22.09.2022
1700 Clear 13 1019 58 10000 1.03 0 02:43 22.09.2022
1701 Clear 18 1020 45 10000 3.6 20 22:50 21.09.2022
1702 Clear 20 1019 40 10000 3.09 360 21:40 21.09.2022
1703 Clear 24 1018 27 10000 3.09 40 19:36 21.09.2022
1704 Clear 25 1018 25 10000 4.12 50 17:47 21.09.2022
1705 Clear 25 1019 27 10000 4.12 30 16:22 21.09.2022
1706 Clear 21 1020 37 10000 3.09 50 13:59 21.09.2022
1707 Clear 18 1021 48 10000 2.57 40 12:41 21.09.2022
1708 Clear 16 1021 55 10000 3.09 40 11:28 21.09.2022
1709 Clouds 13 1021 67 10000 3.09 20 09:47 21.09.2022
1710 Clear 11 1021 71 10000 1.03 0 08:58 21.09.2022
1711 Clear 11 1021 71 10000 3.09 360 06:22 21.09.2022
1712 Clear 14 1021 58 10000 1.54 10 02:45 21.09.2022
1713 Clear 14 1021 58 10000 1.54 10 02:23 21.09.2022
1714 Clear 16 1021 51 10000 2.57 20 00:34 21.09.2022
1715 Clear 18 1021 42 10000 4.12 20 22:41 20.09.2022
1716 Clear 21 1020 30 10000 3.09 10 20:45 20.09.2022
1717 Clear 23 1020 25 10000 4.63 10 19:30 20.09.2022
1718 Clear 24 1020 25 10000 4.63 30 16:18 20.09.2022
1719 Clear 22 1021 30 10000 3.6 20 14:35 20.09.2022
1720 Clear 19 1022 39 10000 3.6 40 12:45 20.09.2022
1721 Clear 11 1021 71 10000 3.09 10 08:51 20.09.2022
1722 Clear 10 1021 76 10000 3.6 20 08:25 20.09.2022
1723 Clear 13 1021 62 10000 2.57 30 04:44 20.09.2022
1724 Clear 14 1021 62 10000 2.57 20 02:37 20.09.2022
1725 Clear 18 1020 48 10000 4.63 30 22:51 19.09.2022
1726 Clear 20 1019 40 10000 3.6 20 21:39 19.09.2022
1727 Clear 22 1018 30 10000 3.6 20 20:47 19.09.2022
1728 Clear 23 1018 28 10000 4.12 10 19:42 19.09.2022
1729 Clear 25 1018 25 10000 4.63 20 17:39 19.09.2022
1730 Clear 23 1020 31 10000 3.6 30 13:56 19.09.2022
1731 Clear 21 1020 37 10000 5.14 30 12:48 19.09.2022
1732 Clear 15 1019 55 10000 5.66 50 10:31 19.09.2022
1733 Clear 11 1018 66 10000 3.09 20 08:42 19.09.2022
1734 Clear 12 1018 62 10000 2.57 30 05:42 19.09.2022
1735 Clear 14 1019 54 10000 2.06 10 01:53 19.09.2022
1736 Clear 18 1018 39 10000 3.09 30 23:22 18.09.2022
1737 Clear 20 1017 30 10000 3.6 20 21:32 18.09.2022
1738 Clear 24 1017 20 10000 2.57 30 19:58 18.09.2022
1739 Clear 25 1017 18 10000 3.6 60 17:53 18.09.2022
1740 Clear 24 1018 19 10000 4.12 50 16:59 18.09.2022
1741 Clear 22 1019 23 10000 3.6 70 14:52 18.09.2022
1742 Clear 21 1019 28 10000 3.6 70 13:46 18.09.2022
1743 Clear 18 1020 39 10000 4.12 80 12:28 18.09.2022
1744 Clear 14 1020 54 10000 3.6 60 10:28 18.09.2022
1745 Clear 14 1020 54 10000 3.6 60 03:35 18.09.2022
1746 Clear 15 1020 51 10000 3.6 60 01:22 18.09.2022
1747 Clear 16 1020 48 10000 5.14 40 23:36 17.09.2022
1748 Clear 18 1019 36 10000 4.63 30 20:56 17.09.2022
1749 Clear 21 1019 28 10000 5.14 30 19:40 17.09.2022
1750 Clear 21 1019 28 10000 5.14 30 19:40 17.09.2022
1751 Clear 22 1019 26 10000 4.12 30 18:30 17.09.2022
1752 Clear 21 1020 30 10000 4.63 60 14:54 17.09.2022
1753 Clouds 19 1021 37 10000 5.14 70 13:38 17.09.2022
1754 Clear 15 1021 58 10000 4.63 30 10:50 17.09.2022
1755 Clear 11 1020 76 10000 1.54 0 08:30 17.09.2022
1756 Clear 12 1020 71 10000 0.51 0 06:21 17.09.2022
1757 Clear 17 1018 59 10000 3.6 360 23:41 16.09.2022
1758 Clear 18 1018 59 10000 4.12 330 22:27 16.09.2022
1759 Clear 19 1017 59 10000 4.63 330 20:54 16.09.2022
1760 Clear 19 1017 59 10000 4.63 330 20:54 16.09.2022
1761 Clear 22 1016 40 10000 4.63 360 19:35 16.09.2022
1762 Clear 24 1016 41 10000 4.63 340 16:26 16.09.2022
1763 Clouds 24 1016 46 10000 3.6 330 14:52 16.09.2022
1764 Clouds 22 1016 56 10000 3.09 350 13:21 16.09.2022
1765 Clouds 16 1016 94 8000 2.06 330 10:24 16.09.2022
1766 Fog 16 1015 94 4100 2.06 240 07:26 16.09.2022
1767 Fog 16 1015 94 3500 2.06 260 06:48 16.09.2022
1768 Fog 16 1015 94 3300 2.06 230 05:57 16.09.2022
1769 Clear 19 1015 82 10000 2.06 320 02:35 16.09.2022
1770 Clear 21 1014 78 10000 3.09 290 21:47 15.09.2022
1771 Clouds 22 1013 73 10000 3.09 290 20:38 15.09.2022
1772 Clouds 24 1013 60 10000 5.14 310 19:31 15.09.2022
1773 Clouds 27 1013 50 10000 6.69 300 17:41 15.09.2022
1774 Clouds 27 1013 50 10000 6.69 300 17:22 15.09.2022
1775 Clouds 27 1013 47 10000 6.69 290 15:38 15.09.2022
1776 Haze 26 1013 53 4400 2.06 300 12:50 15.09.2022
1777 Clouds 24 1013 69 6000 1.54 0 11:48 15.09.2022
1778 Fog 16 1012 100 150 0.51 0 09:45 15.09.2022
1779 Fog 17 1011 94 350 0 0 06:58 15.09.2022
1780 Fog 18 1011 94 500 0 0 03:46 15.09.2022
1781 Clear 21 1010 78 10000 1.54 0 22:57 14.09.2022
1782 Clear 26 1008 44 10000 3.6 260 20:31 14.09.2022
1783 Clear 27 1007 41 10000 4.12 250 19:32 14.09.2022
1784 Clear 28 1007 39 10000 6.69 250 17:37 14.09.2022
1785 Clear 27 1007 39 10000 7.72 260 16:36 14.09.2022
1786 Clear 28 1007 39 10000 6.69 220 14:51 14.09.2022
1787 Clear 26 1007 47 10000 7.72 220 12:38 14.09.2022
1788 Clear 24 1006 60 10000 2.57 190 09:52 14.09.2022
1789 Clear 21 1005 73 10000 3.09 160 08:21 14.09.2022
1790 Clear 20 1005 73 10000 2.06 120 06:49 14.09.2022
1791 Clear 20 1005 73 10000 2.06 130 06:28 14.09.2022
1792 Clear 20 1006 77 10000 1.54 120 02:25 14.09.2022
1793 Clear 21 1006 78 10000 1.03 0 01:32 14.09.2022
1794 Clouds 21 1006 73 10000 1.03 120 00:52 14.09.2022
1795 Clouds 21 1006 73 10000 1.03 120 00:52 14.09.2022
1796 Clear 23 1006 60 10000 0.51 0 23:54 13.09.2022
1797 Clear 24 1006 57 10000 3.09 270 23:36 13.09.2022
1798 Clear 24 1006 57 10000 3.09 270 23:18 13.09.2022
1799 Clear 27 1006 47 10000 8.23 240 22:22 13.09.2022
1800 Clear 29 1005 39 10000 5.66 200 20:45 13.09.2022
1801 Clear 31 1004 35 10000 5.66 190 18:43 13.09.2022
1802 Clear 32 1005 37 10000 6.69 200 16:19 13.09.2022
1803 Clear 31 1005 42 10000 5.14 190 15:18 13.09.2022
1804 Clear 28 1006 61 10000 4.63 150 13:31 13.09.2022
1805 Clear 24 1006 83 10000 5.14 140 09:51 13.09.2022
1806 Clear 22 1006 83 10000 5.66 130 07:31 13.09.2022
1807 Rain 23 1010 78 10000 7.2 230 00:58 13.09.2022
1808 Clear 27 1007 50 10000 2.06 100 22:52 12.09.2022
1809 Clear 28 1007 44 10000 1.54 260 22:26 12.09.2022
1810 Thunderstorm 31 1007 37 10000 5.14 130 20:54 12.09.2022
1811 Clouds 36 1006 30 10000 1.54 170 19:26 12.09.2022
1812 Clear 37 1007 28 10000 3.09 110 17:46 12.09.2022
1813 Clear 36 1008 32 10000 2.57 110 15:22 12.09.2022
1814 Clear 28 1010 47 10000 3.09 120 11:57 12.09.2022
1815 Clear 25 1009 57 10000 5.14 130 10:20 12.09.2022
1816 Clear 22 1009 53 10000 2.57 90 05:57 12.09.2022
1817 Clear 23 1009 46 10000 3.09 90 04:32 12.09.2022
1818 Clear 25 1011 44 10000 3.6 100 23:59 11.09.2022
1819 Clear 26 1011 44 10000 3.6 90 22:45 11.09.2022
1820 Clear 28 1011 42 10000 3.6 70 21:19 11.09.2022
1821 Clear 29 1011 39 10000 3.6 80 20:42 11.09.2022
1822 Clear 32 1011 31 10000 4.63 90 19:26 11.09.2022
1823 Clear 32 1011 31 10000 4.63 110 18:58 11.09.2022
1824 Clear 31 1013 30 10000 4.63 90 16:58 11.09.2022
1825 Clouds 31 1014 33 10000 4.63 100 15:44 11.09.2022
1826 Clear 28 1016 39 10000 5.14 90 13:18 11.09.2022
1827 Clear 21 1016 60 10000 4.12 110 10:35 11.09.2022
1828 Clear 17 1016 77 10000 2.06 60 07:49 11.09.2022
1829 Clear 18 1018 77 10000 2.06 60 03:34 11.09.2022
1830 Clear 21 1018 73 10000 2.57 40 23:45 10.09.2022
1831 Clear 23 1017 56 10000 3.09 30 21:35 10.09.2022
1832 Clear 26 1017 47 10000 4.12 50 19:56 10.09.2022
1833 Clear 26 1017 47 10000 2.57 50 19:37 10.09.2022
1834 Clear 26 1017 47 10000 2.57 50 19:19 10.09.2022
1835 Clouds 26 1018 47 10000 2.57 50 16:58 10.09.2022
1836 Clouds 26 1019 50 10000 1.54 0 15:32 10.09.2022
1837 Clouds 23 1020 56 10000 1.54 0 12:55 10.09.2022
1838 Clouds 23 1020 56 10000 1.54 0 12:55 10.09.2022
1839 Clouds 22 1020 64 10000 1.54 0 11:36 10.09.2022
1840 Clear 20 1020 73 10000 1.54 0 10:25 10.09.2022
1841 Clear 15 1020 88 10000 1.03 160 08:37 10.09.2022
1842 Clear 15 1020 88 10000 1.03 160 08:18 10.09.2022
1843 Clouds 14 1020 94 10000 0 0 02:54 10.09.2022
1844 Clear 16 1020 82 10000 1.54 220 23:35 09.09.2022
1845 Clouds 18 1020 72 10000 1.54 260 22:22 09.09.2022
1846 Clear 20 1019 64 10000 2.57 260 20:49 09.09.2022
1847 Clouds 22 1019 56 10000 6.17 290 19:26 09.09.2022
1848 Clouds 23 1019 53 10000 6.17 300 18:55 09.09.2022
1849 Clouds 23 1019 53 10000 6.17 300 18:55 09.09.2022
1850 Clouds 23 1019 49 10000 6.17 290 16:34 09.09.2022
1851 Clouds 22 1019 60 10000 5.66 290 14:28 09.09.2022
1852 Clouds 19 1019 88 10000 2.57 290 12:59 09.09.2022
1853 Clear 20 1018 73 10000 3.6 280 10:23 09.09.2022
1854 Clear 16 1017 88 10000 2.06 230 07:18 09.09.2022
1855 Clear 16 1017 94 10000 1.54 0 03:28 09.09.2022
1856 Clear 18 1016 82 10000 2.57 220 22:19 08.09.2022
1857 Clear 19 1016 77 10000 2.57 240 21:43 08.09.2022
1858 Clouds 22 1015 64 10000 3.6 250 20:38 08.09.2022
1859 Clouds 22 1015 64 10000 3.6 250 20:19 08.09.2022
1860 Clouds 23 1015 60 10000 4.63 240 18:26 08.09.2022
1861 Clouds 22 1015 68 10000 5.66 220 16:27 08.09.2022
1862 Clouds 19 1016 88 10000 4.63 210 14:40 08.09.2022
1863 Rain 19 1016 88 10000 5.66 190 13:27 08.09.2022
1864 Clouds 18 1016 88 10000 4.63 190 12:24 08.09.2022
1865 Rain 18 1015 94 10000 3.6 190 10:57 08.09.2022
1866 Clouds 17 1015 94 10000 4.12 190 08:51 08.09.2022
1867 Clouds 17 1014 94 10000 4.12 190 06:42 08.09.2022
1868 Clouds 17 1015 94 6000 4.12 260 02:37 08.09.2022
1869 Rain 17 1015 88 6000 4.12 270 02:18 08.09.2022
1870 Rain 18 1015 77 10000 2.06 260 01:38 08.09.2022
1871 Clear 18 1015 72 10000 1.54 210 22:54 07.09.2022
1872 Clear 20 1014 68 10000 1.54 250 21:42 07.09.2022
1873 Clouds 22 1014 56 10000 2.57 250 20:49 07.09.2022
1874 Clear 22 1014 56 10000 2.06 250 19:40 07.09.2022
1875 Clouds 21 1014 64 10000 4.63 290 18:27 07.09.2022
1876 Clouds 25 1013 50 10000 0.51 0 14:26 07.09.2022
1877 Clear 22 1015 64 10000 4.63 360 10:48 07.09.2022
1878 Clear 19 1015 72 10000 3.09 310 09:19 07.09.2022
1879 Clear 18 1015 77 10000 0.51 0 07:23 07.09.2022
1880 Clear 18 1016 72 10000 2.06 180 03:19 07.09.2022
1881 Clear 20 1017 64 10000 1.54 260 22:59 06.09.2022
1882 Clear 22 1016 56 10000 2.57 330 21:41 06.09.2022
1883 Clear 24 1016 57 10000 6.17 310 20:24 06.09.2022
1884 Clear 27 1015 47 10000 6.17 300 18:45 06.09.2022
1885 Clear 27 1015 47 10000 6.17 300 18:21 06.09.2022
1886 Clear 28 1015 44 10000 6.69 280 17:21 06.09.2022
1887 Clear 28 1015 39 10000 8.75 260 16:37 06.09.2022
1888 Clear 29 1014 37 10000 6.69 260 14:59 06.09.2022
1889 Clear 30 1014 35 10000 5.66 230 13:45 06.09.2022
1890 Clouds 29 1015 39 10000 6.17 210 13:22 06.09.2022
1891 Clouds 26 1015 57 10000 3.09 140 11:54 06.09.2022
1892 Clouds 22 1016 60 10000 3.09 70 10:41 06.09.2022
1893 Clouds 18 1016 88 10000 1.54 80 08:41 06.09.2022
1894 Clouds 18 1016 88 10000 2.06 40 07:37 06.09.2022
1895 Clear 19 1017 77 10000 2.06 340 02:43 06.09.2022
1896 Clear 22 1017 60 10000 3.09 360 23:22 05.09.2022
1897 Clear 24 1016 43 10000 3.6 350 21:52 05.09.2022
1898 Clear 28 1015 32 10000 3.09 310 20:32 05.09.2022
1899 Clear 29 1015 30 10000 3.6 300 19:18 05.09.2022
1900 Clear 30 1015 26 10000 7.72 280 18:44 05.09.2022
1901 Clear 31 1015 23 10000 8.23 270 18:21 05.09.2022
1902 Clear 32 1015 27 10000 7.72 260 16:27 05.09.2022
1903 Clear 32 1015 27 10000 8.75 250 15:29 05.09.2022
1904 Clear 31 1015 35 10000 4.63 230 13:21 05.09.2022
1905 Clear 28 1016 42 10000 2.06 140 11:53 05.09.2022
1906 Clear 18 1016 82 10000 0.51 210 08:58 05.09.2022
1907 Clear 20 1015 73 10000 2.57 40 06:38 05.09.2022
1908 Clear 20 1016 77 10000 3.09 10 01:56 05.09.2022
1909 Clear 25 1014 41 10000 2.06 360 22:39 04.09.2022
1910 Clear 25 1014 41 10000 2.06 360 22:19 04.09.2022
1911 Clear 30 1013 25 10000 3.09 300 20:37 04.09.2022
1912 Clear 32 1013 25 10000 3.09 290 18:55 04.09.2022
1913 Clear 32 1013 25 10000 2.57 0 17:43 04.09.2022
1914 Clear 32 1014 27 10000 4.12 260 16:28 04.09.2022
1915 Clear 31 1014 29 10000 5.66 220 14:25 04.09.2022
1916 Clear 29 1015 42 10000 4.63 200 12:57 04.09.2022
1917 Clear 25 1015 61 10000 4.12 170 11:37 04.09.2022
1918 Clear 20 1014 73 10000 2.06 120 09:39 04.09.2022
1919 Clear 18 1013 72 10000 1.54 70 06:40 04.09.2022
1920 Clear 19 1014 72 10000 1.54 10 03:18 04.09.2022
1921 Clear 20 1014 73 10000 2.06 10 22:56 03.09.2022
1922 Clear 21 1014 64 10000 2.06 10 22:18 03.09.2022
1923 Clear 22 1013 56 10000 2.57 330 21:22 03.09.2022
1924 Clear 25 1013 47 10000 2.57 340 18:49 03.09.2022
1925 Clear 26 1013 47 10000 3.6 360 17:22 03.09.2022
1926 Clear 26 1013 47 10000 3.6 360 17:22 03.09.2022
1927 Clouds 25 1013 50 10000 3.09 300 15:54 03.09.2022
1928 Clouds 25 1013 50 10000 4.12 310 14:42 03.09.2022
1929 Clouds 26 1013 50 10000 3.6 290 13:50 03.09.2022
1930 Clouds 23 1014 64 10000 2.57 250 11:33 03.09.2022
1931 Clear 18 1013 94 10000 1.54 190 09:37 03.09.2022
1932 Clear 17 1013 94 10000 2.06 190 07:54 03.09.2022
1933 Clouds 17 1013 94 10000 2.06 210 04:55 03.09.2022
1934 Clouds 18 1013 94 10000 2.57 210 02:49 03.09.2022
1935 Clouds 19 1013 88 10000 3.6 210 23:49 02.09.2022
1936 Clouds 20 1013 83 10000 2.57 220 22:27 02.09.2022
1937 Clouds 22 1012 68 10000 4.63 250 20:56 02.09.2022
1938 Clouds 23 1012 64 10000 5.14 260 20:22 02.09.2022
1939 Clouds 25 1012 57 10000 6.17 250 18:51 02.09.2022
1940 Clouds 25 1012 57 10000 5.14 260 18:26 02.09.2022
1941 Clouds 26 1012 53 10000 6.69 260 17:28 02.09.2022
1942 Clouds 26 1012 53 10000 5.66 270 16:32 02.09.2022
1943 Clouds 23 1013 68 10000 5.14 310 13:50 02.09.2022
1944 Clouds 23 1014 73 10000 1.03 0 11:36 02.09.2022
1945 Clouds 20 1014 88 10000 1.54 0 09:46 02.09.2022
1946 Clouds 18 1014 94 9000 1.03 0 08:47 02.09.2022
1947 Clear 19 1013 88 10000 2.06 240 06:48 02.09.2022
1948 Clear 18 1013 94 10000 1.54 240 06:22 02.09.2022
1949 Clear 21 1014 73 10000 2.06 340 00:26 02.09.2022
1950 Clear 22 1014 64 10000 2.06 320 22:21 01.09.2022
1951 Clear 23 1014 56 10000 2.57 320 21:38 01.09.2022
1952 Clear 23 1014 56 10000 2.57 320 21:19 01.09.2022
1953 Clear 25 1013 50 10000 4.12 320 20:23 01.09.2022
1954 Clear 28 1013 47 10000 3.6 350 18:20 01.09.2022
1955 Clouds 28 1014 51 10000 3.09 40 16:54 01.09.2022
1956 Clouds 28 1014 47 10000 2.06 0 14:52 01.09.2022
1957 Clouds 27 1015 54 10000 3.09 330 13:23 01.09.2022
1958 Clouds 26 1015 57 10000 2.57 20 12:50 01.09.2022
1959 Clouds 25 1016 65 10000 2.57 340 11:51 01.09.2022
1960 Clouds 24 1016 69 10000 2.57 300 11:19 01.09.2022
1961 Clouds 21 1016 83 10000 2.57 280 09:31 01.09.2022
1962 Clear 20 1016 88 10000 1.54 250 06:34 01.09.2022
1963 Clouds 20 1017 94 10000 1.54 280 02:34 01.09.2022
1964 Clouds 20 1017 94 10000 2.57 290 01:30 01.09.2022
1965 Clouds 20 1017 94 10000 2.57 290 01:30 01.09.2022
1966 Clouds 20 1017 94 10000 2.57 290 01:30 01.09.2022
1967 Clouds 22 1017 83 10000 3.09 310 22:22 31.08.2022
1968 Clear 24 1016 69 10000 4.63 300 20:35 31.08.2022
1969 Clear 29 1016 51 10000 7.2 300 18:32 31.08.2022
1970 Clear 32 1016 35 10000 2.06 0 16:36 31.08.2022
1971 Clear 31 1016 40 10000 2.06 60 15:21 31.08.2022
1972 Clear 26 1017 57 10000 1.03 0 12:37 31.08.2022
1973 Clear 25 1017 61 10000 1.54 0 11:48 31.08.2022
1974 Clouds 21 1017 88 10000 4.12 20 09:31 31.08.2022
1975 Mist 20 1017 100 3100 2.57 340 07:28 31.08.2022
1976 Clouds 20 1018 94 9000 1.54 280 01:57 31.08.2022
1977 Clear 24 1017 73 10000 3.09 320 21:49 30.08.2022
1978 Clear 25 1017 69 10000 3.09 320 21:21 30.08.2022
1979 Clear 30 1016 48 10000 5.14 330 19:26 30.08.2022
1980 Clear 33 1016 31 10000 2.06 20 16:35 30.08.2022
1981 Clear 30 1018 42 10000 2.57 70 13:30 30.08.2022
1982 Clear 27 1018 54 10000 1.03 0 11:22 30.08.2022
1983 Clear 25 1018 61 10000 0.51 0 10:57 30.08.2022
1984 Clear 25 1018 61 10000 0.51 0 10:57 30.08.2022
1985 Clear 19 1017 77 10000 1.03 270 08:46 30.08.2022
1986 Clear 20 1015 77 10000 2.57 120 03:33 30.08.2022
1987 Clear 24 1016 57 10000 3.09 230 23:45 29.08.2022
1988 Clear 25 1014 53 10000 0 0 22:33 29.08.2022
1989 Clear 26 1013 50 10000 0 0 21:27 29.08.2022
1990 Clear 28 1013 44 10000 4.63 180 20:26 29.08.2022
1991 Clear 30 1014 37 10000 3.6 230 17:58 29.08.2022
1992 Clouds 30 1014 39 10000 1.54 270 17:25 29.08.2022
1993 Clear 30 1013 39 10000 0 0 16:43 29.08.2022
1994 Clear 31 1013 37 10000 2.06 120 15:18 29.08.2022
1995 Clear 30 1013 39 10000 4.12 130 13:26 29.08.2022
1996 Clear 26 1013 47 10000 5.14 100 11:30 29.08.2022
1997 Clear 25 1013 47 10000 3.09 110 10:21 29.08.2022
1998 Clear 22 1013 56 10000 1.54 0 08:38 29.08.2022
1999 Clear 22 1013 60 10000 1.03 0 05:52 29.08.2022
2000 Clear 25 1013 47 10000 2.57 60 01:24 29.08.2022
2001 Clear 26 1013 41 10000 2.57 20 22:47 28.08.2022
2002 Clear 27 1012 36 10000 1.03 0 21:44 28.08.2022
2003 Clear 31 1012 29 10000 3.09 70 20:55 28.08.2022
2004 Clear 32 1012 22 10000 3.09 50 19:29 28.08.2022
2005 Clear 32 1012 23 10000 3.6 60 18:21 28.08.2022
2006 Clear 32 1012 25 10000 2.57 40 17:22 28.08.2022
2007 Clear 32 1013 23 10000 1.54 0 16:27 28.08.2022
2008 Clear 30 1014 35 10000 3.09 80 14:42 28.08.2022
2009 Clear 28 1014 42 10000 3.6 90 12:48 28.08.2022
2010 Clear 24 1014 57 10000 3.6 50 10:43 28.08.2022
2011 Clear 24 1014 57 10000 3.6 50 10:43 28.08.2022
2012 Clear 22 1014 60 10000 3.09 50 09:49 28.08.2022
2013 Clear 19 1014 72 10000 2.06 40 08:37 28.08.2022
2014 Clear 18 1013 77 10000 3.09 30 07:43 28.08.2022
2015 Clear 21 1013 64 10000 2.06 40 02:48 28.08.2022
2016 Clear 22 1013 64 10000 3.6 20 00:27 28.08.2022
2017 Clear 25 1013 47 10000 3.6 360 22:36 27.08.2022
2018 Clear 27 1012 36 10000 3.09 360 21:31 27.08.2022
2019 Clear 30 1012 30 10000 2.57 30 19:44 27.08.2022
2020 Clear 30 1012 35 10000 2.57 310 17:29 27.08.2022
2021 Clear 29 1013 37 10000 2.06 0 15:53 27.08.2022
2022 Clear 29 1013 39 10000 4.12 40 15:24 27.08.2022
2023 Clear 26 1014 53 10000 2.57 50 12:23 27.08.2022
2024 Clear 24 1014 60 10000 1.54 0 11:31 27.08.2022
2025 Clear 22 1014 64 10000 2.06 30 09:48 27.08.2022
2026 Clouds 18 1014 82 10000 1.54 0 07:37 27.08.2022
2027 Clear 19 1015 88 10000 1.03 0 02:52 27.08.2022
2028 Clear 21 1015 83 10000 1.54 310 23:57 26.08.2022
2029 Clear 23 1015 73 10000 2.06 300 22:40 26.08.2022
2030 Clear 24 1015 69 10000 3.6 310 21:19 26.08.2022
2031 Clear 26 1015 57 10000 5.14 360 19:23 26.08.2022
2032 Clouds 28 1016 51 10000 5.14 310 16:50 26.08.2022
2033 Clouds 27 1016 54 10000 4.63 340 15:31 26.08.2022
2034 Clouds 27 1017 57 10000 3.09 350 14:30 26.08.2022
2035 Clouds 25 1018 69 10000 2.57 340 12:49 26.08.2022
2036 Clouds 24 1018 73 10000 2.57 320 11:27 26.08.2022
2037 Clouds 22 1018 78 10000 2.06 360 10:29 26.08.2022
2038 Clear 19 1018 94 10000 2.57 290 07:28 26.08.2022
2039 Clouds 21 1019 88 10000 2.06 260 01:41 26.08.2022
2040 Clouds 22 1019 88 10000 3.6 290 23:32 25.08.2022
2041 Clear 24 1018 73 10000 5.14 290 21:27 25.08.2022
2042 Clear 27 1017 57 10000 4.63 300 20:29 25.08.2022
2043 Clear 29 1016 48 10000 5.14 300 18:53 25.08.2022
2044 Clouds 30 1017 48 10000 4.12 290 17:44 25.08.2022
2045 Clouds 30 1017 48 10000 3.6 300 17:24 25.08.2022
2046 Clouds 28 1017 57 10000 2.57 320 15:39 25.08.2022
2047 Clouds 26 1018 69 10000 4.63 300 14:34 25.08.2022
2048 Clouds 26 1017 69 10000 4.63 270 11:54 25.08.2022
2049 Clear 23 1016 78 10000 3.09 260 10:46 25.08.2022
2050 Clear 21 1016 94 10000 1.54 360 08:54 25.08.2022
2051 Thunderstorm 22 1015 88 9000 7.72 300 05:20 25.08.2022
2052 Clear 27 1013 54 10000 3.6 350 00:59 25.08.2022
2053 Clear 27 1012 57 10000 1.54 30 23:26 24.08.2022
2054 Clear 28 1011 47 10000 1.54 0 22:22 24.08.2022
2055 Clear 31 1012 37 10000 2.06 90 21:34 24.08.2022
2056 Clear 34 1011 29 10000 2.57 100 20:32 24.08.2022
2057 Clear 35 1011 28 10000 2.57 140 18:57 24.08.2022
2058 Clear 34 1012 31 10000 2.57 90 16:36 24.08.2022
2059 Clear 34 1012 33 10000 3.09 70 15:52 24.08.2022
2060 Clear 31 1013 42 10000 3.09 130 13:33 24.08.2022
2061 Clear 27 1014 57 10000 1.54 0 11:24 24.08.2022
2062 Clear 22 1014 78 10000 1.54 60 09:33 24.08.2022
2063 Clear 19 1014 88 10000 1.54 40 07:47 24.08.2022
2064 Clear 21 1015 83 10000 2.06 20 02:25 24.08.2022
2065 Clear 24 1016 73 10000 2.57 360 22:59 23.08.2022
2066 Clear 25 1016 65 10000 3.6 10 22:29 23.08.2022
2067 Clear 26 1015 61 10000 2.57 360 21:27 23.08.2022
2068 Clear 29 1015 51 10000 3.09 20 19:57 23.08.2022
2069 Clear 29 1015 51 10000 2.06 0 18:33 23.08.2022
2070 Clouds 29 1016 51 10000 2.57 30 17:47 23.08.2022
2071 Clouds 28 1016 54 10000 2.06 0 16:50 23.08.2022
2072 Clouds 26 1017 65 10000 1.54 50 15:23 23.08.2022
2073 Clouds 24 1017 78 10000 1.54 80 13:26 23.08.2022
2074 Clouds 22 1018 88 10000 0.51 0 11:24 23.08.2022
2075 Mist 21 1017 94 5000 1.03 0 10:35 23.08.2022
2076 Clouds 21 1018 88 7000 0 0 09:47 23.08.2022
2077 Clouds 20 1017 100 10000 0 0 08:49 23.08.2022
2078 Clouds 20 1017 94 10000 0 0 08:20 23.08.2022
2079 Clouds 20 1017 94 10000 0 0 08:20 23.08.2022
2080 Clouds 20 1017 94 10000 1.03 130 07:34 23.08.2022
2081 Drizzle 20 1017 94 10000 1.03 0 06:27 23.08.2022
2082 Mist 20 1017 94 5000 0.51 210 02:28 23.08.2022
2083 Clouds 21 1017 83 10000 1.54 270 00:28 23.08.2022
2084 Clouds 21 1017 83 10000 1.54 280 23:33 22.08.2022
2085 Clouds 22 1017 78 10000 2.57 310 22:34 22.08.2022
2086 Clouds 22 1017 78 10000 3.09 310 21:24 22.08.2022
2087 Clouds 23 1017 73 10000 4.12 300 19:47 22.08.2022
2088 Clouds 24 1017 69 10000 4.63 310 18:44 22.08.2022
2089 Clouds 25 1017 61 10000 6.17 290 16:47 22.08.2022
2090 Clouds 26 1017 57 10000 6.17 280 15:38 22.08.2022
2091 Clouds 24 1017 69 10000 4.12 280 13:44 22.08.2022
2092 Clouds 21 1017 88 10000 3.09 270 10:26 22.08.2022
2093 Clouds 20 1017 94 10000 1.54 260 07:41 22.08.2022
2094 Clouds 20 1017 88 10000 2.57 200 02:56 22.08.2022
2095 Clouds 21 1018 78 10000 1.54 250 00:38 22.08.2022
2096 Clouds 21 1018 78 10000 1.54 250 00:18 22.08.2022
2097 Clouds 22 1018 73 10000 2.57 260 22:18 21.08.2022
2098 Clouds 22 1018 68 10000 4.12 270 21:23 21.08.2022
2099 Clear 24 1018 60 10000 5.66 290 20:27 21.08.2022
2100 Clouds 25 1018 53 10000 5.14 300 19:23 21.08.2022
2101 Clear 27 1018 44 10000 4.63 310 16:54 21.08.2022
2102 Clouds 26 1018 50 10000 4.12 350 15:53 21.08.2022
2103 Clouds 26 1018 50 10000 3.6 290 15:18 21.08.2022
2104 Clouds 24 1019 57 10000 2.57 340 13:51 21.08.2022
2105 Clouds 24 1019 57 10000 2.06 320 13:24 21.08.2022
2106 Clouds 22 1019 64 10000 3.09 350 10:49 21.08.2022
2107 Clear 19 1019 77 10000 1.54 340 09:31 21.08.2022
2108 Clear 19 1019 77 10000 1.54 0 08:56 21.08.2022
2109 Clear 18 1019 82 10000 0 0 08:38 21.08.2022
2110 Clear 17 1018 88 10000 2.06 350 07:26 21.08.2022
2111 Clear 20 1019 77 10000 1.54 0 03:24 21.08.2022
2112 Clear 21 1019 78 10000 2.57 350 23:45 20.08.2022
2113 Clear 23 1019 68 10000 2.57 350 22:23 20.08.2022
2114 Clear 25 1018 53 10000 2.57 30 21:26 20.08.2022
2115 Clear 26 1018 53 10000 2.57 10 19:58 20.08.2022
2116 Clear 26 1018 53 10000 3.09 20 19:39 20.08.2022
2117 Clear 26 1018 53 10000 3.09 20 19:39 20.08.2022
2118 Clear 26 1018 53 10000 3.6 30 18:27 20.08.2022
2119 Clear 27 1019 54 10000 2.57 40 17:38 20.08.2022
2120 Clouds 27 1020 54 10000 2.57 10 16:35 20.08.2022
2121 Clouds 27 1021 54 10000 2.06 0 14:55 20.08.2022
2122 Clouds 23 1021 68 10000 1.54 0 12:28 20.08.2022
2123 Clouds 22 1021 73 10000 1.54 40 11:46 20.08.2022
2124 Clouds 21 1021 78 10000 0 0 09:25 20.08.2022
2125 Clouds 19 1021 88 10000 1.03 280 07:31 20.08.2022
2126 Clouds 19 1021 88 10000 1.03 0 05:48 20.08.2022
2127 Clear 19 1022 94 10000 1.03 240 00:58 20.08.2022
2128 Clear 20 1022 88 10000 1.54 0 23:52 19.08.2022
2129 Clear 21 1022 78 10000 2.06 320 22:48 19.08.2022
2130 Clear 23 1021 73 10000 5.14 300 21:34 19.08.2022
2131 Clouds 26 1021 61 10000 5.14 290 19:40 19.08.2022
2132 Clouds 25 1021 65 10000 4.12 290 16:28 19.08.2022
2133 Clouds 25 1022 61 10000 3.6 230 14:22 19.08.2022
2134 Clouds 23 1022 64 10000 2.57 260 12:19 19.08.2022
2135 Clouds 22 1022 68 10000 4.63 270 10:39 19.08.2022
2136 Clear 18 1021 82 10000 2.06 240 08:48 19.08.2022
2137 Clouds 17 1020 88 10000 2.06 240 04:43 19.08.2022
2138 Clouds 19 1020 77 10000 2.06 310 00:42 19.08.2022
2139 Clouds 19 1020 82 10000 4.12 300 00:19 19.08.2022
2140 Clouds 20 1020 77 10000 4.12 310 22:57 18.08.2022
2141 Clouds 20 1019 77 10000 4.12 310 22:23 18.08.2022
2142 Clouds 20 1019 77 10000 4.12 310 21:49 18.08.2022
2143 Clouds 21 1019 73 10000 5.14 320 20:48 18.08.2022
2144 Clouds 23 1018 60 10000 6.69 310 19:39 18.08.2022
2145 Clouds 24 1018 57 10000 7.72 300 19:20 18.08.2022
2146 Clouds 26 1017 47 10000 6.69 310 17:32 18.08.2022
2147 Clouds 24 1017 57 10000 6.17 290 15:53 18.08.2022
2148 Clear 23 1017 64 10000 1.54 290 14:21 18.08.2022
2149 Clear 20 1017 77 10000 1.03 0 13:44 18.08.2022
2150 Clouds 23 1017 60 10000 4.12 20 12:28 18.08.2022
2151 Clouds 22 1016 64 10000 3.09 350 11:19 18.08.2022
2152 Clear 17 1016 94 10000 1.03 0 09:43 18.08.2022
2153 Clouds 15 1015 94 10000 0 0 07:27 18.08.2022
2154 Clouds 16 1015 94 10000 2.06 240 06:18 18.08.2022
2155 Clear 17 1015 88 10000 0 0 01:43 18.08.2022
2156 Clear 20 1014 73 10000 2.06 280 22:32 17.08.2022
2157 Clouds 22 1013 60 10000 5.14 300 20:21 17.08.2022
2158 Clear 24 1013 50 10000 5.66 290 19:55 17.08.2022
2159 Clear 23 1012 64 10000 3.6 250 18:32 17.08.2022
2160 Clouds 21 1012 78 10000 2.57 180 16:50 17.08.2022
2161 Rain 20 1012 83 10000 1.54 170 15:41 17.08.2022
2162 Clouds 24 1011 57 10000 1.54 0 14:29 17.08.2022
2163 Clouds 21 1012 78 10000 4.12 250 12:21 17.08.2022
2164 Clouds 19 1011 88 10000 3.6 210 10:25 17.08.2022
2165 Clouds 19 1011 88 10000 3.6 210 10:25 17.08.2022
2166 Rain 17 1010 94 10000 3.6 180 08:25 17.08.2022
2167 Clouds 18 1010 82 10000 3.09 160 05:35 17.08.2022
2168 Clouds 20 1010 77 10000 2.06 260 00:49 17.08.2022
2169 Clouds 21 1011 73 10000 3.6 270 22:59 16.08.2022
2170 Clear 24 1009 53 10000 4.63 280 20:59 16.08.2022
2171 Clear 26 1008 50 10000 3.09 290 19:55 16.08.2022
2172 Clear 25 1008 50 10000 3.09 300 19:22 16.08.2022
2173 Clouds 27 1008 50 10000 5.14 300 17:55 16.08.2022
2174 Clouds 27 1008 50 10000 4.12 260 16:46 16.08.2022
2175 Clouds 27 1008 54 10000 5.14 270 15:44 16.08.2022
2176 Clouds 27 1008 47 10000 3.6 270 14:54 16.08.2022
2177 Clouds 26 1007 53 10000 2.57 280 14:36 16.08.2022
2178 Clear 21 1007 78 10000 1.54 20 11:40 16.08.2022
2179 Clear 21 1007 78 10000 1.54 20 11:40 16.08.2022
2180 Clear 21 1007 78 10000 1.54 330 10:20 16.08.2022
2181 Clouds 19 1007 94 7000 1.54 10 08:49 16.08.2022
2182 Clouds 19 1007 94 7000 1.54 0 08:20 16.08.2022
2183 Clear 18 1007 94 10000 1.03 140 05:52 16.08.2022
2184 Clear 20 1010 83 10000 1.03 220 23:27 15.08.2022
2185 Clear 21 1009 73 10000 1.54 230 22:20 15.08.2022
2186 Clear 23 1009 64 10000 3.09 260 21:43 15.08.2022
2187 Clear 24 1009 60 10000 4.63 280 20:31 15.08.2022
2188 Clear 24 1009 57 10000 5.14 260 18:57 15.08.2022
2189 Clear 26 1009 53 10000 7.2 250 17:59 15.08.2022
2190 Clear 26 1009 47 10000 6.69 260 16:24 15.08.2022
2191 Clouds 26 1010 47 10000 6.69 250 14:49 15.08.2022
2192 Clouds 25 1010 53 10000 6.69 280 13:23 15.08.2022
2193 Clouds 22 1010 78 10000 3.09 210 10:37 15.08.2022
2194 Clear 18 1010 94 10000 2.57 190 08:54 15.08.2022
2195 Clouds 18 1009 94 10000 2.57 200 06:49 15.08.2022
2196 Clouds 17 1010 94 10000 2.57 170 03:56 15.08.2022
2197 Clouds 19 1011 82 10000 2.06 210 23:38 14.08.2022
2198 Clear 21 1010 73 10000 3.09 260 21:49 14.08.2022
2199 Clear 23 1010 60 10000 5.14 260 20:54 14.08.2022
2200 Clouds 24 1010 57 10000 6.17 260 19:45 14.08.2022
2201 Clouds 25 1010 53 10000 6.17 270 18:32 14.08.2022
2202 Clouds 25 1010 53 10000 6.17 270 18:32 14.08.2022
2203 Clouds 26 1010 50 10000 7.72 260 17:41 14.08.2022
2204 Clouds 25 1010 57 10000 5.14 230 16:25 14.08.2022
2205 Clouds 25 1011 57 10000 4.12 270 15:43 14.08.2022
2206 Clouds 23 1011 68 10000 3.6 260 13:52 14.08.2022
2207 Clouds 23 1011 73 10000 4.63 280 13:33 14.08.2022
2208 Clouds 22 1011 78 10000 4.63 270 12:45 14.08.2022
2209 Clouds 22 1011 83 10000 3.6 300 11:30 14.08.2022
2210 Clouds 20 1011 94 7000 2.06 220 09:34 14.08.2022
2211 Clouds 20 1010 94 6000 3.09 220 06:54 14.08.2022
2212 Clouds 20 1010 100 6000 3.09 230 05:45 14.08.2022
2213 Thunderstorm 20 1011 100 5000 4.12 350 01:43 14.08.2022
2214 Rain 22 1011 83 10000 4.12 290 23:23 13.08.2022
2215 Rain 23 1011 78 10000 5.14 250 22:28 13.08.2022
2216 Clear 25 1009 69 10000 5.14 300 20:56 13.08.2022
2217 Clear 29 1009 54 10000 4.63 310 19:49 13.08.2022
2218 Clear 30 1009 51 10000 4.63 290 19:19 13.08.2022
2219 Clear 34 1010 40 10000 2.57 220 17:22 13.08.2022
2220 Clear 32 1011 43 10000 1.54 0 14:51 13.08.2022
2221 Clear 32 1011 43 10000 2.06 0 14:24 13.08.2022
2222 Clear 29 1012 51 10000 1.54 0 13:34 13.08.2022
2223 Clouds 26 1013 65 10000 3.09 220 11:33 13.08.2022
2224 Clouds 22 1012 88 10000 1.03 0 09:26 13.08.2022
2225 Clouds 20 1012 94 7000 1.03 220 07:43 13.08.2022
2226 Clouds 22 1013 88 10000 5.14 260 01:52 13.08.2022
2227 Clear 24 1013 78 10000 3.6 260 23:32 12.08.2022
2228 Clear 28 1011 54 10000 5.66 270 21:40 12.08.2022
2229 Clear 34 1011 29 10000 6.17 280 19:50 12.08.2022
2230 Clear 35 1011 28 10000 5.66 290 19:24 12.08.2022
2231 Clear 37 1011 26 10000 4.63 300 18:29 12.08.2022
2232 Clear 36 1011 34 10000 5.14 260 16:27 12.08.2022
2233 Clear 36 1012 34 10000 4.63 230 15:21 12.08.2022
2234 Clear 34 1012 38 10000 3.6 240 13:47 12.08.2022
2235 Clear 33 1013 38 10000 4.12 250 12:38 12.08.2022
2236 Clear 27 1012 44 10000 1.03 0 08:57 12.08.2022
2237 Clear 24 1012 53 10000 1.03 0 07:46 12.08.2022
2238 Clear 26 1012 47 10000 2.57 220 06:24 12.08.2022
2239 Clear 30 1012 32 10000 2.06 10 00:49 12.08.2022
2240 Clear 31 1012 30 10000 2.57 10 23:59 11.08.2022
2241 Clear 31 1012 30 10000 3.09 360 23:25 11.08.2022
2242 Clear 34 1012 29 10000 3.09 350 21:53 11.08.2022
2243 Clear 35 1011 28 10000 2.06 360 21:28 11.08.2022
2244 Clear 37 1011 25 10000 3.6 30 20:31 11.08.2022
2245 Clear 37 1011 25 10000 3.6 30 20:31 11.08.2022
2246 Clouds 38 1011 20 10000 2.57 20 19:33 11.08.2022
2247 Clear 38 1011 22 10000 1.54 0 18:56 11.08.2022
2248 Clouds 38 1012 22 10000 1.54 0 16:47 11.08.2022
2249 Clear 37 1012 23 10000 3.09 90 15:43 11.08.2022
2250 Clear 36 1013 24 10000 4.63 90 14:40 11.08.2022
2251 Clear 31 1014 30 10000 3.09 80 11:59 11.08.2022
2252 Clear 25 1014 41 10000 2.06 80 09:22 11.08.2022
2253 Clear 22 1013 43 10000 2.57 30 06:49 11.08.2022
2254 Clear 26 1014 34 10000 2.57 30 02:49 11.08.2022
2255 Clear 30 1014 26 10000 4.63 40 23:57 10.08.2022
2256 Clear 32 1013 20 10000 3.6 360 21:49 10.08.2022
2257 Clear 34 1013 18 10000 3.6 350 21:18 10.08.2022
2258 Clear 36 1013 14 10000 2.57 20 20:35 10.08.2022
2259 Clear 38 1013 11 10000 3.6 30 18:53 10.08.2022
2260 Clear 38 1014 11 10000 4.12 50 17:27 10.08.2022
2261 Clear 36 1015 16 10000 2.57 0 14:53 10.08.2022
2262 Clear 34 1016 21 10000 4.12 50 13:33 10.08.2022
2263 Clear 28 1017 32 10000 3.09 60 10:50 10.08.2022
2264 Clear 22 1016 49 10000 2.57 40 08:39 10.08.2022
2265 Clear 21 1016 52 10000 2.57 40 07:35 10.08.2022
2266 Clear 22 1017 49 10000 2.06 40 04:50 10.08.2022
2267 Clear 26 1017 36 10000 3.09 30 01:52 10.08.2022
2268 Clear 28 1017 34 10000 3.6 20 23:32 09.08.2022
2269 Clear 29 1017 34 10000 3.6 10 22:45 09.08.2022
2270 Clear 32 1017 25 10000 3.6 10 21:24 09.08.2022
2271 Clear 35 1016 18 10000 5.66 10 19:28 09.08.2022
2272 Clear 35 1017 17 10000 4.12 10 17:39 09.08.2022
2273 Clear 35 1017 17 10000 4.12 10 17:21 09.08.2022
2274 Clear 35 1017 17 10000 4.12 30 16:30 09.08.2022
2275 Clear 35 1018 18 10000 3.6 70 15:26 09.08.2022
2276 Clear 28 1019 32 10000 2.06 40 11:49 09.08.2022
2277 Clear 22 1019 43 10000 3.09 30 08:53 09.08.2022
2278 Clouds 21 1019 46 10000 2.57 20 07:58 09.08.2022
2279 Clear 22 1018 43 10000 2.57 20 05:25 09.08.2022
2280 Clear 27 1018 32 10000 3.6 20 00:59 09.08.2022
2281 Clear 27 1018 32 10000 3.6 20 00:59 09.08.2022
2282 Clear 29 1018 28 10000 5.14 30 23:25 08.08.2022
2283 Clear 29 1018 30 10000 4.63 20 22:42 08.08.2022
2284 Clear 31 1017 29 10000 4.63 20 21:44 08.08.2022
2285 Clear 33 1016 22 10000 5.14 20 20:39 08.08.2022
2286 Clear 34 1016 18 10000 5.66 20 19:35 08.08.2022
2287 Clear 34 1016 18 10000 4.63 30 18:18 08.08.2022
2288 Clear 33 1017 18 10000 5.66 30 15:54 08.08.2022
2289 Clear 33 1017 18 10000 5.14 50 15:36 08.08.2022
2290 Clear 28 1018 32 10000 3.6 30 12:30 08.08.2022
2291 Clear 23 1018 40 10000 4.63 50 10:33 08.08.2022
2292 Clear 19 1018 48 10000 2.57 30 07:59 08.08.2022
2293 Clear 21 1017 40 10000 2.06 30 03:45 08.08.2022
2294 Clear 26 1017 29 10000 4.12 20 23:28 07.08.2022
2295 Clear 29 1016 28 10000 5.14 20 21:41 07.08.2022
2296 Clear 30 1015 28 10000 6.17 20 20:55 07.08.2022
2297 Clear 31 1015 27 10000 6.69 20 20:18 07.08.2022
2298 Clear 32 1015 25 10000 6.69 30 19:51 07.08.2022
2299 Clear 33 1015 24 10000 5.14 30 18:49 07.08.2022
2300 Clear 33 1015 24 10000 4.63 30 17:22 07.08.2022
2301 Clear 32 1016 23 10000 3.6 30 16:51 07.08.2022
2302 Clear 30 1017 28 10000 3.09 60 15:29 07.08.2022
2303 Clear 28 1018 30 10000 4.12 40 13:55 07.08.2022
2304 Clear 26 1018 34 10000 3.6 10 12:40 07.08.2022
2305 Clear 22 1019 40 10000 3.09 20 10:48 07.08.2022
2306 Clear 21 1019 40 10000 4.63 20 09:56 07.08.2022
2307 Clear 21 1018 46 10000 4.63 20 04:33 07.08.2022
2308 Clear 23 1019 40 10000 4.63 20 01:59 07.08.2022
2309 Clear 27 1018 34 10000 3.6 10 22:33 06.08.2022
2310 Clear 27 1018 32 10000 3.6 10 21:52 06.08.2022
2311 Clear 31 1017 25 10000 6.69 360 19:43 06.08.2022
2312 Clear 32 1018 23 10000 6.17 350 18:38 06.08.2022
2313 Clear 32 1018 25 10000 4.12 20 17:45 06.08.2022
2314 Clear 32 1019 27 10000 4.12 10 16:19 06.08.2022
2315 Clear 30 1020 32 10000 4.12 30 13:50 06.08.2022
2316 Clear 27 1021 44 10000 4.12 50 12:21 06.08.2022
2317 Clear 25 1020 47 10000 4.12 30 10:53 06.08.2022
2318 Clear 23 1020 53 10000 4.63 30 09:31 06.08.2022
2319 Clear 23 1019 53 10000 4.12 30 04:38 06.08.2022
2320 Clear 24 1019 50 10000 2.06 340 00:46 06.08.2022
2321 Clear 25 1019 47 10000 3.6 330 22:35 05.08.2022
2322 Clear 30 1018 39 10000 5.66 340 20:37 05.08.2022
2323 Clear 30 1017 45 10000 5.14 10 18:55 05.08.2022
2324 Clear 30 1017 45 10000 4.63 10 18:36 05.08.2022
2325 Clear 30 1018 45 10000 3.09 330 16:52 05.08.2022
2326 Clouds 30 1018 48 10000 2.06 0 15:24 05.08.2022
2327 Clear 29 1018 51 10000 2.57 330 14:34 05.08.2022
2328 Clear 27 1018 57 10000 1.54 0 13:26 05.08.2022
2329 Clear 27 1019 57 10000 2.06 0 12:59 05.08.2022
2330 Clear 24 1018 64 10000 2.06 40 11:20 05.08.2022
2331 Clear 20 1017 88 10000 1.54 0 08:57 05.08.2022
2332 Clear 20 1016 88 10000 1.03 0 07:34 05.08.2022
2333 Clear 20 1016 88 10000 3.09 230 02:33 05.08.2022
2334 Clear 22 1016 78 10000 4.63 260 23:18 04.08.2022
2335 Clear 25 1014 65 10000 4.63 270 21:28 04.08.2022
2336 Clear 26 1013 61 10000 5.66 280 20:57 04.08.2022
2337 Clear 27 1013 57 10000 6.69 290 20:35 04.08.2022
2338 Clear 32 1013 40 10000 4.63 280 18:58 04.08.2022
2339 Clear 32 1013 40 10000 5.14 280 18:33 04.08.2022
2340 Clear 32 1013 45 10000 5.14 240 15:51 04.08.2022
2341 Clear 32 1014 43 10000 2.57 200 13:26 04.08.2022
2342 Clear 27 1014 57 10000 2.06 250 11:39 04.08.2022
2343 Clear 24 1014 73 10000 2.57 220 10:20 04.08.2022
2344 Clear 20 1014 88 10000 3.09 240 07:44 04.08.2022
2345 Clear 22 1014 83 10000 3.09 250 02:48 04.08.2022
2346 Clear 25 1013 73 10000 2.57 240 00:33 04.08.2022
2347 Clear 27 1013 65 10000 3.6 220 23:39 03.08.2022
2348 Clear 33 1012 29 10000 2.06 340 21:27 03.08.2022
2349 Clear 35 1011 26 10000 4.63 10 20:20 03.08.2022
2350 Clear 37 1011 22 10000 4.63 20 18:53 03.08.2022
2351 Clear 37 1012 22 10000 5.14 90 16:27 03.08.2022
2352 Clear 38 1013 18 10000 5.14 20 15:53 03.08.2022
2353 Clear 36 1014 24 10000 2.06 60 13:38 03.08.2022
2354 Clear 31 1014 40 10000 1.03 0 10:50 03.08.2022
2355 Clear 21 1013 73 10000 1.03 0 07:23 03.08.2022
2356 Clear 22 1013 73 10000 1.54 360 04:22 03.08.2022
2357 Clear 23 1013 73 10000 1.54 10 03:23 03.08.2022
2358 Clear 26 1014 57 10000 2.57 10 00:46 03.08.2022
2359 Clear 29 1014 42 10000 4.12 10 22:33 02.08.2022
2360 Clear 32 1014 31 10000 4.63 10 21:50 02.08.2022
2361 Clear 35 1014 24 10000 4.12 10 20:29 02.08.2022
2362 Clear 36 1015 20 10000 3.09 20 17:47 02.08.2022
2363 Clear 33 1017 29 10000 1.54 0 14:39 02.08.2022
2364 Clear 27 1018 57 10000 0.51 0 10:49 02.08.2022
2365 Clear 18 1018 88 10000 1.03 200 08:38 02.08.2022
2366 Clear 18 1018 94 10000 1.03 210 07:51 02.08.2022
2367 Clear 18 1018 94 10000 1.03 0 04:57 02.08.2022
2368 Clear 19 1018 82 10000 1.54 330 03:30 02.08.2022
2369 Clear 22 1019 68 10000 2.57 330 23:26 01.08.2022
2370 Clear 26 1018 53 10000 2.57 310 21:49 01.08.2022
2371 Clear 29 1018 45 10000 5.14 340 20:27 01.08.2022
2372 Clear 32 1018 35 10000 5.14 340 18:57 01.08.2022
2373 Clear 34 1018 29 10000 3.09 350 17:22 01.08.2022
2374 Clear 34 1018 29 10000 3.09 350 16:48 01.08.2022
2375 Clear 33 1018 31 10000 3.6 30 15:45 01.08.2022
2376 Clear 32 1019 35 10000 2.57 300 15:19 01.08.2022
2377 Clear 28 1020 47 10000 2.06 0 13:32 01.08.2022
2378 Clear 23 1020 68 10000 2.57 300 11:18 01.08.2022
2379 Fog 17 1020 100 250 1.54 0 09:34 01.08.2022
2380 Fog 16 1020 100 550 2.06 270 07:37 01.08.2022
2381 Fog 17 1020 94 10000 1.54 0 04:37 01.08.2022
2382 Clear 18 1020 88 10000 2.06 320 01:33 01.08.2022
2383 Clear 21 1020 78 10000 2.57 300 22:47 31.07.2022
2384 Clear 22 1020 68 10000 3.09 310 22:29 31.07.2022
2385 Clear 28 1019 42 10000 5.66 310 20:39 31.07.2022
2386 Clear 30 1019 39 10000 5.66 320 18:42 31.07.2022
2387 Clear 30 1019 42 10000 5.14 330 17:29 31.07.2022
2388 Clear 30 1020 42 10000 3.6 310 14:43 31.07.2022
2389 Clear 28 1021 47 10000 1.54 0 12:59 31.07.2022
2390 Clear 24 1022 64 10000 1.54 280 11:39 31.07.2022
2391 Fog 17 1021 100 300 2.06 300 08:47 31.07.2022
2392 Fog 18 1021 94 10000 0.51 0 05:38 31.07.2022
2393 Clear 18 1022 88 10000 2.06 320 02:29 31.07.2022
2394 Clear 22 1022 68 10000 3.6 310 22:49 30.07.2022
2395 Clear 24 1021 60 10000 3.09 310 21:52 30.07.2022
2396 Clear 25 1021 53 10000 3.6 310 21:33 30.07.2022
2397 Clear 27 1020 47 10000 5.14 320 20:38 30.07.2022
2398 Clear 28 1020 44 10000 5.66 300 19:50 30.07.2022
2399 Clear 29 1020 45 10000 4.63 280 18:19 30.07.2022
2400 Clear 28 1021 47 10000 5.14 300 16:38 30.07.2022
2401 Clouds 29 1021 45 10000 2.57 260 15:33 30.07.2022
2402 Clouds 26 1022 53 10000 3.09 260 13:23 30.07.2022
2403 Clouds 25 1022 61 10000 1.54 0 12:22 30.07.2022
2404 Clouds 25 1022 65 10000 1.03 0 11:53 30.07.2022
2405 Clouds 23 1022 73 10000 1.54 0 10:20 30.07.2022
2406 Clouds 19 1022 94 10000 0.51 0 08:55 30.07.2022
2407 Fog 16 1022 100 10000 0.51 240 07:33 30.07.2022
2408 Clear 18 1021 94 10000 1.03 270 02:33 30.07.2022
2409 Clear 20 1021 83 10000 2.06 290 00:30 30.07.2022
2410 Clear 23 1020 64 10000 4.12 330 21:38 29.07.2022
2411 Clear 24 1020 57 10000 4.63 320 20:50 29.07.2022
2412 Clear 25 1019 57 10000 5.14 320 19:46 29.07.2022
2413 Clouds 26 1019 53 10000 4.12 330 17:25 29.07.2022
2414 Clouds 25 1019 53 10000 3.09 260 14:50 29.07.2022
2415 Clouds 24 1018 57 10000 2.57 190 12:52 29.07.2022
2416 Clouds 18 1017 88 10000 1.03 200 08:52 29.07.2022
2417 Clouds 18 1017 88 10000 1.54 180 08:24 29.07.2022
2418 Clouds 18 1016 82 10000 1.54 310 05:22 29.07.2022
2419 Clear 19 1017 77 10000 1.54 230 01:19 29.07.2022
2420 Clear 22 1016 56 10000 3.6 300 21:41 28.07.2022
2421 Clear 24 1015 53 10000 5.14 300 20:54 28.07.2022
2422 Clear 25 1015 47 10000 4.63 310 20:19 28.07.2022
2423 Clouds 24 1014 48 10000 4.06 291 19:40 28.07.2022
2424 Clear 26 1014 44 10000 4.12 260 18:20 28.07.2022
2425 Clear 27 1014 41 10000 4.63 260 17:36 28.07.2022
2426 Clear 26 1014 38 10000 5.14 230 16:41 28.07.2022
2427 Clouds 26 1015 38 10000 5.14 230 14:28 28.07.2022
2428 Clouds 24 1015 46 10000 4.12 240 12:41 28.07.2022
2429 Clear 19 1015 72 10000 2.06 220 09:21 28.07.2022
2430 Clear 16 1014 94 10000 2.06 230 05:41 28.07.2022
2431 Clear 16 1014 94 10000 2.06 230 05:21 28.07.2022
2432 Clear 19 1016 72 10000 2.57 280 23:41 27.07.2022
2433 Clear 21 1015 60 10000 3.6 300 21:58 27.07.2022
2434 Clear 24 1015 50 10000 5.66 310 20:19 27.07.2022
2435 Clear 26 1015 41 10000 6.69 300 19:26 27.07.2022
2436 Clear 28 1016 34 10000 3.6 250 16:33 27.07.2022
2437 Clear 27 1016 36 10000 2.06 0 15:51 27.07.2022
2438 Clear 26 1017 38 10000 2.57 120 14:42 27.07.2022
2439 Clear 25 1017 41 10000 2.06 0 13:57 27.07.2022
2440 Clear 22 1018 56 10000 2.06 0 11:18 27.07.2022
2441 Clear 14 1018 88 10000 0 0 07:53 27.07.2022
2442 Clear 14 1019 88 10000 2.06 240 05:18 27.07.2022
2443 Clear 18 1020 68 10000 3.09 320 23:29 26.07.2022
2444 Clouds 20 1019 64 10000 3.09 310 22:19 26.07.2022
2445 Clear 22 1019 49 10000 4.63 320 21:18 26.07.2022
2446 Clear 25 1019 41 10000 5.14 300 19:33 26.07.2022
2447 Clear 26 1019 38 10000 5.14 310 18:41 26.07.2022
2448 Clear 26 1019 38 10000 6.17 290 17:54 26.07.2022
2449 Clear 26 1020 38 10000 5.14 310 15:46 26.07.2022
2450 Clear 25 1020 38 10000 1.54 0 14:43 26.07.2022
2451 Clouds 23 1021 56 10000 3.6 310 12:33 26.07.2022
2452 Clear 20 1021 68 10000 2.06 260 10:32 26.07.2022
2453 Clear 18 1021 82 10000 1.54 250 08:28 26.07.2022
2454 Clouds 18 1022 82 10000 1.03 310 02:25 26.07.2022
2455 Clouds 20 1022 77 10000 2.06 310 00:21 26.07.2022
2456 Clouds 21 1022 68 10000 3.6 310 22:41 25.07.2022
2457 Clouds 21 1021 73 10000 3.6 310 21:44 25.07.2022
2458 Clouds 22 1021 64 10000 4.12 300 20:46 25.07.2022
2459 Clouds 24 1021 64 10000 5.66 310 20:24 25.07.2022
2460 Clouds 23 1021 68 10000 3.6 320 19:25 25.07.2022
2461 Clouds 24 1020 64 10000 7.2 280 17:56 25.07.2022
2462 Clouds 24 1020 64 10000 6.17 300 17:23 25.07.2022
2463 Rain 25 1020 57 10000 5.14 280 13:36 25.07.2022
2464 Clouds 23 1019 60 10000 5.14 280 10:55 25.07.2022
2465 Clouds 20 1018 83 10000 2.57 230 07:59 25.07.2022
2466 Clear 22 1017 73 10000 4.12 270 01:36 25.07.2022
2467 Clear 24 1016 53 10000 5.14 270 23:45 24.07.2022
2468 Clear 26 1014 47 10000 5.14 290 22:47 24.07.2022
2469 Clear 32 1012 33 10000 4.12 300 21:48 24.07.2022
2470 Clear 35 1012 28 10000 5.14 300 21:18 24.07.2022
2471 Clear 35 1012 28 10000 5.14 300 20:44 24.07.2022
2472 Clear 37 1012 22 10000 3.09 10 19:23 24.07.2022
2473 Clear 37 1012 22 10000 2.06 190 18:26 24.07.2022
2474 Clear 35 1014 26 10000 2.06 140 15:55 24.07.2022
2475 Clear 34 1015 27 10000 3.6 100 14:57 24.07.2022
2476 Clear 32 1016 29 10000 3.6 100 13:50 24.07.2022
2477 Clear 30 1017 35 10000 2.57 120 12:28 24.07.2022
2478 Clear 28 1017 42 10000 3.09 60 11:31 24.07.2022
2479 Clear 25 1018 50 10000 3.09 90 09:55 24.07.2022
2480 Clear 21 1018 64 10000 1.54 40 08:22 24.07.2022
2481 Clear 18 1018 72 10000 1.54 0 07:41 24.07.2022
2482 Clear 20 1020 64 10000 2.06 40 03:18 24.07.2022
2483 Clear 23 1020 60 10000 3.09 10 23:36 23.07.2022
2484 Clear 28 1019 42 10000 3.6 20 20:49 23.07.2022
2485 Clear 29 1019 37 10000 3.09 10 19:30 23.07.2022
2486 Clear 29 1020 37 10000 3.09 60 18:40 23.07.2022
2487 Clear 30 1020 35 10000 2.57 60 17:28 23.07.2022
2488 Clear 29 1020 37 10000 2.57 0 16:29 23.07.2022
2489 Clear 28 1021 42 10000 2.06 0 15:22 23.07.2022
2490 Clouds 27 1021 41 10000 1.54 0 14:55 23.07.2022
2491 Clouds 27 1021 44 10000 2.06 0 14:24 23.07.2022
2492 Clouds 23 1022 64 10000 1.54 0 11:56 23.07.2022
2493 Clouds 22 1022 73 10000 2.57 330 10:44 23.07.2022
2494 Clouds 19 1022 82 10000 1.03 0 09:44 23.07.2022
2495 Clouds 15 1022 94 10000 1.03 160 07:37 23.07.2022
2496 Clouds 16 1022 88 10000 2.06 240 03:37 23.07.2022
2497 Clear 18 1022 77 10000 1.54 0 00:37 23.07.2022
2498 Clouds 21 1021 68 10000 6.17 290 21:36 22.07.2022
2499 Clouds 22 1020 68 10000 6.17 290 20:33 22.07.2022
2500 Clouds 23 1020 64 10000 6.69 290 18:56 22.07.2022
2501 Clouds 23 1019 64 10000 6.69 280 17:40 22.07.2022
2502 Clouds 24 1019 64 10000 7.72 280 16:26 22.07.2022
2503 Clouds 26 1019 53 10000 6.69 260 13:24 22.07.2022
2504 Clouds 23 1018 73 10000 4.12 290 10:23 22.07.2022
2505 Clear 21 1017 78 10000 3.6 320 09:24 22.07.2022
2506 Clear 18 1017 88 10000 2.57 260 07:58 22.07.2022
2507 Clear 20 1016 77 10000 2.06 310 04:23 22.07.2022
2508 Clear 23 1018 64 10000 3.09 10 23:43 21.07.2022
2509 Clear 26 1017 53 10000 4.63 10 21:51 21.07.2022
2510 Clear 30 1017 42 10000 4.63 20 19:45 21.07.2022
2511 Clear 31 1018 37 10000 2.57 40 18:36 21.07.2022
2512 Clear 30 1019 42 10000 3.09 30 17:22 21.07.2022
2513 Clear 30 1020 39 10000 3.09 40 16:23 21.07.2022
2514 Clear 28 1020 44 10000 1.03 0 14:46 21.07.2022
2515 Clear 27 1021 47 10000 1.03 0 13:57 21.07.2022
2516 Clouds 24 1023 60 10000 2.06 60 11:58 21.07.2022
2517 Clouds 22 1023 68 10000 2.06 30 10:20 21.07.2022
2518 Clear 20 1023 77 10000 1.03 0 08:53 21.07.2022
2519 Clear 18 1023 88 10000 1.03 0 07:50 21.07.2022
2520 Clear 17 1023 88 10000 0 0 06:27 21.07.2022
2521 Clear 18 1023 88 10000 0.51 0 02:49 21.07.2022
2522 Clear 21 1023 73 10000 3.09 310 22:47 20.07.2022
2523 Clear 22 1023 68 10000 3.09 320 22:19 20.07.2022
2524 Clear 24 1023 57 10000 4.63 290 20:46 20.07.2022
2525 Clouds 26 1022 50 10000 4.63 310 19:46 20.07.2022
2526 Clouds 26 1022 50 10000 5.14 320 18:54 20.07.2022
2527 Clouds 27 1022 47 10000 5.14 320 18:31 20.07.2022
2528 Clouds 28 1022 44 10000 6.17 280 17:25 20.07.2022
2529 Clouds 26 1022 50 10000 6.17 260 15:33 20.07.2022
2530 Clouds 25 1022 57 10000 6.17 260 14:49 20.07.2022
2531 Clouds 25 1022 57 10000 5.14 250 12:54 20.07.2022
2532 Clouds 23 1022 73 10000 3.6 200 10:59 20.07.2022
2533 Clouds 21 1020 78 10000 2.06 220 06:35 20.07.2022
2534 Clear 21 1019 73 10000 0 0 01:47 20.07.2022
2535 Clouds 21 1019 68 10000 0.51 0 00:42 20.07.2022
2536 Clear 23 1017 56 10000 6.17 330 22:37 19.07.2022
2537 Clear 23 1017 56 10000 6.17 330 22:18 19.07.2022
2538 Clear 26 1016 47 10000 5.66 350 20:50 19.07.2022
2539 Clear 28 1016 42 10000 5.66 350 19:32 19.07.2022
2540 Clear 29 1016 42 10000 6.17 320 18:42 19.07.2022
2541 Clear 29 1016 42 10000 5.14 330 17:54 19.07.2022
2542 Clear 30 1016 39 10000 3.09 0 15:49 19.07.2022
2543 Clouds 28 1016 51 10000 2.57 0 13:37 19.07.2022
2544 Clouds 24 1016 69 10000 2.57 240 11:33 19.07.2022
2545 Clouds 23 1016 73 10000 4.63 240 09:52 19.07.2022
2546 Clouds 22 1015 78 10000 5.14 250 08:47 19.07.2022
2547 Clouds 22 1015 78 10000 5.14 240 07:46 19.07.2022
2548 Clouds 22 1014 83 10000 5.14 230 07:18 19.07.2022
2549 Clouds 23 1014 83 9000 5.66 250 05:19 19.07.2022
2550 Mist 23 1013 88 1500 5.14 240 03:40 19.07.2022
2551 Clear 32 1012 33 10000 4.12 130 23:57 18.07.2022
2552 Clear 33 1012 29 10000 4.12 130 23:20 18.07.2022
2553 Clear 34 1011 26 10000 4.12 110 22:27 18.07.2022
2554 Clear 36 1011 21 10000 4.63 110 21:24 18.07.2022
2555 Clear 38 1011 19 10000 5.14 110 20:34 18.07.2022
2556 Clear 39 1012 18 10000 6.69 130 18:32 18.07.2022
2557 Clear 39 1013 19 10000 7.2 100 16:45 18.07.2022
2558 Clear 38 1014 22 10000 7.72 90 15:34 18.07.2022
2559 Clear 36 1015 28 10000 5.66 110 13:32 18.07.2022
2560 Clear 33 1016 33 10000 7.72 110 11:44 18.07.2022
2561 Clear 28 1016 44 10000 5.66 90 09:55 18.07.2022
2562 Clear 28 1016 44 10000 5.66 90 09:55 18.07.2022
2563 Clear 25 1016 50 10000 3.09 90 07:59 18.07.2022
2564 Clear 24 1016 53 10000 2.57 90 05:35 18.07.2022
2565 Clear 31 1017 33 10000 4.12 50 23:19 17.07.2022
2566 Clear 33 1017 25 10000 4.12 50 22:32 17.07.2022
2567 Clear 35 1016 20 10000 3.6 30 21:40 17.07.2022
2568 Clear 36 1016 17 10000 5.14 50 20:46 17.07.2022
2569 Clear 37 1016 16 10000 4.63 60 19:50 17.07.2022
2570 Clear 37 1017 15 10000 4.12 60 19:24 17.07.2022
2571 Clear 38 1017 15 10000 5.14 60 17:54 17.07.2022
2572 Clear 38 1017 16 10000 4.12 80 17:36 17.07.2022
2573 Clouds 37 1017 18 10000 5.14 50 16:33 17.07.2022
2574 Clear 36 1018 20 10000 4.63 70 15:50 17.07.2022
2575 Clear 34 1019 24 10000 4.63 60 13:58 17.07.2022
2576 Clear 31 1019 30 10000 4.63 60 12:56 17.07.2022
2577 Clear 26 1019 38 10000 3.6 70 10:21 17.07.2022
2578 Clear 22 1018 46 10000 2.06 60 07:31 17.07.2022
2579 Clear 25 1019 41 10000 4.12 40 02:35 17.07.2022
2580 Clear 28 1018 34 10000 3.6 30 23:28 16.07.2022
2581 Clear 29 1018 32 10000 4.63 40 22:43 16.07.2022
2582 Clear 33 1017 25 10000 6.17 40 20:45 16.07.2022
2583 Clear 36 1016 19 10000 6.69 30 18:58 16.07.2022
2584 Clear 36 1017 21 10000 5.66 40 17:48 16.07.2022
2585 Clear 35 1017 23 10000 5.66 30 16:22 16.07.2022
2586 Clear 31 1018 30 10000 4.63 30 13:26 16.07.2022
2587 Clear 24 1018 50 10000 5.14 50 10:29 16.07.2022
2588 Clear 23 1018 49 10000 5.14 50 09:26 16.07.2022
2589 Clear 21 1018 56 10000 2.57 30 08:41 16.07.2022
2590 Clear 20 1017 60 10000 3.6 30 07:23 16.07.2022
2591 Clear 23 1017 53 10000 3.09 50 03:35 16.07.2022
2592 Clear 26 1018 41 10000 4.63 40 00:45 16.07.2022
2593 Clear 28 1018 32 10000 3.6 30 22:56 15.07.2022
2594 Clear 29 1017 32 10000 3.6 20 22:24 15.07.2022
2595 Clear 32 1017 27 10000 4.63 20 20:41 15.07.2022
2596 Clear 33 1017 24 10000 4.63 20 19:34 15.07.2022
2597 Clear 33 1017 24 10000 4.63 30 18:23 15.07.2022
2598 Clear 34 1017 21 10000 4.12 10 17:19 15.07.2022
2599 Clear 32 1018 29 10000 3.09 20 14:19 15.07.2022
2600 Clear 29 1019 37 10000 3.6 30 12:37 15.07.2022
2601 Clear 26 1019 44 10000 3.09 40 10:52 15.07.2022
2602 Clear 21 1019 52 10000 2.06 360 07:48 15.07.2022
2603 Clear 22 1018 56 10000 3.09 10 04:54 15.07.2022
2604 Clear 24 1019 57 10000 1.54 280 00:43 15.07.2022
2605 Clear 26 1019 47 10000 1.54 0 23:24 14.07.2022
2606 Clear 29 1018 34 10000 2.06 330 22:24 14.07.2022
2607 Clear 31 1018 29 10000 3.09 360 21:40 14.07.2022
2608 Clear 31 1018 29 10000 3.09 360 21:21 14.07.2022
2609 Clear 34 1018 21 10000 5.66 340 20:43 14.07.2022
2610 Clear 34 1018 21 10000 5.66 340 20:18 14.07.2022
2611 Clear 37 1018 19 10000 4.63 20 18:24 14.07.2022
2612 Clear 37 1018 18 10000 2.57 40 16:19 14.07.2022
2613 Clear 36 1019 20 10000 2.57 10 14:56 14.07.2022
2614 Clear 35 1019 23 10000 3.09 40 13:51 14.07.2022
2615 Clear 34 1020 29 10000 1.54 350 12:34 14.07.2022
2616 Clear 32 1019 33 10000 1.54 60 11:26 14.07.2022
2617 Clear 32 1019 37 10000 0 0 10:51 14.07.2022
2618 Clear 25 1020 50 10000 2.57 80 08:52 14.07.2022
2619 Clear 20 1019 68 10000 0.51 0 04:44 14.07.2022
2620 Clear 25 1020 47 10000 2.06 10 01:19 14.07.2022
2621 Clear 26 1020 44 10000 2.06 10 00:51 14.07.2022
2622 Clear 31 1019 29 10000 3.6 10 22:31 13.07.2022
2623 Clear 34 1018 22 10000 3.09 10 21:42 13.07.2022
2624 Clear 35 1018 20 10000 3.09 30 20:38 13.07.2022
2625 Clear 36 1019 17 10000 3.09 50 18:36 13.07.2022
2626 Clear 36 1019 16 10000 4.12 60 17:31 13.07.2022
2627 Clear 36 1019 16 10000 4.12 60 17:31 13.07.2022
2628 Clear 35 1019 20 10000 4.63 40 16:19 13.07.2022
2629 Clear 34 1020 21 10000 5.66 20 14:46 13.07.2022
2630 Clear 29 1021 34 10000 3.09 10 11:36 13.07.2022
2631 Clear 29 1021 34 10000 2.06 30 10:44 13.07.2022
2632 Clear 27 1021 39 10000 2.06 10 09:49 13.07.2022
2633 Clear 26 1021 41 10000 1.54 30 09:20 13.07.2022
2634 Clear 18 1020 68 10000 0 0 05:21 13.07.2022
2635 Clear 25 1021 41 10000 2.57 30 01:21 13.07.2022
2636 Clear 30 1021 28 10000 3.6 40 23:21 12.07.2022
2637 Clear 32 1020 23 10000 4.12 30 21:49 12.07.2022
2638 Clear 34 1019 17 10000 4.63 30 20:54 12.07.2022
2639 Clear 35 1019 17 10000 5.66 20 20:36 12.07.2022
2640 Clear 36 1019 16 10000 4.12 60 18:53 12.07.2022
2641 Clear 36 1019 16 10000 2.57 40 17:32 12.07.2022
2642 Clear 35 1020 23 10000 4.63 30 15:37 12.07.2022
2643 Clear 33 1020 33 10000 4.12 60 13:44 12.07.2022
2644 Clear 29 1020 45 10000 2.57 40 11:59 12.07.2022
2645 Clear 26 1020 50 10000 2.57 60 10:47 12.07.2022
2646 Clear 23 1019 60 10000 3.09 60 09:19 12.07.2022
2647 Clear 21 1019 68 10000 2.57 40 07:57 12.07.2022
2648 Clear 20 1018 68 10000 2.06 40 05:54 12.07.2022
2649 Clear 21 1018 64 10000 2.57 40 05:35 12.07.2022
2650 Clear 25 1018 53 10000 2.57 50 01:43 12.07.2022
2651 Clear 29 1016 42 10000 4.63 40 22:52 11.07.2022
2652 Clear 33 1015 31 10000 4.63 30 21:44 11.07.2022
2653 Clear 34 1015 27 10000 5.14 20 20:33 11.07.2022
2654 Clear 35 1015 26 10000 4.63 30 19:32 11.07.2022
2655 Clear 35 1015 28 10000 4.63 30 18:32 11.07.2022
2656 Clear 35 1015 28 10000 5.14 30 17:31 11.07.2022
2657 Clear 33 1016 31 10000 4.12 50 15:34 11.07.2022
2658 Clear 31 1016 35 10000 2.57 0 13:37 11.07.2022
2659 Clear 27 1016 44 10000 2.06 60 11:33 11.07.2022
2660 Clear 24 1016 50 10000 3.6 60 10:18 11.07.2022
2661 Clear 23 1016 53 10000 3.6 60 09:40 11.07.2022
2662 Clear 21 1016 60 10000 3.6 50 08:33 11.07.2022
2663 Clear 21 1017 56 10000 2.57 30 02:59 11.07.2022
2664 Clear 25 1017 47 10000 4.63 40 00:18 11.07.2022
2665 Clear 26 1017 44 10000 6.17 30 22:55 10.07.2022
2666 Clear 29 1017 37 10000 5.66 20 21:39 10.07.2022
2667 Clear 31 1017 37 10000 6.69 20 20:41 10.07.2022
2668 Clear 31 1017 37 10000 6.69 40 19:48 10.07.2022
2669 Clear 32 1017 27 10000 6.17 20 18:43 10.07.2022
2670 Clear 32 1018 29 10000 5.66 30 17:36 10.07.2022
2671 Clear 32 1018 31 10000 6.17 30 16:41 10.07.2022
2672 Clear 31 1019 33 10000 5.66 40 15:24 10.07.2022
2673 Clear 30 1019 32 10000 5.66 60 13:48 10.07.2022
2674 Clear 29 1020 37 10000 6.17 50 12:26 10.07.2022
2675 Clear 24 1021 50 10000 4.63 60 09:58 10.07.2022
2676 Clear 21 1021 60 10000 3.6 30 08:44 10.07.2022
2677 Clear 19 1021 68 10000 3.09 30 07:30 10.07.2022
2678 Clear 24 1022 50 10000 4.12 40 01:31 10.07.2022
2679 Clear 27 1023 41 10000 4.12 30 22:43 09.07.2022
2680 Clear 27 1023 41 10000 4.63 30 22:19 09.07.2022
2681 Clear 30 1022 32 10000 5.66 20 20:45 09.07.2022
2682 Clear 31 1023 30 10000 5.14 20 18:37 09.07.2022
2683 Clear 31 1023 30 10000 5.66 20 17:45 09.07.2022
2684 Clear 31 1023 30 10000 5.14 30 16:44 09.07.2022
2685 Clear 30 1024 32 10000 5.14 10 15:40 09.07.2022
2686 Clear 30 1024 30 10000 4.63 40 14:27 09.07.2022
2687 Clear 29 1025 32 10000 5.66 40 13:49 09.07.2022
2688 Clear 28 1025 36 10000 5.66 50 12:45 09.07.2022
2689 Clouds 26 1025 41 10000 3.6 40 11:22 09.07.2022
2690 Clear 24 1026 50 10000 3.09 50 10:22 09.07.2022
2691 Clear 19 1025 63 10000 3.09 40 07:45 09.07.2022
2692 Clear 18 1025 68 10000 2.57 40 04:57 09.07.2022
2693 Clear 20 1026 60 10000 1.54 310 01:50 09.07.2022
2694 Clear 25 1026 41 10000 5.14 40 22:53 08.07.2022
2695 Clear 27 1025 36 10000 6.69 40 21:43 08.07.2022
2696 Clear 28 1025 34 10000 5.66 20 20:40 08.07.2022
2697 Clear 29 1025 32 10000 7.2 30 19:52 08.07.2022
2698 Clear 30 1025 28 10000 6.69 20 18:23 08.07.2022
2699 Clear 29 1026 32 10000 5.66 30 16:40 08.07.2022
2700 Clear 28 1027 36 10000 5.14 40 14:51 08.07.2022
2701 Clear 28 1027 36 10000 5.14 40 14:51 08.07.2022
2702 Clear 26 1028 41 10000 3.09 20 13:26 08.07.2022
2703 Clear 24 1028 57 10000 3.6 50 11:42 08.07.2022
2704 Clear 22 1029 64 10000 3.09 50 10:28 08.07.2022
2705 Clear 19 1029 72 10000 3.09 30 08:27 08.07.2022
2706 Clear 17 1028 88 10000 3.09 30 06:49 08.07.2022
2707 Clear 18 1028 82 10000 0 0 01:23 08.07.2022
2708 Clear 21 1028 68 10000 2.06 290 22:57 07.07.2022
2709 Clear 22 1027 64 10000 3.09 310 22:29 07.07.2022
2710 Clear 27 1026 50 10000 4.63 310 20:22 07.07.2022
2711 Clear 28 1026 44 10000 4.12 340 18:20 07.07.2022
2712 Clear 29 1027 42 10000 4.63 310 16:46 07.07.2022
2713 Clear 28 1027 42 10000 3.09 310 14:34 07.07.2022
2714 Clear 28 1027 42 10000 3.09 330 13:18 07.07.2022
2715 Clear 27 1027 41 10000 2.06 320 12:24 07.07.2022
2716 Clear 27 1027 41 10000 2.06 320 12:24 07.07.2022
2717 Clear 27 1027 41 10000 1.54 280 11:44 07.07.2022
2718 Clear 26 1027 47 10000 1.03 0 11:24 07.07.2022
2719 Clear 23 1027 56 10000 2.06 40 10:40 07.07.2022
2720 Clear 23 1027 56 10000 2.06 40 10:22 07.07.2022
2721 Clear 15 1026 88 10000 1.03 260 06:40 07.07.2022
2722 Clear 20 1025 72 10000 2.32 354 00:32 07.07.2022
2723 Clear 21 1025 67 10000 3.11 348 23:36 06.07.2022
2724 Clear 23 1025 56 10000 3.09 330 23:18 06.07.2022
2725 Clear 23 1025 56 10000 3.09 330 22:52 06.07.2022
2726 Clear 24 1024 53 10000 3.6 330 22:34 06.07.2022
2727 Clear 28 1023 34 10000 5.14 360 20:30 06.07.2022
2728 Clear 28 1023 34 10000 5.14 360 20:30 06.07.2022
2729 Clear 29 1023 34 10000 5.66 10 19:33 06.07.2022
2730 Clear 29 1024 34 10000 5.66 30 17:22 06.07.2022
2731 Clear 28 1024 36 10000 5.14 10 15:58 06.07.2022
2732 Clear 27 1024 41 10000 4.12 30 12:57 06.07.2022
2733 Clear 26 1025 44 10000 3.09 20 12:21 06.07.2022
2734 Clear 23 1025 53 10000 2.06 30 10:55 06.07.2022
2735 Clear 20 1025 60 10000 2.57 50 09:27 06.07.2022
2736 Clear 20 1025 60 10000 2.57 50 09:27 06.07.2022
2737 Clear 17 1024 67 10000 2.06 20 07:44 06.07.2022
2738 Clear 17 1024 67 10000 4.12 30 06:49 06.07.2022
2739 Clear 19 1024 68 10000 1.03 0 00:38 06.07.2022
2740 Clear 23 1023 53 10000 3.6 330 22:43 05.07.2022
2741 Clear 27 1022 34 10000 4.63 360 20:49 05.07.2022
2742 Clear 28 1022 32 10000 4.12 10 20:31 05.07.2022
2743 Clear 28 1022 36 10000 4.63 20 19:38 05.07.2022
2744 Clear 29 1022 32 10000 4.12 30 17:51 05.07.2022
2745 Clear 29 1022 34 10000 4.63 360 17:19 05.07.2022
2746 Clear 29 1022 37 10000 4.12 50 16:25 05.07.2022
2747 Clear 28 1023 42 10000 3.09 50 14:54 05.07.2022
2748 Clear 27 1023 41 10000 3.09 40 13:36 05.07.2022
2749 Clear 26 1023 44 10000 2.57 50 12:24 05.07.2022
2750 Clear 24 1023 50 10000 2.06 40 10:46 05.07.2022
2751 Clear 21 1023 60 10000 2.57 50 09:57 05.07.2022
2752 Clear 19 1022 77 10000 1.54 10 08:21 05.07.2022
2753 Clear 16 1022 88 10000 1.03 0 06:59 05.07.2022
2754 Clear 18 1022 82 10000 1.03 290 04:37 05.07.2022
2755 Clear 19 1022 68 10000 2.57 320 01:33 05.07.2022
2756 Clear 21 1022 56 10000 3.09 330 23:37 04.07.2022
2757 Clear 21 1022 60 10000 4.63 330 22:56 04.07.2022
2758 Clear 23 1021 60 10000 4.12 320 22:18 04.07.2022
2759 Clear 25 1020 53 10000 3.6 310 20:56 04.07.2022
2760 Clear 25 1020 44 10000 3.6 340 20:36 04.07.2022
2761 Clear 25 1020 44 10000 3.09 360 19:56 04.07.2022
2762 Clear 26 1020 44 10000 2.57 330 19:37 04.07.2022
2763 Clear 26 1020 41 10000 3.09 340 18:35 04.07.2022
2764 Clear 26 1020 41 10000 4.12 10 16:51 04.07.2022
2765 Clear 25 1021 53 10000 3.09 340 15:35 04.07.2022
2766 Clear 22 1021 68 10000 2.06 320 13:44 04.07.2022
2767 Clear 21 1021 68 10000 1.03 0 12:38 04.07.2022
2768 Clear 19 1021 77 10000 2.57 360 10:40 04.07.2022
2769 Clear 19 1021 77 10000 2.57 360 10:22 04.07.2022
2770 Clear 17 1021 94 10000 1.03 0 08:33 04.07.2022
2771 Clouds 16 1020 100 10000 2.06 230 05:57 04.07.2022
2772 Clear 17 1020 88 10000 2.06 360 00:44 04.07.2022
2773 Clear 17 1020 88 10000 2.06 360 00:44 04.07.2022
2774 Clouds 18 1020 82 10000 2.57 360 23:38 03.07.2022
2775 Rain 19 1020 77 10000 7.72 330 22:28 03.07.2022
2776 Clear 23 1020 60 10000 5.66 310 20:45 03.07.2022
2777 Clear 26 1019 47 10000 3.6 340 19:42 03.07.2022
2778 Clear 26 1019 47 10000 3.09 360 19:23 03.07.2022
2779 Clear 26 1019 47 10000 4.63 360 18:23 03.07.2022
2780 Clear 26 1019 44 10000 4.63 10 17:31 03.07.2022
2781 Clear 26 1020 41 10000 2.57 0 15:26 03.07.2022
2782 Clear 25 1021 41 10000 3.6 350 14:49 03.07.2022
2783 Clear 25 1021 36 10000 3.09 10 13:49 03.07.2022
2784 Clear 24 1021 43 10000 3.6 350 12:42 03.07.2022
2785 Clear 22 1021 56 10000 3.09 360 11:46 03.07.2022
2786 Clear 20 1021 68 10000 3.6 350 10:40 03.07.2022
2787 Clear 20 1021 68 10000 3.6 350 10:20 03.07.2022
2788 Clear 15 1021 88 10000 1.54 340 07:37 03.07.2022
2789 Clear 16 1021 82 10000 1.54 340 05:26 03.07.2022
2790 Clear 19 1021 68 10000 3.09 330 00:26 03.07.2022
2791 Clouds 23 1019 49 10000 4.63 10 22:37 02.07.2022
2792 Clear 23 1019 49 10000 4.63 10 22:18 02.07.2022
2793 Clear 28 1018 36 10000 3.6 360 20:21 02.07.2022
2794 Clear 28 1018 34 10000 3.09 40 19:49 02.07.2022
2795 Clear 29 1018 32 10000 1.54 10 17:59 02.07.2022
2796 Clear 29 1018 30 10000 2.06 0 17:37 02.07.2022
2797 Clear 27 1018 34 10000 2.57 30 15:37 02.07.2022
2798 Clear 25 1019 36 10000 2.57 60 12:56 02.07.2022
2799 Clear 24 1019 41 10000 2.57 70 11:48 02.07.2022
2800 Clear 22 1020 49 10000 2.57 70 10:50 02.07.2022
2801 Clear 20 1020 56 10000 2.57 90 09:49 02.07.2022
2802 Clear 17 1020 67 10000 1.54 30 08:37 02.07.2022
2803 Clear 17 1020 67 10000 1.54 30 08:19 02.07.2022
2804 Clear 15 1021 82 10000 1.54 30 02:53 02.07.2022
2805 Clear 17 1021 72 10000 2.57 20 00:27 02.07.2022
2806 Clear 19 1021 55 10000 2.06 70 22:59 01.07.2022
2807 Clear 20 1020 52 10000 2.57 100 22:29 01.07.2022
2808 Clear 22 1020 43 10000 4.12 90 21:37 01.07.2022
2809 Clear 23 1020 43 10000 3.6 40 20:58 01.07.2022
2810 Clear 23 1020 43 10000 3.09 90 20:19 01.07.2022
2811 Clear 23 1020 43 10000 4.12 70 19:34 01.07.2022
2812 Clear 23 1021 43 10000 1.54 100 16:40 01.07.2022
2813 Clouds 21 1021 49 10000 1.54 0 14:27 01.07.2022
2814 Clouds 21 1021 49 10000 2.06 70 13:33 01.07.2022
2815 Clouds 19 1021 59 10000 1.54 130 10:53 01.07.2022
2816 Clear 18 1021 63 10000 2.06 120 10:19 01.07.2022
2817 Clear 11 1021 93 10000 0.51 110 06:21 01.07.2022
2818 Clear 12 1021 94 10000 1.03 0 02:19 01.07.2022
2819 Clear 15 1020 77 10000 1.03 0 23:34 30.06.2022
2820 Clear 16 1020 67 10000 0.51 290 22:50 30.06.2022
2821 Clear 16 1019 67 10000 2.06 310 22:31 30.06.2022
2822 Clear 17 1019 63 10000 2.57 300 21:53 30.06.2022
2823 Clear 19 1018 59 10000 4.12 290 20:45 30.06.2022
2824 Clouds 19 1018 55 10000 5.66 290 20:18 30.06.2022
2825 Clear 20 1018 52 10000 5.14 280 19:47 30.06.2022
2826 Clouds 21 1018 49 10000 5.66 280 18:49 30.06.2022
2827 Clouds 20 1018 56 10000 4.12 280 17:49 30.06.2022
2828 Clouds 19 1017 59 10000 4.12 290 16:56 30.06.2022
2829 Rain 17 1018 82 5000 3.6 270 15:52 30.06.2022
2830 Clouds 16 1017 94 10000 2.06 210 13:58 30.06.2022
2831 Clouds 16 1017 88 10000 1.54 240 13:19 30.06.2022
2832 Clouds 16 1017 88 10000 1.54 240 12:33 30.06.2022
2833 Clouds 15 1015 94 10000 1.54 190 10:21 30.06.2022
2834 Clouds 15 1015 94 10000 0.51 0 09:41 30.06.2022
2835 Rain 15 1015 94 4400 1.54 300 08:26 30.06.2022
2836 Clouds 15 1014 94 10000 0 0 07:40 30.06.2022
2837 Clouds 16 1015 94 10000 1.03 130 03:35 30.06.2022
2838 Clouds 17 1016 77 10000 2.57 340 23:38 29.06.2022
2839 Clouds 17 1016 77 10000 2.57 340 22:41 29.06.2022
2840 Clouds 17 1016 82 10000 3.09 310 22:19 29.06.2022
2841 Clear 18 1015 72 10000 4.12 350 20:35 29.06.2022
2842 Clear 19 1015 68 10000 6.17 320 19:56 29.06.2022
2843 Clouds 22 1015 64 10000 5.66 310 17:55 29.06.2022
2844 Clouds 21 1015 68 10000 5.66 310 17:32 29.06.2022
2845 Clouds 22 1015 64 10000 5.66 300 15:44 29.06.2022
2846 Clouds 24 1016 53 10000 1.54 0 13:43 29.06.2022
2847 Clouds 21 1017 60 10000 2.57 260 12:38 29.06.2022
2848 Clear 20 1017 60 10000 0 0 09:50 29.06.2022
2849 Clear 19 1017 68 10000 0 0 09:26 29.06.2022
2850 Clouds 12 1017 87 10000 1.03 250 06:29 29.06.2022
2851 Clear 13 1017 88 10000 0.51 0 04:42 29.06.2022
2852 Clouds 16 1019 67 10000 1.03 300 00:53 29.06.2022
2853 Clouds 17 1019 63 10000 1.03 0 00:33 29.06.2022
2854 Clouds 19 1019 55 10000 2.06 330 22:50 28.06.2022
2855 Clear 20 1018 56 10000 3.09 330 21:58 28.06.2022
2856 Clear 22 1018 53 10000 3.09 330 21:39 28.06.2022
2857 Clear 22 1018 53 10000 3.09 330 21:19 28.06.2022
2858 Clear 23 1018 49 10000 4.12 20 19:54 28.06.2022
2859 Clear 24 1018 46 10000 5.14 20 19:28 28.06.2022
2860 Clouds 25 1018 44 10000 4.12 320 18:38 28.06.2022
2861 Clear 25 1019 44 10000 4.12 300 16:47 28.06.2022
2862 Clear 25 1019 41 10000 2.06 340 15:54 28.06.2022
2863 Clear 25 1019 41 10000 2.06 0 14:49 28.06.2022
2864 Clouds 23 1020 43 10000 2.57 0 14:18 28.06.2022
2865 Clouds 23 1020 46 10000 2.06 310 13:45 28.06.2022
2866 Clear 21 1021 49 10000 2.06 20 12:28 28.06.2022
2867 Clear 18 1022 63 10000 2.57 20 09:53 28.06.2022
2868 Clear 16 1022 72 10000 2.57 20 08:55 28.06.2022
2869 Clear 16 1022 77 10000 1.54 0 08:26 28.06.2022
2870 Clear 14 1022 88 10000 1.03 0 07:20 28.06.2022
2871 Clear 13 1023 88 10000 0 0 02:42 28.06.2022
2872 Clear 16 1024 72 10000 2.57 320 23:49 27.06.2022
2873 Clear 17 1023 67 10000 3.09 320 22:56 27.06.2022
2874 Clear 20 1023 52 10000 4.63 310 21:53 27.06.2022
2875 Clear 20 1023 52 10000 4.63 310 21:21 27.06.2022
2876 Clear 22 1022 46 10000 5.14 310 19:54 27.06.2022
2877 Clear 22 1021 43 10000 5.66 320 18:45 27.06.2022
2878 Clear 22 1021 46 10000 3.6 330 17:26 27.06.2022
2879 Clear 23 1021 46 10000 3.6 320 15:43 27.06.2022
2880 Clouds 22 1022 46 10000 2.57 310 13:51 27.06.2022
2881 Clear 21 1021 56 10000 2.57 20 12:57 27.06.2022
2882 Clouds 19 1021 59 10000 3.09 330 11:30 27.06.2022
2883 Clouds 18 1020 68 10000 0.51 0 09:45 27.06.2022
2884 Clouds 16 1019 82 10000 1.03 0 08:40 27.06.2022
2885 Clear 13 1019 94 10000 1.03 0 07:39 27.06.2022
2886 Clear 13 1018 94 10000 1.03 210 05:19 27.06.2022
2887 Clear 16 1018 82 10000 1.54 300 01:21 27.06.2022
2888 Clear 17 1016 77 10000 2.57 310 22:48 26.06.2022
2889 Clouds 18 1016 72 10000 3.09 300 21:23 26.06.2022
2890 Clouds 19 1015 68 10000 3.09 310 19:59 26.06.2022
2891 Clouds 19 1015 68 10000 3.09 80 18:33 26.06.2022
2892 Clouds 18 1015 72 10000 2.06 50 17:37 26.06.2022
2893 Clouds 18 1015 72 10000 1.54 0 15:35 26.06.2022
2894 Clouds 19 1015 63 10000 2.06 20 13:59 26.06.2022
2895 Clouds 19 1015 63 10000 2.06 30 13:23 26.06.2022
2896 Clouds 18 1015 72 10000 1.54 0 11:39 26.06.2022
2897 Clear 17 1015 72 10000 0 0 10:30 26.06.2022
2898 Clear 15 1015 88 10000 0 0 09:45 26.06.2022
2899 Clear 14 1015 94 10000 0.51 0 07:46 26.06.2022
2900 Rain 15 1015 94 10000 1.03 0 04:29 26.06.2022
2901 Clear 16 1015 82 10000 1.54 210 00:36 26.06.2022
2902 Clear 16 1015 82 10000 1.54 210 00:18 26.06.2022
2903 Clear 16 1015 82 10000 1.54 220 23:24 25.06.2022
2904 Clear 16 1015 77 10000 1.54 260 22:28 25.06.2022
2905 Clear 16 1015 77 10000 1.54 0 21:52 25.06.2022
2906 Clear 16 1015 77 10000 1.54 270 21:20 25.06.2022
2907 Clouds 17 1014 67 10000 3.6 280 20:30 25.06.2022
2908 Clear 17 1014 67 10000 3.09 290 19:55 25.06.2022
2909 Clear 17 1014 67 10000 3.09 290 19:55 25.06.2022
2910 Clear 17 1014 67 10000 3.09 290 19:55 25.06.2022
2911 Clouds 18 1014 63 10000 5.14 290 18:21 25.06.2022
2912 Clouds 20 1014 52 10000 4.63 290 17:25 25.06.2022
2913 Clouds 20 1013 56 10000 5.14 320 16:24 25.06.2022
2914 Rain 16 1013 88 10000 1.54 320 13:51 25.06.2022
2915 Rain 15 1013 94 10000 3.09 300 12:39 25.06.2022
2916 Rain 15 1013 100 9000 3.6 330 11:34 25.06.2022
2917 Rain 17 1012 94 10000 3.09 300 09:22 25.06.2022
2918 Rain 17 1012 94 10000 3.09 300 08:46 25.06.2022
2919 Clouds 17 1012 94 10000 3.6 280 08:19 25.06.2022
2920 Clouds 17 1012 82 10000 1.54 160 05:26 25.06.2022
2921 Clouds 16 1014 88 10000 2.57 180 00:44 25.06.2022
2922 Clouds 16 1014 88 10000 2.57 180 00:44 25.06.2022
2923 Clear 18 1014 72 10000 1.54 190 23:18 24.06.2022
2924 Clear 20 1014 64 10000 2.06 260 21:57 24.06.2022
2925 Clear 21 1014 56 10000 4.12 270 21:19 24.06.2022
2926 Clear 22 1013 56 10000 4.63 270 20:20 24.06.2022
2927 Clear 22 1013 56 10000 4.63 270 20:20 24.06.2022
2928 Clouds 22 1013 56 10000 5.14 270 19:22 24.06.2022
2929 Clouds 23 1013 53 10000 5.14 280 18:49 24.06.2022
2930 Clouds 23 1013 53 10000 5.66 260 18:30 24.06.2022
2931 Clouds 22 1014 53 10000 6.17 260 17:41 24.06.2022
2932 Clouds 21 1014 68 10000 6.69 260 15:51 24.06.2022
2933 Clouds 18 1014 82 10000 6.17 260 14:28 24.06.2022
2934 Clouds 22 1014 64 10000 6.69 260 13:55 24.06.2022
2935 Clouds 19 1013 77 10000 4.63 240 11:54 24.06.2022
2936 Clouds 19 1013 88 10000 3.6 250 11:34 24.06.2022
2937 Mist 17 1014 94 1500 1.54 0 10:22 24.06.2022
2938 Clouds 17 1013 94 10000 2.57 240 09:40 24.06.2022
2939 Clouds 16 1013 94 10000 2.06 240 08:52 24.06.2022
2940 Clouds 17 1013 94 10000 2.57 230 06:58 24.06.2022
2941 Clouds 17 1012 94 10000 3.6 210 06:40 24.06.2022
2942 Clouds 17 1012 94 10000 2.57 200 05:57 24.06.2022
2943 Clouds 18 1013 88 10000 1.54 240 02:31 24.06.2022
2944 Clear 20 1013 73 10000 2.57 260 22:55 23.06.2022
2945 Clear 21 1012 68 10000 4.63 250 22:33 23.06.2022
2946 Clear 23 1012 56 10000 4.63 230 20:57 23.06.2022
2947 Clear 23 1012 56 10000 4.63 260 20:32 23.06.2022
2948 Clouds 24 1011 53 10000 4.12 260 19:24 23.06.2022
2949 Clouds 24 1011 57 10000 3.09 310 17:50 23.06.2022
2950 Clouds 23 1012 64 10000 3.09 350 16:50 23.06.2022
2951 Clouds 21 1011 78 10000 4.12 320 15:49 23.06.2022
2952 Thunderstorm 20 1011 94 10000 6.17 290 15:24 23.06.2022
2953 Clouds 24 1011 60 10000 2.06 60 13:32 23.06.2022
2954 Clouds 20 1011 77 10000 2.06 40 11:23 23.06.2022
2955 Clear 19 1011 82 10000 3.09 30 10:31 23.06.2022
2956 Clouds 17 1012 94 10000 2.06 20 08:35 23.06.2022
2957 Clear 18 1013 88 10000 1.54 330 02:38 23.06.2022
2958 Clear 19 1013 77 10000 1.03 280 00:26 23.06.2022
2959 Clear 20 1012 73 10000 2.06 330 23:27 22.06.2022
2960 Clear 21 1012 68 10000 3.6 320 22:31 22.06.2022
2961 Clear 22 1011 64 10000 4.63 340 21:21 22.06.2022
2962 Clouds 24 1011 57 10000 3.6 310 20:25 22.06.2022
2963 Clouds 25 1011 53 10000 3.6 280 19:50 22.06.2022
2964 Clouds 24 1011 57 10000 4.12 320 18:21 22.06.2022
2965 Clouds 24 1011 57 10000 4.12 320 17:26 22.06.2022
2966 Clouds 23 1011 64 10000 4.63 320 16:18 22.06.2022
2967 Clouds 23 1011 64 10000 6.17 290 15:25 22.06.2022
2968 Clouds 23 1011 60 10000 4.63 270 13:52 22.06.2022
2969 Clouds 23 1011 64 10000 3.09 260 13:26 22.06.2022
2970 Clouds 23 1011 64 10000 2.57 0 12:56 22.06.2022
2971 Clouds 22 1010 68 10000 2.06 140 11:47 22.06.2022
2972 Clouds 20 1010 83 10000 2.06 250 10:54 22.06.2022
2973 Rain 18 1008 88 10000 6.69 30 09:44 22.06.2022
2974 Thunderstorm 17 1011 88 1800 8.75 270 07:56 22.06.2022
2975 Clouds 19 1009 88 10000 5.66 320 03:30 22.06.2022
2976 Clouds 21 1009 83 10000 2.06 350 01:22 22.06.2022
2977 Clouds 21 1009 83 10000 4.12 350 23:39 21.06.2022
2978 Clear 24 1009 69 10000 4.63 350 21:32 21.06.2022
2979 Clouds 26 1010 61 10000 3.6 310 19:47 21.06.2022
2980 Clouds 27 1009 54 10000 3.6 310 18:30 21.06.2022
2981 Clouds 26 1011 57 10000 4.12 320 16:52 21.06.2022
2982 Clouds 23 1012 73 10000 4.63 290 12:40 21.06.2022
2983 Clouds 21 1012 83 10000 5.14 260 10:55 21.06.2022
2984 Clouds 20 1011 94 10000 4.12 250 09:40 21.06.2022
2985 Clouds 19 1011 94 7000 2.57 240 08:22 21.06.2022
2986 Clouds 19 1011 94 7000 2.57 240 08:22 21.06.2022
2987 Fog 17 1011 100 1800 1.03 200 05:37 21.06.2022
2988 Clear 19 1011 94 10000 2.57 260 00:37 21.06.2022
2989 Thunderstorm 18 1010 100 10000 4.12 340 22:23 20.06.2022
2990 Mist 18 1010 100 2400 11.32 330 21:49 20.06.2022
2991 Clouds 28 1008 57 10000 3.6 130 20:32 20.06.2022
2992 Clouds 28 1008 57 10000 3.6 130 20:32 20.06.2022
2993 Clouds 29 1008 54 10000 5.14 60 19:38 20.06.2022
2994 Clouds 28 1009 57 10000 4.12 50 18:44 20.06.2022
2995 Clouds 28 1010 54 10000 3.09 40 17:52 20.06.2022
2996 Clouds 28 1010 54 10000 2.06 0 17:29 20.06.2022
2997 Clouds 28 1011 51 10000 2.06 0 15:53 20.06.2022
2998 Clouds 21 1013 78 10000 1.54 0 12:41 20.06.2022
2999 Clouds 19 1013 88 10000 2.57 360 10:32 20.06.2022
3000 Rain 18 1012 94 10000 2.06 360 09:30 20.06.2022
3001 Rain 18 1012 94 10000 3.09 10 08:44 20.06.2022
3002 Clear 18 1011 88 10000 1.54 310 05:35 20.06.2022
3003 Clear 19 1011 82 10000 2.57 310 01:44 20.06.2022
3004 Clouds 20 1010 83 10000 4.12 320 00:26 20.06.2022
3005 Clouds 23 1009 68 10000 1.54 330 22:53 19.06.2022
3006 Clear 24 1007 50 10000 3.6 300 21:57 19.06.2022
3007 Thunderstorm 26 1007 41 10000 3.09 310 21:39 19.06.2022
3008 Rain 27 1008 39 10000 4.12 350 20:38 19.06.2022
3009 Clouds 27 1008 41 10000 3.6 340 19:47 19.06.2022
3010 Clouds 28 1008 39 10000 5.14 300 18:45 19.06.2022
3011 Clear 28 1008 39 10000 5.14 320 17:54 19.06.2022
3012 Clear 28 1008 42 10000 5.14 300 17:22 19.06.2022
3013 Clouds 29 1008 39 10000 6.69 290 16:35 19.06.2022
3014 Clouds 28 1008 47 10000 4.12 280 15:41 19.06.2022
3015 Clear 28 1008 47 10000 3.6 270 14:57 19.06.2022
3016 Clear 28 1008 47 10000 5.14 260 14:19 19.06.2022
3017 Clear 28 1008 51 10000 2.57 270 13:21 19.06.2022
3018 Clouds 22 1008 78 10000 3.6 230 10:55 19.06.2022
3019 Clouds 20 1008 94 10000 3.09 240 09:58 19.06.2022
3020 Mist 20 1008 94 3200 3.6 200 08:47 19.06.2022
3021 Clouds 20 1008 94 7000 2.57 190 08:19 19.06.2022
3022 Clouds 20 1007 94 10000 4.63 170 05:37 19.06.2022
3023 Clear 26 1008 61 10000 2.06 0 01:29 19.06.2022
3024 Clear 25 1008 69 10000 4.12 40 00:24 19.06.2022
3025 Clouds 24 1009 78 10000 6.17 310 23:36 18.06.2022
3026 Clouds 25 1009 78 10000 6.69 270 22:39 18.06.2022
3027 Thunderstorm 28 1008 69 8000 7.2 220 20:57 18.06.2022
3028 Rain 25 1007 80 10000 3.86 137 20:38 18.06.2022
3029 Clouds 39 1007 25 10000 7.2 120 19:38 18.06.2022
3030 Clouds 39 1007 25 10000 6.69 110 18:45 18.06.2022
3031 Clear 40 1008 25 10000 5.14 110 17:35 18.06.2022
3032 Clear 40 1008 25 10000 5.14 120 16:56 18.06.2022
3033 Clear 39 1010 25 10000 4.63 110 15:33 18.06.2022
3034 Clear 38 1011 25 10000 4.12 120 14:45 18.06.2022
3035 Clear 37 1012 32 10000 4.12 110 13:23 18.06.2022
3036 Clear 33 1013 40 10000 4.63 110 11:45 18.06.2022
3037 Clear 31 1014 42 10000 3.6 110 10:47 18.06.2022
3038 Clear 28 1014 51 10000 4.12 110 09:23 18.06.2022
3039 Clear 26 1015 53 10000 3.09 90 08:30 18.06.2022
3040 Clear 26 1015 53 10000 3.09 90 08:30 18.06.2022
3041 Clear 22 1015 73 10000 1.03 0 06:49 18.06.2022
3042 Clear 25 1016 61 10000 1.54 0 03:45 18.06.2022
3043 Clear 27 1017 61 10000 2.06 70 01:26 18.06.2022
3044 Clear 27 1017 61 10000 2.06 70 01:26 18.06.2022
3045 Clear 27 1017 61 10000 2.06 70 01:26 18.06.2022
3046 Clear 27 1017 57 10000 1.54 60 00:48 18.06.2022
3047 Clear 28 1017 51 10000 0 0 23:52 17.06.2022
3048 Clear 29 1017 51 10000 1.54 0 23:24 17.06.2022
3049 Clear 36 1017 26 10000 3.09 50 21:18 17.06.2022
3050 Clear 38 1017 25 10000 4.63 70 19:59 17.06.2022
3051 Clear 39 1018 23 10000 4.12 60 18:44 17.06.2022
3052 Clear 39 1018 21 10000 4.63 60 17:43 17.06.2022
3053 Clear 38 1018 23 10000 3.6 70 16:43 17.06.2022
3054 Clear 38 1018 20 10000 4.63 60 15:43 17.06.2022
3055 Clear 37 1019 25 10000 4.12 90 15:20 17.06.2022
3056 Clear 36 1019 28 10000 3.6 100 14:20 17.06.2022
3057 Clear 35 1019 31 10000 3.6 120 13:46 17.06.2022
3058 Clouds 35 1019 34 10000 3.6 100 12:57 17.06.2022
3059 Clear 32 1020 40 10000 1.54 90 11:57 17.06.2022
3060 Clear 31 1020 42 10000 2.06 0 11:36 17.06.2022
3061 Clear 31 1020 42 10000 2.06 0 11:36 17.06.2022
3062 Clear 30 1019 48 10000 2.57 40 10:51 17.06.2022
3063 Clear 23 1020 73 10000 0 0 08:30 17.06.2022
3064 Clear 22 1019 73 10000 0 0 07:47 17.06.2022
3065 Clear 21 1020 78 10000 3.09 230 05:57 17.06.2022
3066 Clear 23 1020 68 10000 1.03 320 02:52 17.06.2022
3067 Clear 26 1020 57 10000 2.06 10 00:42 17.06.2022
3068 Clear 30 1019 48 10000 3.09 20 22:45 16.06.2022
3069 Clear 31 1018 42 10000 2.57 30 22:20 16.06.2022
3070 Clear 33 1018 33 10000 4.12 30 21:19 16.06.2022
3071 Clear 34 1017 31 10000 5.14 30 20:50 16.06.2022
3072 Clear 36 1017 28 10000 3.6 0 19:57 16.06.2022
3073 Clear 36 1017 24 10000 3.09 130 18:34 16.06.2022
3074 Clear 36 1018 26 10000 3.09 0 17:44 16.06.2022
3075 Clear 36 1018 26 10000 3.09 0 17:44 16.06.2022
3076 Clear 36 1018 24 10000 3.09 80 16:46 16.06.2022
3077 Clear 35 1018 26 10000 4.12 130 15:37 16.06.2022
3078 Clear 34 1018 31 10000 5.14 100 15:18 16.06.2022
3079 Clear 33 1019 31 10000 5.14 110 13:46 16.06.2022
3080 Clear 30 1019 42 10000 2.57 90 12:38 16.06.2022
3081 Clear 29 1019 45 10000 2.57 90 11:54 16.06.2022
3082 Clear 28 1019 51 10000 2.06 120 11:19 16.06.2022
3083 Clear 26 1020 53 10000 2.06 210 10:34 16.06.2022
3084 Clear 24 1020 60 10000 1.03 0 09:26 16.06.2022
3085 Clear 22 1019 68 10000 1.54 0 08:46 16.06.2022
3086 Clear 19 1019 77 10000 1.03 0 07:29 16.06.2022
3087 Clear 19 1018 72 10000 1.54 300 05:42 16.06.2022
3088 Clouds 20 1018 68 10000 2.06 30 02:54 16.06.2022
3089 Clear 21 1018 64 10000 2.57 360 01:51 16.06.2022
3090 Clear 22 1018 60 10000 1.54 0 01:21 16.06.2022
3091 Clear 22 1018 60 10000 1.54 0 01:21 16.06.2022
3092 Clear 24 1018 57 10000 1.54 320 23:56 15.06.2022
3093 Clear 24 1018 57 10000 1.54 320 23:56 15.06.2022
3094 Clouds 26 1017 50 10000 2.57 330 22:45 15.06.2022
3095 Clear 28 1017 44 10000 2.57 320 21:28 15.06.2022
3096 Clear 29 1017 42 10000 4.12 320 20:57 15.06.2022
3097 Clear 31 1017 40 10000 4.63 310 20:35 15.06.2022
3098 Clear 32 1017 35 10000 3.6 320 19:46 15.06.2022
3099 Clear 33 1017 35 10000 4.12 300 18:29 15.06.2022
3100 Clear 34 1017 33 10000 4.63 300 17:42 15.06.2022
3101 Clear 33 1017 40 10000 4.63 290 15:51 15.06.2022
3102 Clear 32 1017 40 10000 2.06 0 14:30 15.06.2022
3103 Clear 31 1017 40 10000 2.57 230 13:20 15.06.2022
3104 Clear 29 1017 45 10000 1.54 210 12:33 15.06.2022
3105 Clear 27 1016 54 10000 2.57 240 10:53 15.06.2022
3106 Clear 26 1016 57 10000 3.6 230 10:20 15.06.2022
3107 Clear 22 1015 78 10000 2.57 240 08:57 15.06.2022
3108 Clear 20 1014 88 10000 3.6 230 07:21 15.06.2022
3109 Clear 21 1013 78 10000 3.6 230 04:51 15.06.2022
3110 Clear 25 1012 73 10000 2.57 240 02:28 15.06.2022
3111 Clear 26 1012 73 10000 2.06 240 00:54 15.06.2022
3112 Clear 27 1012 69 10000 0 0 23:55 14.06.2022
3113 Clear 28 1012 65 10000 0 0 23:37 14.06.2022
3114 Clouds 31 1011 51 10000 1.03 150 22:28 14.06.2022
3115 Clear 32 1011 48 10000 2.06 120 21:41 14.06.2022
3116 Clear 33 1011 49 10000 3.6 110 20:57 14.06.2022
3117 Clear 34 1011 43 10000 4.63 100 20:34 14.06.2022
3118 Clear 35 1011 41 10000 4.12 130 19:25 14.06.2022
3119 Clouds 35 1011 38 10000 4.12 100 18:25 14.06.2022
3120 Clear 35 1012 36 10000 4.12 110 16:49 14.06.2022
3121 Clear 34 1012 38 10000 4.63 100 15:50 14.06.2022
3122 Clear 34 1013 38 10000 5.14 130 15:31 14.06.2022
3123 Clear 34 1013 40 10000 3.6 90 14:46 14.06.2022
3124 Clear 32 1014 43 10000 3.09 70 13:46 14.06.2022
3125 Clear 31 1014 42 10000 3.09 110 12:48 14.06.2022
3126 Clear 28 1014 44 10000 2.57 90 11:46 14.06.2022
3127 Clear 26 1014 50 10000 2.57 70 10:49 14.06.2022
3128 Clear 26 1015 50 10000 2.06 70 10:24 14.06.2022
3129 Clear 22 1015 56 10000 2.57 80 08:49 14.06.2022
3130 Clear 20 1015 60 10000 2.06 70 07:50 14.06.2022
3131 Clear 20 1016 60 10000 2.57 30 05:56 14.06.2022
3132 Clear 21 1017 56 10000 3.09 30 03:20 14.06.2022
3133 Clear 23 1017 49 10000 3.09 40 01:31 14.06.2022
3134 Clear 24 1018 50 10000 3.6 30 23:48 13.06.2022
3135 Clear 26 1018 44 10000 2.57 30 22:27 13.06.2022
3136 Clear 27 1017 41 10000 4.12 30 21:59 13.06.2022
3137 Clear 28 1017 42 10000 5.14 30 20:43 13.06.2022
3138 Clear 29 1018 42 10000 4.63 30 19:39 13.06.2022
3139 Clear 29 1018 42 10000 4.63 30 18:36 13.06.2022
3140 Clear 29 1018 42 10000 4.63 40 17:48 13.06.2022
3141 Clouds 29 1019 42 10000 4.12 40 16:54 13.06.2022
3142 Clear 29 1020 42 10000 5.14 50 15:41 13.06.2022
3143 Clear 28 1020 44 10000 4.63 40 14:47 13.06.2022
3144 Clear 27 1021 47 10000 4.12 20 13:55 13.06.2022
3145 Clear 26 1021 47 10000 4.12 40 12:59 13.06.2022
3146 Clouds 23 1021 49 10000 4.12 20 11:38 13.06.2022
3147 Clear 21 1022 56 10000 5.14 20 10:28 13.06.2022
3148 Clear 20 1022 64 10000 4.12 20 09:42 13.06.2022
3149 Clear 20 1021 64 10000 4.63 20 08:25 13.06.2022
3150 Clouds 20 1021 73 10000 2.06 20 06:34 13.06.2022
3151 Clouds 22 1020 64 10000 4.12 20 03:45 13.06.2022
3152 Clear 23 1021 64 10000 1.54 30 01:39 13.06.2022
3153 Clear 24 1021 60 10000 2.06 20 00:48 13.06.2022
3154 Clouds 25 1020 69 10000 3.6 230 23:33 12.06.2022
3155 Clouds 27 1019 54 10000 2.57 360 22:23 12.06.2022
3156 Clouds 28 1019 54 10000 3.09 10 21:40 12.06.2022
3157 Clear 29 1019 58 10000 4.12 330 20:40 12.06.2022
3158 Clear 28 1019 57 10000 4.12 290 19:41 12.06.2022
3159 Clouds 29 1019 54 10000 5.14 290 18:44 12.06.2022
3160 Clouds 30 1019 48 10000 1.54 0 16:44 12.06.2022
3161 Clear 29 1019 51 10000 3.6 80 15:32 12.06.2022
3162 Clear 28 1021 54 10000 1.54 280 14:33 12.06.2022
3163 Clear 26 1021 65 10000 1.03 0 13:57 12.06.2022
3164 Clear 26 1021 61 10000 1.54 110 13:38 12.06.2022
3165 Clouds 21 1022 83 10000 1.54 200 11:48 12.06.2022
3166 Rain 20 1023 83 10000 4.63 190 10:45 12.06.2022
3167 Rain 20 1022 83 10000 1.03 0 09:28 12.06.2022
3168 Clear 20 1022 77 10000 2.06 250 08:49 12.06.2022
3169 Clear 17 1021 94 10000 0.51 0 07:40 12.06.2022
3170 Clear 17 1021 94 10000 2.06 270 05:39 12.06.2022
3171 Clear 19 1021 82 10000 1.03 0 03:38 12.06.2022
3172 Clear 20 1021 77 10000 2.57 10 01:43 12.06.2022
3173 Clear 20 1022 77 10000 1.54 360 00:59 12.06.2022
3174 Clear 21 1022 73 10000 2.06 320 00:28 12.06.2022
3175 Clear 21 1022 73 10000 1.54 0 23:53 11.06.2022
3176 Clouds 23 1021 68 10000 2.57 320 22:40 11.06.2022
3177 Clouds 23 1021 68 10000 2.57 320 22:21 11.06.2022
3178 Clear 26 1021 53 10000 4.63 360 20:55 11.06.2022
3179 Clear 27 1020 54 10000 4.63 10 20:24 11.06.2022
3180 Clear 29 1019 45 10000 6.69 20 19:26 11.06.2022
3181 Clear 29 1021 45 10000 2.57 350 18:36 11.06.2022
3182 Rain 29 1021 42 10000 3.6 30 17:52 11.06.2022
3183 Clouds 30 1021 37 10000 2.57 30 17:29 11.06.2022
3184 Clear 31 1021 33 10000 1.54 360 16:58 11.06.2022
3185 Clear 31 1021 33 10000 3.6 290 16:30 11.06.2022
3186 Clear 30 1021 37 10000 3.09 360 15:45 11.06.2022
3187 Clear 29 1022 37 10000 3.6 360 13:54 11.06.2022
3188 Clear 28 1022 39 10000 2.57 40 13:24 11.06.2022
3189 Clear 24 1022 57 10000 1.54 0 10:58 11.06.2022
3190 Clear 21 1022 73 10000 1.54 0 10:20 11.06.2022
3191 Clear 20 1022 73 10000 2.06 30 09:29 11.06.2022
3192 Clear 17 1022 88 10000 1.54 350 07:46 11.06.2022
3193 Clouds 15 1022 94 10000 1.54 0 06:31 11.06.2022
3194 Clear 16 1022 88 10000 1.54 20 05:21 11.06.2022
3195 Clear 18 1022 82 10000 2.57 360 01:53 11.06.2022
3196 Clear 18 1022 82 10000 3.09 360 01:33 11.06.2022
3197 Clear 19 1022 77 10000 2.06 360 00:22 11.06.2022
3198 Clouds 24 1021 60 10000 3.09 10 22:33 10.06.2022
3199 Clear 25 1021 57 10000 4.12 10 21:53 10.06.2022
3200 Clear 26 1021 50 10000 3.09 360 20:42 10.06.2022
3201 Clear 27 1021 39 10000 3.09 10 20:22 10.06.2022
3202 Clear 27 1021 39 10000 3.09 10 19:48 10.06.2022
3203 Clear 27 1021 36 10000 3.09 10 19:18 10.06.2022
3204 Clear 27 1021 36 10000 2.57 20 19:18 10.06.2022
3205 Clear 28 1021 39 10000 2.57 30 18:19 10.06.2022
3206 Clear 28 1022 39 10000 3.6 20 17:36 10.06.2022
3207 Clear 27 1022 41 10000 3.6 50 16:55 10.06.2022
3208 Clear 26 1023 47 10000 3.6 20 15:47 10.06.2022
3209 Clear 26 1023 44 10000 2.06 20 14:57 10.06.2022
3210 Clear 24 1024 50 10000 1.54 0 13:41 10.06.2022
3211 Clear 22 1024 60 10000 1.03 0 12:24 10.06.2022
3212 Clear 21 1024 60 10000 1.54 0 11:30 10.06.2022
3213 Clear 20 1024 68 10000 2.06 80 10:36 10.06.2022
3214 Clear 18 1024 77 10000 2.57 70 09:40 10.06.2022
3215 Clear 15 1024 94 10000 0.51 0 08:23 10.06.2022
3216 Clear 11 1024 93 10000 0 0 06:51 10.06.2022
3217 Clear 11 1024 93 10000 0 0 06:32 10.06.2022
3218 Clear 11 1024 100 10000 0 0 05:35 10.06.2022
3219 Clear 13 1024 94 10000 0.51 250 02:54 10.06.2022
3220 Clear 14 1024 88 10000 0 0 01:37 10.06.2022
3221 Clear 16 1024 82 10000 1.54 280 23:58 09.06.2022
3222 Clear 17 1024 72 10000 1.54 300 22:47 09.06.2022
3223 Clear 19 1024 63 10000 3.09 310 21:46 09.06.2022
3224 Clear 20 1024 60 10000 4.12 300 21:28 09.06.2022
3225 Clouds 22 1023 49 10000 4.63 300 20:40 09.06.2022
3226 Clouds 23 1023 49 10000 4.12 310 19:51 09.06.2022
3227 Clouds 24 1023 46 10000 4.12 320 18:41 09.06.2022
3228 Clouds 23 1023 49 10000 4.12 330 17:55 09.06.2022
3229 Clouds 23 1023 46 10000 4.63 300 16:28 09.06.2022
3230 Clouds 22 1023 49 10000 4.63 290 15:40 09.06.2022
3231 Clouds 22 1023 53 10000 5.14 280 14:33 09.06.2022
3232 Clouds 22 1023 53 10000 5.66 300 13:44 09.06.2022
3233 Clouds 21 1023 60 10000 5.14 280 13:20 09.06.2022
3234 Clouds 20 1022 64 10000 4.12 270 11:43 09.06.2022
3235 Clouds 18 1022 72 10000 3.6 290 10:34 09.06.2022
3236 Clouds 17 1022 77 10000 3.09 260 09:38 09.06.2022
3237 Clouds 16 1022 82 10000 2.06 240 09:20 09.06.2022
3238 Clouds 12 1021 94 10000 2.06 220 07:29 09.06.2022
3239 Clear 12 1020 94 10000 2.06 230 04:47 09.06.2022
3240 Clouds 14 1020 88 10000 2.06 240 00:36 09.06.2022
3241 Clear 16 1020 82 10000 2.57 270 23:23 08.06.2022
3242 Clouds 16 1019 82 10000 2.57 280 22:44 08.06.2022
3243 Clouds 17 1019 77 10000 3.09 290 22:24 08.06.2022
3244 Clouds 18 1018 72 10000 4.63 280 21:40 08.06.2022
3245 Clouds 19 1018 68 10000 6.69 290 20:25 08.06.2022
3246 Clouds 20 1017 64 10000 7.2 290 19:42 08.06.2022
3247 Clouds 20 1016 68 10000 6.69 280 18:48 08.06.2022
3248 Clouds 19 1016 82 10000 5.14 300 17:46 08.06.2022
3249 Clouds 19 1016 94 10000 6.17 290 15:56 08.06.2022
3250 Clouds 19 1015 94 6000 5.66 250 14:44 08.06.2022
3251 Rain 19 1015 88 10000 5.14 250 12:55 08.06.2022
3252 Rain 19 1015 88 10000 5.14 250 12:55 08.06.2022
3253 Rain 19 1015 88 10000 5.14 250 12:55 08.06.2022
3254 Rain 19 1015 88 10000 5.14 250 12:55 08.06.2022
3255 Rain 19 1015 88 10000 4.63 260 11:41 08.06.2022
3256 Rain 19 1015 88 10000 4.63 260 11:19 08.06.2022
3257 Clouds 17 1015 100 10000 4.12 240 09:30 08.06.2022
3258 Rain 17 1014 95 10000 4.12 260 08:55 08.06.2022
3259 Rain 16 1014 100 10000 4.12 260 07:21 08.06.2022
3260 Rain 16 1014 100 10000 4.12 260 07:21 08.06.2022
3261 Rain 16 1014 94 5000 3.09 250 04:47 08.06.2022
3262 Clear 16 1015 82 10000 0 0 01:27 08.06.2022
3263 Clear 18 1017 72 10000 1.54 270 23:33 07.06.2022
3264 Clear 18 1017 68 10000 1.54 260 22:58 07.06.2022
3265 Clear 18 1017 68 10000 2.06 280 22:37 07.06.2022
3266 Clear 20 1018 56 10000 3.09 270 21:41 07.06.2022
3267 Clear 20 1018 56 10000 3.09 270 21:20 07.06.2022
3268 Clear 20 1018 56 10000 4.12 290 20:42 07.06.2022
3269 Clear 22 1018 49 10000 3.6 270 19:57 07.06.2022
3270 Clouds 23 1019 46 10000 5.14 290 18:26 07.06.2022
3271 Clouds 24 1019 43 10000 6.17 260 17:33 07.06.2022
3272 Clouds 24 1019 43 10000 6.17 280 16:44 07.06.2022
3273 Clear 24 1019 43 10000 5.66 260 15:58 07.06.2022
3274 Clear 24 1019 41 10000 6.17 270 15:36 07.06.2022
3275 Clear 24 1019 41 10000 6.17 270 15:18 07.06.2022
3276 Clouds 24 1019 43 10000 5.66 250 14:42 07.06.2022
3277 Clouds 23 1020 46 10000 5.66 270 13:34 07.06.2022
3278 Clouds 22 1020 49 10000 5.14 280 12:54 07.06.2022
3279 Clouds 21 1021 52 10000 3.6 290 11:51 07.06.2022
3280 Clouds 21 1021 56 10000 4.12 280 10:48 07.06.2022
3281 Clear 18 1021 72 10000 3.6 250 08:58 07.06.2022
3282 Clear 16 1020 88 10000 2.06 220 07:54 07.06.2022
3283 Clouds 16 1020 88 10000 2.06 250 06:41 07.06.2022
3284 Clouds 16 1020 94 10000 2.57 250 04:41 07.06.2022
3285 Clear 17 1020 82 10000 2.57 210 01:27 07.06.2022
3286 Clouds 18 1021 72 10000 1.54 220 23:58 06.06.2022
3287 Clear 19 1020 63 10000 1.54 270 22:54 06.06.2022
3288 Clear 19 1020 63 10000 1.54 320 22:30 06.06.2022
3289 Clear 23 1019 49 10000 5.14 290 20:54 06.06.2022
3290 Clouds 24 1018 60 10000 4.12 290 19:29 06.06.2022
3291 Clear 24 1018 57 10000 2.06 320 18:49 06.06.2022
3292 Clear 24 1018 57 10000 1.54 0 18:21 06.06.2022
3293 Clouds 22 1019 64 10000 3.09 350 17:26 06.06.2022
3294 Clouds 22 1019 64 10000 3.09 350 17:26 06.06.2022
3295 Clouds 24 1019 50 10000 2.06 350 16:18 06.06.2022
3296 Clouds 24 1019 50 10000 2.06 0 15:28 06.06.2022
3297 Clouds 24 1019 46 10000 1.03 0 14:30 06.06.2022
3298 Clear 22 1019 56 10000 1.54 0 13:22 06.06.2022
3299 Clouds 20 1020 73 10000 2.06 150 12:36 06.06.2022
3300 Clouds 20 1020 68 10000 2.57 140 11:53 06.06.2022
3301 Clouds 20 1020 68 10000 1.54 0 10:40 06.06.2022
3302 Clouds 19 1020 77 10000 1.54 80 09:33 06.06.2022
3303 Clouds 17 1019 82 10000 1.54 0 08:32 06.06.2022
3304 Clear 15 1020 94 10000 1.03 140 07:28 06.06.2022
3305 Clear 14 1020 94 10000 0 0 05:18 06.06.2022
3306 Clear 14 1021 94 10000 1.03 250 02:42 06.06.2022
3307 Clear 16 1022 82 10000 1.54 230 00:57 06.06.2022
3308 Clear 16 1022 82 10000 1.54 220 00:37 06.06.2022
3309 Clear 17 1022 77 10000 2.06 280 23:28 05.06.2022
3310 Clear 18 1022 72 10000 2.57 280 22:33 05.06.2022
3311 Clouds 22 1021 56 10000 4.12 300 20:40 05.06.2022
3312 Clouds 21 1021 60 10000 3.6 290 19:37 05.06.2022
3313 Clouds 22 1021 56 10000 5.14 290 18:26 05.06.2022
3314 Clouds 22 1021 56 10000 4.63 300 17:50 05.06.2022
3315 Clouds 22 1021 56 10000 4.63 290 17:23 05.06.2022
3316 Clouds 21 1021 56 10000 5.14 280 16:49 05.06.2022
3317 Clouds 21 1021 60 10000 5.14 290 15:50 05.06.2022
3318 Clouds 21 1021 64 10000 4.12 290 14:22 05.06.2022
3319 Clouds 20 1020 73 10000 4.63 280 12:43 05.06.2022
3320 Clouds 19 1020 77 10000 4.63 260 11:35 05.06.2022
3321 Clouds 19 1020 77 10000 3.09 250 10:25 05.06.2022
3322 Clouds 18 1020 82 10000 3.6 260 09:58 05.06.2022
3323 Clouds 18 1019 82 10000 1.54 240 08:26 05.06.2022
3324 Clouds 17 1018 88 10000 2.57 250 06:54 05.06.2022
3325 Clouds 17 1017 88 10000 2.06 220 05:20 05.06.2022
3326 Clouds 18 1017 88 10000 2.57 310 03:38 05.06.2022
3327 Clouds 18 1018 88 10000 3.6 260 01:32 05.06.2022
3328 Clear 18 1016 88 10000 4.63 270 23:58 04.06.2022
3329 Clouds 20 1016 77 10000 4.12 270 21:49 04.06.2022
3330 Clear 23 1015 60 10000 5.14 300 20:21 04.06.2022
3331 Clouds 24 1015 64 10000 4.12 290 17:59 04.06.2022
3332 Clouds 24 1015 64 10000 3.6 300 16:42 04.06.2022
3333 Clouds 24 1015 64 10000 2.57 300 16:18 04.06.2022
3334 Clouds 24 1015 64 10000 2.06 290 14:37 04.06.2022
3335 Clouds 23 1015 64 10000 1.54 0 11:51 04.06.2022
3336 Clouds 22 1015 73 10000 1.03 0 10:57 04.06.2022
3337 Clouds 21 1015 73 10000 1.54 330 10:22 04.06.2022
3338 Clouds 19 1015 82 10000 1.03 360 09:41 04.06.2022
3339 Clouds 18 1015 94 10000 1.54 0 08:40 04.06.2022
3340 Clouds 17 1014 94 7000 1.54 0 07:39 04.06.2022
3341 Clouds 18 1014 94 8000 0.51 0 04:38 04.06.2022
3342 Thunderstorm 19 1014 82 10000 1.03 0 00:56 04.06.2022
3343 Clear 20 1013 88 10000 4.12 290 23:35 03.06.2022
3344 Clear 22 1012 78 10000 2.57 290 22:30 03.06.2022
3345 Clear 24 1012 69 10000 4.63 320 21:21 03.06.2022
3346 Clouds 26 1012 57 10000 3.09 320 20:33 03.06.2022
3347 Clouds 27 1012 54 10000 3.09 240 17:58 03.06.2022
3348 Clouds 27 1013 54 10000 2.06 170 16:47 03.06.2022
3349 Clouds 25 1013 69 10000 3.09 220 15:18 03.06.2022
3350 Clouds 23 1013 73 10000 3.6 230 13:20 03.06.2022
3351 Clouds 23 1013 68 10000 2.06 180 11:19 03.06.2022
3352 Clear 22 1012 64 10000 3.09 90 09:38 03.06.2022
3353 Clear 20 1012 77 10000 2.06 110 08:45 03.06.2022
3354 Clouds 19 1012 82 10000 2.06 100 07:26 03.06.2022
3355 Clouds 19 1013 77 10000 1.54 0 06:32 03.06.2022
3356 Clouds 19 1013 82 10000 4.12 240 05:35 03.06.2022
3357 Clear 23 1012 68 10000 2.57 20 00:28 03.06.2022
3358 Clouds 25 1012 69 10000 3.09 10 22:41 02.06.2022
3359 Clear 26 1011 61 10000 4.12 30 21:38 02.06.2022
3360 Clear 27 1011 57 10000 2.57 60 20:22 02.06.2022
3361 Clear 27 1011 57 10000 3.09 90 19:46 02.06.2022
3362 Clear 28 1012 54 10000 2.57 120 19:28 02.06.2022
3363 Clouds 28 1012 54 10000 2.57 0 17:32 02.06.2022
3364 Clouds 28 1013 54 10000 3.09 130 16:27 02.06.2022
3365 Clouds 27 1013 57 10000 3.6 120 14:19 02.06.2022
3366 Clouds 25 1014 65 10000 4.12 140 13:29 02.06.2022
3367 Clouds 22 1014 73 10000 1.54 140 11:24 02.06.2022
3368 Clear 22 1014 73 10000 2.06 120 10:20 02.06.2022
3369 Clear 20 1014 77 10000 2.57 140 09:27 02.06.2022
3370 Clouds 18 1013 88 10000 2.57 110 08:26 02.06.2022
3371 Clouds 18 1013 88 10000 3.09 90 07:21 02.06.2022
3372 Clouds 19 1012 82 10000 2.06 40 04:49 02.06.2022
3373 Clouds 21 1013 68 10000 2.06 360 02:37 02.06.2022
3374 Clear 23 1012 56 10000 2.06 30 23:47 01.06.2022
3375 Clouds 25 1012 50 10000 4.12 50 22:31 01.06.2022
3376 Clouds 26 1011 47 10000 5.14 40 21:32 01.06.2022
3377 Clear 27 1011 47 10000 6.69 40 20:40 01.06.2022
3378 Clear 27 1011 47 10000 6.69 50 19:59 01.06.2022
3379 Clear 27 1011 47 10000 6.17 40 19:19 01.06.2022
3380 Clear 28 1012 42 10000 5.66 30 17:44 01.06.2022
3381 Clear 28 1012 44 10000 5.66 20 16:34 01.06.2022
3382 Clear 28 1013 42 10000 4.12 40 14:53 01.06.2022
3383 Clear 26 1013 44 10000 3.6 60 13:51 01.06.2022
3384 Clear 23 1014 53 10000 3.09 90 12:26 01.06.2022
3385 Clouds 17 1015 67 10000 3.09 20 09:40 01.06.2022
3386 Clouds 15 1014 72 10000 3.09 30 08:38 01.06.2022
3387 Clouds 14 1015 82 10000 2.06 30 07:22 01.06.2022
3388 Clouds 14 1014 77 10000 3.09 30 05:23 01.06.2022
3389 Clear 16 1015 63 10000 2.06 20 00:22 01.06.2022
3390 Clear 17 1015 59 10000 2.57 360 23:26 31.05.2022
3391 Clear 18 1015 52 10000 3.09 360 22:36 31.05.2022
3392 Clear 19 1014 48 10000 3.09 360 21:45 31.05.2022
3393 Clear 21 1014 43 10000 3.6 340 20:45 31.05.2022
3394 Clear 23 1014 38 10000 4.12 320 19:57 31.05.2022
3395 Clear 25 1014 36 10000 3.6 310 18:50 31.05.2022
3396 Clear 25 1014 33 10000 3.6 290 17:50 31.05.2022
3397 Clear 25 1014 31 10000 3.6 300 16:56 31.05.2022
3398 Clear 24 1014 35 10000 3.09 280 15:40 31.05.2022
3399 Clear 23 1015 35 10000 4.12 260 13:52 31.05.2022
3400 Clear 21 1014 43 10000 4.63 250 12:20 31.05.2022
3401 Clouds 17 1014 67 10000 4.63 260 10:53 31.05.2022
3402 Clear 15 1013 82 10000 2.57 260 08:49 31.05.2022
3403 Clear 14 1013 88 10000 3.09 230 07:21 31.05.2022
3404 Clear 13 1012 88 10000 2.57 230 04:53 31.05.2022
3405 Clouds 15 1012 72 10000 2.57 310 00:36 31.05.2022
3406 Clear 17 1012 55 10000 1.54 310 23:26 30.05.2022
3407 Clear 17 1011 55 10000 2.57 320 22:53 30.05.2022
3408 Clear 19 1010 45 10000 3.09 310 21:52 30.05.2022
3409 Clear 20 1010 42 10000 3.09 310 21:32 30.05.2022
3410 Clear 23 1009 35 10000 4.63 310 19:57 30.05.2022
3411 Clear 25 1009 25 10000 2.57 360 18:39 30.05.2022
3412 Clear 25 1009 25 10000 2.57 0 17:24 30.05.2022
3413 Clear 23 1009 28 10000 3.6 350 16:39 30.05.2022
3414 Clear 22 1010 28 10000 2.06 0 14:23 30.05.2022
3415 Clear 19 1010 37 10000 3.6 10 12:21 30.05.2022
3416 Clear 16 1010 48 10000 3.09 30 10:40 30.05.2022
3417 Clear 13 1010 54 10000 3.09 40 09:19 30.05.2022
3418 Clear 11 1009 62 10000 2.57 10 06:30 30.05.2022
3419 Clear 11 1009 62 10000 2.06 10 05:47 30.05.2022
3420 Clear 15 1009 44 10000 4.63 20 01:33 30.05.2022
3421 Clear 17 1009 42 10000 3.6 10 22:54 29.05.2022
3422 Clear 18 1009 39 10000 3.6 10 22:36 29.05.2022
3423 Clear 21 1009 32 10000 6.17 20 20:53 29.05.2022
3424 Clear 22 1009 30 10000 5.66 30 19:31 29.05.2022
3425 Clear 23 1009 28 10000 4.63 20 18:37 29.05.2022
3426 Clear 23 1010 31 10000 5.14 10 17:23 29.05.2022
3427 Clear 22 1011 33 10000 5.14 20 15:48 29.05.2022
3428 Clear 22 1011 35 10000 5.14 40 14:57 29.05.2022
3429 Clear 22 1012 37 10000 6.69 30 13:46 29.05.2022
3430 Clear 20 1013 42 10000 5.66 40 11:34 29.05.2022
3431 Clear 18 1013 52 10000 5.14 50 10:38 29.05.2022
3432 Clear 15 1013 63 10000 5.14 40 08:47 29.05.2022
3433 Clear 14 1013 67 10000 3.6 30 05:48 29.05.2022
3434 Clear 15 1013 58 10000 2.57 40 04:43 29.05.2022
3435 Clear 16 1014 55 10000 3.6 30 02:50 29.05.2022
3436 Clear 20 1015 42 10000 4.12 30 23:49 28.05.2022
3437 Clear 20 1015 42 10000 4.12 20 23:26 28.05.2022
3438 Clear 22 1015 35 10000 4.63 20 22:33 28.05.2022
3439 Clear 23 1015 31 10000 5.14 20 21:34 28.05.2022
3440 Clear 26 1015 22 10000 6.17 30 19:24 28.05.2022
3441 Clear 26 1015 22 10000 6.17 20 18:46 28.05.2022
3442 Clear 26 1016 24 10000 4.63 40 17:35 28.05.2022
3443 Clear 26 1017 29 10000 4.12 20 16:37 28.05.2022
3444 Clear 25 1017 31 10000 4.63 10 15:39 28.05.2022
3445 Clear 24 1018 38 10000 6.17 40 14:18 28.05.2022
3446 Clear 23 1019 46 10000 5.14 40 12:44 28.05.2022
3447 Clouds 21 1020 56 10000 6.69 40 11:57 28.05.2022
3448 Clear 19 1020 72 10000 5.14 40 10:49 28.05.2022
3449 Clear 18 1020 72 10000 5.14 30 09:56 28.05.2022
3450 Clear 15 1020 88 10000 3.09 20 08:45 28.05.2022
3451 Clear 13 1020 94 10000 2.57 10 07:23 28.05.2022
3452 Clear 14 1021 88 10000 2.57 360 05:24 28.05.2022
3453 Clouds 15 1023 88 10000 1.54 360 02:38 28.05.2022
3454 Clear 15 1023 88 10000 1.54 280 00:32 28.05.2022
3455 Clear 17 1024 77 10000 2.06 290 22:51 27.05.2022
3456 Clear 19 1023 68 10000 4.12 320 21:43 27.05.2022
3457 Clear 21 1023 60 10000 5.14 320 20:49 27.05.2022
3458 Clear 23 1023 53 10000 5.14 320 20:23 27.05.2022
3459 Clear 23 1024 49 10000 3.6 360 19:41 27.05.2022
3460 Clear 23 1024 49 10000 3.6 360 19:21 27.05.2022
3461 Clear 23 1024 49 10000 3.6 350 17:34 27.05.2022
3462 Clouds 22 1025 53 10000 2.57 340 16:36 27.05.2022
3463 Clouds 22 1026 53 10000 2.57 40 15:20 27.05.2022
3464 Clouds 20 1027 60 10000 3.09 360 13:41 27.05.2022
3465 Clouds 20 1027 60 10000 2.57 320 12:35 27.05.2022
3466 Clouds 19 1027 63 10000 2.06 10 11:33 27.05.2022
3467 Clouds 18 1027 72 10000 2.57 340 10:52 27.05.2022
3468 Clouds 17 1027 77 10000 3.09 360 10:22 27.05.2022
3469 Clouds 16 1027 82 10000 1.54 360 09:31 27.05.2022
3470 Clouds 13 1027 94 10000 1.54 330 07:41 27.05.2022
3471 Clear 13 1027 88 10000 1.03 290 05:25 27.05.2022
3472 Clouds 16 1028 82 10000 3.09 330 01:44 27.05.2022
3473 Clouds 16 1028 82 10000 3.6 330 23:55 26.05.2022
3474 Clouds 17 1028 75 10000 3.09 320 22:28 26.05.2022
3475 Clouds 17 1027 77 10000 3.6 320 21:33 26.05.2022
3476 Clouds 19 1027 72 10000 4.63 340 19:49 26.05.2022
3477 Clouds 19 1027 70 10000 5.14 340 19:18 26.05.2022
3478 Clouds 20 1028 66 10000 4.12 360 17:36 26.05.2022
3479 Clouds 20 1028 60 10000 3.6 320 16:31 26.05.2022
3480 Clouds 19 1028 59 10000 2.57 320 15:33 26.05.2022
3481 Clouds 19 1028 63 10000 2.57 300 14:20 26.05.2022
3482 Clouds 18 1029 63 10000 4.12 340 12:18 26.05.2022
3483 Clouds 17 1028 77 10000 3.6 340 11:21 26.05.2022
3484 Clouds 16 1028 82 10000 1.03 0 09:39 26.05.2022
3485 Clouds 15 1028 88 10000 0 0 08:48 26.05.2022
3486 Clouds 14 1027 94 10000 3.6 290 06:51 26.05.2022
3487 Clouds 13 1027 88 10000 1.54 240 02:54 26.05.2022
3488 Clear 14 1027 77 10000 2.06 260 00:19 26.05.2022
3489 Clear 15 1027 72 10000 2.06 290 22:58 25.05.2022
3490 Clear 16 1026 63 10000 3.6 310 21:44 25.05.2022
3491 Clear 18 1025 59 10000 5.66 300 20:50 25.05.2022
3492 Clouds 19 1025 52 10000 5.66 320 19:56 25.05.2022
3493 Clear 20 1024 42 10000 6.17 330 18:48 25.05.2022
3494 Clouds 21 1023 46 10000 5.66 310 17:26 25.05.2022
3495 Clouds 22 1023 43 10000 6.17 300 16:35 25.05.2022
3496 Clouds 22 1023 43 10000 5.66 300 15:49 25.05.2022
3497 Clouds 20 1023 45 10000 6.17 330 14:51 25.05.2022
3498 Clouds 20 1023 52 10000 3.6 330 14:32 25.05.2022
3499 Clouds 20 1023 52 10000 4.12 320 13:27 25.05.2022
3500 Clouds 19 1021 61 10000 3.59 329 11:50 25.05.2022
3501 Clouds 18 1022 55 10000 2.57 340 10:42 25.05.2022
3502 Clear 17 1021 67 10000 2.06 340 09:46 25.05.2022
3503 Clear 12 1020 88 10000 0.18 88 08:21 25.05.2022
3504 Clear 9 1019 93 10000 0.52 342 06:37 25.05.2022
3505 Clear 11 1018 87 10000 2.06 250 02:46 25.05.2022
3506 Clear 13 1017 76 10000 1.54 240 23:52 24.05.2022
3507 Clear 13 1017 76 10000 1.54 280 23:23 24.05.2022
3508 Clear 15 1016 72 10000 3.09 300 22:18 24.05.2022
3509 Clouds 15 1015 67 10000 5.66 310 21:38 24.05.2022
3510 Clouds 15 1015 67 10000 5.66 310 21:19 24.05.2022
3511 Clouds 19 1014 48 10000 6.69 290 19:28 24.05.2022
3512 Clouds 19 1014 52 10000 6.17 310 18:38 24.05.2022
3513 Clouds 17 1014 59 10000 6.17 260 16:40 24.05.2022
3514 Clouds 17 1014 63 10000 6.17 240 15:54 24.05.2022
3515 Clouds 19 1013 48 10000 4.63 270 14:45 24.05.2022
3516 Clouds 18 1013 48 10000 4.63 260 13:48 24.05.2022
3517 Clouds 17 1013 63 10000 4.12 260 12:35 24.05.2022
3518 Clouds 16 1013 79 10000 3.09 240 09:52 24.05.2022
3519 Clouds 15 1013 83 10000 2.06 250 09:27 24.05.2022
3520 Clear 13 1013 90 10000 2.06 230 08:42 24.05.2022
3521 Clouds 12 1013 95 10000 2.57 220 06:42 24.05.2022
3522 Clear 12 1013 94 10000 3.09 210 03:48 24.05.2022
3523 Clouds 13 1013 94 10000 3.09 240 01:48 24.05.2022
3524 Clouds 14 1013 91 10000 4.12 260 00:57 24.05.2022
3525 Rain 14 1012 94 10000 5.14 240 22:29 23.05.2022
3526 Clouds 15 1012 93 10000 4.12 240 21:53 23.05.2022
3527 Clouds 15 1011 93 10000 5.66 240 20:55 23.05.2022
3528 Rain 15 1011 88 10000 5.66 260 20:21 23.05.2022
3529 Clouds 18 1011 72 10000 6.69 240 19:31 23.05.2022
3530 Clouds 17 1011 88 10000 5.14 260 18:42 23.05.2022
3531 Clouds 18 1011 85 10000 5.14 260 18:22 23.05.2022
3532 Clouds 20 1011 69 10000 7.72 240 16:51 23.05.2022
3533 Clouds 20 1010 68 10000 6.69 240 14:49 23.05.2022
3534 Clouds 19 1010 68 10000 7.2 270 12:30 23.05.2022
3535 Clouds 18 1010 78 10000 7.2 260 11:25 23.05.2022
3536 Clouds 17 1010 82 10000 6.17 250 09:49 23.05.2022
3537 Clouds 17 1009 82 10000 7.2 260 08:51 23.05.2022
3538 Clouds 17 1008 88 10000 7.2 250 07:46 23.05.2022
3539 Clouds 17 1008 88 10000 7.2 260 06:43 23.05.2022
3540 Drizzle 17 1008 94 6000 6.17 250 04:43 23.05.2022
3541 Mist 18 1009 94 5000 5.66 230 02:19 23.05.2022
3542 Clouds 19 1009 82 10000 7.72 230 01:35 23.05.2022
3543 Clouds 20 1008 77 10000 8.23 270 23:42 22.05.2022
3544 Clear 22 1008 73 10000 5.66 250 22:35 22.05.2022
3545 Clear 23 1007 73 10000 6.69 260 21:54 22.05.2022
3546 Clear 28 1006 54 10000 2.57 260 20:51 22.05.2022
3547 Clouds 28 1006 54 10000 4.63 260 20:25 22.05.2022
3548 Clear 29 1006 45 10000 5.66 260 19:54 22.05.2022
3549 Clear 29 1006 45 10000 5.66 260 19:54 22.05.2022
3550 Clear 31 1006 42 10000 6.69 260 18:53 22.05.2022
3551 Clouds 32 1006 40 10000 6.17 240 18:24 22.05.2022
3552 Clear 33 1006 40 10000 3.09 230 17:28 22.05.2022
3553 Clear 32 1007 45 10000 4.12 140 15:59 22.05.2022
3554 Clear 30 1008 58 10000 4.63 120 14:48 22.05.2022
3555 Clear 29 1009 58 10000 3.09 140 13:38 22.05.2022
3556 Clear 28 1009 61 10000 3.09 110 12:50 22.05.2022
3557 Clear 25 1010 73 10000 2.06 240 11:37 22.05.2022
3558 Clouds 22 1011 88 9000 1.03 0 09:42 22.05.2022
3559 Rain 21 1011 88 10000 1.54 110 08:31 22.05.2022
3560 Clouds 20 1012 94 8000 0.51 0 07:21 22.05.2022
3561 Clear 21 1012 88 10000 1.03 260 05:31 22.05.2022
3562 Clear 22 1013 83 10000 1.03 0 01:41 22.05.2022
3563 Clear 23 1014 78 10000 0 0 00:43 22.05.2022
3564 Clear 25 1014 69 10000 2.06 10 23:52 21.05.2022
3565 Clear 27 1014 65 10000 2.06 30 22:28 21.05.2022
3566 Clear 28 1014 57 10000 2.57 30 21:42 21.05.2022
3567 Clear 29 1015 54 10000 2.57 40 20:51 21.05.2022
3568 Clear 29 1015 54 10000 3.09 20 20:21 21.05.2022
3569 Clear 30 1015 48 10000 3.09 20 19:25 21.05.2022
3570 Clear 32 1015 40 10000 2.06 110 17:48 21.05.2022
3571 Clouds 30 1017 48 10000 3.6 100 15:54 21.05.2022
3572 Clear 28 1018 54 10000 3.09 80 14:37 21.05.2022
3573 Clouds 27 1018 54 10000 4.12 90 13:42 21.05.2022
3574 Clear 26 1019 57 10000 4.12 60 12:49 21.05.2022
3575 Clear 24 1019 64 10000 3.6 50 11:58 21.05.2022
3576 Clear 22 1020 64 10000 1.54 60 10:23 21.05.2022
3577 Clear 21 1020 64 10000 1.54 60 09:41 21.05.2022
3578 Clear 18 1020 72 10000 2.06 50 08:52 21.05.2022
3579 Clear 16 1021 82 10000 2.06 30 07:53 21.05.2022
3580 Clear 16 1023 82 10000 1.54 360 03:48 21.05.2022
3581 Clouds 17 1024 72 10000 2.57 310 23:50 20.05.2022
3582 Clear 19 1024 68 10000 2.06 280 22:42 20.05.2022
3583 Clear 20 1024 64 10000 2.57 300 22:23 20.05.2022
3584 Clear 21 1023 60 10000 3.09 300 21:40 20.05.2022
3585 Clear 23 1023 53 10000 3.6 310 20:54 20.05.2022
3586 Clear 24 1023 53 10000 4.12 310 19:57 20.05.2022
3587 Clear 25 1023 50 10000 4.12 310 19:26 20.05.2022
3588 Clouds 25 1023 53 10000 3.09 320 18:36 20.05.2022
3589 Clouds 25 1023 61 10000 3.09 300 16:53 20.05.2022
3590 Clouds 23 1023 64 10000 4.63 300 15:58 20.05.2022
3591 Clouds 23 1023 64 10000 3.6 300 15:40 20.05.2022
3592 Clouds 22 1022 78 10000 4.63 260 14:29 20.05.2022
3593 Clouds 22 1022 78 10000 4.63 250 13:54 20.05.2022
3594 Clouds 22 1021 78 10000 4.63 250 11:33 20.05.2022
3595 Clear 21 1019 83 10000 3.6 200 09:51 20.05.2022
3596 Clear 20 1019 83 10000 3.6 180 08:43 20.05.2022
3597 Clear 19 1017 88 10000 2.57 150 06:47 20.05.2022
3598 Clear 19 1017 82 10000 2.57 160 06:24 20.05.2022
3599 Clear 20 1017 83 10000 3.09 150 04:22 20.05.2022
3600 Clear 23 1017 78 10000 2.57 60 00:24 20.05.2022
3601 Clear 24 1017 73 10000 1.54 60 22:44 19.05.2022
3602 Clear 25 1017 69 10000 2.57 90 21:53 19.05.2022
3603 Clear 25 1018 69 10000 2.57 110 21:25 19.05.2022
3604 Clear 25 1018 69 10000 3.09 110 20:59 19.05.2022
3605 Clear 26 1018 61 10000 3.6 110 20:21 19.05.2022
3606 Clear 26 1018 61 10000 3.6 120 19:34 19.05.2022
3607 Clouds 26 1019 61 10000 3.6 130 17:52 19.05.2022
3608 Clouds 25 1019 61 10000 3.09 120 16:29 19.05.2022
3609 Clouds 23 1020 68 10000 2.06 140 14:52 19.05.2022
3610 Clouds 23 1020 68 10000 1.03 0 14:21 19.05.2022
3611 Clouds 21 1021 73 10000 1.54 0 12:23 19.05.2022
3612 Clouds 20 1021 77 10000 1.54 0 10:40 19.05.2022
3613 Clouds 18 1021 88 10000 1.54 0 08:57 19.05.2022
3614 Clouds 18 1020 94 10000 2.06 300 07:41 19.05.2022
3615 Clouds 18 1017 94 10000 1.54 70 04:44 19.05.2022
3616 Clouds 20 1019 77 10000 3.6 210 01:57 19.05.2022
3617 Clear 23 1017 68 10000 4.12 230 23:49 18.05.2022
3618 Rain 27 1016 44 10000 2.57 250 22:46 18.05.2022
3619 Clear 29 1015 39 10000 2.57 300 21:47 18.05.2022
3620 Clear 30 1015 32 10000 2.57 290 21:25 18.05.2022
3621 Clear 32 1014 33 10000 3.09 120 20:24 18.05.2022
3622 Clear 32 1014 33 10000 4.12 120 19:37 18.05.2022
3623 Clear 32 1014 35 10000 4.12 110 18:21 18.05.2022
3624 Clear 32 1014 35 10000 3.6 130 17:41 18.05.2022
3625 Clear 32 1014 35 10000 3.6 130 17:23 18.05.2022
3626 Clear 32 1015 35 10000 4.12 110 15:59 18.05.2022
3627 Clear 32 1015 35 10000 4.12 110 15:59 18.05.2022
3628 Clear 31 1016 35 10000 3.09 100 15:38 18.05.2022
3629 Clear 30 1017 39 10000 3.6 120 14:30 18.05.2022
3630 Clear 30 1017 39 10000 3.6 120 14:30 18.05.2022
3631 Clear 28 1018 44 10000 4.12 100 12:59 18.05.2022
3632 Clear 27 1018 47 10000 3.09 100 12:39 18.05.2022
3633 Clear 25 1019 53 10000 5.14 90 11:33 18.05.2022
3634 Clear 24 1019 57 10000 4.12 90 10:52 18.05.2022
3635 Clear 18 1020 82 10000 2.06 30 08:29 18.05.2022
3636 Clear 16 1020 94 10000 0 0 07:28 18.05.2022
3637 Clear 17 1020 94 10000 2.06 330 04:33 18.05.2022
3638 Clear 19 1021 82 10000 4.63 350 00:52 18.05.2022
3639 Clear 20 1021 77 10000 2.06 10 00:18 18.05.2022
3640 Clear 24 1019 50 10000 4.12 340 21:24 17.05.2022
3641 Clear 25 1019 44 10000 4.63 350 20:57 17.05.2022
3642 Clear 27 1018 41 10000 4.63 330 19:45 17.05.2022
3643 Clear 27 1018 41 10000 5.14 320 19:25 17.05.2022
3644 Clear 27 1018 44 9000 5.66 250 17:49 17.05.2022
3645 Clear 28 1017 39 10000 6.69 250 16:58 17.05.2022
3646 Clear 29 1017 34 10000 5.66 200 16:29 17.05.2022
3647 Clear 29 1017 37 10000 7.2 230 15:18 17.05.2022
3648 Clear 29 1017 37 10000 5.66 240 14:29 17.05.2022
3649 Clear 28 1017 39 10000 5.14 220 13:31 17.05.2022
3650 Clear 26 1018 57 10000 5.14 170 10:51 17.05.2022
3651 Clear 21 1017 73 10000 3.09 120 08:55 17.05.2022
3652 Clear 19 1017 77 10000 3.09 100 07:57 17.05.2022
3653 Clear 19 1017 77 10000 2.57 100 06:27 17.05.2022
3654 Clear 19 1018 77 10000 0.51 0 02:27 17.05.2022
3655 Clear 21 1019 64 10000 2.06 30 00:28 17.05.2022
3656 Clear 23 1018 53 10000 3.09 50 22:41 16.05.2022
3657 Clear 25 1018 41 10000 2.57 10 21:33 16.05.2022
3658 Clear 27 1018 32 10000 1.54 330 20:44 16.05.2022
3659 Clear 28 1018 32 10000 1.03 0 19:19 16.05.2022
3660 Clear 28 1018 36 10000 1.54 0 17:34 16.05.2022
3661 Clear 27 1018 41 10000 4.12 200 15:42 16.05.2022
3662 Clouds 26 1019 47 10000 4.12 200 13:48 16.05.2022
3663 Clouds 23 1019 68 10000 3.6 130 12:46 16.05.2022
3664 Clear 21 1018 78 10000 3.09 120 10:47 16.05.2022
3665 Clouds 18 1018 94 6000 2.06 80 08:37 16.05.2022
3666 Fog 17 1017 100 3600 1.03 0 06:33 16.05.2022
3667 Fog 17 1017 100 3600 1.03 0 06:33 16.05.2022
3668 Clouds 18 1017 94 10000 1.03 0 02:33 16.05.2022
3669 Clouds 19 1015 94 10000 3.6 280 22:52 15.05.2022
3670 Clouds 19 1014 94 10000 1.03 0 22:28 15.05.2022
3671 Clouds 19 1014 94 10000 2.57 360 21:38 15.05.2022
3672 Thunderstorm 19 1015 88 3600 6.69 160 20:53 15.05.2022
3673 Thunderstorm 28 1011 36 10000 7.72 280 18:53 15.05.2022
3674 Rain 30 1011 35 10000 7.2 250 17:45 15.05.2022
3675 Clouds 27 1012 54 10000 3.09 170 15:26 15.05.2022
3676 Thunderstorm 25 1012 61 10000 4.12 140 13:47 15.05.2022
3677 Clear 27 1012 44 10000 4.63 150 12:21 15.05.2022
3678 Clear 26 1012 57 10000 4.12 130 11:29 15.05.2022
3679 Clear 21 1011 68 10000 3.6 130 09:58 15.05.2022
3680 Clear 17 1011 88 10000 3.09 100 07:25 15.05.2022
3681 Clear 17 1012 82 10000 2.06 120 06:56 15.05.2022
3682 Clear 19 1013 82 10000 2.06 120 03:40 15.05.2022
3683 Clouds 18 1014 88 10000 2.06 40 00:47 15.05.2022
3684 Rain 19 1016 82 10000 3.6 260 23:38 14.05.2022
3685 Rain 21 1016 68 10000 7.72 240 22:41 14.05.2022
3686 Clouds 22 1015 64 10000 9.77 230 21:27 14.05.2022
3687 Clear 28 1013 44 10000 5.66 110 20:30 14.05.2022
3688 Clear 30 1014 39 10000 5.14 110 19:21 14.05.2022
3689 Clear 30 1014 37 10000 5.66 110 18:59 14.05.2022
3690 Clear 30 1014 39 10000 5.66 120 17:53 14.05.2022
3691 Clear 30 1015 39 10000 5.66 90 16:23 14.05.2022
3692 Clear 28 1016 44 10000 5.66 110 14:50 14.05.2022
3693 Clear 28 1016 44 10000 5.66 110 14:26 14.05.2022
3694 Clear 25 1018 57 10000 4.12 110 11:51 14.05.2022
3695 Clear 23 1019 64 10000 4.12 100 10:45 14.05.2022
3696 Clear 22 1019 64 10000 4.12 100 10:19 14.05.2022
3697 Clear 18 1019 82 10000 3.6 100 09:34 14.05.2022
3698 Clear 15 1019 88 10000 2.06 40 07:43 14.05.2022
3699 Clear 14 1019 94 10000 2.06 40 04:49 14.05.2022
3700 Clear 15 1021 88 10000 1.54 0 01:42 14.05.2022
3701 Clear 17 1021 72 10000 2.06 320 23:28 13.05.2022
3702 Clear 17 1021 72 10000 2.06 320 23:28 13.05.2022
3703 Clear 18 1021 72 10000 2.06 320 22:56 13.05.2022
3704 Clear 19 1021 68 10000 2.06 330 22:22 13.05.2022
3705 Clear 20 1021 64 10000 3.09 320 21:19 13.05.2022
3706 Clear 23 1020 56 10000 4.12 320 20:40 13.05.2022
3707 Clear 23 1020 56 10000 4.12 320 20:21 13.05.2022
3708 Clear 25 1020 50 10000 4.63 320 19:18 13.05.2022
3709 Clouds 25 1021 50 10000 2.06 330 17:47 13.05.2022
3710 Clear 25 1021 50 10000 2.57 330 17:23 13.05.2022
3711 Clouds 24 1022 53 10000 1.03 0 15:47 13.05.2022
3712 Clouds 23 1023 56 10000 3.6 270 14:45 13.05.2022
3713 Clouds 22 1023 56 10000 3.09 280 12:54 13.05.2022
3714 Clouds 21 1023 60 10000 2.57 240 12:20 13.05.2022
3715 Clear 17 1023 72 10000 1.03 0 10:19 13.05.2022
3716 Clear 15 1023 88 10000 1.54 0 09:29 13.05.2022
3717 Clear 14 1023 88 10000 1.03 0 07:59 13.05.2022
3718 Clear 14 1022 88 10000 1.03 220 07:26 13.05.2022
3719 Clouds 15 1022 82 10000 2.06 330 05:31 13.05.2022
3720 Clouds 15 1023 88 10000 1.54 290 01:21 13.05.2022
3721 Clear 16 1022 82 10000 1.54 300 23:23 12.05.2022
3722 Clear 17 1022 77 10000 1.54 330 22:34 12.05.2022
3723 Clear 18 1021 77 10000 3.09 340 21:26 12.05.2022
3724 Clouds 20 1021 73 10000 4.12 330 19:51 12.05.2022
3725 Clear 21 1020 64 10000 2.06 360 18:27 12.05.2022
3726 Clouds 21 1020 64 10000 2.06 360 16:45 12.05.2022
3727 Clouds 20 1021 68 10000 2.06 360 14:57 12.05.2022
3728 Rain 19 1021 72 10000 1.54 280 13:50 12.05.2022
3729 Clouds 20 1021 60 10000 2.57 80 12:29 12.05.2022
3730 Clouds 18 1021 72 10000 1.54 120 10:34 12.05.2022
3731 Clouds 16 1021 82 10000 0 0 08:56 12.05.2022
3732 Clouds 15 1021 82 10000 0.51 0 08:35 12.05.2022
3733 Clouds 15 1021 88 10000 0 0 07:25 12.05.2022
3734 Clouds 15 1021 82 10000 2.06 200 04:32 12.05.2022
3735 Clear 15 1021 82 10000 2.06 300 01:30 12.05.2022
3736 Clouds 16 1021 77 10000 3.09 260 23:18 11.05.2022
3737 Clouds 16 1020 77 10000 3.09 300 22:21 11.05.2022
3738 Clouds 17 1019 77 10000 4.63 290 21:26 11.05.2022
3739 Clear 20 1018 64 10000 5.14 290 20:20 11.05.2022
3740 Clear 24 1017 53 10000 5.14 290 17:37 11.05.2022
3741 Clear 26 1017 50 10000 5.14 260 16:27 11.05.2022
3742 Clear 24 1017 53 10000 4.12 260 14:48 11.05.2022
3743 Clear 25 1017 53 10000 4.12 270 14:25 11.05.2022
3744 Clear 23 1017 56 10000 3.6 220 12:54 11.05.2022
3745 Clear 21 1017 64 10000 2.06 230 11:48 11.05.2022
3746 Clouds 15 1018 88 10000 2.06 220 09:29 11.05.2022
3747 Clouds 15 1017 88 8000 1.54 190 06:30 11.05.2022
3748 Clouds 15 1018 94 10000 3.6 250 02:18 11.05.2022
3749 Clouds 16 1019 88 9000 3.09 230 22:58 10.05.2022
3750 Clear 17 1019 82 10000 3.6 230 22:24 10.05.2022
3751 Clear 20 1018 64 10000 4.63 240 21:26 10.05.2022
3752 Clear 24 1018 43 10000 5.14 240 20:34 10.05.2022
3753 Clear 27 1018 32 10000 5.66 260 18:49 10.05.2022
3754 Clear 29 1018 30 10000 5.14 250 17:38 10.05.2022
3755 Clear 29 1019 32 10000 5.66 240 16:24 10.05.2022
3756 Clear 28 1020 32 10000 2.06 0 13:19 10.05.2022
3757 Clear 26 1021 36 10000 3.09 150 11:53 10.05.2022
3758 Clear 25 1021 41 10000 2.57 140 11:30 10.05.2022
3759 Clear 24 1021 43 10000 3.09 150 10:56 10.05.2022
3760 Clear 21 1021 49 10000 2.06 120 09:36 10.05.2022
3761 Clear 14 1020 77 10000 1.54 100 07:58 10.05.2022
3762 Clear 13 1020 82 10000 1.03 120 05:54 10.05.2022
3763 Clear 17 1021 67 10000 0 0 01:53 10.05.2022
3764 Clear 20 1022 52 10000 1.54 10 23:43 09.05.2022
3765 Clear 21 1021 56 10000 0 0 22:33 09.05.2022
3766 Clear 25 1021 31 10000 2.57 100 21:37 09.05.2022
3767 Clear 27 1020 28 10000 2.06 70 19:56 09.05.2022
3768 Clear 28 1020 24 10000 1.54 0 18:25 09.05.2022
3769 Clear 28 1021 26 10000 3.09 150 17:25 09.05.2022
3770 Clouds 28 1021 26 10000 3.09 150 15:54 09.05.2022
3771 Clear 27 1021 29 10000 2.06 70 15:35 09.05.2022
3772 Clear 27 1022 29 10000 1.54 0 14:33 09.05.2022
3773 Clear 26 1022 34 10000 4.12 80 13:56 09.05.2022
3774 Clear 25 1023 38 10000 2.06 40 12:51 09.05.2022
3775 Clear 23 1023 43 10000 1.54 100 11:52 09.05.2022
3776 Clear 22 1023 46 10000 2.06 110 10:46 09.05.2022
3777 Clear 19 1023 55 10000 2.57 80 09:59 09.05.2022
3778 Clear 14 1022 82 10000 2.06 40 07:56 09.05.2022
3779 Clear 12 1022 87 10000 0.51 340 04:34 09.05.2022
3780 Clear 16 1022 72 10000 1.03 0 00:23 09.05.2022
3781 Clear 17 1022 67 10000 1.54 300 23:27 08.05.2022
3782 Clear 20 1022 52 10000 2.06 330 22:29 08.05.2022
3783 Clear 23 1021 46 10000 3.6 310 20:53 08.05.2022
3784 Clear 24 1021 38 10000 5.14 310 20:18 08.05.2022
3785 Clear 25 1020 31 10000 3.6 20 19:27 08.05.2022
3786 Clear 25 1020 31 10000 3.6 20 19:27 08.05.2022
3787 Clear 25 1020 31 10000 4.12 360 18:25 08.05.2022
3788 Clear 25 1021 33 10000 2.06 0 17:22 08.05.2022
3789 Clear 25 1021 33 10000 3.09 80 15:44 08.05.2022
3790 Clear 25 1021 33 10000 1.54 0 15:20 08.05.2022
3791 Clear 23 1023 40 10000 1.54 20 12:45 08.05.2022
3792 Clear 20 1023 56 10000 0 0 10:46 08.05.2022
3793 Clear 19 1023 59 10000 1.54 0 10:21 08.05.2022
3794 Clear 17 1023 67 10000 0.51 0 09:46 08.05.2022
3795 Clear 11 1021 93 10000 1.54 270 07:33 08.05.2022
3796 Clear 12 1021 94 10000 1.03 0 04:24 08.05.2022
3797 Clear 12 1022 87 10000 1.54 320 03:20 08.05.2022
3798 Clear 15 1023 58 10000 3.09 310 00:29 08.05.2022
3799 Clear 16 1023 59 10000 3.09 320 23:53 07.05.2022
3800 Clear 17 1023 63 10000 3.09 330 22:57 07.05.2022
3801 Clear 18 1023 59 10000 4.12 330 22:33 07.05.2022
3802 Clear 19 1022 55 10000 4.12 330 21:43 07.05.2022
3803 Clear 21 1022 49 10000 5.14 330 20:56 07.05.2022
3804 Clear 23 1021 46 10000 6.17 330 19:58 07.05.2022
3805 Clear 24 1021 35 10000 3.09 20 17:51 07.05.2022
3806 Clear 24 1023 38 10000 3.09 30 15:58 07.05.2022
3807 Clear 23 1023 40 10000 3.09 20 14:44 07.05.2022
3808 Clear 20 1025 52 10000 0.51 0 10:59 07.05.2022
3809 Clear 16 1025 77 10000 2.06 20 09:38 07.05.2022
3810 Clear 11 1024 93 10000 1.03 280 07:52 07.05.2022
3811 Fog 10 1024 100 10000 1.03 270 06:44 07.05.2022
3812 Fog 11 1024 93 9000 1.03 260 05:34 07.05.2022
3813 Clouds 12 1025 87 9000 1.03 280 03:32 07.05.2022
3814 Clear 15 1026 77 10000 2.06 300 23:38 06.05.2022
3815 Clear 16 1025 72 10000 3.6 320 22:32 06.05.2022
3816 Clear 18 1025 63 10000 4.12 310 21:44 06.05.2022
3817 Clear 21 1024 43 10000 5.14 330 20:35 06.05.2022
3818 Clear 22 1024 40 10000 5.66 10 19:41 06.05.2022
3819 Clear 22 1024 40 10000 4.63 360 19:18 06.05.2022
3820 Clear 22 1024 40 10000 4.63 350 18:23 06.05.2022
3821 Clear 21 1025 37 10000 5.14 10 16:53 06.05.2022
3822 Clouds 23 1025 44 10000 5.14 10 15:42 06.05.2022
3823 Clouds 22 1025 46 10000 5.14 360 14:53 06.05.2022
3824 Clouds 20 1026 49 10000 4.12 350 12:56 06.05.2022
3825 Clouds 20 1026 49 10000 2.57 10 12:37 06.05.2022
3826 Clear 19 1026 59 10000 3.09 340 11:42 06.05.2022
3827 Clear 16 1026 67 10000 2.06 320 10:30 06.05.2022
3828 Clear 15 1026 72 10000 2.06 340 09:46 06.05.2022
3829 Clear 11 1026 93 10000 1.54 280 08:33 06.05.2022
3830 Fog 10 1025 93 10000 1.54 0 06:48 06.05.2022
3831 Fog 11 1025 93 10000 2.06 260 05:23 06.05.2022
3832 Clear 12 1026 94 10000 3.09 330 02:47 06.05.2022
3833 Clear 13 1026 82 10000 3.09 300 00:25 06.05.2022
3834 Clear 15 1026 58 10000 2.57 310 22:28 05.05.2022
3835 Clear 17 1025 45 10000 3.6 320 21:22 05.05.2022
3836 Clear 20 1024 40 10000 5.66 320 19:54 05.05.2022
3837 Clear 21 1024 43 10000 7.2 330 18:31 05.05.2022
3838 Clear 21 1024 37 10000 5.14 360 16:20 05.05.2022
3839 Clear 21 1024 37 10000 3.09 350 14:50 05.05.2022
3840 Clear 20 1025 40 10000 2.57 40 13:22 05.05.2022
3841 Clear 20 1025 42 10000 3.09 0 12:49 05.05.2022
3842 Clear 18 1025 55 10000 4.12 30 10:48 05.05.2022
3843 Clear 16 1024 67 10000 1.54 0 09:39 05.05.2022
3844 Clouds 9 1023 100 10000 1.03 0 07:35 05.05.2022
3845 Fog 10 1022 93 7000 1.03 0 04:42 05.05.2022
3846 Clear 12 1023 87 10000 1.03 260 01:53 05.05.2022
3847 Clear 11 1023 93 10000 1.54 260 01:24 05.05.2022
3848 Clear 12 1023 82 10000 2.57 270 23:47 04.05.2022
3849 Clear 14 1022 62 10000 2.57 290 22:30 04.05.2022
3850 Clear 15 1021 55 10000 3.09 300 21:49 04.05.2022
3851 Clear 16 1021 48 10000 3.6 300 21:26 04.05.2022
3852 Clear 18 1020 42 10000 5.66 310 20:24 04.05.2022
3853 Clear 19 1020 37 10000 6.17 320 19:53 04.05.2022
3854 Clear 20 1020 34 10000 6.69 310 18:54 04.05.2022
3855 Clear 21 1020 32 10000 6.69 310 18:22 04.05.2022
3856 Clear 21 1020 35 10000 7.2 330 17:38 04.05.2022
3857 Clear 20 1020 42 10000 4.12 360 15:40 04.05.2022
3858 Clear 20 1020 40 10000 4.63 320 15:22 04.05.2022
3859 Clear 20 1020 40 10000 2.57 330 14:20 04.05.2022
3860 Clear 21 1020 35 10000 3.09 0 13:26 04.05.2022
3861 Clear 20 1020 37 10000 3.6 10 12:29 04.05.2022
3862 Clear 19 1020 52 10000 2.57 50 10:40 04.05.2022
3863 Clear 19 1020 52 10000 2.57 50 10:40 04.05.2022
3864 Clear 17 1019 55 10000 1.54 10 09:40 04.05.2022
3865 Clear 13 1019 71 10000 3.09 20 08:34 04.05.2022
3866 Clear 12 1018 76 10000 2.57 10 06:31 04.05.2022
3867 Clear 14 1018 67 10000 2.06 10 02:53 04.05.2022
3868 Clear 16 1018 63 10000 2.06 320 23:58 03.05.2022
3869 Clear 17 1017 63 10000 3.6 320 22:30 03.05.2022
3870 Clear 18 1016 55 10000 4.12 320 21:36 03.05.2022
3871 Clear 21 1015 46 10000 5.14 350 20:53 03.05.2022
3872 Clear 21 1015 40 10000 4.12 360 19:49 03.05.2022
3873 Clear 22 1015 37 10000 5.66 10 18:50 03.05.2022
3874 Clear 22 1015 37 10000 5.14 10 18:20 03.05.2022
3875 Clear 23 1015 38 10000 4.12 350 16:37 03.05.2022
3876 Clear 23 1015 40 10000 4.12 10 15:32 03.05.2022
3877 Clear 21 1016 46 10000 5.14 10 12:47 03.05.2022
3878 Clear 20 1016 49 10000 4.12 40 12:27 03.05.2022
3879 Clear 18 1016 55 10000 2.57 20 10:57 03.05.2022
3880 Clear 14 1015 67 10000 3.09 20 09:21 03.05.2022
3881 Clear 13 1014 71 10000 2.57 360 06:46 03.05.2022
3882 Clear 13 1014 71 10000 2.06 360 05:56 03.05.2022
3883 Clear 14 1015 77 10000 1.03 0 00:19 03.05.2022
3884 Clear 17 1015 63 10000 2.06 280 22:36 02.05.2022
3885 Clear 18 1014 55 10000 2.06 290 21:51 02.05.2022
3886 Clear 20 1014 42 10000 3.6 30 20:51 02.05.2022
3887 Clear 21 1014 37 10000 3.09 340 18:37 02.05.2022
3888 Clear 21 1014 37 10000 3.6 20 17:53 02.05.2022
3889 Clear 21 1014 37 10000 3.6 20 17:33 02.05.2022
3890 Clear 21 1014 43 10000 3.6 30 16:21 02.05.2022
3891 Clear 20 1015 40 10000 3.09 360 15:29 02.05.2022
3892 Clear 18 1015 45 10000 3.09 40 13:50 02.05.2022
3893 Clear 17 1016 51 10000 1.54 0 12:18 02.05.2022
3894 Clear 15 1016 58 10000 1.54 0 10:25 02.05.2022
3895 Clear 12 1016 76 10000 1.03 0 08:46 02.05.2022
3896 Clear 12 1016 82 10000 1.03 280 07:39 02.05.2022
3897 Clear 13 1017 76 10000 1.54 250 02:51 02.05.2022
3898 Clear 14 1018 82 10000 1.54 250 00:24 02.05.2022
3899 Clear 14 1018 82 10000 2.06 250 23:47 01.05.2022
3900 Clear 16 1018 67 10000 3.09 270 22:20 01.05.2022
3901 Clear 18 1018 55 10000 3.6 270 20:58 01.05.2022
3902 Clear 20 1018 45 10000 4.12 280 19:50 01.05.2022
3903 Clouds 20 1018 49 10000 5.14 300 18:55 01.05.2022
3904 Clear 21 1018 46 10000 5.14 280 18:22 01.05.2022
3905 Clouds 21 1018 49 10000 5.14 290 17:18 01.05.2022
3906 Clear 22 1019 40 10000 2.57 270 16:23 01.05.2022
3907 Clear 21 1019 37 10000 2.06 0 15:23 01.05.2022
3908 Clear 20 1020 42 10000 1.03 0 13:42 01.05.2022
3909 Fog 13 1022 100 1200 1.54 0 10:50 01.05.2022
3910 Fog 9 1021 100 400 1.54 180 08:51 01.05.2022
3911 Fog 8 1021 100 750 0 0 07:42 01.05.2022
3912 Fog 11 1021 93 4200 1.54 250 03:26 01.05.2022
3913 Clouds 14 1023 88 7000 1.54 260 23:23 30.04.2022
3914 Clear 16 1022 77 10000 3.09 290 21:35 30.04.2022
3915 Clear 17 1022 72 10000 4.12 290 20:35 30.04.2022
3916 Clouds 19 1022 63 10000 5.66 290 19:36 30.04.2022
3917 Clear 21 1022 56 10000 4.63 290 17:40 30.04.2022
3918 Clouds 20 1022 64 10000 4.12 250 16:35 30.04.2022
3919 Clear 22 1023 40 10000 3.6 350 15:21 30.04.2022
3920 Clear 22 1023 43 10000 1.03 0 14:33 30.04.2022
3921 Clear 20 1024 68 10000 1.03 0 12:36 30.04.2022
3922 Clear 20 1024 68 10000 1.03 0 12:36 30.04.2022
3923 Clouds 16 1025 82 10000 2.06 210 11:33 30.04.2022
3924 Clouds 14 1025 88 6000 1.54 220 10:31 30.04.2022
3925 Mist 13 1025 94 3900 1.03 0 08:54 30.04.2022
3926 Mist 12 1024 100 3700 3.6 270 05:38 30.04.2022
3927 Mist 12 1026 100 5000 2.57 290 00:35 30.04.2022
3928 Clouds 13 1026 94 7000 2.57 270 23:36 29.04.2022
3929 Clear 14 1026 88 10000 3.09 280 22:30 29.04.2022
3930 Clear 16 1025 77 10000 4.12 280 21:27 29.04.2022
3931 Clear 18 1025 68 10000 4.63 270 20:38 29.04.2022
3932 Clear 19 1025 63 10000 4.63 290 19:36 29.04.2022
3933 Clouds 21 1025 56 10000 5.14 290 17:50 29.04.2022
3934 Clouds 22 1025 53 10000 3.09 280 16:56 29.04.2022
3935 Clouds 20 1026 60 10000 3.09 250 14:50 29.04.2022
3936 Clouds 20 1027 64 10000 3.6 290 14:19 29.04.2022
3937 Clouds 17 1027 72 10000 2.06 290 12:43 29.04.2022
3938 Clouds 14 1027 88 10000 3.09 270 10:58 29.04.2022
3939 Mist 11 1027 100 5000 1.54 200 08:18 29.04.2022
3940 Clouds 11 1027 100 7000 1.54 230 07:27 29.04.2022
3941 Mist 11 1027 100 1600 1.54 260 06:35 29.04.2022
3942 Mist 12 1027 94 5000 2.06 250 03:28 29.04.2022
3943 Clouds 12 1027 94 10000 1.54 250 00:18 29.04.2022
3944 Clouds 13 1027 88 10000 2.57 270 23:26 28.04.2022
3945 Clouds 14 1027 88 10000 4.12 280 22:37 28.04.2022
3946 Clouds 14 1026 88 10000 4.63 280 21:45 28.04.2022
3947 Clouds 14 1026 88 10000 4.12 280 20:51 28.04.2022
3948 Clouds 16 1025 77 10000 5.14 260 19:59 28.04.2022
3949 Clouds 16 1025 77 10000 5.66 260 19:40 28.04.2022
3950 Clouds 16 1025 77 10000 5.66 260 19:20 28.04.2022
3951 Clouds 20 1024 68 10000 6.17 240 17:56 28.04.2022
3952 Clouds 21 1023 64 10000 5.14 260 16:59 28.04.2022
3953 Clouds 21 1024 60 10000 3.6 250 16:21 28.04.2022
3954 Clouds 21 1024 64 10000 2.57 240 15:56 28.04.2022
3955 Clouds 20 1024 68 10000 3.6 240 15:21 28.04.2022
3956 Clouds 20 1023 68 10000 2.57 240 13:43 28.04.2022
3957 Clouds 17 1023 77 10000 3.09 240 12:34 28.04.2022
3958 Clouds 16 1023 82 10000 4.12 230 11:51 28.04.2022
3959 Clouds 15 1022 88 10000 3.6 250 10:29 28.04.2022
3960 Clouds 14 1022 94 10000 3.09 260 09:50 28.04.2022
3961 Clouds 13 1020 94 9000 1.54 200 07:44 28.04.2022
3962 Clouds 13 1020 94 10000 1.54 200 06:53 28.04.2022
3963 Clouds 13 1020 100 9000 2.06 250 05:53 28.04.2022
3964 Clouds 13 1019 100 8000 2.57 270 04:43 28.04.2022
3965 Clouds 14 1019 94 10000 3.6 270 02:45 28.04.2022
3966 Clouds 14 1019 94 10000 3.09 260 23:43 27.04.2022
3967 Clear 15 1018 88 10000 2.57 260 22:25 27.04.2022
3968 Clear 15 1017 88 10000 2.57 270 21:47 27.04.2022
3969 Clear 16 1017 82 10000 3.09 270 20:47 27.04.2022
3970 Clear 16 1017 82 10000 3.09 270 20:47 27.04.2022
3971 Clear 17 1017 72 10000 3.6 270 20:29 27.04.2022
3972 Clear 17 1016 72 10000 3.6 270 19:36 27.04.2022
3973 Clear 18 1016 68 10000 4.63 280 18:42 27.04.2022
3974 Clear 18 1016 72 10000 5.14 260 18:21 27.04.2022
3975 Clear 21 1016 60 10000 3.09 340 16:20 27.04.2022
3976 Clear 19 1016 63 10000 2.06 260 13:29 27.04.2022
3977 Clear 16 1016 67 10000 1.54 0 11:37 27.04.2022
3978 Clear 14 1016 72 10000 1.03 0 10:51 27.04.2022
3979 Clear 13 1015 71 10000 1.54 80 08:31 27.04.2022
3980 Clear 13 1014 71 10000 3.09 70 06:42 27.04.2022
3981 Clear 15 1014 63 10000 3.09 50 02:40 27.04.2022
3982 Clear 15 1014 67 10000 3.09 60 01:24 27.04.2022
3983 Clear 16 1014 63 10000 3.6 50 00:34 27.04.2022
3984 Clear 18 1014 52 10000 3.09 40 23:24 26.04.2022
3985 Clear 19 1013 48 10000 3.6 50 22:51 26.04.2022
3986 Clear 19 1013 48 10000 3.6 50 22:31 26.04.2022
3987 Clear 20 1013 45 10000 3.09 80 21:24 26.04.2022
3988 Clear 22 1012 37 10000 4.12 70 20:38 26.04.2022
3989 Clear 23 1012 38 10000 3.6 90 19:45 26.04.2022
3990 Clear 23 1012 38 10000 3.6 90 19:26 26.04.2022
3991 Clear 23 1012 40 10000 3.09 90 18:39 26.04.2022
3992 Clear 23 1013 40 10000 4.63 90 17:41 26.04.2022
3993 Clear 22 1014 40 10000 4.12 100 15:41 26.04.2022
3994 Clear 21 1014 49 10000 5.14 90 13:51 26.04.2022
3995 Clear 20 1014 52 10000 4.12 120 12:57 26.04.2022
3996 Clear 18 1014 55 10000 4.63 90 11:23 26.04.2022
3997 Clear 15 1014 72 10000 4.12 90 10:30 26.04.2022
3998 Mist 10 1014 93 5000 2.06 50 08:33 26.04.2022
3999 Mist 10 1014 93 5000 2.06 40 04:53 26.04.2022
4000 Clouds 10 1014 93 6000 2.06 30 04:22 26.04.2022
4001 Clear 11 1014 93 7000 2.06 20 00:46 26.04.2022
4002 Clear 12 1014 87 10000 2.57 30 23:49 25.04.2022
4003 Clear 14 1014 67 10000 2.57 340 21:51 25.04.2022
4004 Clear 16 1013 59 10000 3.09 320 21:25 25.04.2022
4005 Clear 18 1013 45 10000 2.57 310 19:47 25.04.2022
4006 Clear 19 1013 39 10000 3.09 260 18:31 25.04.2022
4007 Clear 20 1013 42 10000 3.6 250 17:39 25.04.2022
4008 Clear 20 1013 40 10000 4.12 270 16:35 25.04.2022
4009 Clouds 18 1014 52 10000 3.6 280 15:21 25.04.2022
4010 Clouds 18 1014 52 10000 3.6 270 14:23 25.04.2022
4011 Clouds 15 1014 72 10000 3.09 300 12:40 25.04.2022
4012 Clouds 12 1014 94 8000 2.06 210 10:29 25.04.2022
4013 Mist 10 1014 100 3200 1.03 0 09:39 25.04.2022
4014 Fog 9 1013 100 350 1.03 0 07:34 25.04.2022
4015 Fog 9 1013 100 450 2.06 210 05:54 25.04.2022
4016 Clouds 10 1013 93 6000 3.09 210 01:28 25.04.2022
4017 Clouds 11 1013 93 7000 3.09 230 23:54 24.04.2022
4018 Clouds 11 1013 93 8000 2.57 210 23:22 24.04.2022
4019 Clouds 12 1013 87 10000 2.06 240 22:38 24.04.2022
4020 Clouds 12 1012 87 10000 3.09 260 21:54 24.04.2022
4021 Clouds 13 1012 82 10000 4.12 260 21:21 24.04.2022
4022 Clouds 14 1012 72 10000 5.14 260 20:41 24.04.2022
4023 Clouds 15 1011 67 10000 6.69 260 19:57 24.04.2022
4024 Clouds 15 1011 72 10000 7.72 250 18:33 24.04.2022
4025 Clouds 16 1010 63 10000 8.75 260 17:41 24.04.2022
4026 Clouds 16 1010 63 10000 8.75 260 17:20 24.04.2022
4027 Clouds 16 1010 63 10000 8.75 270 16:51 24.04.2022
4028 Clouds 16 1010 59 10000 8.75 270 16:22 24.04.2022
4029 Clouds 16 1010 63 10000 8.75 270 15:36 24.04.2022
4030 Clouds 15 1009 67 10000 8.23 270 14:30 24.04.2022
4031 Clouds 14 1009 72 10000 5.66 270 13:26 24.04.2022
4032 Clouds 14 1009 72 10000 7.2 270 12:44 24.04.2022
4033 Clouds 13 1008 76 10000 6.17 270 11:44 24.04.2022
4034 Clouds 13 1006 82 10000 8.75 280 10:32 24.04.2022
4035 Mist 12 1006 94 5000 7.72 270 09:41 24.04.2022
4036 Clouds 13 1004 88 7000 7.2 270 07:39 24.04.2022
4037 Clouds 13 1001 94 8000 7.2 280 04:56 24.04.2022
4038 Clouds 13 999 94 9000 5.14 280 01:50 24.04.2022
4039 Clouds 12 998 87 10000 4.12 260 00:33 24.04.2022
4040 Clouds 11 998 93 10000 5.14 250 23:45 23.04.2022
4041 Clouds 11 998 93 10000 4.63 240 23:22 23.04.2022
4042 Clouds 12 997 82 10000 4.63 240 21:54 23.04.2022
4043 Clouds 12 996 82 10000 4.12 240 21:34 23.04.2022
4044 Clouds 12 996 82 10000 4.12 240 20:57 23.04.2022
4045 Clouds 12 995 76 10000 6.17 250 19:49 23.04.2022
4046 Clouds 12 995 76 10000 6.17 250 19:19 23.04.2022
4047 Clouds 12 995 76 10000 7.2 250 18:53 23.04.2022
4048 Clouds 13 994 67 10000 8.23 240 17:52 23.04.2022
4049 Clouds 13 994 71 10000 9.26 250 17:30 23.04.2022
4050 Clouds 12 995 87 10000 8.23 250 16:42 23.04.2022
4051 Clouds 13 995 76 10000 8.23 250 15:32 23.04.2022
4052 Clouds 13 995 82 10000 3.09 190 12:49 23.04.2022
4053 Rain 11 994 93 9000 3.09 260 10:49 23.04.2022
4054 Rain 12 993 94 6000 1.54 0 09:38 23.04.2022
4055 Drizzle 13 992 88 10000 1.03 140 06:41 23.04.2022
4056 Clear 13 993 88 10000 2.57 40 03:54 23.04.2022
4057 Clear 13 995 82 10000 3.09 10 01:25 23.04.2022
4058 Clouds 13 997 86 10000 2.57 260 23:31 22.04.2022
4059 Clouds 17 997 63 10000 3.09 240 22:20 22.04.2022
4060 Clouds 17 996 63 10000 3.09 50 21:44 22.04.2022
4061 Clouds 18 996 59 10000 6.17 80 20:48 22.04.2022
4062 Clouds 18 996 59 10000 6.17 80 20:27 22.04.2022
4063 Clouds 19 997 55 10000 5.66 90 19:20 22.04.2022
4064 Clear 20 997 49 10000 3.09 80 18:42 22.04.2022
4065 Clear 21 997 37 10000 2.57 110 17:41 22.04.2022
4066 Clear 21 998 40 10000 1.54 0 16:46 22.04.2022
4067 Clouds 20 998 49 10000 1.54 0 15:42 22.04.2022
4068 Clear 18 999 63 10000 2.57 120 14:46 22.04.2022
4069 Clouds 18 999 63 10000 2.57 120 13:50 22.04.2022
4070 Clouds 16 999 67 10000 3.09 100 12:58 22.04.2022
4071 Clouds 12 1000 87 10000 3.09 110 11:48 22.04.2022
4072 Clouds 11 1000 93 8000 3.6 130 11:21 22.04.2022
4073 Mist 11 1000 93 5000 2.57 150 10:48 22.04.2022
4074 Mist 10 1000 93 3800 3.09 150 10:29 22.04.2022
4075 Mist 10 1000 93 1700 2.57 120 09:50 22.04.2022
4076 Mist 10 1001 93 1600 3.09 140 08:50 22.04.2022
4077 Mist 10 1001 100 3100 1.54 190 06:58 22.04.2022
4078 Mist 11 1003 93 3700 1.03 200 02:45 22.04.2022
4079 Mist 12 1004 94 3700 2.06 250 00:51 22.04.2022
4080 Mist 12 1005 94 5000 3.09 250 22:59 21.04.2022
4081 Mist 13 1005 88 5000 3.09 260 21:59 21.04.2022
4082 Clouds 14 1005 82 7000 3.6 260 20:36 21.04.2022
4083 Clouds 14 1005 82 7000 3.6 260 20:18 21.04.2022
4084 Clouds 15 1005 82 10000 4.63 280 18:35 21.04.2022
4085 Clouds 15 1006 82 9000 5.14 290 17:54 21.04.2022
4086 Clouds 17 1006 63 10000 1.54 170 16:30 21.04.2022
4087 Clouds 18 1006 63 10000 1.03 0 15:21 21.04.2022
4088 Clouds 16 1007 72 10000 1.54 170 14:38 21.04.2022
4089 Clouds 16 1007 77 10000 3.09 220 13:23 21.04.2022
4090 Clouds 14 1008 82 10000 2.57 240 12:42 21.04.2022
4091 Clouds 12 1008 100 6000 0 0 10:45 21.04.2022
4092 Fog 10 1008 100 450 1.03 0 08:54 21.04.2022
4093 Mist 9 1008 100 1600 2.06 220 06:55 21.04.2022
4094 Mist 9 1008 100 1600 2.06 220 06:55 21.04.2022
4095 Fog 8 1009 100 600 2.57 260 04:58 21.04.2022
4096 Fog 9 1009 93 450 1.54 230 03:26 21.04.2022
4097 Fog 9 1009 100 450 1.03 210 02:46 21.04.2022
4098 Fog 9 1009 100 450 1.03 210 02:46 21.04.2022
4099 Fog 10 1010 100 250 1.03 230 00:43 21.04.2022
4100 Fog 11 1010 93 4300 0.51 290 23:49 20.04.2022
4101 Mist 12 1010 94 5000 1.03 0 23:21 20.04.2022
4102 Clouds 12 1010 94 6000 1.03 330 22:45 20.04.2022
4103 Clouds 12 1010 94 8000 1.54 340 22:26 20.04.2022
4104 Clouds 12 1010 94 10000 1.03 0 21:24 20.04.2022
4105 Clouds 13 1009 82 10000 1.54 0 20:23 20.04.2022
4106 Clouds 13 1009 82 10000 1.54 0 20:23 20.04.2022
4107 Clouds 13 1009 88 10000 1.03 190 19:51 20.04.2022
4108 Clouds 13 1009 88 10000 1.03 0 18:55 20.04.2022
4109 Clouds 12 1009 94 10000 2.06 30 17:53 20.04.2022
4110 Clouds 11 1009 93 10000 4.12 30 16:40 20.04.2022
4111 Clouds 10 1009 100 7000 4.63 10 15:50 20.04.2022
4112 Mist 9 1009 100 3400 4.12 360 13:41 20.04.2022
4113 Rain 9 1009 93 6000 5.66 350 11:43 20.04.2022
4114 Rain 9 1009 93 9000 5.14 360 10:56 20.04.2022
4115 Rain 9 1009 93 6000 5.66 360 09:46 20.04.2022
4116 Rain 9 1009 93 7000 6.17 350 08:59 20.04.2022
4117 Rain 9 1009 93 6000 5.66 360 08:20 20.04.2022
4118 Rain 9 1009 100 7000 6.17 350 06:49 20.04.2022
4119 Clear 10 1011 87 10000 4.12 330 03:34 20.04.2022
4120 Clouds 10 1013 87 10000 4.63 330 00:22 20.04.2022
4121 Clouds 9 1013 93 10000 4.63 320 23:35 19.04.2022
4122 Clouds 10 1013 87 10000 5.14 330 22:24 19.04.2022
4123 Rain 9 1013 93 10000 4.63 330 21:55 19.04.2022
4124 Rain 9 1013 93 9000 5.14 330 21:19 19.04.2022
4125 Rain 10 1013 87 10000 4.63 330 20:41 19.04.2022
4126 Clouds 10 1013 87 8000 5.14 320 19:43 19.04.2022
4127 Clouds 11 1013 87 10000 5.14 330 18:47 19.04.2022
4128 Rain 12 1013 87 10000 5.14 320 17:28 19.04.2022
4129 Rain 12 1014 87 10000 4.63 330 16:43 19.04.2022
4130 Clouds 12 1014 94 8000 3.6 320 16:21 19.04.2022
4131 Rain 13 1015 88 10000 4.12 300 14:48 19.04.2022
4132 Clouds 14 1015 77 10000 2.06 320 13:34 19.04.2022
4133 Clouds 14 1015 77 10000 2.06 330 12:50 19.04.2022
4134 Clouds 12 1015 82 10000 2.06 320 11:39 19.04.2022
4135 Clouds 12 1015 82 10000 1.03 0 10:23 19.04.2022
4136 Clouds 9 1016 100 10000 1.03 0 08:54 19.04.2022
4137 Clear 8 1016 100 10000 1.03 240 04:42 19.04.2022
4138 Clear 9 1016 93 10000 1.54 320 03:25 19.04.2022
4139 Clear 11 1018 87 10000 2.57 320 00:27 19.04.2022
4140 Clouds 12 1018 89 10000 4.12 320 23:25 18.04.2022
4141 Clear 13 1017 83 10000 4.12 290 21:29 18.04.2022
4142 Clouds 14 1017 77 10000 5.14 290 20:54 18.04.2022
4143 Clouds 16 1016 72 10000 4.63 300 20:30 18.04.2022
4144 Clouds 18 1016 63 10000 5.14 280 19:42 18.04.2022
4145 Clouds 19 1016 59 10000 4.63 280 18:54 18.04.2022
4146 Clouds 18 1017 59 10000 3.6 270 17:55 18.04.2022
4147 Clouds 20 1017 60 10000 3.6 290 17:33 18.04.2022
4148 Clouds 20 1017 60 10000 3.6 290 17:33 18.04.2022
4149 Clouds 20 1017 59 10000 4.12 280 16:50 18.04.2022
4150 Clouds 20 1017 59 10000 4.12 280 16:21 18.04.2022
4151 Clouds 18 1018 63 10000 3.6 280 14:43 18.04.2022
4152 Clouds 16 1019 70 10000 3.6 290 13:35 18.04.2022
4153 Clouds 15 1019 75 10000 4.12 280 12:29 18.04.2022
4154 Clouds 14 1019 82 10000 3.09 260 11:34 18.04.2022
4155 Clouds 13 1019 88 10000 2.57 260 10:31 18.04.2022
4156 Clouds 13 1019 85 10000 3.09 250 09:30 18.04.2022
4157 Clouds 12 1019 89 10000 3.6 290 07:42 18.04.2022
4158 Clouds 12 1019 87 7000 3.09 290 05:35 18.04.2022
4159 Clear 12 1019 87 10000 2.57 240 23:51 17.04.2022
4160 Clear 14 1019 67 10000 3.09 270 22:40 17.04.2022
4161 Clear 15 1019 58 10000 3.09 280 21:42 17.04.2022
4162 Clear 15 1019 58 10000 3.09 280 21:21 17.04.2022
4163 Clear 17 1018 48 10000 5.66 300 20:33 17.04.2022
4164 Clear 19 1018 45 10000 6.69 290 19:23 17.04.2022
4165 Clear 22 1018 40 10000 5.14 280 17:43 17.04.2022
4166 Clear 23 1018 31 10000 2.06 0 15:39 17.04.2022
4167 Clear 23 1019 35 10000 3.09 330 14:54 17.04.2022
4168 Clear 22 1019 35 10000 3.6 280 13:47 17.04.2022
4169 Clear 21 1019 37 10000 2.06 350 12:58 17.04.2022
4170 Clear 20 1020 42 10000 2.06 350 12:18 17.04.2022
4171 Clouds 16 1020 59 10000 0 0 10:46 17.04.2022
4172 Clear 16 1020 59 10000 0 0 10:27 17.04.2022
4173 Clear 16 1020 59 10000 0 0 10:27 17.04.2022
4174 Clear 13 1020 71 10000 0.51 0 09:29 17.04.2022
4175 Clear 11 1020 82 10000 0 0 08:42 17.04.2022
4176 Clear 9 1020 81 10000 1.03 0 07:26 17.04.2022
4177 Clear 12 1021 82 10000 1.54 10 03:53 17.04.2022
4178 Clear 14 1022 77 10000 1.03 0 00:55 17.04.2022
4179 Clear 15 1022 72 10000 1.03 0 23:50 16.04.2022
4180 Clear 18 1022 55 10000 3.6 300 22:29 16.04.2022
4181 Clear 20 1021 49 10000 2.06 320 21:31 16.04.2022
4182 Clear 22 1021 40 10000 5.14 350 20:18 16.04.2022
4183 Clear 23 1021 40 10000 5.14 350 18:55 16.04.2022
4184 Clear 23 1022 40 10000 5.66 360 17:40 16.04.2022
4185 Clear 24 1022 38 10000 5.14 360 16:34 16.04.2022
4186 Clear 24 1022 41 10000 5.14 40 15:43 16.04.2022
4187 Clear 24 1023 41 10000 4.63 40 14:55 16.04.2022
4188 Clear 23 1023 45 10000 5.66 20 13:57 16.04.2022
4189 Clear 23 1024 45 10000 5.14 30 13:28 16.04.2022
4190 Clear 21 1024 51 10000 5.66 20 12:20 16.04.2022
4191 Clear 19 1024 61 10000 2.57 30 10:49 16.04.2022
4192 Clear 13 1024 82 10000 1.03 0 09:44 16.04.2022
4193 Clear 10 1024 87 10000 1.54 260 08:57 16.04.2022
4194 Clear 9 1024 87 10000 1.54 280 07:32 16.04.2022
4195 Clear 9 1024 87 10000 2.06 260 06:46 16.04.2022
4196 Clear 12 1024 94 10000 2.06 250 01:59 16.04.2022
4197 Clear 13 1024 88 10000 2.06 250 00:23 16.04.2022
4198 Clear 15 1024 82 10000 2.06 220 22:57 15.04.2022
4199 Clear 16 1024 82 10000 2.57 240 22:31 15.04.2022
4200 Clear 17 1023 77 10000 3.09 230 21:47 15.04.2022
4201 Clear 22 1022 43 10000 3.09 0 20:56 15.04.2022
4202 Clear 24 1022 35 10000 5.14 360 19:59 15.04.2022
4203 Clear 23 1022 50 10000 4.12 10 19:38 15.04.2022
4204 Clear 24 1022 35 10000 3.09 350 18:46 15.04.2022
4205 Clear 25 1022 36 10000 3.6 350 18:46 15.04.2022
4206 Clear 25 1022 36 10000 3.6 350 18:24 15.04.2022
4207 Clear 25 1022 36 10000 2.06 0 17:30 15.04.2022
4208 Clear 27 1022 39 10000 2.57 350 16:26 15.04.2022
4209 Clear 25 1022 43 10000 2.57 80 15:59 15.04.2022
4210 Clear 24 1023 45 10000 3.6 20 14:30 15.04.2022
4211 Clear 23 1024 50 10000 2.57 20 13:23 15.04.2022
4212 Clear 22 1024 58 10000 1.03 0 12:40 15.04.2022
4213 Clear 20 1024 61 10000 1.03 0 11:54 15.04.2022
4214 Clear 17 1024 67 10000 0.51 0 10:49 15.04.2022
4215 Clear 16 1024 78 10000 0 0 10:22 15.04.2022
4216 Clear 13 1023 86 10000 1.54 240 09:24 15.04.2022
4217 Clear 11 1023 93 10000 1.54 240 08:57 15.04.2022
4218 Fog 11 1022 93 10000 0 0 06:55 15.04.2022
4219 Clear 11 1022 89 10000 0.51 330 05:56 15.04.2022
4220 Clear 14 1022 81 10000 2.06 360 01:33 15.04.2022
4221 Clear 17 1022 67 10000 2.06 360 23:30 14.04.2022
4222 Clear 17 1021 67 10000 3.09 360 22:46 14.04.2022
4223 Clear 18 1021 63 10000 2.57 360 22:27 14.04.2022
4224 Clear 18 1021 63 10000 2.57 360 22:27 14.04.2022
4225 Clear 19 1021 59 10000 3.09 360 21:53 14.04.2022
4226 Clear 23 1020 40 10000 2.57 40 19:57 14.04.2022
4227 Clear 23 1020 38 10000 2.06 50 19:22 14.04.2022
4228 Clear 23 1020 33 10000 2.57 20 17:56 14.04.2022
4229 Clear 23 1020 35 10000 2.57 10 17:27 14.04.2022
4230 Clear 23 1020 33 10000 2.57 60 16:33 14.04.2022
4231 Clear 22 1020 50 10000 2.06 70 14:20 14.04.2022
4232 Clear 21 1021 50 10000 1.54 40 13:26 14.04.2022
4233 Clouds 20 1021 57 10000 2.06 40 12:38 14.04.2022
4234 Clouds 20 1021 59 10000 2.06 40 12:19 14.04.2022
4235 Clear 19 1021 58 10000 1.03 0 11:21 14.04.2022
4236 Clear 17 1021 77 10000 1.54 0 10:36 14.04.2022
4237 Clear 15 1020 83 10000 2.06 60 09:52 14.04.2022
4238 Fog 12 1020 95 10000 1.54 0 08:39 14.04.2022
4239 Clear 13 1020 95 10000 1.54 330 06:26 14.04.2022
4240 Clouds 14 1020 90 10000 2.06 30 01:49 14.04.2022
4241 Clear 14 1020 82 10000 1.54 0 22:45 13.04.2022
4242 Clear 15 1019 77 10000 2.57 110 21:44 13.04.2022
4243 Clear 15 1019 77 10000 3.6 90 20:48 13.04.2022
4244 Clouds 16 1018 72 10000 3.09 80 20:18 13.04.2022
4245 Clouds 17 1018 74 10000 3.09 90 18:50 13.04.2022
4246 Clouds 17 1017 71 10000 4.12 70 17:54 13.04.2022
4247 Clouds 17 1017 71 10000 5.14 90 17:23 13.04.2022
4248 Clouds 17 1017 70 10000 4.63 100 16:24 13.04.2022
4249 Clouds 17 1017 71 10000 5.14 110 15:31 13.04.2022
4250 Clouds 17 1017 71 10000 4.63 100 14:46 13.04.2022
4251 Clouds 17 1016 67 10000 5.14 100 13:57 13.04.2022
4252 Clouds 17 1016 74 10000 4.63 110 12:58 13.04.2022
4253 Clouds 17 1016 76 10000 4.12 100 12:19 13.04.2022
4254 Clouds 14 1015 87 10000 3.09 110 10:44 13.04.2022
4255 Clear 12 1014 95 10000 2.57 90 08:50 13.04.2022
4256 Clear 12 1014 95 10000 2.57 80 08:28 13.04.2022
4257 Clear 11 1013 94 10000 2.06 80 06:50 13.04.2022
4258 Clear 11 1013 94 10000 2.06 80 06:25 13.04.2022
4259 Clear 12 1012 89 10000 2.06 120 02:37 13.04.2022
4260 Clear 14 1011 84 10000 4.63 130 00:20 13.04.2022
4261 Clear 15 1011 80 10000 2.57 90 22:45 12.04.2022
4262 Clear 16 1010 76 10000 3.09 100 21:56 12.04.2022
4263 Clouds 17 1010 67 10000 4.12 120 20:49 12.04.2022
4264 Clouds 17 1010 67 10000 4.12 120 20:49 12.04.2022
4265 Clear 17 1009 71 10000 5.66 120 20:22 12.04.2022
4266 Clear 19 1009 62 10000 5.14 140 19:40 12.04.2022
4267 Clouds 19 1009 63 10000 5.66 120 19:18 12.04.2022
4268 Clouds 18 1009 66 10000 4.63 110 17:49 12.04.2022
4269 Clouds 18 1009 72 10000 5.14 130 16:48 12.04.2022
4270 Clouds 17 1009 74 10000 6.17 120 15:38 12.04.2022
4271 Clouds 18 1009 74 10000 6.17 120 15:20 12.04.2022
4272 Clouds 15 1009 84 10000 5.14 130 13:53 12.04.2022
4273 Clouds 14 1008 88 10000 5.14 130 13:27 12.04.2022
4274 Rain 13 1009 94 10000 3.6 130 12:21 12.04.2022
4275 Rain 12 1008 94 9000 3.09 140 11:39 12.04.2022
4276 Clear 13 1008 79 10000 2.06 130 09:59 12.04.2022
4277 Clear 13 1007 79 10000 3.09 140 08:52 12.04.2022
4278 Clouds 13 1006 79 10000 4.12 140 07:21 12.04.2022
4279 Clear 13 1006 75 10000 4.12 150 05:42 12.04.2022
4280 Clear 12 1005 78 10000 2.57 120 02:49 12.04.2022
4281 Clear 15 1004 66 10000 10.29 120 23:25 11.04.2022
4282 Clear 16 1004 59 10000 9.26 120 22:33 11.04.2022
4283 Clear 18 1003 55 10000 10.8 120 21:23 11.04.2022
4284 Clear 19 1003 55 10000 10.8 110 20:35 11.04.2022
4285 Clear 20 1003 52 10000 10.8 120 19:59 11.04.2022
4286 Clear 21 1003 52 10000 9.77 120 19:27 11.04.2022
4287 Clear 22 1004 49 10000 9.26 110 18:54 11.04.2022
4288 Clear 23 1004 46 10000 6.69 110 17:58 11.04.2022
4289 Clear 24 1004 43 10000 8.75 120 17:39 11.04.2022
4290 Clear 23 1005 43 10000 9.26 110 16:36 11.04.2022
4291 Clear 22 1006 49 10000 8.23 120 14:59 11.04.2022
4292 Clear 20 1007 56 10000 6.69 120 13:36 11.04.2022
4293 Clear 18 1007 59 10000 6.69 130 12:39 11.04.2022
4294 Clear 19 1007 60 10000 6.69 130 12:20 11.04.2022
4295 Clear 15 1007 73 10000 7.72 130 10:37 11.04.2022
4296 Clear 13 1007 82 10000 6.69 130 09:49 11.04.2022
4297 Clear 11 1007 85 10000 6.69 130 07:59 11.04.2022
4298 Clear 12 1007 74 10000 6.69 130 04:35 11.04.2022
4299 Clear 14 1009 44 10000 4.12 120 23:30 10.04.2022
4300 Clear 15 1010 41 10000 4.12 110 22:27 10.04.2022
4301 Clear 16 1010 39 10000 4.12 110 21:49 10.04.2022
4302 Clear 18 1010 34 10000 6.69 120 20:50 10.04.2022
4303 Clear 19 1011 32 10000 6.69 120 19:56 10.04.2022
4304 Clouds 19 1011 32 10000 7.2 130 19:34 10.04.2022
4305 Clear 19 1011 32 10000 6.69 110 18:46 10.04.2022
4306 Clear 19 1011 33 10000 6.69 120 18:24 10.04.2022
4307 Clear 19 1012 32 10000 6.69 100 17:42 10.04.2022
4308 Clear 20 1013 35 10000 6.17 110 16:51 10.04.2022
4309 Clear 19 1015 35 10000 7.72 120 15:38 10.04.2022
4310 Clouds 17 1016 40 10000 7.72 120 14:37 10.04.2022
4311 Clear 15 1017 43 10000 8.75 120 12:50 10.04.2022
4312 Clear 15 1017 44 10000 8.23 130 12:26 10.04.2022
4313 Clear 15 1017 44 10000 8.23 130 12:26 10.04.2022
4314 Clear 13 1018 48 10000 7.72 120 11:29 10.04.2022
4315 Clear 12 1017 54 10000 5.66 120 10:57 10.04.2022
4316 Clear 9 1018 64 10000 5.14 120 10:20 10.04.2022
4317 Clear 8 1018 71 10000 3.09 110 09:39 10.04.2022
4318 Clear 4 1018 82 10000 3.09 90 08:24 10.04.2022
4319 Clear 4 1018 81 10000 2.57 90 07:42 10.04.2022
4320 Clear 4 1019 87 10000 2.57 100 05:57 10.04.2022
4321 Clear 5 1021 87 10000 1.54 0 02:37 10.04.2022
4322 Clear 6 1021 80 10000 1.54 20 00:34 10.04.2022
4323 Clear 7 1021 76 10000 1.03 0 23:49 09.04.2022
4324 Clear 8 1021 66 10000 1.54 330 22:50 09.04.2022
4325 Clear 10 1021 57 10000 1.54 320 21:46 09.04.2022
4326 Clear 11 1020 54 10000 3.6 320 20:50 09.04.2022
4327 Clear 12 1020 47 10000 3.6 320 20:26 09.04.2022
4328 Clear 14 1019 41 10000 3.09 330 19:42 09.04.2022
4329 Clouds 14 1019 41 10000 2.57 0 19:18 09.04.2022
4330 Clear 14 1019 44 10000 4.63 360 18:21 09.04.2022
4331 Clear 15 1019 41 10000 4.12 320 17:39 09.04.2022
4332 Clear 15 1019 44 10000 4.63 300 16:53 09.04.2022
4333 Clouds 16 1020 41 10000 6.17 300 15:57 09.04.2022
4334 Clear 15 1020 48 10000 4.63 310 15:39 09.04.2022
4335 Clouds 15 1020 48 10000 4.12 290 14:44 09.04.2022
4336 Clouds 13 1020 58 10000 4.12 10 14:23 09.04.2022
4337 Clouds 14 1020 47 10000 4.63 300 13:18 09.04.2022
4338 Clouds 14 1020 50 10000 4.63 300 12:41 09.04.2022
4339 Clouds 13 1019 70 10000 2.06 330 11:22 09.04.2022
4340 Clear 11 1019 80 10000 1.03 0 10:21 09.04.2022
4341 Clear 9 1018 88 10000 1.03 0 09:42 09.04.2022
4342 Fog 7 1018 99 10000 0 0 08:54 09.04.2022
4343 Fog 6 1017 94 3300 1.54 240 07:21 09.04.2022
4344 Clear 9 1016 87 10000 2.06 230 02:20 09.04.2022
4345 Clouds 10 1015 80 10000 4.63 290 23:45 08.04.2022
4346 Clouds 11 1013 79 10000 6.69 280 21:58 08.04.2022
4347 Clouds 11 1013 82 10000 6.69 280 21:29 08.04.2022
4348 Clouds 12 1012 77 10000 8.75 270 20:38 08.04.2022
4349 Clouds 12 1011 77 10000 11.83 270 19:20 08.04.2022
4350 Clouds 13 1010 74 10000 15.95 260 18:30 08.04.2022
4351 Clouds 14 1009 73 9000 16.46 270 17:49 08.04.2022
4352 Clouds 15 1008 75 10000 17.49 250 17:25 08.04.2022
4353 Clouds 17 1008 68 10000 15.43 250 16:47 08.04.2022
4354 Clouds 18 1007 61 10000 14.92 250 15:57 08.04.2022
4355 Clouds 18 1007 56 10000 13.89 240 15:26 08.04.2022
4356 Clear 17 1007 54 10000 9.77 230 14:27 08.04.2022
4357 Clouds 17 1007 59 10000 9.26 220 13:46 08.04.2022
4358 Clear 17 1007 62 10000 7.72 220 13:27 08.04.2022
4359 Clear 15 1008 73 10000 6.17 220 11:54 08.04.2022
4360 Rain 15 1008 74 10000 6.17 220 10:33 08.04.2022
4361 Clear 14 1009 79 10000 4.12 200 09:38 08.04.2022
4362 Clear 13 1009 86 10000 3.6 210 08:44 08.04.2022
4363 Clear 12 1010 94 10000 4.12 210 06:54 08.04.2022
4364 Rain 12 1011 94 10000 6.17 260 04:58 08.04.2022
4365 Drizzle 13 1013 94 10000 6.17 240 01:26 08.04.2022
4366 Rain 13 1014 95 10000 7.72 250 00:22 08.04.2022
4367 Rain 13 1014 95 10000 7.72 270 22:59 07.04.2022
4368 Rain 13 1013 95 10000 9.26 270 22:39 07.04.2022
4369 Rain 13 1013 95 10000 9.26 270 22:20 07.04.2022
4370 Rain 13 1013 95 10000 8.23 270 21:49 07.04.2022
4371 Rain 13 1013 95 5000 9.26 270 21:19 07.04.2022
4372 Rain 13 1012 95 4400 7.72 250 20:31 07.04.2022
4373 Mist 12 1011 98 3500 8.75 250 18:34 07.04.2022
4374 Rain 12 1011 95 2900 9.77 240 17:26 07.04.2022
4375 Rain 12 1011 95 2800 10.8 240 16:44 07.04.2022
4376 Mist 12 1011 95 2700 11.32 240 16:21 07.04.2022
4377 Rain 12 1011 93 5000 10.29 240 14:42 07.04.2022
4378 Mist 13 1011 83 5000 10.8 250 13:42 07.04.2022
4379 Clouds 14 1011 75 10000 11.32 240 12:46 07.04.2022
4380 Mist 12 1011 93 4500 9.26 230 11:30 07.04.2022
4381 Clouds 13 1011 79 10000 9.26 240 09:37 07.04.2022
4382 Clouds 13 1011 85 10000 9.26 240 08:38 07.04.2022
4383 Clouds 12 1011 89 10000 8.75 240 06:42 07.04.2022
4384 Clouds 11 1013 94 10000 5.14 220 02:51 07.04.2022
4385 Drizzle 11 1014 94 9000 6.17 220 02:20 07.04.2022
4386 Clouds 11 1014 93 10000 5.66 230 00:26 07.04.2022
4387 Clouds 11 1014 90 10000 4.63 220 22:49 06.04.2022
4388 Clouds 11 1014 90 10000 5.14 240 22:26 06.04.2022
4389 Clouds 12 1014 84 10000 7.2 240 21:34 06.04.2022
4390 Clouds 12 1013 87 10000 7.2 260 20:35 06.04.2022
4391 Clouds 12 1013 82 10000 7.2 270 19:53 06.04.2022
4392 Clouds 13 1013 83 10000 7.2 270 18:51 06.04.2022
4393 Clouds 13 1013 80 10000 7.72 260 18:22 06.04.2022
4394 Clouds 14 1013 76 10000 5.66 250 17:35 06.04.2022
4395 Clouds 14 1013 67 10000 6.69 290 16:38 06.04.2022
4396 Clouds 14 1013 72 10000 6.17 280 15:48 06.04.2022
4397 Clouds 13 1013 74 10000 6.69 290 14:35 06.04.2022
4398 Clouds 13 1013 78 10000 4.63 260 13:23 06.04.2022
4399 Clouds 12 1014 88 10000 3.09 290 12:22 06.04.2022
4400 Clouds 11 1013 94 10000 2.57 270 10:47 06.04.2022
4401 Drizzle 10 1013 99 4900 3.09 270 10:24 06.04.2022
4402 Clouds 10 1013 94 6000 1.03 260 09:40 06.04.2022
4403 Mist 10 1013 98 1900 1.03 260 08:32 06.04.2022
4404 Mist 10 1013 94 5000 1.03 250 07:47 06.04.2022
4405 Mist 10 1014 93 4600 1.54 210 03:37 06.04.2022
4406 Clouds 10 1016 83 10000 1.54 290 23:51 05.04.2022
4407 Clouds 10 1016 81 10000 3.09 300 22:30 05.04.2022
4408 Clouds 11 1016 73 10000 3.6 310 21:19 05.04.2022
4409 Clouds 12 1016 71 10000 3.6 300 20:25 05.04.2022
4410 Clouds 12 1016 66 10000 4.12 310 19:41 05.04.2022
4411 Clouds 15 1016 56 10000 4.12 320 17:55 05.04.2022
4412 Clouds 15 1017 55 10000 3.09 290 16:54 05.04.2022
4413 Clouds 15 1018 55 10000 3.09 290 15:53 05.04.2022
4414 Clouds 14 1018 56 10000 2.57 310 15:34 05.04.2022
4415 Clouds 14 1019 51 10000 2.57 300 14:27 05.04.2022
4416 Clouds 12 1020 58 10000 3.6 280 12:56 05.04.2022
4417 Clear 10 1020 62 10000 2.57 220 11:50 05.04.2022
4418 Clear 10 1020 63 10000 2.57 210 11:32 05.04.2022
4419 Clear 5 1020 76 10000 1.54 190 09:52 05.04.2022
4420 Clear 2 1020 80 10000 0 0 08:52 05.04.2022
4421 Clear 0 1019 86 10000 0.51 190 06:58 05.04.2022
4422 Clear 2 1021 74 10000 1.03 240 01:51 05.04.2022
4423 Clear 6 1021 56 10000 2.57 330 22:42 04.04.2022
4424 Clear 7 1021 53 10000 3.09 330 22:22 04.04.2022
4425 Clear 8 1021 49 10000 4.12 320 21:21 04.04.2022
4426 Clear 9 1020 46 10000 5.14 320 21:21 04.04.2022
4427 Clear 9 1020 46 10000 5.14 320 20:49 04.04.2022
4428 Clear 11 1020 32 10000 2.57 350 19:45 04.04.2022
4429 Clear 13 1020 32 10000 2.57 10 19:25 04.04.2022
4430 Clear 12 1020 30 10000 3.6 350 18:20 04.04.2022
4431 Clear 12 1021 28 10000 3.09 20 16:36 04.04.2022
4432 Clear 12 1021 32 10000 2.57 0 15:43 04.04.2022
4433 Clear 12 1022 33 10000 2.57 30 15:25 04.04.2022
4434 Clear 11 1022 34 10000 3.09 50 14:46 04.04.2022
4435 Clear 10 1023 36 10000 4.63 20 13:22 04.04.2022
4436 Clear 9 1024 41 10000 4.63 30 11:55 04.04.2022
4437 Clear 8 1024 44 10000 4.12 30 11:28 04.04.2022
4438 Clear -1 1023 86 10000 1.03 0 08:36 04.04.2022
4439 Clear 2 1024 75 10000 2.06 10 04:18 04.04.2022
4440 Clear 6 1024 56 10000 4.12 10 00:44 04.04.2022
4441 Clear 6 1023 52 10000 3.6 20 22:40 03.04.2022
4442 Clear 6 1023 52 10000 3.09 20 21:45 03.04.2022
4443 Clear 7 1023 49 10000 4.63 30 20:54 03.04.2022
4444 Clouds 7 1022 50 10000 4.63 20 19:49 03.04.2022
4445 Clouds 7 1022 48 10000 4.63 30 18:32 03.04.2022
4446 Clouds 7 1022 51 10000 6.17 30 17:47 03.04.2022
4447 Clouds 7 1022 52 10000 5.66 40 16:57 03.04.2022
4448 Clouds 7 1022 52 10000 5.66 30 16:39 03.04.2022
4449 Clear 8 1022 48 10000 5.66 40 14:39 03.04.2022
4450 Clouds 8 1022 51 10000 5.66 20 13:51 03.04.2022
4451 Clouds 8 1022 55 10000 4.12 50 12:41 03.04.2022
4452 Clear 6 1022 65 10000 4.12 30 10:58 03.04.2022
4453 Clear 2 1022 82 10000 1.54 0 09:36 03.04.2022
4454 Clear -1 1021 91 10000 1.54 360 08:27 03.04.2022
4455 Clear 1 1021 86 10000 1.03 20 04:42 03.04.2022
4456 Clear 2 1021 85 10000 0.51 0 01:53 03.04.2022
4457 Clouds 5 1021 72 10000 3.09 290 23:21 02.04.2022
4458 Rain 6 1021 61 10000 2.06 310 21:58 02.04.2022
4459 Clear 7 1021 57 10000 2.57 320 21:36 02.04.2022
4460 Clouds 7 1020 53 10000 4.12 320 21:18 02.04.2022
4461 Clear 9 1020 40 10000 6.17 330 19:53 02.04.2022
4462 Clouds 10 1020 40 10000 6.17 350 18:23 02.04.2022
4463 Clouds 9 1020 40 10000 6.17 330 17:53 02.04.2022
4464 Clear 10 1020 39 10000 6.69 340 16:25 02.04.2022
4465 Clear 9 1020 40 10000 6.69 340 15:21 02.04.2022
4466 Clear 9 1020 40 10000 6.69 340 14:49 02.04.2022
4467 Clear 9 1021 39 10000 7.72 360 13:36 02.04.2022
4468 Clear 9 1021 39 10000 6.69 360 12:47 02.04.2022
4469 Clouds 8 1021 49 10000 6.69 350 11:31 02.04.2022
4470 Clear 3 1020 76 10000 3.6 320 09:30 02.04.2022
4471 Clear 1 1018 85 10000 3.6 320 06:51 02.04.2022
4472 Clouds 4 1017 74 10000 4.63 330 03:52 02.04.2022
4473 Clouds 5 1017 69 10000 7.72 340 23:58 01.04.2022
4474 Clear 4 1016 73 10000 4.12 330 23:30 01.04.2022
4475 Clouds 5 1016 72 10000 6.17 350 21:42 01.04.2022
4476 Clouds 7 1015 59 10000 8.23 350 20:51 01.04.2022
4477 Clear 8 1014 55 10000 6.17 320 20:28 01.04.2022
4478 Clear 8 1014 57 10000 7.72 310 19:34 01.04.2022
4479 Clouds 8 1014 62 10000 8.23 300 18:48 01.04.2022
4480 Clouds 4 1015 75 10000 9.77 340 17:47 01.04.2022
4481 Clouds 8 1013 52 10000 5.14 350 16:53 01.04.2022
4482 Clouds 9 1014 44 10000 8.75 330 15:41 01.04.2022
4483 Clear 10 1014 43 10000 7.72 340 14:25 01.04.2022
4484 Clear 10 1015 42 10000 7.72 340 13:34 01.04.2022
4485 Clear 7 1015 47 10000 6.17 320 12:32 01.04.2022
4486 Clouds 8 1015 52 10000 5.66 320 11:41 01.04.2022
4487 Clear 5 1015 65 10000 5.14 330 10:19 01.04.2022
4488 Clouds 2 1015 78 10000 3.6 330 08:58 01.04.2022
4489 Clear 2 1014 80 10000 2.57 320 06:54 01.04.2022
4490 Clear 2 1012 83 10000 3.09 310 04:51 01.04.2022
4491 Clear 2 1012 83 10000 3.6 310 04:31 01.04.2022
4492 Clouds 4 1010 79 10000 4.63 330 01:56 01.04.2022
4493 Clouds 5 1008 79 10000 5.14 330 23:58 31.03.2022
4494 Clouds 6 1006 84 10000 8.23 340 21:53 31.03.2022
4495 Clouds 6 1005 88 10000 7.72 330 21:32 31.03.2022
4496 Drizzle 9 1004 88 10000 6.17 290 20:29 31.03.2022
4497 Rain 9 1003 88 10000 5.66 290 19:49 31.03.2022
4498 Rain 12 1003 83 10000 3.09 260 18:44 31.03.2022
4499 Mist 10 1003 85 4700 4.12 320 17:49 31.03.2022
4500 Clouds 15 1003 56 10000 6.17 290 16:38 31.03.2022
4501 Clouds 14 1003 57 10000 7.2 290 15:45 31.03.2022
4502 Clouds 14 1004 55 10000 6.17 310 15:19 31.03.2022
4503 Clouds 15 1004 54 10000 5.14 310 14:36 31.03.2022
4504 Clouds 11 1004 80 9000 5.14 330 11:57 31.03.2022
4505 Clouds 10 1004 82 8000 4.63 330 11:20 31.03.2022
4506 Mist 9 1003 93 4500 2.57 300 09:45 31.03.2022
4507 Mist 9 1003 93 4500 2.57 300 09:45 31.03.2022
4508 Mist 8 1003 98 4300 2.57 280 07:59 31.03.2022
4509 Mist 9 1003 94 5000 2.57 260 05:23 31.03.2022
4510 Clouds 11 1004 87 7000 3.6 290 23:43 30.03.2022
4511 Clouds 11 1004 82 10000 3.6 290 22:32 30.03.2022
4512 Clouds 12 1004 76 10000 3.09 290 21:39 30.03.2022
4513 Clouds 12 1004 76 10000 4.63 300 20:53 30.03.2022
4514 Clouds 12 1003 76 10000 5.66 300 20:20 30.03.2022
4515 Clouds 12 1003 76 10000 5.66 300 20:20 30.03.2022
4516 Clouds 13 1003 69 10000 6.17 300 19:19 30.03.2022
4517 Clouds 15 1003 62 10000 6.69 310 18:19 30.03.2022
4518 Clouds 15 1003 66 10000 6.69 310 17:45 30.03.2022
4519 Clouds 15 1003 66 10000 5.66 310 16:56 30.03.2022
4520 Clouds 15 1004 68 10000 4.63 300 16:32 30.03.2022
4521 Clouds 15 1005 69 10000 5.14 280 14:59 30.03.2022
4522 Clouds 14 1005 77 10000 3.6 270 13:35 30.03.2022
4523 Clouds 13 1006 85 10000 2.57 250 12:42 30.03.2022
4524 Clouds 11 1006 92 10000 1.54 260 10:55 30.03.2022
4525 Clouds 11 1006 88 10000 2.06 230 09:59 30.03.2022
4526 Clouds 10 1006 89 10000 2.57 220 09:20 30.03.2022
4527 Clouds 10 1005 89 9000 1.54 230 07:31 30.03.2022
4528 Clouds 10 1006 87 10000 1.54 260 05:40 30.03.2022
4529 Clouds 10 1007 93 10000 1.54 280 03:31 30.03.2022
4530 Clouds 10 1008 93 6000 2.06 210 23:42 29.03.2022
4531 Clear 12 1008 87 10000 2.57 280 22:19 29.03.2022
4532 Clear 13 1008 84 10000 2.06 280 21:41 29.03.2022
4533 Clear 14 1008 77 10000 3.09 290 20:44 29.03.2022
4534 Clear 14 1008 75 10000 2.06 280 19:45 29.03.2022
4535 Clear 14 1008 74 10000 2.57 270 18:54 29.03.2022
4536 Clouds 15 1008 73 10000 2.57 280 18:18 29.03.2022
4537 Clear 16 1009 72 10000 4.12 300 17:20 29.03.2022
4538 Clear 16 1009 70 10000 3.6 280 16:55 29.03.2022
4539 Clouds 17 1009 64 10000 1.03 0 15:47 29.03.2022
4540 Clear 17 1010 64 10000 0.51 0 14:44 29.03.2022
4541 Clear 16 1011 67 10000 1.03 0 13:41 29.03.2022
4542 Clouds 16 1011 67 10000 0 0 12:40 29.03.2022
4543 Clear 14 1011 72 10000 0.51 0 11:27 29.03.2022
4544 Clear 13 1011 78 10000 2.06 270 10:23 29.03.2022
4545 Clear 10 1011 78 10000 1.03 0 08:57 29.03.2022
4546 Clear 11 1011 76 10000 3.09 150 06:53 29.03.2022
4547 Clear 11 1013 71 10000 1.03 160 02:55 29.03.2022
4548 Clear 14 1015 67 10000 1.03 0 23:46 28.03.2022
4549 Clear 15 1015 62 10000 1.54 30 22:58 28.03.2022
4550 Clear 15 1015 62 10000 1.54 30 22:58 28.03.2022
4551 Clear 16 1015 61 10000 1.54 50 22:35 28.03.2022
4552 Clear 16 1015 57 10000 1.03 80 21:47 28.03.2022
4553 Clear 19 1015 39 10000 2.06 40 20:37 28.03.2022
4554 Clear 20 1016 37 10000 2.06 50 19:57 28.03.2022
4555 Clear 20 1016 34 10000 2.57 90 19:38 28.03.2022
4556 Clear 20 1016 34 10000 2.06 90 18:51 28.03.2022
4557 Clear 21 1017 35 10000 2.57 50 17:41 28.03.2022
4558 Clear 22 1017 37 10000 3.09 0 16:56 28.03.2022
4559 Clear 22 1018 36 10000 2.06 80 15:22 28.03.2022
4560 Clear 22 1020 39 10000 1.03 0 14:24 28.03.2022
4561 Clear 20 1021 43 10000 1.54 0 13:19 28.03.2022
4562 Clear 16 1022 50 10000 2.06 110 11:52 28.03.2022
4563 Clear 12 1022 63 10000 2.06 100 09:55 28.03.2022
4564 Clear 10 1022 69 10000 2.57 100 09:21 28.03.2022
4565 Clear 9 1022 66 10000 2.57 90 08:39 28.03.2022
4566 Clear 9 1022 66 10000 2.57 90 08:18 28.03.2022
4567 Clear 10 1022 66 10000 1.54 110 06:31 28.03.2022
4568 Clear 12 1024 73 10000 2.06 120 00:30 28.03.2022
4569 Clear 14 1024 65 10000 1.54 220 22:35 27.03.2022
4570 Clear 16 1023 51 10000 2.06 140 21:43 27.03.2022
4571 Clear 16 1023 51 10000 2.06 140 21:18 27.03.2022
4572 Clear 19 1023 42 10000 1.54 150 20:24 27.03.2022
4573 Clear 21 1023 35 10000 4.12 160 19:37 27.03.2022
4574 Clear 21 1023 39 10000 4.12 130 18:42 27.03.2022
4575 Clear 21 1023 40 10000 4.12 130 18:23 27.03.2022
4576 Clear 21 1022 38 10000 6.69 120 17:35 27.03.2022
4577 Clear 22 1023 36 10000 5.66 120 15:47 27.03.2022
4578 Clear 19 1024 35 10000 7.2 130 13:57 27.03.2022
4579 Clear 18 1024 36 10000 7.2 110 12:58 27.03.2022
4580 Clear 16 1025 40 10000 3.6 110 11:33 27.03.2022
4581 Clear 10 1024 57 10000 2.06 110 09:37 27.03.2022
4582 Clear 10 1023 46 10000 3.6 90 06:58 27.03.2022
4583 Clear 9 1023 56 10000 2.06 70 03:39 27.03.2022
4584 Clear 10 1023 50 10000 3.6 40 00:25 27.03.2022
4585 Clear 12 1023 47 10000 2.06 100 22:45 26.03.2022
4586 Clear 14 1022 33 10000 2.06 110 21:50 26.03.2022
4587 Clear 15 1022 31 10000 3.09 130 21:28 26.03.2022
4588 Clear 19 1021 26 10000 3.09 140 19:31 26.03.2022
4589 Clear 21 1020 21 10000 4.63 120 18:40 26.03.2022
4590 Clear 21 1020 19 10000 7.2 100 17:34 26.03.2022
4591 Clear 22 1020 20 10000 5.14 100 16:30 26.03.2022
4592 Clear 21 1020 23 10000 6.17 100 15:35 26.03.2022
4593 Clear 20 1021 25 10000 7.2 100 13:55 26.03.2022
4594 Clear 20 1021 27 10000 7.2 80 13:19 26.03.2022
4595 Clear 18 1022 31 10000 6.17 100 11:42 26.03.2022
4596 Clear 16 1022 37 10000 5.14 110 10:32 26.03.2022
4597 Clear 11 1022 51 10000 3.09 90 08:44 26.03.2022
4598 Clear 6 1021 75 10000 1.03 0 06:30 26.03.2022
4599 Clear 7 1021 65 10000 2.06 40 05:28 26.03.2022
4600 Clear 9 1021 61 10000 1.03 80 00:41 26.03.2022
4601 Clear 12 1021 58 10000 1.03 0 21:56 25.03.2022
4602 Clear 13 1021 51 10000 2.06 60 20:46 25.03.2022
4603 Clear 15 1021 38 10000 2.06 60 20:20 25.03.2022
4604 Clear 17 1020 38 10000 3.09 100 18:51 25.03.2022
4605 Clear 18 1020 32 10000 5.66 100 17:49 25.03.2022
4606 Clear 18 1020 32 10000 5.66 110 17:27 25.03.2022
4607 Clear 18 1021 34 10000 4.12 120 16:19 25.03.2022
4608 Clouds 17 1021 36 10000 6.69 100 14:49 25.03.2022
4609 Clear 17 1022 41 10000 6.17 80 13:24 25.03.2022
4610 Clear 13 1023 48 10000 3.6 90 10:26 25.03.2022
4611 Clear 11 1023 59 10000 4.12 100 09:28 25.03.2022
4612 Clear 7 1023 83 10000 1.54 80 08:24 25.03.2022
4613 Clear 6 1023 87 10000 1.54 50 07:28 25.03.2022
4614 Clear 6 1023 87 10000 0 0 06:24 25.03.2022
4615 Clear 7 1023 87 10000 0.51 0 01:18 25.03.2022
4616 Clear 9 1023 75 10000 1.03 0 22:51 24.03.2022
4617 Clear 12 1023 66 10000 1.03 70 21:45 24.03.2022
4618 Clear 14 1023 54 10000 1.54 90 20:37 24.03.2022
4619 Clear 15 1023 47 10000 2.57 110 19:47 24.03.2022
4620 Clear 18 1022 42 10000 3.09 110 17:48 24.03.2022
4621 Clear 18 1022 39 10000 1.54 0 17:19 24.03.2022
4622 Clear 18 1023 44 10000 1.54 50 15:45 24.03.2022
4623 Clear 18 1023 45 10000 2.57 70 14:48 24.03.2022
4624 Clear 18 1024 45 10000 2.06 160 14:18 24.03.2022
4625 Clear 16 1025 51 10000 4.63 130 12:52 24.03.2022
4626 Clear 14 1025 54 10000 5.14 130 11:45 24.03.2022
4627 Clear 10 1025 63 10000 5.14 110 09:53 24.03.2022
4628 Clear 8 1025 60 10000 4.63 110 08:42 24.03.2022
4629 Clear 5 1024 75 10000 2.06 80 06:49 24.03.2022
4630 Clear 6 1025 70 10000 2.06 80 03:57 24.03.2022
4631 Clear 11 1025 54 10000 2.57 100 23:20 23.03.2022
4632 Clear 13 1025 50 10000 3.09 100 21:39 23.03.2022
4633 Clear 14 1025 47 10000 3.6 100 21:18 23.03.2022
4634 Clear 15 1024 44 10000 4.63 100 19:46 23.03.2022
4635 Clear 17 1024 39 10000 5.14 120 18:45 23.03.2022
4636 Clear 18 1024 36 10000 6.17 110 17:36 23.03.2022
4637 Clear 18 1024 42 10000 5.14 90 16:33 23.03.2022
4638 Clear 18 1025 45 10000 4.63 120 14:51 23.03.2022
4639 Clear 17 1025 46 10000 5.14 120 14:26 23.03.2022
4640 Clear 16 1026 50 10000 5.14 130 12:50 23.03.2022
4641 Clear 10 1026 61 10000 4.63 100 09:42 23.03.2022
4642 Clear 6 1024 74 10000 2.57 100 06:41 23.03.2022
4643 Clear 7 1024 69 10000 3.09 100 04:41 23.03.2022
4644 Clear 11 1025 55 10000 5.14 110 00:29 23.03.2022
4645 Clear 12 1025 43 10000 5.66 110 22:46 22.03.2022
4646 Clear 14 1024 41 10000 7.72 120 21:30 22.03.2022
4647 Clear 15 1024 44 10000 6.17 110 20:40 22.03.2022
4648 Clear 16 1023 44 10000 5.66 120 19:41 22.03.2022
4649 Clear 17 1023 42 10000 5.14 120 19:18 22.03.2022
4650 Clear 17 1023 45 10000 6.17 120 18:22 22.03.2022
4651 Clear 17 1023 45 10000 7.2 120 17:29 22.03.2022
4652 Clear 18 1023 44 10000 7.2 120 16:21 22.03.2022
4653 Clear 17 1023 42 10000 8.23 110 15:22 22.03.2022
4654 Clear 18 1023 46 10000 5.66 110 14:46 22.03.2022
4655 Clear 18 1023 48 10000 5.66 120 14:27 22.03.2022
4656 Clear 18 1024 47 10000 5.14 130 13:27 22.03.2022
4657 Clear 16 1024 53 10000 7.2 120 11:52 22.03.2022
4658 Clear 13 1024 59 10000 7.2 120 10:35 22.03.2022
4659 Clear 8 1024 70 10000 4.63 90 08:24 22.03.2022
4660 Clear 9 1024 62 10000 6.17 110 05:21 22.03.2022
4661 Clear 9 1024 51 10000 6.17 110 03:46 22.03.2022
4662 Clear 11 1024 63 10000 7.2 110 23:59 21.03.2022
4663 Clear 12 1025 66 10000 6.17 100 22:29 21.03.2022
4664 Clear 13 1024 65 10000 6.17 110 20:54 21.03.2022
4665 Clear 14 1024 62 10000 8.23 110 20:34 21.03.2022
4666 Clear 15 1023 55 10000 8.23 110 19:58 21.03.2022
4667 Clear 15 1023 58 10000 8.75 110 19:27 21.03.2022
4668 Clear 17 1022 48 10000 8.75 110 18:18 21.03.2022
4669 Clear 18 1022 48 10000 9.77 110 17:18 21.03.2022
4670 Clouds 20 1022 45 10000 9.26 110 16:42 21.03.2022
4671 Clear 20 1022 45 10000 9.26 110 15:48 21.03.2022
4672 Clear 20 1022 49 10000 8.23 110 14:56 21.03.2022
4673 Clear 20 1023 51 10000 8.75 100 13:46 21.03.2022
4674 Clouds 18 1023 59 10000 6.69 120 12:34 21.03.2022
4675 Clear 18 1024 61 10000 7.2 120 11:44 21.03.2022
4676 Clear 15 1024 67 10000 6.17 110 10:36 21.03.2022
4677 Clear 11 1024 84 10000 3.6 100 08:30 21.03.2022
4678 Clear 11 1023 85 10000 3.09 100 06:38 21.03.2022
4679 Clear 11 1023 84 10000 3.6 90 02:48 21.03.2022
4680 Clear 13 1024 76 10000 5.66 120 23:41 20.03.2022
4681 Clear 13 1024 75 10000 5.14 110 22:43 20.03.2022
4682 Clear 14 1023 67 10000 6.69 130 21:51 20.03.2022
4683 Clear 15 1023 63 10000 5.66 130 21:23 20.03.2022
4684 Clear 15 1023 63 10000 5.66 110 20:43 20.03.2022
4685 Clear 16 1023 59 10000 5.14 110 19:57 20.03.2022
4686 Clear 16 1022 63 10000 2.57 100 19:28 20.03.2022
4687 Clear 17 1022 59 10000 2.57 130 18:19 20.03.2022
4688 Clear 17 1022 59 10000 4.63 120 17:33 20.03.2022
4689 Clear 17 1023 59 10000 5.66 130 16:57 20.03.2022
4690 Clear 18 1023 57 10000 5.66 100 15:28 20.03.2022
4691 Clear 18 1023 55 10000 5.14 100 14:23 20.03.2022
4692 Clear 17 1024 58 10000 3.6 120 12:29 20.03.2022
4693 Clear 14 1024 65 10000 5.14 140 10:55 20.03.2022
4694 Clear 9 1023 78 10000 4.12 120 08:42 20.03.2022
4695 Clear 8 1023 83 10000 3.6 120 06:55 20.03.2022
4696 Clear 9 1023 77 10000 3.6 130 04:23 20.03.2022
4697 Clear 11 1024 72 10000 4.12 120 01:29 20.03.2022
4698 Clear 11 1024 66 10000 3.6 120 00:37 20.03.2022
4699 Clear 12 1025 67 10000 3.6 140 22:56 19.03.2022
4700 Clear 14 1025 51 10000 2.57 140 21:27 19.03.2022
4701 Clear 14 1025 51 10000 2.57 130 20:28 19.03.2022
4702 Clear 17 1024 39 10000 4.63 140 18:44 19.03.2022
4703 Clear 17 1024 44 10000 4.63 140 18:23 19.03.2022
4704 Clear 18 1024 42 10000 6.69 120 17:35 19.03.2022
4705 Clear 19 1025 37 10000 7.72 120 15:43 19.03.2022
4706 Clear 19 1025 35 10000 8.75 120 14:30 19.03.2022
4707 Clear 18 1027 49 10000 7.2 110 12:58 19.03.2022
4708 Clear 17 1027 51 10000 6.17 130 12:38 19.03.2022
4709 Clear 16 1027 55 10000 6.69 120 11:51 19.03.2022
4710 Clear 14 1027 68 10000 5.66 120 10:44 19.03.2022
4711 Clouds 7 1027 94 9000 4.12 120 06:27 19.03.2022
4712 Clouds 7 1027 100 6000 2.06 120 03:21 19.03.2022
4713 Clouds 8 1027 93 6000 0.51 180 01:33 19.03.2022
4714 Clear 11 1028 78 10000 2.57 80 23:26 18.03.2022
4715 Clouds 12 1028 77 10000 4.12 70 22:25 18.03.2022
4716 Clouds 13 1028 74 10000 3.6 50 20:56 18.03.2022
4717 Clouds 14 1027 70 10000 4.63 40 19:50 18.03.2022
4718 Clouds 15 1027 67 10000 3.6 40 19:19 18.03.2022
4719 Clouds 17 1027 59 10000 3.09 90 17:39 18.03.2022
4720 Clouds 17 1027 57 10000 2.57 60 16:46 18.03.2022
4721 Clouds 16 1028 60 10000 4.63 50 14:37 18.03.2022
4722 Clouds 16 1028 60 10000 4.63 50 14:18 18.03.2022
4723 Clouds 13 1029 67 10000 5.14 40 12:19 18.03.2022
4724 Clear 10 1030 74 10000 5.66 20 10:38 18.03.2022
4725 Clear 8 1030 78 10000 5.14 20 09:21 18.03.2022
4726 Clear 7 1029 82 10000 4.63 20 07:45 18.03.2022
4727 Clear 8 1029 79 10000 5.14 20 05:46 18.03.2022
4728 Clear 9 1030 76 10000 5.66 20 02:44 18.03.2022
4729 Clear 9 1031 75 10000 6.69 20 00:21 18.03.2022
4730 Clear 10 1030 74 10000 6.69 20 22:54 17.03.2022
4731 Clear 10 1030 73 10000 6.69 20 22:21 17.03.2022
4732 Clear 10 1030 73 10000 6.17 20 21:47 17.03.2022
4733 Rain 10 1030 74 10000 7.2 20 21:18 17.03.2022
4734 Rain 11 1029 75 10000 7.2 10 20:30 17.03.2022
4735 Clouds 11 1029 75 10000 6.69 10 19:39 17.03.2022
4736 Clear 11 1028 74 10000 6.69 10 18:55 17.03.2022
4737 Clear 12 1028 74 10000 6.69 10 17:47 17.03.2022
4738 Rain 12 1028 72 10000 8.23 10 16:29 17.03.2022
4739 Clouds 12 1028 74 10000 7.2 10 15:43 17.03.2022
4740 Clouds 12 1028 74 10000 7.2 10 15:21 17.03.2022
4741 Clouds 11 1028 83 10000 7.2 10 13:47 17.03.2022
4742 Clouds 11 1028 82 10000 6.17 20 12:47 17.03.2022
4743 Clouds 11 1028 84 10000 6.69 20 11:40 17.03.2022
4744 Clouds 11 1028 83 10000 7.2 10 10:58 17.03.2022
4745 Clouds 10 1027 84 10000 7.72 10 09:40 17.03.2022
4746 Clouds 10 1026 84 10000 7.2 360 08:20 17.03.2022
4747 Clouds 11 1025 85 10000 6.17 360 06:18 17.03.2022
4748 Clouds 11 1025 85 10000 7.72 360 05:23 17.03.2022
4749 Clouds 13 1023 90 10000 4.12 360 00:27 17.03.2022
4750 Clouds 13 1023 94 10000 3.09 340 22:57 16.03.2022
4751 Clouds 13 1022 94 10000 4.12 350 22:36 16.03.2022
4752 Clouds 13 1022 94 7000 3.6 340 21:58 16.03.2022
4753 Clouds 13 1021 90 10000 2.06 290 20:47 16.03.2022
4754 Clouds 13 1020 88 10000 2.57 220 19:24 16.03.2022
4755 Clouds 14 1020 88 10000 3.6 230 18:43 16.03.2022
4756 Clouds 14 1019 88 10000 4.63 220 18:18 16.03.2022
4757 Clouds 15 1019 80 10000 5.14 250 17:36 16.03.2022
4758 Clouds 17 1018 74 10000 2.57 210 16:36 16.03.2022
4759 Clear 16 1018 74 10000 3.09 190 15:34 16.03.2022
4760 Clear 16 1019 67 10000 4.63 150 13:41 16.03.2022
4761 Clear 15 1018 72 10000 4.12 150 12:56 16.03.2022
4762 Clear 14 1019 80 10000 4.12 140 11:24 16.03.2022
4763 Clear 13 1018 83 10000 3.6 120 10:37 16.03.2022
4764 Clear 13 1018 84 10000 3.6 120 09:57 16.03.2022
4765 Clear 12 1018 88 10000 4.63 110 08:33 16.03.2022
4766 Clear 12 1018 88 10000 4.63 120 02:46 16.03.2022
4767 Clear 14 1018 80 10000 6.69 130 22:58 15.03.2022
4768 Clear 14 1018 79 10000 6.17 130 22:36 15.03.2022
4769 Clear 15 1018 76 10000 6.69 130 21:19 15.03.2022
4770 Clear 16 1018 71 10000 6.17 130 19:46 15.03.2022
4771 Clear 18 1017 65 10000 8.75 110 17:47 15.03.2022
4772 Clear 20 1018 63 10000 7.2 110 16:41 15.03.2022
4773 Clear 20 1018 61 10000 6.69 120 15:38 15.03.2022
4774 Clear 20 1018 61 10000 6.69 110 14:54 15.03.2022
4775 Clear 20 1018 62 10000 6.17 140 13:56 15.03.2022
4776 Clear 19 1019 62 10000 6.69 120 13:23 15.03.2022
4777 Clouds 16 1019 70 10000 6.17 140 11:34 15.03.2022
4778 Clear 16 1019 71 10000 5.14 140 10:53 15.03.2022
4779 Clouds 14 1018 79 10000 7.2 140 09:24 15.03.2022
4780 Clear 14 1017 79 10000 7.2 130 08:24 15.03.2022
4781 Clear 14 1018 76 10000 4.12 140 07:36 15.03.2022
4782 Clear 14 1017 76 10000 3.6 140 06:32 15.03.2022
4783 Clear 13 1019 79 10000 5.14 110 00:58 15.03.2022
4784 Clear 13 1019 76 10000 5.66 100 23:30 14.03.2022
4785 Clear 13 1019 75 10000 5.14 100 22:50 14.03.2022
4786 Clouds 13 1019 75 10000 3.6 80 21:53 14.03.2022
4787 Clouds 13 1019 74 10000 4.63 90 20:55 14.03.2022
4788 Clouds 13 1018 75 10000 5.14 90 20:24 14.03.2022
4789 Rain 14 1018 75 10000 7.2 120 19:24 14.03.2022
4790 Clouds 15 1018 66 10000 6.17 120 17:57 14.03.2022
4791 Clouds 15 1018 66 10000 6.69 120 17:39 14.03.2022
4792 Clouds 15 1018 70 10000 4.63 80 16:28 14.03.2022
4793 Clouds 14 1019 73 10000 6.17 80 14:47 14.03.2022
4794 Clouds 13 1020 74 10000 5.14 80 13:20 14.03.2022
4795 Clear 10 1021 76 10000 4.63 90 11:26 14.03.2022
4796 Clear 8 1021 84 10000 5.66 90 09:56 14.03.2022
4797 Clear 6 1020 84 10000 4.63 80 09:24 14.03.2022
4798 Clear 6 1020 85 10000 4.12 90 08:57 14.03.2022
4799 Clear 5 1020 88 10000 4.63 90 08:24 14.03.2022
4800 Clear 6 1020 89 10000 4.63 110 05:51 14.03.2022
4801 Clear 7 1019 88 10000 6.69 130 02:58 14.03.2022
4802 Clear 7 1019 89 10000 6.17 120 01:36 14.03.2022
4803 Clear 8 1018 85 10000 5.14 130 23:29 13.03.2022
4804 Clear 7 1018 88 10000 4.12 130 21:41 13.03.2022
4805 Clear 7 1018 88 10000 4.12 130 21:19 13.03.2022
4806 Clear 7 1017 85 10000 1.54 160 20:46 13.03.2022
4807 Clear 8 1017 81 10000 1.03 160 20:21 13.03.2022
4808 Clear 11 1016 58 10000 1.03 230 19:41 13.03.2022
4809 Clear 11 1016 58 10000 1.03 230 19:20 13.03.2022
4810 Clear 13 1016 47 10000 3.09 230 18:41 13.03.2022
4811 Clouds 14 1015 55 10000 4.12 220 17:52 13.03.2022
4812 Clouds 14 1015 57 10000 5.66 220 17:33 13.03.2022
4813 Clouds 13 1015 60 10000 4.12 260 16:44 13.03.2022
4814 Clouds 13 1014 61 10000 3.6 270 16:20 13.03.2022
4815 Clouds 14 1013 59 10000 5.66 260 15:34 13.03.2022
4816 Clouds 13 1013 69 10000 6.69 250 13:53 13.03.2022
4817 Clear 12 1013 76 10000 6.17 240 13:26 13.03.2022
4818 Clouds 10 1013 85 10000 5.66 250 12:20 13.03.2022
4819 Clouds 9 1012 90 10000 4.63 250 11:36 13.03.2022
4820 Clouds 8 1012 94 10000 4.12 220 10:48 13.03.2022
4821 Clouds 8 1012 94 10000 4.12 220 10:25 13.03.2022
4822 Rain 7 1011 98 10000 3.09 220 09:41 13.03.2022
4823 Rain 7 1011 97 10000 4.12 240 08:47 13.03.2022
4824 Rain 8 1010 94 10000 4.63 260 07:47 13.03.2022
4825 Rain 9 1009 93 8000 3.6 240 05:55 13.03.2022
4826 Drizzle 10 1008 87 10000 6.17 150 03:26 13.03.2022
4827 Clear 10 1009 76 10000 6.69 140 00:30 13.03.2022
4828 Clear 10 1010 81 10000 7.2 140 22:44 12.03.2022
4829 Clear 11 1010 76 10000 5.14 140 20:58 12.03.2022
4830 Clear 12 1010 75 10000 5.14 140 19:57 12.03.2022
4831 Clear 12 1010 75 10000 5.14 140 19:57 12.03.2022
4832 Clear 12 1010 71 10000 5.14 130 19:38 12.03.2022
4833 Clouds 13 1010 66 10000 5.66 140 18:29 12.03.2022
4834 Clouds 15 1010 55 10000 7.2 130 17:39 12.03.2022
4835 Clouds 15 1011 55 10000 5.14 140 16:24 12.03.2022
4836 Clouds 14 1012 58 10000 4.12 150 15:24 12.03.2022
4837 Clouds 14 1012 58 10000 4.12 150 15:24 12.03.2022
4838 Clouds 14 1012 58 10000 4.12 150 15:24 12.03.2022
4839 Clouds 15 1012 61 10000 3.6 140 14:51 12.03.2022
4840 Clouds 14 1013 62 10000 4.63 130 13:47 12.03.2022
4841 Clouds 13 1015 71 10000 4.63 140 12:18 12.03.2022
4842 Clear 11 1016 81 10000 2.57 190 11:45 12.03.2022
4843 Clear 10 1016 87 10000 2.57 190 11:19 12.03.2022
4844 Clear 8 1015 93 10000 2.06 220 09:46 12.03.2022
4845 Clear 8 1015 93 10000 2.57 220 09:20 12.03.2022
4846 Clear 8 1014 93 10000 1.54 190 07:29 12.03.2022
4847 Rain 9 1015 93 8000 4.63 240 03:54 12.03.2022
4848 Clear 9 1015 93 10000 3.09 180 23:56 11.03.2022
4849 Clear 9 1015 93 10000 3.09 180 23:56 11.03.2022
4850 Clear 9 1015 93 10000 3.09 180 23:56 11.03.2022
4851 Rain 9 1015 93 10000 3.09 180 23:19 11.03.2022
4852 Rain 9 1015 93 10000 3.09 180 23:19 11.03.2022
4853 Clouds 9 1014 99 10000 2.57 180 21:41 11.03.2022
4854 Clear 9 1013 94 10000 2.57 190 20:56 11.03.2022
4855 Clear 9 1013 94 10000 2.06 180 20:35 11.03.2022
4856 Clouds 10 1013 93 10000 2.57 180 19:52 11.03.2022
4857 Clear 11 1012 90 10000 2.57 180 19:22 11.03.2022
4858 Clouds 12 1011 91 10000 3.6 190 17:30 11.03.2022
4859 Rain 12 1011 91 10000 2.06 180 16:36 11.03.2022
4860 Clouds 12 1011 90 10000 2.57 190 15:54 11.03.2022
4861 Rain 11 1011 95 6000 4.63 160 14:20 11.03.2022
4862 Rain 10 1011 99 10000 1.54 220 12:45 11.03.2022
4863 Rain 10 1011 99 2900 1.03 0 12:21 11.03.2022
4864 Rain 10 1011 98 3600 3.09 280 11:51 11.03.2022
4865 Rain 10 1009 94 6000 5.14 140 09:50 11.03.2022
4866 Rain 10 1009 94 6000 5.14 160 08:56 11.03.2022
4867 Rain 11 1009 87 10000 5.14 170 08:21 11.03.2022
4868 Clear 11 1007 84 10000 5.66 140 07:40 11.03.2022
4869 Clear 11 1008 84 10000 6.69 140 05:44 11.03.2022
4870 Clear 11 1009 85 10000 6.17 140 03:41 11.03.2022
4871 Clear 11 1009 85 10000 6.17 140 03:41 11.03.2022
4872 Clear 12 1012 80 10000 4.63 130 23:31 10.03.2022
4873 Clear 12 1013 84 10000 4.63 140 22:29 10.03.2022
4874 Clear 12 1014 87 10000 3.09 140 21:27 10.03.2022
4875 Clear 11 1014 89 10000 3.09 140 20:55 10.03.2022
4876 Clouds 13 1015 83 10000 2.06 130 19:23 10.03.2022
4877 Clouds 15 1015 72 10000 4.12 130 18:40 10.03.2022
4878 Clouds 16 1015 74 10000 2.06 200 16:54 10.03.2022
4879 Clouds 16 1016 67 10000 2.06 140 15:49 10.03.2022
4880 Clouds 14 1017 82 10000 4.63 140 14:24 10.03.2022
4881 Clouds 12 1018 90 10000 5.66 140 12:50 10.03.2022
4882 Clouds 11 1019 94 9000 4.63 140 11:39 10.03.2022
4883 Rain 10 1019 94 6000 3.6 160 10:19 10.03.2022
4884 Rain 10 1019 93 10000 2.06 150 08:48 10.03.2022
4885 Clouds 10 1018 89 10000 4.12 140 06:36 10.03.2022
4886 Clear 11 1018 83 10000 5.14 140 03:42 10.03.2022
4887 Rain 13 1019 76 10000 3.6 140 00:23 10.03.2022
4888 Clear 13 1018 68 10000 3.09 150 22:45 09.03.2022
4889 Clear 13 1018 66 10000 1.03 0 21:48 09.03.2022
4890 Clear 14 1018 63 10000 1.54 160 20:59 09.03.2022
4891 Clear 15 1018 59 10000 1.03 150 19:40 09.03.2022
4892 Clear 16 1017 53 10000 2.06 240 18:19 09.03.2022
4893 Clear 17 1017 48 10000 4.12 230 17:26 09.03.2022
4894 Clear 17 1017 48 10000 4.63 170 16:23 09.03.2022
4895 Clear 17 1018 54 10000 6.69 120 14:27 09.03.2022
4896 Clear 16 1018 59 10000 6.17 130 13:51 09.03.2022
4897 Clear 14 1019 65 10000 6.17 130 12:27 09.03.2022
4898 Clear 13 1019 72 10000 6.17 130 11:48 09.03.2022
4899 Clear 11 1019 79 10000 7.72 140 10:59 09.03.2022
4900 Clear 8 1020 88 10000 5.14 120 09:40 09.03.2022
4901 Clear 6 1020 95 10000 4.63 120 08:45 09.03.2022
4902 Clear 4 1019 99 10000 3.09 130 06:25 09.03.2022
4903 Clear 6 1020 95 10000 2.57 160 01:53 09.03.2022
4904 Clear 7 1020 95 10000 3.09 170 00:22 09.03.2022
4905 Clear 7 1020 99 10000 3.09 170 22:46 08.03.2022
4906 Clear 8 1019 94 10000 2.57 180 21:51 08.03.2022
4907 Drizzle 9 1019 94 10000 3.6 170 21:21 08.03.2022
4908 Clouds 9 1019 98 10000 1.54 240 20:21 08.03.2022
4909 Clouds 10 1018 98 10000 0.51 0 19:21 08.03.2022
4910 Rain 10 1017 93 10000 2.06 230 18:22 08.03.2022
4911 Rain 10 1017 90 10000 3.6 240 16:42 08.03.2022
4912 Clouds 11 1015 81 10000 3.6 210 14:55 08.03.2022
4913 Clouds 11 1015 77 10000 3.09 210 13:39 08.03.2022
4914 Rain 11 1015 80 10000 5.66 220 12:20 08.03.2022
4915 Clouds 10 1014 82 10000 3.6 170 11:42 08.03.2022
4916 Clear 8 1014 87 10000 4.63 140 10:28 08.03.2022
4917 Clouds 7 1013 88 10000 5.66 130 08:56 08.03.2022
4918 Clear 7 1012 83 10000 5.66 140 05:51 08.03.2022
4919 Clear 7 1013 79 10000 4.12 130 01:53 08.03.2022
4920 Clear 8 1013 75 10000 4.12 120 22:43 07.03.2022
4921 Clear 8 1013 73 10000 4.12 130 21:44 07.03.2022
4922 Clear 9 1013 63 10000 4.63 120 20:56 07.03.2022
4923 Clear 9 1013 57 10000 3.09 110 20:29 07.03.2022
4924 Clear 9 1013 56 10000 2.57 130 19:48 07.03.2022
4925 Clear 12 1013 43 10000 2.57 140 18:50 07.03.2022
4926 Clear 13 1013 39 10000 2.06 140 18:29 07.03.2022
4927 Clear 14 1013 35 10000 2.06 210 17:24 07.03.2022
4928 Clear 14 1014 33 10000 1.54 0 16:41 07.03.2022
4929 Clear 12 1014 38 10000 3.09 200 14:49 07.03.2022
4930 Clear 9 1016 50 10000 1.54 0 12:34 07.03.2022
4931 Clear 6 1017 57 10000 1.54 0 11:21 07.03.2022
4932 Clear 4 1017 66 10000 1.54 40 10:26 07.03.2022
4933 Clear -1 1017 87 6000 1.54 330 08:19 07.03.2022
4934 Clear 4 1019 73 10000 2.06 20 01:23 07.03.2022
4935 Clear 5 1019 67 10000 2.06 20 00:20 07.03.2022
4936 Clear 6 1019 62 10000 3.09 30 23:19 06.03.2022
4937 Clear 7 1019 60 10000 3.6 30 22:26 06.03.2022
4938 Clear 8 1019 54 10000 4.12 20 21:22 06.03.2022
4939 Clear 9 1018 51 10000 4.63 20 20:29 06.03.2022
4940 Clear 10 1018 47 10000 4.12 20 19:35 06.03.2022
4941 Clear 11 1017 41 10000 5.66 30 18:40 06.03.2022
4942 Clear 13 1017 38 10000 4.63 20 17:36 06.03.2022
4943 Clear 14 1017 35 10000 2.57 50 17:18 06.03.2022
4944 Clear 14 1017 34 10000 4.12 40 16:26 06.03.2022
4945 Clear 14 1018 37 10000 4.63 40 15:23 06.03.2022
4946 Clear 13 1018 37 10000 4.63 40 14:41 06.03.2022
4947 Clear 13 1019 40 10000 4.63 40 13:48 06.03.2022
4948 Clear 12 1019 51 10000 5.14 50 12:39 06.03.2022
4949 Clouds 10 1019 57 10000 4.12 60 11:39 06.03.2022
4950 Clouds 9 1019 82 9000 4.12 60 10:33 06.03.2022
4951 Mist 7 1018 93 5000 2.57 30 08:51 06.03.2022
4952 Mist 7 1018 94 5000 2.57 20 08:27 06.03.2022
4953 Clouds 7 1018 94 6000 2.57 20 07:18 06.03.2022
4954 Clear 6 1019 93 10000 1.03 270 01:37 06.03.2022
4955 Clear 6 1019 93 10000 1.03 0 00:34 06.03.2022
4956 Clear 6 1019 93 10000 1.03 300 23:46 05.03.2022
4957 Clear 6 1019 87 10000 2.57 310 23:18 05.03.2022
4958 Clear 7 1019 83 10000 2.57 310 22:31 05.03.2022
4959 Clear 7 1019 84 10000 2.57 310 22:31 05.03.2022
4960 Clear 7 1019 81 10000 2.57 320 21:25 05.03.2022
4961 Clear 9 1019 64 10000 2.57 330 19:59 05.03.2022
4962 Clear 10 1019 54 10000 4.12 330 18:57 05.03.2022
4963 Clear 11 1019 52 10000 3.6 350 18:36 05.03.2022
4964 Clear 12 1019 48 10000 5.14 10 16:58 05.03.2022
4965 Clear 12 1019 43 10000 5.14 350 15:49 05.03.2022
4966 Clear 13 1020 46 10000 5.66 10 14:53 05.03.2022
4967 Clouds 12 1020 49 10000 6.17 360 14:34 05.03.2022
4968 Clouds 12 1020 54 10000 5.14 20 13:35 05.03.2022
4969 Clouds 11 1021 64 10000 4.63 360 11:55 05.03.2022
4970 Clear 9 1021 73 10000 4.12 20 11:20 05.03.2022
4971 Clear 8 1021 83 10000 3.6 10 10:23 05.03.2022
4972 Clear 5 1021 92 10000 0.51 0 09:28 05.03.2022
4973 Clear 3 1020 94 10000 1.54 340 07:58 05.03.2022
4974 Clear 5 1020 93 10000 2.06 340 05:47 05.03.2022
4975 Clear 6 1020 90 10000 2.57 320 04:38 05.03.2022
4976 Clouds 8 1021 88 10000 2.57 310 23:39 04.03.2022
4977 Clouds 8 1021 92 10000 2.57 300 22:44 04.03.2022
4978 Clouds 9 1021 85 10000 2.57 310 22:23 04.03.2022
4979 Clear 9 1021 87 10000 3.6 310 21:24 04.03.2022
4980 Clouds 9 1021 83 10000 3.6 310 20:32 04.03.2022
4981 Clouds 10 1021 79 10000 4.12 310 19:36 04.03.2022
4982 Clouds 10 1021 78 10000 4.12 310 18:47 04.03.2022
4983 Clouds 10 1021 78 10000 4.63 320 18:22 04.03.2022
4984 Clouds 11 1020 72 10000 6.69 310 17:28 04.03.2022
4985 Clouds 12 1020 70 10000 5.66 320 15:31 04.03.2022
4986 Clouds 12 1020 78 10000 5.14 320 14:36 04.03.2022
4987 Clouds 12 1021 77 10000 5.66 320 13:27 04.03.2022
4988 Clouds 10 1021 88 10000 5.66 320 11:56 04.03.2022
4989 Clouds 9 1020 92 10000 5.14 320 10:58 04.03.2022
4990 Clouds 9 1020 92 10000 5.14 320 10:21 04.03.2022
4991 Clouds 9 1019 91 10000 3.6 310 08:48 04.03.2022
4992 Clouds 8 1018 94 10000 5.14 330 07:41 04.03.2022
4993 Clouds 9 1017 95 10000 5.14 330 05:26 04.03.2022
4994 Clouds 10 1016 95 10000 3.6 330 00:41 04.03.2022
4995 Clouds 10 1016 95 10000 2.57 310 22:53 03.03.2022
4996 Rain 10 1016 94 10000 3.6 310 21:58 03.03.2022
4997 Rain 10 1015 94 10000 3.6 300 21:34 03.03.2022
4998 Clouds 10 1015 93 10000 3.09 300 20:21 03.03.2022
4999 Clear 11 1014 90 10000 3.09 300 18:57 03.03.2022
5000 Clouds 13 1014 82 10000 3.6 310 18:24 03.03.2022
5001 Clouds 13 1014 73 10000 2.06 10 17:31 03.03.2022
5002 Clouds 14 1014 71 10000 2.06 350 16:26 03.03.2022
5003 Clouds 15 1014 70 10000 0 0 15:32 03.03.2022
5004 Clouds 15 1014 71 10000 1.03 0 14:43 03.03.2022
5005 Clouds 14 1014 71 10000 1.03 0 14:24 03.03.2022
5006 Clouds 11 1015 87 10000 2.57 110 12:27 03.03.2022
5007 Clouds 9 1016 100 10000 2.57 150 10:49 03.03.2022
5008 Mist 7 1016 100 1500 2.06 130 09:45 03.03.2022
5009 Fog 7 1016 99 1100 2.06 130 08:34 03.03.2022
5010 Fog 7 1017 99 550 1.54 140 06:38 03.03.2022
5011 Fog 8 1018 99 450 1.03 150 04:46 03.03.2022
5012 Clouds 8 1021 98 10000 2.06 190 23:41 02.03.2022
5013 Clouds 9 1021 93 10000 1.54 190 22:53 02.03.2022
5014 Clouds 9 1021 93 10000 1.54 190 22:53 02.03.2022
5015 Clouds 11 1021 89 10000 2.06 230 21:36 02.03.2022
5016 Clouds 11 1021 89 10000 2.57 230 20:57 02.03.2022
5017 Clouds 11 1021 89 10000 2.06 240 20:25 02.03.2022
5018 Clouds 11 1021 88 10000 1.54 280 19:37 02.03.2022
5019 Clouds 12 1021 87 10000 1.54 280 18:57 02.03.2022
5020 Clouds 12 1020 84 10000 2.06 290 18:26 02.03.2022
5021 Clouds 12 1020 90 10000 4.63 300 17:37 02.03.2022
5022 Clouds 12 1020 89 10000 4.63 280 16:51 02.03.2022
5023 Clouds 13 1020 90 10000 3.09 280 15:20 02.03.2022
5024 Clouds 12 1020 88 10000 3.09 210 13:35 02.03.2022
5025 Clouds 11 1020 89 10000 3.6 140 12:45 02.03.2022
5026 Clouds 11 1020 93 10000 3.09 200 12:21 02.03.2022
5027 Clouds 9 1020 94 10000 3.6 160 11:26 02.03.2022
5028 Clouds 9 1020 91 10000 3.6 160 10:30 02.03.2022
5029 Clouds 9 1020 91 10000 3.6 160 10:30 02.03.2022
5030 Clouds 9 1020 90 10000 3.6 130 09:35 02.03.2022
5031 Clouds 9 1019 90 10000 2.57 150 08:28 02.03.2022
5032 Clouds 9 1019 90 10000 2.57 130 07:23 02.03.2022
5033 Clouds 10 1019 78 10000 3.09 170 04:46 02.03.2022
5034 Clear 12 1021 67 10000 4.63 130 00:40 02.03.2022
5035 Clear 13 1021 59 10000 5.66 140 23:24 01.03.2022
5036 Clear 14 1021 56 10000 5.66 140 22:37 01.03.2022
5037 Clear 15 1021 53 10000 5.14 130 21:37 01.03.2022
5038 Clear 15 1021 52 10000 4.12 120 20:38 01.03.2022
5039 Clear 15 1021 52 10000 4.12 120 20:19 01.03.2022
5040 Clear 16 1021 49 10000 4.12 120 18:52 01.03.2022
5041 Clear 18 1021 44 10000 5.14 110 18:21 01.03.2022
5042 Clear 18 1021 42 10000 3.6 140 17:39 01.03.2022
5043 Clear 19 1022 43 10000 4.12 120 16:36 01.03.2022
5044 Clear 19 1022 43 10000 4.12 120 15:47 01.03.2022
5045 Clear 19 1023 42 10000 4.12 130 14:53 01.03.2022
5046 Clear 19 1023 44 10000 3.6 110 14:31 01.03.2022
5047 Clear 18 1024 45 10000 3.6 130 13:26 01.03.2022
5048 Clear 17 1025 53 10000 3.6 130 12:35 01.03.2022
5049 Clouds 13 1026 69 10000 1.54 130 10:57 01.03.2022
5050 Clear 9 1026 87 10000 2.06 120 09:43 01.03.2022
5051 Clear 6 1025 93 10000 1.54 90 08:20 01.03.2022
5052 Clear 5 1025 93 10000 1.54 100 06:47 01.03.2022
5053 Clear 5 1026 87 10000 1.03 140 02:57 01.03.2022
5054 Clear 6 1026 87 10000 0 0 00:47 01.03.2022
5055 Clear 7 1027 87 10000 0 0 23:39 28.02.2022
5056 Clear 8 1027 81 10000 0 0 22:38 28.02.2022
5057 Clear 9 1026 74 10000 1.03 290 21:43 28.02.2022
5058 Clear 11 1026 71 10000 1.03 0 20:46 28.02.2022
5059 Clear 14 1026 57 10000 2.06 50 19:51 28.02.2022
5060 Clear 17 1025 45 10000 3.09 40 18:50 28.02.2022
5061 Clear 18 1025 39 10000 1.54 50 17:43 28.02.2022
5062 Clear 20 1025 34 10000 1.54 120 17:21 28.02.2022
5063 Clear 19 1026 39 10000 0 0 16:21 28.02.2022
5064 Clear 18 1026 48 10000 1.54 50 14:32 28.02.2022
5065 Clear 17 1027 51 10000 1.03 0 13:53 28.02.2022
5066 Clear 17 1027 55 10000 1.03 0 13:19 28.02.2022
5067 Clear 13 1027 81 10000 1.03 0 11:59 28.02.2022
5068 Clouds 11 1027 93 9000 1.54 0 11:19 28.02.2022
5069 Fog 6 1027 100 350 1.03 0 10:23 28.02.2022
5070 Fog 5 1027 100 350 1.54 0 09:44 28.02.2022
5071 Fog 5 1027 100 450 2.06 340 08:54 28.02.2022
5072 Fog 4 1026 100 600 1.03 130 07:59 28.02.2022
5073 Fog 4 1026 100 700 1.03 330 06:31 28.02.2022
5074 Fog 5 1026 100 500 0 0 04:31 28.02.2022
5075 Fog 6 1025 93 700 0 0 00:53 28.02.2022
5076 Fog 9 1025 91 3600 0.51 0 22:53 27.02.2022
5077 Fog 9 1025 95 7000 1.03 0 22:32 27.02.2022
5078 Clear 10 1024 91 10000 1.03 0 21:42 27.02.2022
5079 Clear 11 1024 85 10000 2.57 310 20:44 27.02.2022
5080 Clear 12 1024 80 10000 3.09 310 20:18 27.02.2022
5081 Clear 13 1024 72 10000 2.57 310 19:49 27.02.2022
5082 Clear 14 1023 62 10000 1.54 310 19:21 27.02.2022
5083 Clear 16 1023 51 10000 3.09 40 18:33 27.02.2022
5084 Clear 17 1022 48 10000 3.6 20 17:49 27.02.2022
5085 Clear 19 1022 44 10000 3.09 320 16:25 27.02.2022
5086 Clear 19 1022 46 10000 2.57 320 15:21 27.02.2022
5087 Clear 14 1022 64 10000 1.54 0 12:37 27.02.2022
5088 Clear 13 1022 64 10000 2.06 180 11:51 27.02.2022
5089 Clear 8 1022 70 10000 2.57 150 10:37 27.02.2022
5090 Clear 7 1022 73 10000 3.6 130 09:58 27.02.2022
5091 Clear 7 1022 73 10000 3.6 130 09:58 27.02.2022
5092 Clear 7 1022 74 10000 3.6 130 09:23 27.02.2022
5093 Clear 5 1022 81 10000 2.57 120 08:48 27.02.2022
5094 Clear 5 1021 75 10000 3.6 120 06:26 27.02.2022
5095 Clear 5 1020 67 10000 3.09 120 03:44 27.02.2022
5096 Clear 7 1020 57 10000 3.6 130 23:57 26.02.2022
5097 Clear 6 1021 60 10000 3.09 130 22:43 26.02.2022
5098 Clear 8 1021 54 10000 3.09 110 21:29 26.02.2022
5099 Clear 9 1021 52 10000 3.09 110 20:43 26.02.2022
5100 Clear 10 1021 45 10000 4.12 110 19:57 26.02.2022
5101 Clear 11 1021 42 10000 3.6 110 19:33 26.02.2022
5102 Clear 11 1021 42 10000 3.6 110 19:33 26.02.2022
5103 Clear 13 1021 30 10000 4.63 110 18:33 26.02.2022
5104 Clear 14 1020 33 10000 6.17 110 17:36 26.02.2022
5105 Clear 14 1021 37 10000 5.66 110 16:39 26.02.2022
5106 Clear 14 1022 41 10000 5.66 90 15:38 26.02.2022
5107 Clear 13 1022 41 10000 5.66 90 15:19 26.02.2022
5108 Clear 13 1023 43 10000 4.63 80 14:42 26.02.2022
5109 Clear 12 1024 46 10000 4.12 100 13:53 26.02.2022
5110 Clear 11 1025 50 10000 4.12 80 12:53 26.02.2022
5111 Clear 10 1026 57 10000 4.63 90 11:52 26.02.2022
5112 Clear 9 1026 58 10000 5.14 90 11:25 26.02.2022
5113 Clear 6 1027 70 10000 4.63 110 09:44 26.02.2022
5114 Clear 3 1028 80 10000 3.6 80 08:35 26.02.2022
5115 Clear 3 1028 75 10000 3.09 90 06:31 26.02.2022
5116 Clear 4 1031 93 10000 1.54 50 23:52 25.02.2022
5117 Clear 4 1031 87 10000 2.06 40 22:34 25.02.2022
5118 Clear 6 1031 82 10000 1.54 0 21:32 25.02.2022
5119 Clear 7 1031 80 10000 3.09 10 20:51 25.02.2022
5120 Clear 8 1031 73 10000 3.6 10 20:25 25.02.2022
5121 Clouds 12 1030 50 10000 4.12 10 17:57 25.02.2022
5122 Clear 13 1030 48 10000 4.12 20 16:59 25.02.2022
5123 Clear 12 1031 46 10000 3.6 20 15:56 25.02.2022
5124 Clear 12 1031 47 10000 2.57 30 15:23 25.02.2022
5125 Clear 13 1031 45 10000 2.06 0 14:56 25.02.2022
5126 Clouds 12 1032 48 10000 3.09 50 14:27 25.02.2022
5127 Clear 11 1032 49 10000 2.57 50 13:30 25.02.2022
5128 Clear 10 1032 57 10000 3.6 30 12:21 25.02.2022
5129 Clear 10 1032 62 10000 2.06 60 11:22 25.02.2022
5130 Clear 8 1032 70 10000 1.03 0 10:23 25.02.2022
5131 Clear 8 1032 70 10000 1.03 0 10:23 25.02.2022
5132 Clear 5 1032 90 10000 0 0 09:46 25.02.2022
5133 Clear 1 1031 100 10000 0 0 08:41 25.02.2022
5134 Clouds 1 1030 93 10000 0 0 07:31 25.02.2022
5135 Clouds 2 1029 100 10000 0 0 05:43 25.02.2022
5136 Clear 5 1029 81 10000 1.54 310 02:48 25.02.2022
5137 Clear 8 1028 98 10000 2.57 270 22:48 24.02.2022
5138 Clear 9 1027 94 10000 1.54 0 21:51 24.02.2022
5139 Clouds 9 1026 90 10000 1.54 260 21:31 24.02.2022
5140 Clouds 9 1026 90 10000 2.06 330 20:47 24.02.2022
5141 Clouds 10 1025 93 10000 5.14 310 19:32 24.02.2022
5142 Rain 13 1024 72 10000 5.66 280 18:21 24.02.2022
5143 Clouds 13 1024 69 10000 7.2 280 17:58 24.02.2022
5144 Clouds 14 1024 65 10000 6.17 300 17:33 24.02.2022
5145 Clouds 15 1023 60 10000 6.17 280 16:28 24.02.2022
5146 Clouds 14 1023 66 10000 5.66 290 15:44 24.02.2022
5147 Clouds 13 1024 71 10000 5.14 310 14:51 24.02.2022
5148 Clouds 13 1023 71 10000 6.69 300 14:20 24.02.2022
5149 Clouds 14 1023 76 10000 5.14 300 13:39 24.02.2022
5150 Clouds 15 1023 70 10000 5.14 310 12:27 24.02.2022
5151 Clear 10 1021 86 10000 2.06 230 10:39 24.02.2022
5152 Clear 5 1020 100 10000 1.54 150 08:46 24.02.2022
5153 Clouds 5 1020 100 10000 1.03 150 08:22 24.02.2022
5154 Clear 5 1019 100 10000 1.03 100 05:50 24.02.2022
5155 Clear 8 1021 87 10000 0 0 00:32 24.02.2022
5156 Clear 10 1022 82 10000 1.54 50 22:38 23.02.2022
5157 Clear 11 1022 79 10000 3.09 40 21:34 23.02.2022
5158 Clear 11 1022 78 10000 2.06 20 20:30 23.02.2022
5159 Clear 12 1022 74 10000 2.57 30 19:44 23.02.2022
5160 Clouds 16 1022 60 10000 2.06 0 18:32 23.02.2022
5161 Clouds 17 1022 50 10000 1.03 0 17:21 23.02.2022
5162 Clear 16 1025 58 10000 2.57 110 14:34 23.02.2022
5163 Clouds 13 1027 72 10000 2.57 90 12:37 23.02.2022
5164 Clouds 11 1028 77 10000 3.09 110 11:23 23.02.2022
5165 Clouds 10 1028 84 10000 3.09 100 10:30 23.02.2022
5166 Clouds 6 1029 98 10000 1.54 120 08:57 23.02.2022
5167 Clouds 6 1029 94 10000 0 0 07:57 23.02.2022
5168 Clouds 6 1029 93 10000 0 0 03:48 23.02.2022
5169 Clouds 8 1030 89 10000 0 0 00:19 23.02.2022
5170 Clear 9 1030 88 10000 1.03 220 23:35 22.02.2022
5171 Clear 10 1030 88 10000 1.03 240 22:31 22.02.2022
5172 Clear 10 1030 84 10000 0.51 210 21:49 22.02.2022
5173 Clear 10 1030 84 10000 0.51 240 21:28 22.02.2022
5174 Clear 10 1030 83 10000 0 0 20:51 22.02.2022
5175 Clouds 11 1031 80 10000 1.03 0 20:29 22.02.2022
5176 Clear 11 1030 79 10000 2.57 270 19:36 22.02.2022
5177 Clear 11 1030 79 10000 2.57 270 19:18 22.02.2022
5178 Clouds 13 1030 70 10000 5.14 270 17:40 22.02.2022
5179 Clouds 14 1030 67 10000 5.14 270 17:19 22.02.2022
5180 Clouds 14 1030 67 10000 5.14 270 16:36 22.02.2022
5181 Clouds 14 1030 66 10000 5.14 270 15:38 22.02.2022
5182 Clouds 15 1030 62 10000 4.63 250 14:43 22.02.2022
5183 Clouds 13 1032 71 10000 3.6 250 11:54 22.02.2022
5184 Clouds 12 1032 78 10000 3.09 250 10:28 22.02.2022
5185 Clouds 8 1032 90 10000 2.06 230 07:48 22.02.2022
5186 Clouds 8 1032 90 10000 1.54 0 07:25 22.02.2022
5187 Clouds 8 1032 93 10000 2.57 240 02:52 22.02.2022
5188 Clouds 7 1031 93 10000 2.06 210 00:48 22.02.2022
5189 Clouds 9 1031 84 10000 3.6 290 22:38 21.02.2022
5190 Clouds 10 1030 81 10000 4.12 300 21:25 21.02.2022
5191 Clouds 10 1030 79 10000 4.12 290 20:29 21.02.2022
5192 Clouds 11 1029 75 10000 6.17 300 18:41 21.02.2022
5193 Clouds 13 1028 67 10000 8.23 290 16:47 21.02.2022
5194 Clouds 13 1028 62 10000 9.26 300 14:24 21.02.2022
5195 Clouds 13 1028 68 10000 8.75 300 13:56 21.02.2022
5196 Clouds 13 1028 61 10000 8.75 290 12:58 21.02.2022
5197 Clouds 12 1028 69 10000 9.77 300 12:22 21.02.2022
5198 Clouds 11 1027 77 10000 4.63 300 10:35 21.02.2022
5199 Clouds 9 1026 85 10000 4.12 290 08:31 21.02.2022
5200 Clouds 12 1025 89 10000 8.23 260 02:31 21.02.2022
5201 Clouds 11 1026 92 10000 5.66 250 22:45 20.02.2022
5202 Clouds 11 1026 89 10000 6.17 250 22:18 20.02.2022
5203 Clouds 11 1026 93 10000 5.14 250 21:41 20.02.2022
5204 Clouds 11 1026 89 10000 4.12 250 20:51 20.02.2022
5205 Clouds 11 1026 89 10000 5.14 260 20:21 20.02.2022
5206 Clouds 12 1026 89 10000 5.66 260 19:21 20.02.2022
5207 Clouds 12 1026 89 10000 4.63 240 18:42 20.02.2022
5208 Clouds 12 1026 85 10000 6.69 260 18:23 20.02.2022
5209 Clouds 12 1026 93 10000 5.14 260 17:30 20.02.2022
5210 Clouds 14 1027 77 10000 7.2 260 15:29 20.02.2022
5211 Clouds 14 1027 76 10000 6.17 240 14:33 20.02.2022
5212 Clouds 14 1028 82 10000 5.14 280 12:51 20.02.2022
5213 Clouds 13 1028 89 10000 5.14 270 11:56 20.02.2022
5214 Clouds 10 1028 95 10000 2.57 200 10:21 20.02.2022
5215 Clouds 10 1028 99 10000 2.57 200 09:52 20.02.2022
5216 Mist 8 1027 99 3600 3.09 220 06:44 20.02.2022
5217 Clouds 6 1028 88 10000 3.09 210 00:33 20.02.2022
5218 Clear 5 1027 92 10000 2.57 210 23:39 19.02.2022
5219 Clear 6 1027 89 10000 3.09 210 22:25 19.02.2022
5220 Clear 6 1027 89 10000 3.09 210 21:52 19.02.2022
5221 Clouds 6 1027 87 10000 2.57 220 20:45 19.02.2022
5222 Clear 8 1026 75 10000 3.09 230 19:36 19.02.2022
5223 Clouds 10 1026 64 10000 4.12 270 18:41 19.02.2022
5224 Clouds 11 1026 57 10000 5.14 280 17:59 19.02.2022
5225 Clouds 12 1026 58 10000 6.69 280 17:32 19.02.2022
5226 Clouds 12 1025 53 10000 5.14 270 15:59 19.02.2022
5227 Clear 13 1026 55 10000 5.14 250 14:55 19.02.2022
5228 Clouds 13 1026 57 10000 4.12 270 13:58 19.02.2022
5229 Clouds 11 1027 70 10000 1.03 0 11:58 19.02.2022
5230 Clouds 10 1027 77 10000 1.03 0 11:29 19.02.2022
5231 Clouds 5 1026 99 10000 1.03 250 09:21 19.02.2022
5232 Clear 5 1024 94 10000 1.03 260 06:49 19.02.2022
5233 Clear 8 1023 89 10000 2.06 290 00:50 19.02.2022
5234 Clear 10 1022 84 10000 3.09 260 22:33 18.02.2022
5235 Clear 10 1021 85 10000 3.09 260 21:26 18.02.2022
5236 Clouds 10 1021 88 10000 4.12 260 20:24 18.02.2022
5237 Clear 10 1020 89 10000 3.09 270 19:50 18.02.2022
5238 Clouds 11 1019 85 10000 4.63 300 18:37 18.02.2022
5239 Clouds 11 1019 84 10000 4.63 280 18:18 18.02.2022
5240 Clouds 12 1019 82 10000 5.66 300 17:18 18.02.2022
5241 Clouds 14 1016 83 10000 6.17 260 14:30 18.02.2022
5242 Clouds 14 1017 84 10000 3.6 220 13:46 18.02.2022
5243 Clouds 14 1016 92 10000 4.63 190 12:50 18.02.2022
5244 Clouds 13 1017 94 10000 3.6 180 11:57 18.02.2022
5245 Fog 10 1016 100 1000 1.54 0 10:45 18.02.2022
5246 Fog 10 1016 100 450 3.09 170 08:47 18.02.2022
5247 Mist 10 1016 100 3300 2.57 150 06:35 18.02.2022
5248 Mist 10 1016 100 1100 3.09 150 05:34 18.02.2022
5249 Clouds 12 1022 96 10000 3.09 210 22:20 17.02.2022
5250 Clouds 12 1022 99 10000 3.6 240 21:38 17.02.2022
5251 Clouds 12 1022 99 7000 4.12 230 20:43 17.02.2022
5252 Clouds 12 1023 99 7000 4.12 250 19:55 17.02.2022
5253 Clouds 13 1023 95 7000 3.09 260 19:22 17.02.2022
5254 Clouds 13 1023 99 10000 3.6 260 18:29 17.02.2022
5255 Clouds 13 1023 99 10000 3.6 250 17:42 17.02.2022
5256 Clouds 13 1024 98 10000 4.63 260 15:57 17.02.2022
5257 Clouds 14 1025 95 10000 6.69 270 14:30 17.02.2022
5258 Drizzle 14 1025 95 4700 5.66 260 13:47 17.02.2022
5259 Drizzle 13 1026 100 2900 4.63 270 11:52 17.02.2022
5260 Clouds 13 1025 96 10000 5.66 270 10:20 17.02.2022
5261 Drizzle 13 1024 96 4600 6.69 270 07:45 17.02.2022
5262 Drizzle 12 1023 98 9000 6.69 260 23:23 16.02.2022
5263 Clouds 13 1023 94 10000 7.72 260 22:36 16.02.2022
5264 Clouds 12 1022 98 10000 6.17 240 20:22 16.02.2022
5265 Clouds 13 1022 95 7000 6.69 260 18:56 16.02.2022
5266 Mist 13 1022 95 4800 6.17 260 18:27 16.02.2022
5267 Mist 13 1021 95 5000 7.2 270 17:22 16.02.2022
5268 Clouds 14 1021 92 10000 7.2 270 15:22 16.02.2022
5269 Clouds 14 1021 89 10000 6.69 270 13:40 16.02.2022
5270 Clouds 13 1021 95 10000 6.69 280 12:24 16.02.2022
5271 Drizzle 13 1021 95 4300 7.72 270 11:45 16.02.2022
5272 Clouds 13 1020 95 10000 8.75 270 10:34 16.02.2022
5273 Drizzle 12 1020 99 3200 8.23 260 09:34 16.02.2022
5274 Mist 11 1019 95 5000 8.23 250 06:43 16.02.2022
5275 Rain 11 1022 98 9000 6.69 250 00:37 16.02.2022
5276 Rain 10 1022 95 5000 4.63 240 22:34 15.02.2022
5277 Rain 10 1023 95 9000 5.14 240 21:50 15.02.2022
5278 Rain 10 1023 95 9000 5.14 240 21:29 15.02.2022
5279 Clouds 10 1023 95 10000 4.63 230 20:57 15.02.2022
5280 Clouds 9 1023 94 10000 4.63 240 20:19 15.02.2022
5281 Rain 9 1023 93 10000 4.63 250 19:43 15.02.2022
5282 Rain 11 1023 85 10000 5.14 260 18:25 15.02.2022
5283 Clouds 11 1023 88 10000 4.12 280 17:53 15.02.2022
5284 Clouds 11 1023 88 10000 6.17 270 17:28 15.02.2022
5285 Clouds 12 1023 80 10000 6.17 260 15:36 15.02.2022
5286 Clouds 12 1024 87 10000 3.6 250 13:49 15.02.2022
5287 Clouds 11 1024 86 10000 3.09 220 13:25 15.02.2022
5288 Rain 9 1025 93 8000 3.6 330 11:41 15.02.2022
5289 Rain 9 1025 93 8000 3.6 330 11:41 15.02.2022
5290 Clouds 6 1024 95 10000 2.57 210 09:54 15.02.2022
5291 Clear 4 1023 100 10000 1.54 210 07:41 15.02.2022
5292 Clouds 4 1023 93 10000 1.03 0 06:36 15.02.2022
5293 Clouds 8 1018 90 10000 4.63 300 23:34 14.02.2022
5294 Clouds 8 1017 89 10000 4.63 250 21:55 14.02.2022
5295 Clouds 8 1016 93 10000 3.6 250 20:51 14.02.2022
5296 Clouds 9 1015 84 10000 5.66 300 19:46 14.02.2022
5297 Clouds 9 1015 90 10000 4.12 300 19:28 14.02.2022
5298 Clouds 10 1013 89 10000 4.63 270 18:23 14.02.2022
5299 Rain 10 1012 88 10000 5.14 250 17:27 14.02.2022
5300 Clouds 10 1012 86 10000 5.66 250 16:27 14.02.2022
5301 Clouds 11 1011 85 10000 4.63 260 14:43 14.02.2022
5302 Clouds 10 1012 87 10000 5.14 250 13:34 14.02.2022
5303 Rain 10 1012 87 10000 6.69 270 12:58 14.02.2022
5304 Clouds 11 1012 84 10000 5.66 250 11:56 14.02.2022
5305 Clouds 10 1011 87 10000 7.72 250 11:37 14.02.2022
5306 Clouds 8 1011 93 10000 4.12 200 09:37 14.02.2022
5307 Clouds 8 1011 93 10000 2.06 240 07:37 14.02.2022
5308 Clouds 8 1011 93 10000 2.06 240 07:19 14.02.2022
5309 Clear 12 1008 79 10000 4.12 200 22:48 13.02.2022
5310 Clouds 13 1007 79 10000 5.66 210 22:29 13.02.2022
5311 Clouds 13 1008 74 10000 6.17 220 21:48 13.02.2022
5312 Clear 15 1007 58 10000 4.63 190 20:42 13.02.2022
5313 Clear 15 1007 61 10000 3.6 160 19:57 13.02.2022
5314 Clear 15 1008 61 10000 2.57 170 18:57 13.02.2022
5315 Clear 16 1008 59 10000 3.09 210 18:38 13.02.2022
5316 Clear 18 1009 48 10000 8.23 190 16:40 13.02.2022
5317 Clear 19 1009 49 10000 7.2 200 15:50 13.02.2022
5318 Clear 18 1012 51 10000 6.69 200 14:38 13.02.2022
5319 Clear 17 1013 54 10000 6.17 180 13:26 13.02.2022
5320 Clear 15 1014 60 10000 4.12 170 12:40 13.02.2022
5321 Clear 9 1015 77 10000 4.63 140 10:40 13.02.2022
5322 Clear 8 1016 83 10000 4.12 150 09:49 13.02.2022
5323 Clear 5 1016 87 10000 3.6 150 08:33 13.02.2022
5324 Clear 2 1021 93 10000 0 0 01:24 13.02.2022
5325 Clear 2 1022 87 10000 0 0 00:21 13.02.2022
5326 Clear 4 1022 81 10000 0 0 22:34 12.02.2022
5327 Clear 5 1022 81 10000 0 0 21:59 12.02.2022
5328 Clear 6 1022 76 10000 2.06 110 20:55 12.02.2022
5329 Clear 8 1022 69 10000 2.57 120 19:56 12.02.2022
5330 Clear 10 1022 65 10000 3.09 110 18:54 12.02.2022
5331 Clear 10 1022 64 10000 3.6 110 18:36 12.02.2022
5332 Clear 13 1022 60 10000 2.57 130 17:39 12.02.2022
5333 Clear 13 1023 60 10000 2.57 120 16:45 12.02.2022
5334 Clear 13 1023 60 10000 2.57 100 15:53 12.02.2022
5335 Clear 13 1023 60 10000 2.57 90 15:20 12.02.2022
5336 Clear 12 1024 63 10000 1.54 90 14:25 12.02.2022
5337 Clouds 5 1026 76 10000 2.57 110 11:31 12.02.2022
5338 Clear 3 1026 70 10000 2.06 110 10:30 12.02.2022
5339 Clear 2 1026 75 10000 1.54 90 09:37 12.02.2022
5340 Clear 1 1026 75 10000 0 0 08:46 12.02.2022
5341 Clear 1 1025 80 10000 1.54 100 07:44 12.02.2022
5342 Clear 1 1026 86 10000 0 0 04:47 12.02.2022
5343 Clear 3 1028 70 10000 2.06 50 02:19 12.02.2022
5344 Clear 4 1029 70 10000 1.54 360 23:21 11.02.2022
5345 Clear 5 1029 65 10000 2.06 20 22:23 11.02.2022
5346 Clear 6 1029 61 10000 2.57 30 21:32 11.02.2022
5347 Clear 6 1030 69 10000 2.57 10 20:28 11.02.2022
5348 Clear 8 1029 64 10000 2.57 30 19:29 11.02.2022
5349 Clear 10 1029 59 10000 3.09 40 18:41 11.02.2022
5350 Clear 13 1029 49 10000 3.6 30 17:27 11.02.2022
5351 Clear 13 1029 52 10000 4.63 30 16:40 11.02.2022
5352 Clear 13 1030 58 10000 4.63 40 15:19 11.02.2022
5353 Clear 12 1031 63 10000 4.63 30 14:37 11.02.2022
5354 Clear 12 1031 65 10000 4.63 30 14:19 11.02.2022
5355 Clouds 11 1031 74 10000 4.12 20 13:40 11.02.2022
5356 Clouds 10 1031 75 10000 4.12 20 13:21 11.02.2022
5357 Clouds 8 1032 84 10000 5.14 30 10:55 11.02.2022
5358 Clouds 8 1031 89 10000 4.63 30 09:32 11.02.2022
5359 Clouds 8 1030 91 10000 3.09 20 08:31 11.02.2022
5360 Clouds 7 1029 94 10000 3.09 30 07:40 11.02.2022
5361 Clouds 7 1030 94 10000 3.6 30 06:22 11.02.2022
5362 Clouds 8 1028 98 10000 4.12 320 02:21 11.02.2022
5363 Clouds 10 1028 94 10000 2.06 260 23:45 10.02.2022
5364 Clouds 11 1027 93 7000 3.09 300 22:25 10.02.2022
5365 Clouds 11 1027 93 7000 2.57 270 21:40 10.02.2022
5366 Clouds 12 1027 85 10000 3.09 290 20:48 10.02.2022
5367 Clouds 12 1026 83 10000 3.6 310 19:51 10.02.2022
5368 Clear 13 1026 79 10000 2.57 310 19:22 10.02.2022
5369 Clear 14 1025 71 10000 1.03 270 18:22 10.02.2022
5370 Clear 15 1026 65 10000 2.57 290 17:21 10.02.2022
5371 Clear 16 1026 60 10000 3.6 290 16:39 10.02.2022
5372 Clouds 16 1025 54 10000 2.06 10 15:39 10.02.2022
5373 Clouds 16 1025 56 10000 2.06 10 15:20 10.02.2022
5374 Clear 16 1026 56 10000 2.06 320 14:34 10.02.2022
5375 Clear 15 1027 61 10000 1.03 0 13:37 10.02.2022
5376 Clear 14 1027 61 10000 1.03 0 13:18 10.02.2022
5377 Clear 12 1027 74 10000 1.03 0 11:50 10.02.2022
5378 Clear 10 1027 80 10000 1.03 0 11:28 10.02.2022
5379 Clear 7 1027 93 10000 2.06 140 10:22 10.02.2022
5380 Clear 5 1027 93 9000 1.54 120 09:37 10.02.2022
5381 Clear 4 1027 100 6000 1.03 130 08:21 10.02.2022
5382 Clear 4 1027 93 10000 1.54 110 06:32 10.02.2022
5383 Clear 4 1027 100 6000 1.54 130 02:43 10.02.2022
5384 Clear 6 1027 100 6000 1.54 290 00:52 10.02.2022
5385 Clear 6 1027 93 6000 1.03 160 00:30 10.02.2022
5386 Clear 6 1027 93 6000 1.03 160 00:30 10.02.2022
5387 Clear 7 1027 93 7000 2.06 160 23:53 09.02.2022
5388 Clear 7 1028 93 10000 0 0 22:51 09.02.2022
5389 Clear 7 1028 93 10000 0 0 22:30 09.02.2022
5390 Clear 7 1028 92 10000 1.54 0 21:45 09.02.2022
5391 Clear 8 1027 85 10000 0.51 0 21:24 09.02.2022
5392 Clear 9 1027 84 10000 1.03 270 20:41 09.02.2022
5393 Clear 9 1027 83 10000 1.03 270 20:21 09.02.2022
5394 Clear 9 1027 83 10000 1.03 270 20:21 09.02.2022
5395 Clear 11 1027 76 10000 1.03 260 19:39 09.02.2022
5396 Clear 16 1027 55 10000 2.57 250 17:50 09.02.2022
5397 Clear 17 1027 48 10000 5.14 250 16:54 09.02.2022
5398 Clear 18 1027 53 10000 5.14 230 15:55 09.02.2022
5399 Clear 18 1027 54 10000 5.66 230 15:19 09.02.2022
5400 Clouds 14 1029 67 10000 4.12 250 12:42 09.02.2022
5401 Clear 14 1029 72 10000 4.12 250 12:42 09.02.2022
5402 Clear 10 1028 58 10000 3.6 150 11:20 09.02.2022
5403 Clear 8 1028 63 10000 3.09 150 10:32 09.02.2022
5404 Clear 7 1028 66 10000 4.12 150 09:42 09.02.2022
5405 Clear 6 1028 69 10000 3.6 150 09:20 09.02.2022
5406 Clear 5 1028 69 10000 3.09 150 08:26 09.02.2022
5407 Clear 4 1027 89 10000 3.6 140 05:30 09.02.2022
5408 Clear 4 1027 89 10000 3.6 140 05:30 09.02.2022
5409 Clear 4 1028 87 10000 1.54 120 03:50 09.02.2022
5410 Clear 7 1028 70 10000 1.54 150 01:28 09.02.2022
5411 Clear 7 1028 72 10000 2.57 130 23:39 08.02.2022
5412 Clear 7 1028 72 10000 3.6 100 22:51 08.02.2022
5413 Clear 7 1029 72 10000 4.12 90 22:22 08.02.2022
5414 Clear 7 1029 71 10000 2.57 110 21:50 08.02.2022
5415 Clear 8 1029 67 10000 2.06 100 21:21 08.02.2022
5416 Clear 8 1029 67 10000 3.09 110 20:45 08.02.2022
5417 Clear 9 1029 62 10000 2.06 80 19:47 08.02.2022
5418 Clear 12 1029 55 10000 3.09 70 18:52 08.02.2022
5419 Clear 14 1029 41 10000 3.09 70 17:50 08.02.2022
5420 Clear 15 1030 44 10000 3.09 80 16:34 08.02.2022
5421 Clear 15 1030 46 10000 4.12 100 15:30 08.02.2022
5422 Clear 14 1031 49 10000 3.09 110 14:38 08.02.2022
5423 Clear 13 1032 53 10000 5.14 110 13:24 08.02.2022
5424 Clear 10 1034 70 10000 2.06 100 11:38 08.02.2022
5425 Clear 7 1034 85 10000 2.06 100 10:23 08.02.2022
5426 Clear 7 1034 85 10000 2.06 100 10:23 08.02.2022
5427 Fog 5 1034 95 1200 0 0 09:45 08.02.2022
5428 Clear 4 1033 98 6000 1.03 0 07:53 08.02.2022
5429 Fog 5 1034 98 600 0 0 05:41 08.02.2022
5430 Fog 7 1034 98 4600 1.54 40 04:39 08.02.2022
5431 Fog 7 1034 98 4600 1.54 40 04:21 08.02.2022
5432 Clouds 8 1034 94 10000 0 0 03:36 08.02.2022
5433 Clouds 8 1034 94 10000 0 0 03:18 08.02.2022
5434 Fog 8 1035 98 1800 0 0 02:59 08.02.2022
5435 Fog 8 1035 94 900 0 0 02:36 08.02.2022
5436 Fog 8 1035 94 900 0 0 02:18 08.02.2022
5437 Fog 8 1034 98 1000 1.03 350 01:44 08.02.2022
5438 Fog 8 1035 94 2000 0.51 290 01:24 08.02.2022
5439 Clouds 9 1035 94 8000 0 0 00:54 08.02.2022
5440 Clouds 9 1035 94 10000 0.51 260 23:55 07.02.2022
5441 Clouds 9 1035 94 10000 1.03 250 23:37 07.02.2022
5442 Clouds 9 1035 94 10000 1.03 250 23:18 07.02.2022
5443 Clouds 9 1034 94 10000 1.03 320 22:19 07.02.2022
5444 Clouds 9 1034 93 10000 0 0 21:55 07.02.2022
5445 Clouds 10 1034 89 10000 1.03 0 21:29 07.02.2022
5446 Clouds 10 1034 88 10000 2.06 280 20:56 07.02.2022
5447 Clouds 11 1034 86 10000 2.57 300 20:38 07.02.2022
5448 Clouds 11 1033 85 10000 1.54 340 19:50 07.02.2022
5449 Clouds 12 1033 81 10000 1.54 340 19:32 07.02.2022
5450 Clouds 13 1032 75 10000 2.06 320 17:52 07.02.2022
5451 Clouds 13 1033 74 10000 2.57 330 16:53 07.02.2022
5452 Clouds 14 1032 70 10000 4.12 350 15:49 07.02.2022
5453 Clouds 14 1032 71 10000 4.12 350 14:48 07.02.2022
5454 Clouds 14 1032 76 10000 3.6 340 13:28 07.02.2022
5455 Clouds 13 1032 85 10000 3.6 10 12:42 07.02.2022
5456 Clouds 12 1032 89 10000 3.6 330 11:57 07.02.2022
5457 Drizzle 11 1032 93 7000 3.6 330 11:34 07.02.2022
5458 Clouds 11 1032 93 10000 3.6 320 10:49 07.02.2022
5459 Clouds 11 1032 95 10000 3.6 300 10:29 07.02.2022
5460 Clouds 11 1031 95 10000 3.09 310 09:53 07.02.2022
5461 Clouds 11 1031 99 10000 2.06 300 09:18 07.02.2022
5462 Clouds 11 1030 95 10000 2.57 310 08:24 07.02.2022
5463 Clouds 11 1029 94 10000 3.6 300 06:52 07.02.2022
5464 Clouds 11 1029 94 10000 4.12 300 06:33 07.02.2022
5465 Clouds 11 1029 99 10000 6.17 280 02:56 07.02.2022
5466 Clouds 11 1029 93 7000 6.69 250 00:42 07.02.2022
5467 Drizzle 11 1030 89 7000 5.66 260 23:42 06.02.2022
5468 Clouds 11 1029 89 10000 6.17 250 22:47 06.02.2022
5469 Clouds 11 1030 88 10000 6.17 250 21:51 06.02.2022
5470 Clouds 11 1029 85 10000 6.17 250 21:26 06.02.2022
5471 Clouds 11 1029 85 10000 6.17 260 20:52 06.02.2022
5472 Clouds 11 1030 85 10000 4.63 260 20:28 06.02.2022
5473 Clouds 11 1029 85 10000 5.66 260 19:32 06.02.2022
5474 Clouds 11 1029 84 10000 6.17 260 18:38 06.02.2022
5475 Clouds 11 1029 83 10000 5.66 260 17:54 06.02.2022
5476 Clouds 11 1029 79 10000 6.17 260 16:53 06.02.2022
5477 Clouds 12 1029 75 10000 6.69 250 16:32 06.02.2022
5478 Clouds 12 1029 74 10000 7.2 250 15:47 06.02.2022
5479 Clouds 12 1029 76 10000 7.2 250 15:26 06.02.2022
5480 Clouds 11 1029 77 10000 7.2 240 14:27 06.02.2022
5481 Clouds 11 1030 86 10000 4.63 230 13:24 06.02.2022
5482 Clouds 10 1030 85 10000 4.12 220 12:45 06.02.2022
5483 Clouds 8 1030 94 10000 4.12 220 11:19 06.02.2022
5484 Clouds 6 1031 99 10000 3.6 220 09:48 06.02.2022
5485 Clear 5 1030 95 10000 3.09 220 08:47 06.02.2022
5486 Clouds 4 1030 95 10000 3.09 210 07:36 06.02.2022
5487 Clouds 4 1030 95 10000 3.09 210 07:36 06.02.2022
5488 Clouds 3 1030 99 10000 3.09 210 05:29 06.02.2022
5489 Mist 3 1031 100 5000 2.06 220 02:26 06.02.2022
5490 Clouds 3 1031 93 10000 1.54 220 01:21 06.02.2022
5491 Clouds 3 1031 100 10000 1.54 230 00:24 06.02.2022
5492 Clear 4 1031 93 10000 2.06 240 22:18 05.02.2022
5493 Clear 5 1031 87 10000 1.54 240 20:48 05.02.2022
5494 Clear 6 1031 83 10000 2.06 260 20:23 05.02.2022
5495 Clear 7 1031 79 10000 1.54 270 19:44 05.02.2022
5496 Clear 8 1031 73 10000 3.09 300 18:48 05.02.2022
5497 Clouds 12 1030 60 10000 3.6 290 17:37 05.02.2022
5498 Clouds 12 1030 56 10000 2.57 300 16:33 05.02.2022
5499 Clouds 13 1030 60 10000 3.6 310 15:31 05.02.2022
5500 Clouds 11 1030 62 10000 3.6 340 13:58 05.02.2022
5501 Clear 10 1031 67 10000 1.54 330 12:46 05.02.2022
5502 Clear 9 1030 75 10000 2.06 330 11:47 05.02.2022
5503 Clear 6 1030 90 10000 1.54 0 10:46 05.02.2022
5504 Clear 3 1030 100 10000 1.03 290 09:51 05.02.2022
5505 Clear 3 1029 95 8000 1.54 310 09:23 05.02.2022
5506 Clear 3 1028 98 10000 2.57 340 07:32 05.02.2022
5507 Clear 3 1028 99 10000 1.54 340 06:55 05.02.2022
5508 Clouds 7 1026 94 10000 4.12 350 02:43 05.02.2022
5509 Clouds 8 1025 100 10000 3.09 310 01:18 05.02.2022
5510 Clouds 9 1025 100 10000 2.57 290 00:36 05.02.2022
5511 Clouds 9 1024 100 10000 2.06 270 23:33 04.02.2022
5512 Clouds 9 1024 100 10000 2.57 230 22:50 04.02.2022
5513 Clouds 8 1024 99 9000 3.09 230 21:36 04.02.2022
5514 Clouds 9 1024 99 9000 3.09 230 21:18 04.02.2022
5515 Clouds 9 1023 94 10000 2.57 260 20:40 04.02.2022
5516 Clouds 10 1023 89 10000 2.06 250 19:29 04.02.2022
5517 Clouds 12 1021 85 10000 4.12 290 16:50 04.02.2022
5518 Clouds 12 1021 89 10000 6.17 300 15:33 04.02.2022
5519 Clouds 13 1021 90 10000 4.63 280 14:47 04.02.2022
5520 Clouds 12 1021 96 10000 3.6 270 12:43 04.02.2022
5521 Mist 11 1021 100 3900 2.57 210 11:45 04.02.2022
5522 Clouds 10 1021 100 6000 2.57 220 10:56 04.02.2022
5523 Mist 10 1021 96 3100 2.57 210 10:22 04.02.2022
5524 Clouds 9 1020 99 7000 3.09 200 08:30 04.02.2022
5525 Clouds 9 1021 95 10000 2.06 200 03:47 04.02.2022
5526 Clouds 8 1021 95 10000 2.06 190 02:36 04.02.2022
5527 Clouds 9 1022 94 10000 1.54 210 23:56 03.02.2022
5528 Clouds 10 1022 94 10000 2.06 250 22:51 03.02.2022
5529 Clouds 10 1022 94 10000 1.03 0 21:52 03.02.2022
5530 Clouds 10 1022 94 10000 1.03 0 21:29 03.02.2022
5531 Clouds 10 1022 94 10000 1.03 180 20:22 03.02.2022
5532 Clouds 10 1022 94 10000 1.03 180 20:22 03.02.2022
5533 Clouds 10 1021 93 10000 0.51 220 19:42 03.02.2022
5534 Clouds 10 1021 93 10000 1.03 0 18:56 03.02.2022
5535 Clouds 11 1021 89 10000 3.6 290 17:55 03.02.2022
5536 Clouds 11 1020 90 10000 4.12 280 16:55 03.02.2022
5537 Clouds 10 1020 93 10000 3.09 240 15:28 03.02.2022
5538 Clouds 8 1021 100 10000 2.06 230 13:45 03.02.2022
5539 Mist 6 1021 100 5000 2.06 200 11:47 03.02.2022
5540 Clouds 6 1021 94 10000 3.6 200 08:55 03.02.2022
5541 Clouds 6 1020 95 10000 4.12 190 07:41 03.02.2022
5542 Clouds 8 1024 94 10000 4.63 130 00:35 03.02.2022
5543 Clouds 8 1025 93 10000 4.63 120 23:47 02.02.2022
5544 Clouds 9 1026 90 10000 5.14 120 22:38 02.02.2022
5545 Clouds 9 1026 93 10000 3.6 120 21:42 02.02.2022
5546 Clouds 10 1026 90 10000 3.09 120 21:24 02.02.2022
5547 Clouds 10 1027 94 10000 1.54 0 20:19 02.02.2022
5548 Clouds 10 1027 94 10000 1.03 0 19:45 02.02.2022
5549 Clouds 10 1028 98 10000 1.54 220 18:53 02.02.2022
5550 Clouds 11 1028 93 10000 1.54 200 18:22 02.02.2022
5551 Drizzle 11 1028 93 10000 1.54 180 17:20 02.02.2022
5552 Clouds 11 1028 93 9000 1.54 220 16:47 02.02.2022
5553 Clouds 11 1030 94 10000 2.06 280 14:18 02.02.2022
5554 Clouds 10 1031 95 10000 3.6 240 12:26 02.02.2022
5555 Clouds 10 1030 94 10000 3.6 270 11:40 02.02.2022
5556 Clouds 10 1031 99 7000 2.57 310 10:38 02.02.2022
5557 Clouds 9 1031 99 10000 3.6 290 07:59 02.02.2022
5558 Drizzle 9 1032 99 5000 2.57 270 01:36 02.02.2022
5559 Clouds 10 1033 90 10000 3.6 280 21:59 01.02.2022
5560 Clouds 10 1033 88 10000 4.63 300 20:49 01.02.2022
5561 Clouds 11 1033 81 10000 4.63 290 18:35 01.02.2022
5562 Clouds 11 1032 81 10000 5.14 280 16:44 01.02.2022
5563 Clouds 11 1032 79 10000 7.72 250 15:30 01.02.2022
5564 Clouds 9 1034 79 10000 4.12 250 12:49 01.02.2022
5565 Clouds 8 1035 82 10000 3.09 230 11:48 01.02.2022
5566 Clear 2 1035 100 10000 2.06 260 08:34 01.02.2022
5567 Clear 7 1032 85 10000 3.6 330 23:54 31.01.2022
5568 Clear 7 1032 85 10000 3.6 330 23:54 31.01.2022
5569 Clear 7 1033 85 10000 2.06 310 23:36 31.01.2022
5570 Clear 7 1033 85 10000 2.06 310 23:36 31.01.2022
5571 Clear 8 1032 85 10000 3.6 320 22:27 31.01.2022
5572 Clear 8 1032 88 10000 3.6 320 21:34 31.01.2022
5573 Clear 8 1031 88 10000 3.6 310 20:34 31.01.2022
5574 Clouds 8 1031 88 10000 4.12 310 19:46 31.01.2022
5575 Clear 9 1029 80 10000 4.63 320 18:31 31.01.2022
5576 Clear 9 1029 80 10000 4.63 320 18:31 31.01.2022
5577 Clear 9 1029 80 10000 4.63 320 18:31 31.01.2022
5578 Clouds 10 1029 75 10000 5.14 300 17:53 31.01.2022
5579 Clouds 11 1029 73 10000 5.66 330 16:58 31.01.2022
5580 Clouds 11 1029 74 10000 5.66 320 15:44 31.01.2022
5581 Clouds 11 1029 94 10000 7.2 310 14:25 31.01.2022
5582 Mist 11 1030 93 5000 6.17 320 12:51 31.01.2022
5583 Clouds 10 1030 94 10000 4.63 280 11:59 31.01.2022
5584 Clouds 9 1030 100 10000 4.12 250 10:54 31.01.2022
5585 Clouds 9 1031 96 10000 4.12 240 10:36 31.01.2022
5586 Clouds 8 1031 100 10000 3.6 240 09:34 31.01.2022
5587 Clouds 8 1031 96 10000 3.6 240 08:52 31.01.2022
5588 Clouds 7 1031 100 10000 3.6 240 08:20 31.01.2022
5589 Clouds 7 1031 99 10000 3.09 260 06:36 31.01.2022
5590 Clouds 7 1030 99 10000 3.09 260 05:20 31.01.2022
5591 Clouds 7 1031 95 10000 2.57 310 23:20 30.01.2022
5592 Clouds 7 1031 95 10000 1.54 0 22:30 30.01.2022
5593 Clouds 7 1031 95 10000 1.54 0 22:30 30.01.2022
5594 Clouds 7 1031 94 10000 1.54 290 21:43 30.01.2022
5595 Clouds 7 1031 94 10000 1.03 250 21:20 30.01.2022
5596 Clouds 7 1031 94 10000 1.03 250 20:50 30.01.2022
5597 Clouds 8 1031 91 10000 0.51 0 20:29 30.01.2022
5598 Clouds 8 1031 90 10000 2.06 30 19:53 30.01.2022
5599 Clouds 8 1031 90 10000 1.54 0 18:44 30.01.2022
5600 Clouds 8 1031 90 10000 2.06 30 18:20 30.01.2022
5601 Clouds 8 1031 87 10000 2.06 20 17:28 30.01.2022
5602 Clouds 8 1031 87 10000 2.57 20 16:41 30.01.2022
5603 Clouds 8 1031 87 10000 2.57 20 16:22 30.01.2022
5604 Clouds 8 1031 87 10000 2.57 30 15:52 30.01.2022
5605 Clouds 8 1032 87 10000 3.09 30 15:32 30.01.2022
5606 Clouds 8 1032 87 10000 2.06 40 14:46 30.01.2022
5607 Clouds 8 1034 93 10000 1.54 80 12:54 30.01.2022
5608 Clouds 6 1034 100 10000 1.54 0 12:33 30.01.2022
5609 Clouds 5 1034 100 8000 1.54 90 10:36 30.01.2022
5610 Clouds 5 1034 96 10000 2.57 80 09:56 30.01.2022
5611 Clouds 5 1034 96 7000 3.09 80 09:21 30.01.2022
5612 Clouds 5 1034 96 6000 2.57 70 07:56 30.01.2022
5613 Mist 3 1036 100 3300 2.57 80 02:42 30.01.2022
5614 Fog 3 1037 100 800 2.57 60 01:39 30.01.2022
5615 Fog 3 1037 99 1100 2.57 70 23:21 29.01.2022
5616 Mist 3 1037 93 3000 2.06 70 22:34 29.01.2022
5617 Mist 3 1038 100 2200 3.6 60 21:27 29.01.2022
5618 Mist 3 1037 100 3200 3.09 50 20:38 29.01.2022
5619 Mist 3 1037 100 2300 2.57 80 19:36 29.01.2022
5620 Mist 4 1037 93 4400 2.57 70 19:00 29.01.2022
5621 Mist 3 1037 93 4700 3.09 20 18:30 29.01.2022
5622 Mist 4 1037 93 5000 2.06 50 17:41 29.01.2022
5623 Clouds 4 1037 93 7000 1.54 0 16:42 29.01.2022
5624 Clouds 3 1038 93 7000 2.06 30 14:33 29.01.2022
5625 Mist 3 1038 100 5000 1.54 0 13:45 29.01.2022
5626 Mist 3 1039 100 4500 0 0 13:25 29.01.2022
5627 Mist 3 1039 100 4500 0 0 13:25 29.01.2022
5628 Mist 3 1039 93 3100 2.06 50 12:36 29.01.2022
5629 Mist 3 1039 100 2300 2.57 100 11:38 29.01.2022
5630 Mist 3 1039 100 2100 3.09 50 10:21 29.01.2022
5631 Fog 3 1037 100 750 1.54 70 06:57 29.01.2022
5632 Mist 5 1038 100 2300 2.57 50 00:50 29.01.2022
5633 Fog 5 1038 96 1200 3.09 60 00:31 29.01.2022
5634 Mist 5 1038 100 5000 0 0 22:52 28.01.2022
5635 Mist 5 1038 100 4800 1.54 250 22:27 28.01.2022
5636 Fog 4 1038 99 1100 1.54 220 21:52 28.01.2022
5637 Fog 5 1037 95 1000 1.54 220 20:30 28.01.2022
5638 Fog 4 1037 95 1000 1.54 220 20:30 28.01.2022
5639 Mist 5 1037 95 5000 0 0 19:33 28.01.2022
5640 Clear 6 1037 95 7000 2.06 180 18:46 28.01.2022
5641 Clouds 9 1037 76 10000 2.06 180 17:31 28.01.2022
5642 Clouds 9 1037 81 10000 1.03 0 15:20 28.01.2022
5643 Clouds 7 1038 87 10000 2.06 60 13:52 28.01.2022
5644 Mist 5 1039 100 2800 1.54 0 12:30 28.01.2022
5645 Mist 4 1038 100 2000 1.03 0 11:25 28.01.2022
5646 Mist 3 1038 100 1300 1.03 0 09:52 28.01.2022
5647 Mist 2 1037 99 1700 1.54 0 08:22 28.01.2022
5648 Fog 2 1037 99 700 2.57 30 07:34 28.01.2022
5649 Mist 1 1036 98 3100 1.54 50 03:57 28.01.2022
5650 Mist 1 1036 98 3500 2.06 60 03:20 28.01.2022
5651 Clouds 1 1036 98 6000 4.63 40 02:22 28.01.2022
5652 Mist 0 1036 94 4400 3.09 20 01:31 28.01.2022
5653 Mist 0 1035 98 5000 2.57 10 22:48 27.01.2022
5654 Clouds 0 1035 100 6000 3.09 10 21:47 27.01.2022
5655 Clouds 0 1035 100 6000 4.63 30 21:29 27.01.2022
5656 Clouds 0 1034 93 6000 4.12 360 20:25 27.01.2022
5657 Clouds 0 1034 93 6000 3.09 360 18:26 27.01.2022
5658 Clear 1 1033 93 10000 1.54 360 17:34 27.01.2022
5659 Clear 1 1032 43 10000 2.42 1 14:35 27.01.2022
5660 Mist -1 1034 100 4200 2.57 10 13:24 27.01.2022
5661 Fog -1 1034 100 800 2.06 30 12:39 27.01.2022
5662 Fog -2 1033 100 400 2.57 20 09:56 27.01.2022
5663 Fog -1 1033 99 450 2.57 30 08:48 27.01.2022
5664 Fog -1 1032 99 450 1.54 10 08:28 27.01.2022
5665 Fog 0 1032 99 600 2.06 20 03:47 27.01.2022
5666 Fog 0 1032 100 600 2.57 40 00:25 27.01.2022
5667 Fog 0 1032 100 600 2.57 40 00:25 27.01.2022
5668 Fog 2 1032 100 650 3.6 30 22:38 26.01.2022
5669 Fog 2 1032 100 700 3.09 10 21:45 26.01.2022
5670 Fog 2 1032 96 800 3.6 10 20:59 26.01.2022
5671 Mist 3 1032 91 5000 3.09 20 20:35 26.01.2022
5672 Clear 4 1032 87 9000 4.12 10 19:52 26.01.2022
5673 Clear 6 1032 77 10000 2.57 360 18:52 26.01.2022
5674 Clear 8 1031 73 10000 3.09 20 18:25 26.01.2022
5675 Clear 10 1031 62 10000 2.57 20 17:39 26.01.2022
5676 Clear 10 1031 64 10000 2.57 20 17:19 26.01.2022
5677 Clear 11 1032 61 10000 1.54 50 16:26 26.01.2022
5678 Clear 11 1032 62 10000 2.06 50 15:23 26.01.2022
5679 Clear 7 1034 75 7000 2.06 30 12:44 26.01.2022
5680 Mist 3 1034 91 3400 1.03 30 10:57 26.01.2022
5681 Fog 0 1033 100 3200 0 0 09:58 26.01.2022
5682 Fog -2 1033 100 1000 1.03 40 09:39 26.01.2022
5683 Fog -2 1032 100 300 0.51 0 07:28 26.01.2022
5684 Mist 2 1033 93 3300 0 0 00:42 26.01.2022
5685 Mist 2 1033 93 4100 0 0 23:43 25.01.2022
5686 Fog 3 1033 93 4300 0 0 22:49 25.01.2022
5687 Clear 3 1033 93 7000 0.51 100 22:19 25.01.2022
5688 Clear 4 1033 93 7000 1.03 0 21:34 25.01.2022
5689 Clear 5 1033 93 8000 1.03 110 20:45 25.01.2022
5690 Clear 6 1033 84 10000 2.06 90 19:58 25.01.2022
5691 Clear 6 1033 84 10000 2.06 90 19:58 25.01.2022
5692 Clear 6 1033 81 10000 2.06 50 19:32 25.01.2022
5693 Clear 12 1032 54 10000 2.06 70 17:56 25.01.2022
5694 Clear 12 1032 54 10000 1.54 80 17:37 25.01.2022
5695 Clear 13 1032 55 10000 1.54 0 16:35 25.01.2022
5696 Clear 13 1032 59 10000 1.54 0 15:39 25.01.2022
5697 Clear 13 1032 61 10000 1.54 0 15:19 25.01.2022
5698 Clear 13 1032 61 10000 1.03 0 14:56 25.01.2022
5699 Clear 8 1034 76 7000 1.54 80 12:21 25.01.2022
5700 Fog 0 1033 100 1800 1.03 100 09:35 25.01.2022
5701 Fog 0 1032 100 2500 1.54 120 07:52 25.01.2022
5702 Fog 0 1032 100 3000 2.06 110 07:27 25.01.2022
5703 Fog 0 1032 93 400 0.51 110 05:26 25.01.2022
5704 Fog 2 1031 93 6000 0 0 00:35 25.01.2022
5705 Clear 3 1031 93 6000 1.03 100 23:36 24.01.2022
5706 Clear 3 1031 93 6000 1.03 100 23:18 24.01.2022
5707 Clear 3 1030 93 6000 0 0 22:42 24.01.2022
5708 Clear 3 1030 93 6000 0 0 22:23 24.01.2022
5709 Clear 4 1030 87 9000 0 0 21:42 24.01.2022
5710 Clear 4 1030 87 9000 0 0 21:24 24.01.2022
5711 Clear 5 1030 85 10000 1.54 110 20:27 24.01.2022
5712 Clear 7 1029 79 10000 2.06 80 19:38 24.01.2022
5713 Clear 8 1029 77 10000 2.06 70 18:50 24.01.2022
5714 Clear 12 1028 54 10000 1.54 40 17:39 24.01.2022
5715 Clear 12 1028 54 10000 1.54 40 17:21 24.01.2022
5716 Clear 14 1028 47 10000 0.51 0 16:31 24.01.2022
5717 Clear 13 1028 50 10000 1.03 0 15:25 24.01.2022
5718 Clear 11 1028 66 10000 1.54 0 13:58 24.01.2022
5719 Clear 8 1029 77 10000 3.09 130 12:34 24.01.2022
5720 Clear 6 1029 82 10000 3.6 120 11:41 24.01.2022
5721 Clear 3 1028 90 9000 2.06 130 10:19 24.01.2022
5722 Clear 2 1028 93 7000 2.06 110 09:44 24.01.2022
5723 Clear 0 1027 93 7000 1.54 90 07:45 24.01.2022
5724 Mist 1 1027 100 5000 1.54 0 01:38 24.01.2022
5725 Mist 1 1027 100 5000 1.54 0 00:55 24.01.2022
5726 Mist 1 1027 100 5000 1.54 40 00:30 24.01.2022
5727 Mist 1 1027 93 5000 0.51 0 23:39 23.01.2022
5728 Clear 2 1027 93 6000 0 0 21:53 23.01.2022
5729 Clear 2 1027 93 7000 1.03 100 21:28 23.01.2022
5730 Clear 2 1027 93 10000 1.03 110 20:57 23.01.2022
5731 Clear 3 1027 87 10000 0 0 20:21 23.01.2022
5732 Clear 6 1027 75 10000 1.54 70 18:53 23.01.2022
5733 Clear 7 1027 70 10000 2.06 70 18:22 23.01.2022
5734 Clear 10 1027 60 10000 3.09 50 16:55 23.01.2022
5735 Clear 10 1027 60 10000 2.57 60 15:56 23.01.2022
5736 Clear 9 1028 59 10000 2.06 70 14:50 23.01.2022
5737 Clear 9 1028 60 10000 2.06 80 14:18 23.01.2022
5738 Clear 6 1030 69 10000 2.06 70 12:44 23.01.2022
5739 Clear 6 1030 72 10000 3.09 90 12:19 23.01.2022
5740 Clear 4 1030 81 10000 3.09 70 11:26 23.01.2022
5741 Clear 3 1030 86 10000 2.57 70 10:57 23.01.2022
5742 Clear 2 1030 91 10000 2.57 60 10:25 23.01.2022
5743 Clear 0 1030 94 9000 2.06 50 09:31 23.01.2022
5744 Clear -1 1030 97 9000 1.54 50 08:33 23.01.2022
5745 Clear 0 1031 93 10000 1.03 30 03:34 23.01.2022
5746 Clear 1 1032 92 10000 2.57 50 01:37 23.01.2022
5747 Clear 2 1032 88 10000 3.6 40 00:47 23.01.2022
5748 Clear 2 1032 87 10000 3.6 30 23:59 22.01.2022
5749 Clear 3 1033 83 10000 3.6 40 22:49 22.01.2022
5750 Clear 3 1033 83 10000 5.14 40 22:19 22.01.2022
5751 Clear 4 1033 82 10000 4.63 30 20:33 22.01.2022
5752 Clear 5 1033 78 10000 5.14 20 19:41 22.01.2022
5753 Clear 7 1032 71 10000 3.6 30 18:37 22.01.2022
5754 Clear 8 1032 63 10000 4.12 30 17:45 22.01.2022
5755 Clear 9 1032 62 10000 5.14 40 17:19 22.01.2022
5756 Clear 9 1032 58 10000 4.63 30 16:54 22.01.2022
5757 Clear 9 1033 63 10000 5.14 40 15:45 22.01.2022
5758 Clear 8 1033 65 10000 4.12 40 14:52 22.01.2022
5759 Clear 6 1035 70 10000 3.6 50 13:30 22.01.2022
5760 Clear 5 1035 75 10000 4.63 50 12:37 22.01.2022
5761 Clear 5 1035 76 10000 4.63 50 12:19 22.01.2022
5762 Clear 3 1035 86 10000 3.09 40 10:54 22.01.2022
5763 Clear 1 1035 88 10000 3.09 40 10:23 22.01.2022
5764 Clear -1 1035 93 10000 1.03 300 08:56 22.01.2022
5765 Fog -1 1035 100 10000 0 0 08:38 22.01.2022
5766 Clear -1 1035 93 10000 0.51 0 06:46 22.01.2022
5767 Clear 1 1035 83 10000 3.09 10 02:40 22.01.2022
5768 Clear 2 1035 79 10000 4.12 10 23:50 21.01.2022
5769 Clear 2 1035 78 10000 4.12 10 23:21 21.01.2022
5770 Clear 2 1036 79 10000 2.06 350 21:34 21.01.2022
5771 Clear 3 1035 77 10000 4.12 10 19:35 21.01.2022
5772 Clouds 6 1034 67 10000 5.66 30 17:51 21.01.2022
5773 Clouds 7 1033 61 10000 6.69 40 15:56 21.01.2022
5774 Clouds 6 1034 67 10000 6.69 30 14:58 21.01.2022
5775 Clouds 4 1036 75 10000 6.17 30 12:43 21.01.2022
5776 Clouds 3 1036 83 10000 6.17 40 11:29 21.01.2022
5777 Clouds 3 1035 84 10000 5.14 20 10:47 21.01.2022
5778 Clear 1 1034 93 10000 4.12 20 08:59 21.01.2022
5779 Clear 2 1034 91 10000 3.6 20 07:58 21.01.2022
5780 Clear 2 1033 94 10000 3.09 360 01:52 21.01.2022
5781 Clear 3 1033 94 10000 2.57 20 22:47 20.01.2022
5782 Clear 3 1033 93 10000 3.09 360 21:49 20.01.2022
5783 Clouds 3 1033 93 9000 3.09 10 21:25 20.01.2022
5784 Clouds 5 1033 92 10000 2.57 10 19:47 20.01.2022
5785 Clouds 6 1032 87 10000 2.57 20 19:18 20.01.2022
5786 Clouds 7 1031 89 10000 5.66 30 17:37 20.01.2022
5787 Clouds 7 1031 93 10000 4.63 30 16:19 20.01.2022
5788 Clouds 8 1031 93 10000 4.12 40 15:29 20.01.2022
5789 Clouds 8 1031 93 10000 3.6 50 14:19 20.01.2022
5790 Clouds 7 1032 99 6000 5.14 40 12:48 20.01.2022
5791 Clouds 7 1032 99 6000 3.09 60 12:27 20.01.2022
5792 Mist 7 1031 100 1800 4.12 50 10:59 20.01.2022
5793 Fog 7 1031 100 1100 3.6 30 09:44 20.01.2022
5794 Mist 7 1030 100 3500 1.54 0 08:45 20.01.2022
5795 Clouds 7 1030 100 6000 2.06 160 06:49 20.01.2022
5796 Drizzle 7 1032 95 3600 0 0 00:30 20.01.2022
5797 Clouds 7 1032 95 7000 1.03 250 22:38 19.01.2022
5798 Clouds 7 1032 94 10000 1.03 270 21:33 19.01.2022
5799 Clouds 7 1032 94 10000 0 0 20:55 19.01.2022
5800 Clouds 7 1032 94 10000 1.03 250 20:30 19.01.2022
5801 Clouds 8 1031 89 10000 2.06 20 18:49 19.01.2022
5802 Clouds 9 1031 85 10000 1.54 0 17:50 19.01.2022
5803 Clouds 9 1031 85 10000 1.54 290 17:18 19.01.2022
5804 Clouds 9 1031 85 10000 1.54 290 17:18 19.01.2022
5805 Clouds 9 1031 85 10000 1.54 290 17:18 19.01.2022
5806 Clouds 9 1031 88 10000 2.06 230 15:31 19.01.2022
5807 Clouds 7 1033 94 10000 1.54 0 13:20 19.01.2022
5808 Mist 6 1034 95 5000 1.03 0 11:58 19.01.2022
5809 Clouds 6 1033 95 6000 2.06 210 11:22 19.01.2022
5810 Clouds 5 1032 99 7000 1.03 0 09:35 19.01.2022
5811 Clouds 5 1032 99 8000 2.57 170 08:20 19.01.2022
5812 Clouds 5 1032 95 7000 1.03 170 05:19 19.01.2022
5813 Clouds 4 1033 99 7000 3.6 190 23:53 18.01.2022
5814 Clouds 4 1033 99 6000 1.54 180 23:18 18.01.2022
5815 Mist 4 1033 95 5000 1.54 180 21:43 18.01.2022
5816 Clouds 4 1033 95 6000 1.03 140 20:21 18.01.2022
5817 Clouds 4 1033 95 8000 1.54 140 19:39 18.01.2022
5818 Clouds 4 1033 95 8000 1.03 150 19:21 18.01.2022
5819 Clouds 4 1032 94 9000 2.06 140 18:18 18.01.2022
5820 Clouds 5 1032 87 10000 1.54 130 17:31 18.01.2022
5821 Clouds 5 1032 87 10000 1.54 90 16:18 18.01.2022
5822 Clouds 5 1032 87 10000 1.54 0 15:25 18.01.2022
5823 Clouds 4 1033 93 10000 2.57 290 14:18 18.01.2022
5824 Fog 0 1033 100 300 1.54 0 11:20 18.01.2022
5825 Fog -1 1033 100 650 1.03 240 09:58 18.01.2022
5826 Fog -1 1033 99 450 1.54 250 08:29 18.01.2022
5827 Fog -1 1032 95 650 0.51 250 07:31 18.01.2022
5828 Clouds 4 1034 93 10000 2.06 30 00:22 18.01.2022
5829 Clouds 5 1035 94 8000 2.57 40 22:31 17.01.2022
5830 Clouds 6 1035 93 10000 3.09 40 21:36 17.01.2022
5831 Clouds 6 1035 93 10000 3.6 30 20:33 17.01.2022
5832 Clouds 7 1035 89 10000 2.57 40 18:42 17.01.2022
5833 Clouds 7 1035 89 10000 2.06 40 17:55 17.01.2022
5834 Clouds 7 1036 89 10000 2.57 50 16:53 17.01.2022
5835 Clouds 8 1036 87 10000 3.09 30 15:31 17.01.2022
5836 Clouds 8 1036 87 8000 2.57 30 14:57 17.01.2022
5837 Clouds 9 1037 82 10000 2.06 30 13:42 17.01.2022
5838 Clouds 7 1037 90 9000 2.06 40 12:57 17.01.2022
5839 Clouds 5 1038 96 7000 1.54 0 11:50 17.01.2022
5840 Clouds 3 1037 93 7000 1.54 0 10:38 17.01.2022
5841 Clouds 2 1037 100 6000 0 0 09:35 17.01.2022
5842 Clouds 1 1036 99 6000 0 0 07:47 17.01.2022
5843 Clouds 1 1036 99 6000 1.03 0 07:19 17.01.2022
5844 Fog 1 1036 99 550 2.06 40 00:57 17.01.2022
5845 Fog 0 1036 100 550 1.54 40 22:31 16.01.2022
5846 Fog 0 1035 100 350 2.06 10 20:38 16.01.2022
5847 Fog 0 1034 100 300 2.57 30 18:53 16.01.2022
5848 Fog 1 1034 100 250 3.09 30 18:18 16.01.2022
5849 Fog 1 1033 93 3100 2.06 30 17:25 16.01.2022
5850 Mist 1 1033 93 3100 1.54 30 16:45 16.01.2022
5851 Mist 3 1033 87 4500 1.54 0 14:50 16.01.2022
5852 Mist 3 1033 87 4500 1.54 0 14:27 16.01.2022
5853 Fog 0 1033 100 1200 0 0 12:49 16.01.2022
5854 Fog -2 1033 100 300 1.03 0 11:47 16.01.2022
5855 Fog -3 1032 100 450 1.54 90 10:55 16.01.2022
5856 Fog -3 1032 100 300 1.03 0 10:26 16.01.2022
5857 Fog -3 1032 100 300 1.54 0 09:52 16.01.2022
5858 Fog -3 1031 93 350 1.03 0 09:22 16.01.2022
5859 Fog -3 1031 100 500 1.03 30 08:37 16.01.2022
5860 Fog -2 1029 93 500 1.03 260 02:36 16.01.2022
5861 Mist -1 1028 100 3800 1.03 330 23:49 15.01.2022
5862 Mist 0 1028 93 3500 0.51 130 21:46 15.01.2022
5863 Mist 0 1028 93 5000 0 0 21:19 15.01.2022
5864 Clear 1 1027 93 6000 1.03 180 20:40 15.01.2022
5865 Clear 2 1027 87 6000 1.03 160 19:29 15.01.2022
5866 Clear 3 1027 81 7000 1.03 120 18:44 15.01.2022
5867 Clear 8 1026 71 10000 2.06 120 17:29 15.01.2022
5868 Clear 9 1026 66 10000 1.03 0 15:50 15.01.2022
5869 Clear 6 1027 75 7000 1.54 0 13:55 15.01.2022
5870 Mist 2 1028 87 4400 1.54 230 11:46 15.01.2022
5871 Mist -2 1028 100 3300 1.54 110 10:36 15.01.2022
5872 Fog -3 1028 93 2500 1.03 230 07:48 15.01.2022
5873 Fog 0 1030 93 4100 1.03 80 23:50 14.01.2022
5874 Mist 0 1031 100 5000 2.06 140 21:52 14.01.2022
5875 Fog 2 1031 93 7000 0 0 20:37 14.01.2022
5876 Clear 2 1031 93 8000 0 0 19:58 14.01.2022
5877 Clear 4 1031 81 10000 1.54 110 18:48 14.01.2022
5878 Clear 6 1031 75 10000 1.54 140 17:57 14.01.2022
5879 Clear 8 1032 70 10000 2.06 100 16:48 14.01.2022
5880 Clear 7 1032 73 10000 2.57 110 15:33 14.01.2022
5881 Clear 6 1033 70 10000 2.06 120 14:38 14.01.2022
5882 Clear 4 1034 81 10000 2.06 110 13:34 14.01.2022
5883 Clouds 1 1034 100 8000 2.57 110 12:24 14.01.2022
5884 Fog -1 1034 100 1400 3.09 110 10:47 14.01.2022
5885 Fog -1 1034 99 600 3.09 110 08:54 14.01.2022
5886 Fog -1 1034 99 1000 4.12 120 07:56 14.01.2022
5887 Mist 0 1034 99 1100 4.12 100 03:50 14.01.2022
5888 Mist 0 1035 99 4500 3.6 110 00:50 14.01.2022
5889 Mist 0 1035 100 2400 3.09 110 22:35 13.01.2022
5890 Mist 0 1035 99 1700 3.09 130 21:30 13.01.2022
5891 Fog 0 1035 99 1100 3.6 130 20:54 13.01.2022
5892 Fog 1 1035 100 1700 3.6 110 19:32 13.01.2022
5893 Mist 1 1035 93 3300 3.09 120 18:51 13.01.2022
5894 Mist 2 1035 93 4700 3.09 110 17:25 13.01.2022
5895 Clear 5 1035 81 8000 3.6 100 16:18 13.01.2022
5896 Clear 5 1034 75 10000 3.09 120 15:31 13.01.2022
5897 Clear 5 1035 75 10000 2.57 100 13:47 13.01.2022
5898 Clear 4 1036 82 10000 1.54 0 12:20 13.01.2022
5899 Clear -1 1035 93 6000 1.03 100 09:38 13.01.2022
5900 Clear -1 1035 93 6000 1.54 100 08:54 13.01.2022
5901 Clear -1 1035 93 7000 1.54 70 08:22 13.01.2022
5902 Clear -1 1035 93 6000 2.06 40 07:21 13.01.2022
5903 Clear 0 1034 93 8000 1.54 50 05:56 13.01.2022
5904 Clear 0 1034 93 8000 1.54 50 05:18 13.01.2022
5905 Clear -2 1035 93 7000 0 0 01:46 13.01.2022
5906 Clear 0 1035 93 10000 0 0 23:54 12.01.2022
5907 Clear 1 1035 86 10000 1.54 30 23:34 12.01.2022
5908 Clear 1 1035 86 10000 1.54 50 22:49 12.01.2022
5909 Clear 2 1035 87 10000 3.6 30 21:54 12.01.2022
5910 Clear 3 1035 83 10000 2.57 50 21:21 12.01.2022
5911 Clear 3 1035 82 10000 4.12 40 20:53 12.01.2022
5912 Clear 4 1034 81 10000 4.12 30 19:24 12.01.2022
5913 Clear 5 1034 77 10000 3.6 40 18:27 12.01.2022
5914 Clear 7 1034 71 10000 5.14 30 16:58 12.01.2022
5915 Clear 7 1034 71 10000 4.63 10 15:49 12.01.2022
5916 Clear 5 1035 70 10000 5.14 30 14:45 12.01.2022
5917 Clear 3 1036 81 10000 4.12 30 12:58 12.01.2022
5918 Clear 1 1035 88 10000 2.57 40 09:58 12.01.2022
5919 Clear 0 1034 92 10000 2.06 10 07:59 12.01.2022
5920 Clear 0 1034 92 10000 3.09 10 07:33 12.01.2022
5921 Clear 2 1033 87 10000 5.14 10 04:54 12.01.2022
5922 Clear 3 1032 85 10000 1.54 0 23:27 11.01.2022
5923 Clear 5 1032 81 10000 3.09 360 22:40 11.01.2022
5924 Clear 4 1032 81 10000 3.09 360 22:18 11.01.2022
5925 Clear 4 1031 86 10000 2.57 10 20:40 11.01.2022
5926 Clear 5 1031 85 10000 1.54 20 19:40 11.01.2022
5927 Clear 8 1030 71 10000 2.06 340 18:22 11.01.2022
5928 Clear 12 1030 52 10000 3.09 360 16:59 11.01.2022
5929 Clear 12 1030 52 10000 3.09 350 16:35 11.01.2022
5930 Clear 12 1030 56 10000 2.06 20 14:57 11.01.2022
5931 Clear 11 1030 63 10000 2.06 10 14:38 11.01.2022
5932 Clouds 11 1030 66 10000 2.06 30 13:53 11.01.2022
5933 Clear 10 1030 74 10000 2.57 50 13:28 11.01.2022
5934 Clear 9 1030 79 10000 1.54 0 12:36 11.01.2022
5935 Fog 6 1029 100 450 1.54 60 10:40 11.01.2022
5936 Fog 4 1028 99 650 1.03 270 08:27 11.01.2022
5937 Mist 8 1027 99 5000 1.54 40 04:30 11.01.2022
5938 Clouds 9 1026 95 10000 2.06 40 00:28 11.01.2022
5939 Clouds 9 1026 95 10000 2.06 50 23:40 10.01.2022
5940 Clouds 9 1025 95 10000 1.54 30 22:43 10.01.2022
5941 Clouds 9 1025 95 10000 2.06 40 22:18 10.01.2022
5942 Clouds 9 1025 95 10000 2.06 30 21:42 10.01.2022
5943 Clouds 10 1025 92 10000 1.54 0 21:18 10.01.2022
5944 Clouds 10 1025 95 10000 1.54 70 20:55 10.01.2022
5945 Clouds 10 1025 95 10000 2.06 70 20:23 10.01.2022
5946 Clouds 10 1024 95 10000 2.06 50 19:39 10.01.2022
5947 Clouds 10 1024 95 10000 2.06 50 19:19 10.01.2022
5948 Clouds 10 1023 95 10000 2.06 40 18:47 10.01.2022
5949 Clouds 11 1022 95 10000 2.06 30 16:51 10.01.2022
5950 Clouds 11 1021 95 10000 1.03 0 16:33 10.01.2022
5951 Clouds 11 1020 95 10000 2.57 80 14:50 10.01.2022
5952 Mist 11 1020 95 4100 2.57 40 13:35 10.01.2022
5953 Mist 12 1019 99 2900 5.14 320 11:57 10.01.2022
5954 Mist 12 1019 99 2500 5.14 310 11:24 10.01.2022
5955 Rain 12 1017 99 3100 7.2 310 09:40 10.01.2022
5956 Mist 12 1014 99 5000 8.75 300 05:52 10.01.2022
5957 Mist 12 1014 99 4600 8.23 300 04:48 10.01.2022
5958 Mist 13 1012 99 4800 8.75 300 01:22 10.01.2022
5959 Mist 11 1013 100 1700 1.03 80 00:22 10.01.2022
5960 Mist 11 1013 99 2700 0 0 22:48 09.01.2022
5961 Drizzle 11 1013 99 3000 0 0 22:21 09.01.2022
5962 Mist 10 1013 99 4000 2.06 320 21:42 09.01.2022
5963 Drizzle 10 1013 99 5000 3.09 270 21:22 09.01.2022
5964 Drizzle 10 1013 99 4400 2.06 220 20:47 09.01.2022
5965 Mist 10 1013 95 3800 1.54 220 20:29 09.01.2022
5966 Mist 10 1013 95 3900 1.54 250 19:42 09.01.2022
5967 Mist 10 1013 95 3000 0.51 0 19:21 09.01.2022
5968 Clouds 10 1013 95 10000 1.54 0 18:47 09.01.2022
5969 Clouds 10 1013 94 10000 3.6 330 18:28 09.01.2022
5970 Clouds 10 1013 94 10000 4.12 270 17:30 09.01.2022
5971 Clouds 10 1013 94 10000 4.63 290 16:50 09.01.2022
5972 Mist 11 1013 94 3100 5.66 320 15:52 09.01.2022
5973 Rain 11 1013 94 10000 5.14 260 15:33 09.01.2022
5974 Rain 10 1014 94 10000 5.14 290 14:39 09.01.2022
5975 Clouds 10 1014 94 10000 6.69 300 13:49 09.01.2022
5976 Drizzle 10 1014 93 10000 3.09 280 12:31 09.01.2022
5977 Clouds 10 1014 93 10000 4.63 270 11:47 09.01.2022
5978 Rain 9 1014 92 10000 4.63 270 09:56 09.01.2022
5979 Clouds 9 1014 90 10000 2.57 240 09:29 09.01.2022
5980 Clouds 9 1014 94 6000 3.09 310 08:25 09.01.2022
5981 Clouds 10 1015 80 10000 4.12 300 01:43 09.01.2022
5982 Clouds 10 1015 72 10000 6.69 290 01:19 09.01.2022
5983 Clouds 11 1014 79 10000 6.69 290 23:38 08.01.2022
5984 Clouds 11 1014 76 10000 8.23 290 22:58 08.01.2022
5985 Clouds 11 1014 78 10000 8.23 290 22:58 08.01.2022
5986 Clouds 12 1013 95 10000 11.83 270 21:32 08.01.2022
5987 Clouds 12 1013 95 10000 11.83 270 21:32 08.01.2022
5988 Mist 11 1014 94 3400 12.35 250 20:44 08.01.2022
5989 Mist 11 1014 94 3400 12.35 250 20:23 08.01.2022
5990 Mist 10 1014 98 3400 12.35 240 19:46 08.01.2022
5991 Mist 10 1016 93 3900 10.8 250 17:49 08.01.2022
5992 Clouds 11 1017 90 10000 10.8 250 16:57 08.01.2022
5993 Clouds 12 1019 83 10000 8.75 250 15:37 08.01.2022
5994 Clouds 11 1020 81 10000 7.2 260 14:38 08.01.2022
5995 Clouds 12 1023 86 10000 5.14 280 12:36 08.01.2022
5996 Clouds 10 1024 89 10000 5.66 250 10:46 08.01.2022
5997 Clouds 10 1024 93 10000 3.6 240 10:24 08.01.2022
5998 Clouds 9 1024 95 10000 3.09 230 09:34 08.01.2022
5999 Clouds 9 1024 95 10000 3.09 230 09:34 08.01.2022
6000 Clouds 9 1024 90 10000 3.09 290 07:18 08.01.2022
6001 Clouds 10 1025 93 10000 5.14 290 01:52 08.01.2022
6002 Drizzle 11 1025 85 10000 6.17 280 00:25 08.01.2022
6003 Clouds 10 1025 86 10000 5.14 260 22:39 07.01.2022
6004 Clear 9 1026 88 10000 4.63 260 20:40 07.01.2022
6005 Clear 9 1026 84 10000 3.6 240 19:34 07.01.2022
6006 Clouds 9 1026 83 10000 3.6 250 18:50 07.01.2022
6007 Clouds 9 1026 83 10000 3.6 260 18:26 07.01.2022
6008 Clouds 11 1026 71 10000 5.14 280 17:24 07.01.2022
6009 Clouds 13 1026 63 10000 7.72 300 15:55 07.01.2022
6010 Clouds 12 1026 71 10000 5.66 290 13:52 07.01.2022
6011 Clear 10 1026 79 10000 2.57 260 12:57 07.01.2022
6012 Clouds 10 1026 76 10000 1.03 0 12:25 07.01.2022
6013 Clouds 4 1024 69 10000 4.63 210 06:47 07.01.2022
6014 Clear 4 1024 71 10000 3.09 190 02:54 07.01.2022
6015 Clouds 3 1024 75 10000 3.09 190 01:52 07.01.2022
6016 Clouds 4 1024 71 10000 3.09 190 01:26 07.01.2022
6017 Clouds 4 1024 74 10000 2.57 190 00:34 07.01.2022
6018 Clouds 3 1024 85 10000 0 0 22:42 06.01.2022
6019 Clear 3 1024 81 10000 0 0 20:54 06.01.2022
6020 Clear 3 1024 81 10000 0 0 20:19 06.01.2022
6021 Clear 3 1024 83 10000 0 0 19:40 06.01.2022
6022 Clear 6 1023 64 10000 1.54 290 17:52 06.01.2022
6023 Clear 7 1023 58 10000 1.54 280 17:31 06.01.2022
6024 Clear 9 1023 47 10000 1.54 0 16:39 06.01.2022
6025 Clear 10 1023 45 10000 0 0 15:45 06.01.2022
6026 Clear 9 1023 40 10000 1.03 0 15:23 06.01.2022
6027 Clouds 9 1023 47 10000 1.03 0 14:20 06.01.2022
6028 Clear 9 1024 49 10000 1.03 0 13:44 06.01.2022
6029 Clear 7 1025 66 10000 1.03 0 12:32 06.01.2022
6030 Clear 6 1025 77 10000 0 0 11:41 06.01.2022
6031 Clear 5 1025 78 10000 0 0 11:19 06.01.2022
6032 Clear 0 1023 93 10000 0 0 06:59 06.01.2022
6033 Clear 2 1022 90 10000 1.54 270 00:35 06.01.2022
6034 Clear 1 1021 93 10000 0.51 0 23:34 05.01.2022
6035 Clear 2 1021 86 10000 0 0 22:50 05.01.2022
6036 Clear 3 1021 87 10000 2.06 280 22:29 05.01.2022
6037 Clear 2 1021 93 10000 1.54 0 21:44 05.01.2022
6038 Clear 3 1020 87 10000 1.03 0 20:44 05.01.2022
6039 Clear 3 1020 85 10000 0.51 300 19:46 05.01.2022
6040 Clear 5 1019 73 10000 1.03 320 18:27 05.01.2022
6041 Clouds 9 1018 55 10000 2.57 20 16:59 05.01.2022
6042 Clouds 9 1018 55 10000 3.6 10 16:22 05.01.2022
6043 Clouds 10 1018 55 10000 2.06 10 15:20 05.01.2022
6044 Clear 8 1019 69 10000 1.54 0 13:37 05.01.2022
6045 Clear 8 1019 68 10000 1.54 20 12:46 05.01.2022
6046 Clouds 4 1018 94 10000 1.54 290 08:47 05.01.2022
6047 Clear 3 1017 98 10000 1.54 230 07:19 05.01.2022
6048 Clouds 7 1014 94 10000 3.6 340 01:58 05.01.2022
6049 Clouds 8 1013 91 10000 3.6 270 23:44 04.01.2022
6050 Clouds 8 1012 94 10000 3.09 260 23:26 04.01.2022
6051 Clouds 9 1012 94 10000 2.57 280 22:19 04.01.2022
6052 Clouds 9 1011 93 10000 3.6 270 20:46 04.01.2022
6053 Clouds 9 1009 94 10000 3.09 270 18:44 04.01.2022
6054 Clouds 10 1009 93 10000 3.6 300 17:34 04.01.2022
6055 Clouds 10 1008 92 10000 2.06 310 16:39 04.01.2022
6056 Clouds 11 1008 84 10000 3.09 330 16:20 04.01.2022
6057 Clouds 11 1007 87 10000 5.14 330 14:42 04.01.2022
6058 Clouds 12 1007 84 10000 4.12 320 13:57 04.01.2022
6059 Clouds 13 1007 88 10000 5.14 340 12:24 04.01.2022
6060 Clear 14 1006 81 10000 3.6 230 10:28 04.01.2022
6061 Clear 13 1006 74 10000 4.63 260 08:59 04.01.2022
6062 Clear 14 1005 67 10000 5.14 210 06:46 04.01.2022
6063 Clear 12 1011 84 10000 4.12 190 00:44 04.01.2022
6064 Clear 12 1012 84 10000 4.12 170 23:56 03.01.2022
6065 Clear 12 1013 88 10000 3.6 170 22:28 03.01.2022
6066 Clear 13 1014 86 10000 4.63 160 21:41 03.01.2022
6067 Clear 13 1014 86 10000 4.63 160 21:41 03.01.2022
6068 Clear 13 1014 86 10000 4.63 150 20:42 03.01.2022
6069 Clear 13 1015 85 10000 3.6 160 19:43 03.01.2022
6070 Clear 14 1017 78 10000 2.57 170 18:31 03.01.2022
6071 Clear 16 1017 73 10000 3.09 180 17:23 03.01.2022
6072 Clouds 16 1017 69 10000 3.6 190 16:56 03.01.2022
6073 Clear 17 1020 67 10000 5.14 170 14:33 03.01.2022
6074 Clear 17 1021 70 10000 4.63 170 13:25 03.01.2022
6075 Clear 15 1022 76 10000 4.63 170 12:22 03.01.2022
6076 Clear 13 1023 83 10000 3.6 170 11:22 03.01.2022
6077 Clouds 10 1024 91 10000 4.12 190 09:29 03.01.2022
6078 Clear 10 1024 91 10000 3.6 180 07:55 03.01.2022
6079 Clouds 10 1026 95 10000 1.54 0 04:23 03.01.2022
6080 Clouds 11 1028 91 10000 3.09 210 23:32 02.01.2022
6081 Clouds 11 1028 93 10000 3.09 220 22:56 02.01.2022
6082 Clear 12 1028 90 10000 3.09 220 22:20 02.01.2022
6083 Clouds 13 1028 89 10000 2.57 220 20:52 02.01.2022
6084 Clouds 13 1028 89 10000 3.09 220 20:30 02.01.2022
6085 Clouds 13 1028 89 10000 3.6 220 19:32 02.01.2022
6086 Clouds 14 1028 86 10000 2.57 220 18:56 02.01.2022
6087 Clouds 15 1028 84 10000 3.09 230 18:23 02.01.2022
6088 Clouds 15 1027 83 10000 2.57 230 17:42 02.01.2022
6089 Clouds 15 1027 82 10000 2.57 230 17:21 02.01.2022
6090 Clouds 16 1027 79 10000 4.12 260 16:28 02.01.2022
6091 Clouds 17 1027 76 10000 5.66 290 15:18 02.01.2022
6092 Clouds 16 1027 81 10000 5.66 290 13:38 02.01.2022
6093 Clouds 15 1027 89 10000 3.6 250 12:32 02.01.2022
6094 Clear 14 1027 90 10000 2.57 230 11:49 02.01.2022
6095 Clear 13 1026 90 10000 2.57 250 10:54 02.01.2022
6096 Clear 12 1025 90 10000 4.12 240 09:57 02.01.2022
6097 Clear 11 1023 83 10000 2.06 250 07:34 02.01.2022
6098 Clear 10 1022 76 10000 2.06 150 02:56 02.01.2022
6099 Clear 10 1023 88 10000 4.12 140 23:42 01.01.2022
6100 Clear 11 1023 87 10000 3.09 140 23:24 01.01.2022
6101 Clear 11 1023 88 10000 2.06 130 22:25 01.01.2022
6102 Clear 12 1023 90 10000 4.12 130 21:46 01.01.2022
6103 Clear 11 1023 90 10000 4.12 130 21:28 01.01.2022
6104 Clear 11 1024 91 10000 2.57 120 20:25 01.01.2022
6105 Clear 12 1024 90 10000 1.54 120 19:34 01.01.2022
6106 Clear 12 1024 89 10000 1.54 110 18:51 01.01.2022
6107 Clear 17 1024 71 10000 1.54 90 17:38 01.01.2022
6108 Clear 21 1024 52 10000 1.03 0 16:34 01.01.2022
6109 Clear 20 1024 57 10000 2.57 230 15:37 01.01.2022
6110 Clear 20 1024 49 10000 2.06 190 14:25 01.01.2022
6111 Clear 19 1025 59 10000 2.06 210 13:36 01.01.2022
6112 Clear 16 1026 69 10000 1.03 0 12:25 01.01.2022
6113 Clear 12 1025 79 10000 1.03 140 11:25 01.01.2022
6114 Clear 11 1025 83 10000 1.03 120 10:56 01.01.2022
6115 Clear 7 1025 93 10000 2.06 140 09:48 01.01.2022
6116 Clear 7 1024 93 10000 2.06 160 08:35 01.01.2022
6117 Clear 7 1024 93 10000 1.54 140 07:56 01.01.2022
6118 Clear 7 1024 93 10000 1.54 140 07:37 01.01.2022
6119 Clear 8 1024 93 10000 2.06 130 06:43 01.01.2022
6120 Clear 8 1024 93 10000 2.06 130 04:39 01.01.2022
6121 Clear 8 1024 98 10000 2.57 130 03:50 01.01.2022
6122 Clouds 9 1025 99 7000 3.09 110 23:53 31.12.2021
6123 Clear 11 1025 94 10000 2.57 120 21:57 31.12.2021
6124 Clear 11 1026 94 10000 2.57 130 21:39 31.12.2021
6125 Clear 12 1026 91 10000 2.06 100 19:43 31.12.2021
6126 Clear 12 1026 87 10000 1.54 60 18:50 31.12.2021
6127 Clear 15 1025 77 10000 1.54 70 17:49 31.12.2021
6128 Clear 16 1026 72 10000 2.06 100 17:24 31.12.2021
6129 Clear 17 1026 67 10000 2.06 90 16:52 31.12.2021
6130 Clear 18 1025 70 10000 2.06 100 16:18 31.12.2021
6131 Clear 18 1026 69 10000 0.51 0 15:45 31.12.2021
6132 Clear 18 1026 69 10000 0.51 0 15:26 31.12.2021
6133 Clear 16 1026 79 10000 1.54 90 14:38 31.12.2021
6134 Clear 16 1026 86 10000 1.03 0 13:45 31.12.2021
6135 Fog 13 1026 92 550 0 0 12:50 31.12.2021
6136 Fog 12 1026 93 300 0 0 12:20 31.12.2021
6137 Fog 9 1026 93 250 0 0 11:41 31.12.2021
6138 Fog 8 1026 93 1200 0 0 10:50 31.12.2021
6139 Clouds 8 1025 93 10000 0 0 10:28 31.12.2021
6140 Fog 6 1024 93 5000 1.54 110 09:34 31.12.2021
6141 Clear 6 1023 100 6000 2.06 110 08:50 31.12.2021
6142 Fog 6 1023 100 10000 0.51 110 07:55 31.12.2021
6143 Clear 9 1021 93 10000 2.57 160 04:54 31.12.2021
6144 Clear 11 1021 94 10000 4.12 130 23:18 30.12.2021
6145 Clear 11 1021 92 10000 3.6 140 22:31 30.12.2021
6146 Clear 12 1021 94 10000 3.09 120 21:39 30.12.2021
6147 Clear 12 1021 94 10000 3.09 120 21:18 30.12.2021
6148 Clear 12 1022 90 10000 2.57 120 20:39 30.12.2021
6149 Clear 13 1022 90 10000 3.6 120 19:55 30.12.2021
6150 Clear 13 1022 86 10000 4.12 120 19:31 30.12.2021
6151 Clear 15 1021 82 10000 4.12 110 18:26 30.12.2021
6152 Clear 17 1022 69 10000 5.14 120 16:50 30.12.2021
6153 Clear 18 1022 68 10000 4.63 120 15:53 30.12.2021
6154 Clear 18 1022 70 10000 6.69 120 14:54 30.12.2021
6155 Clear 18 1022 72 10000 5.66 120 14:35 30.12.2021
6156 Clear 17 1023 76 10000 4.63 120 13:25 30.12.2021
6157 Clear 15 1024 84 10000 4.63 130 11:53 30.12.2021
6158 Clouds 12 1024 100 10000 3.09 120 10:28 30.12.2021
6159 Clouds 10 1024 100 8000 3.09 130 09:44 30.12.2021
6160 Fog 9 1024 99 800 1.03 100 06:56 30.12.2021
6161 Clouds 11 1024 95 10000 1.03 140 05:20 30.12.2021
6162 Clouds 11 1024 95 10000 1.03 140 05:20 30.12.2021
6163 Clouds 13 1024 96 10000 1.54 220 03:40 30.12.2021
6164 Clouds 13 1024 95 10000 2.06 220 02:27 30.12.2021
6165 Clear 12 1024 96 10000 4.12 190 23:37 29.12.2021
6166 Clear 12 1024 99 10000 3.6 190 22:42 29.12.2021
6167 Clear 12 1024 95 10000 2.06 200 21:56 29.12.2021
6168 Clear 13 1024 95 10000 2.57 220 20:58 29.12.2021
6169 Clear 13 1023 95 10000 3.09 220 20:29 29.12.2021
6170 Clear 13 1024 94 10000 3.09 230 19:31 29.12.2021
6171 Clear 14 1023 90 10000 3.6 250 18:36 29.12.2021
6172 Clear 15 1023 85 10000 3.6 260 17:42 29.12.2021
6173 Clouds 16 1023 82 10000 4.63 280 17:23 29.12.2021
6174 Clouds 17 1022 81 10000 7.2 290 16:21 29.12.2021
6175 Clouds 17 1022 81 10000 7.72 300 15:21 29.12.2021
6176 Clouds 16 1021 83 10000 6.69 260 12:57 29.12.2021
6177 Clouds 16 1020 84 10000 6.17 260 12:33 29.12.2021
6178 Clouds 15 1020 91 10000 6.17 240 11:23 29.12.2021
6179 Drizzle 14 1019 95 10000 6.69 250 09:30 29.12.2021
6180 Clouds 15 1018 85 10000 5.66 250 07:45 29.12.2021
6181 Clouds 15 1018 85 10000 5.66 250 06:33 29.12.2021
6182 Clouds 15 1018 86 10000 5.14 240 05:56 29.12.2021
6183 Clouds 14 1018 91 10000 6.17 230 04:58 29.12.2021
6184 Clouds 15 1018 85 9000 5.66 270 00:45 29.12.2021
6185 Clouds 15 1017 84 10000 7.72 270 23:58 28.12.2021
6186 Clouds 15 1017 84 10000 8.23 280 22:57 28.12.2021
6187 Clouds 15 1017 83 10000 7.72 270 22:25 28.12.2021
6188 Clouds 15 1017 83 10000 7.72 270 22:25 28.12.2021
6189 Clouds 15 1017 83 10000 7.72 270 22:25 28.12.2021
6190 Clear 15 1017 84 10000 7.72 280 21:54 28.12.2021
6191 Clear 15 1017 84 10000 8.75 270 21:35 28.12.2021
6192 Clouds 15 1016 88 10000 9.77 270 20:25 28.12.2021
6193 Clouds 15 1015 89 10000 10.8 280 18:54 28.12.2021
6194 Clouds 15 1014 90 10000 10.8 280 18:27 28.12.2021
6195 Clouds 15 1014 93 10000 10.29 270 17:34 28.12.2021
6196 Clouds 15 1013 95 10000 9.26 270 16:20 28.12.2021
6197 Clouds 15 1012 95 6000 10.8 270 15:41 28.12.2021
6198 Mist 15 1012 96 3800 10.29 260 14:55 28.12.2021
6199 Mist 15 1012 96 3800 10.29 260 14:55 28.12.2021
6200 Mist 14 1012 99 2800 8.23 260 14:37 28.12.2021
6201 Mist 14 1012 99 2800 8.23 260 14:18 28.12.2021
6202 Rain 14 1013 99 3500 7.72 240 13:37 28.12.2021
6203 Mist 14 1013 99 3600 5.66 240 12:56 28.12.2021
6204 Mist 14 1013 99 5000 6.17 250 12:20 28.12.2021
6205 Clouds 14 1012 96 8000 5.14 260 10:19 28.12.2021
6206 Mist 14 1010 99 4100 4.63 280 07:38 28.12.2021
6207 Mist 14 1008 96 3500 10.8 260 03:37 28.12.2021
6208 Rain 12 1006 95 5000 7.72 230 23:40 27.12.2021
6209 Clouds 13 1006 90 10000 6.17 210 22:21 27.12.2021
6210 Clouds 12 1006 95 10000 5.14 200 21:31 27.12.2021
6211 Clouds 12 1007 95 8000 4.63 180 20:39 27.12.2021
6212 Rain 12 1007 99 8000 4.63 210 19:49 27.12.2021
6213 Rain 12 1007 98 7000 4.12 220 19:27 27.12.2021
6214 Rain 14 1007 87 10000 7.72 240 17:54 27.12.2021
6215 Rain 14 1007 87 10000 7.72 240 17:54 27.12.2021
6216 Clouds 15 1007 83 10000 7.72 250 17:28 27.12.2021
6217 Clouds 15 1006 76 10000 7.2 230 16:23 27.12.2021
6218 Clouds 15 1006 76 10000 7.2 240 15:44 27.12.2021
6219 Clouds 15 1006 79 10000 7.2 250 14:24 27.12.2021
6220 Clouds 15 1006 85 10000 8.23 260 12:56 27.12.2021
6221 Clouds 14 1006 90 9000 6.69 260 10:56 27.12.2021
6222 Clouds 14 1005 90 9000 6.69 260 10:27 27.12.2021
6223 Clouds 14 1004 90 10000 7.2 270 09:19 27.12.2021
6224 Clouds 14 1002 95 10000 7.2 250 07:34 27.12.2021
6225 Clouds 12 1001 99 10000 6.69 220 06:29 27.12.2021
6226 Clouds 11 1002 89 10000 5.66 160 01:52 27.12.2021
6227 Clear 11 1004 90 10000 4.12 150 23:49 26.12.2021
6228 Clear 11 1004 90 10000 4.12 150 23:19 26.12.2021
6229 Clear 11 1005 94 10000 4.63 150 21:41 26.12.2021
6230 Clouds 11 1006 95 8000 2.57 130 19:57 26.12.2021
6231 Clear 11 1006 94 10000 2.06 130 18:46 26.12.2021
6232 Clouds 11 1006 94 10000 2.06 170 18:22 26.12.2021
6233 Clouds 14 1007 86 10000 3.09 250 15:53 26.12.2021
6234 Clouds 14 1008 86 10000 4.12 240 13:51 26.12.2021
6235 Clouds 14 1008 90 10000 4.63 230 13:32 26.12.2021
6236 Clouds 13 1009 94 10000 3.09 220 12:37 26.12.2021
6237 Clouds 13 1009 94 10000 3.09 220 12:37 26.12.2021
6238 Clouds 12 1009 95 10000 3.09 210 11:56 26.12.2021
6239 Clouds 11 1008 95 10000 3.6 210 09:42 26.12.2021
6240 Clouds 10 1008 99 10000 2.06 230 08:50 26.12.2021
6241 Clouds 11 1008 95 10000 3.09 210 08:27 26.12.2021
6242 Clouds 10 1007 99 10000 2.57 220 05:59 26.12.2021
6243 Rain 10 1006 98 9000 2.57 220 00:44 26.12.2021
6244 Rain 10 1006 98 9000 1.54 220 23:48 25.12.2021
6245 Rain 10 1006 98 10000 2.57 240 22:39 25.12.2021
6246 Rain 10 1006 94 10000 1.03 260 22:20 25.12.2021
6247 Clouds 11 1005 93 10000 1.54 170 20:36 25.12.2021
6248 Rain 11 1005 88 10000 1.03 220 19:20 25.12.2021
6249 Rain 12 1005 84 10000 1.03 260 18:51 25.12.2021
6250 Clear 15 1004 70 10000 1.54 250 16:52 25.12.2021
6251 Clear 15 1004 68 10000 2.06 220 15:48 25.12.2021
6252 Clear 15 1003 71 10000 2.57 210 14:24 25.12.2021
6253 Clear 14 1004 76 10000 3.09 200 12:42 25.12.2021
6254 Clear 11 1004 89 10000 1.54 150 11:21 25.12.2021
6255 Clear 8 1004 95 10000 1.03 150 09:49 25.12.2021
6256 Clear 8 1004 94 10000 2.06 140 07:39 25.12.2021
6257 Clouds 8 1004 99 6000 2.57 140 01:45 25.12.2021
6258 Clouds 8 1005 98 9000 2.57 130 00:23 25.12.2021
6259 Clear 9 1006 98 10000 2.06 140 22:28 24.12.2021
6260 Clear 10 1006 93 10000 3.09 140 19:36 24.12.2021
6261 Clear 10 1006 93 10000 3.09 140 19:18 24.12.2021
6262 Clear 14 1007 80 10000 2.06 160 16:50 24.12.2021
6263 Clear 15 1007 72 10000 4.12 230 15:53 24.12.2021
6264 Clear 15 1007 71 10000 2.57 210 15:34 24.12.2021
6265 Clear 16 1007 66 10000 3.6 200 14:36 24.12.2021
6266 Clear 16 1007 66 10000 3.6 200 14:18 24.12.2021
6267 Clear 15 1008 71 10000 2.57 190 13:33 24.12.2021
6268 Clear 14 1009 72 10000 4.12 200 12:47 24.12.2021
6269 Clear 11 1009 84 10000 4.12 170 11:47 24.12.2021
6270 Clear 10 1009 84 10000 4.12 170 11:24 24.12.2021
6271 Clear 9 1009 93 10000 3.6 150 10:45 24.12.2021
6272 Clear 8 1009 94 10000 3.09 150 09:25 24.12.2021
6273 Clear 9 1009 90 10000 4.12 140 08:19 24.12.2021
6274 Clear 9 1009 90 10000 3.6 140 07:44 24.12.2021
6275 Clear 10 1012 89 10000 4.63 130 00:48 24.12.2021
6276 Clear 11 1013 88 10000 1.54 160 23:54 23.12.2021
6277 Clear 11 1013 88 10000 4.63 130 22:54 23.12.2021
6278 Clear 11 1013 88 10000 4.12 140 22:27 23.12.2021
6279 Clear 12 1013 86 10000 4.12 150 21:59 23.12.2021
6280 Clear 12 1014 85 10000 3.6 150 20:54 23.12.2021
6281 Clear 12 1014 85 10000 4.12 150 19:39 23.12.2021
6282 Clear 12 1014 81 10000 2.57 140 18:32 23.12.2021
6283 Clear 13 1014 78 10000 2.57 140 17:47 23.12.2021
6284 Clear 14 1014 73 10000 3.09 140 16:43 23.12.2021
6285 Clear 15 1014 73 10000 3.09 140 16:23 23.12.2021
6286 Clear 15 1014 71 10000 3.6 160 15:31 23.12.2021
6287 Clear 15 1014 71 10000 3.6 160 15:31 23.12.2021
6288 Clear 15 1014 70 10000 3.6 160 14:42 23.12.2021
6289 Clear 15 1014 70 10000 3.6 160 14:42 23.12.2021
6290 Clear 15 1014 69 10000 3.6 160 14:19 23.12.2021
6291 Clear 14 1015 71 10000 5.14 170 12:47 23.12.2021
6292 Clear 9 1016 87 10000 4.63 140 10:41 23.12.2021
6293 Clear 7 1015 91 10000 4.63 140 09:34 23.12.2021
6294 Clear 7 1015 90 10000 4.63 140 08:59 23.12.2021
6295 Clear 7 1015 90 10000 6.69 140 06:23 23.12.2021
6296 Clear 7 1016 90 10000 3.6 160 03:41 23.12.2021
6297 Clear 8 1016 89 10000 5.14 140 22:55 22.12.2021
6298 Clear 8 1016 89 10000 4.63 140 22:23 22.12.2021
6299 Clear 9 1016 86 10000 4.63 140 21:53 22.12.2021
6300 Clear 9 1016 86 10000 4.12 140 21:27 22.12.2021
6301 Clear 9 1016 88 10000 5.14 140 20:41 22.12.2021
6302 Clear 9 1016 88 10000 4.12 130 19:59 22.12.2021
6303 Clear 9 1016 85 10000 3.6 110 18:57 22.12.2021
6304 Clear 10 1016 81 10000 4.63 120 17:39 22.12.2021
6305 Clear 12 1016 73 10000 4.12 120 16:34 22.12.2021
6306 Clear 12 1016 72 10000 5.14 120 15:24 22.12.2021
6307 Clear 9 1018 80 10000 5.14 120 12:59 22.12.2021
6308 Clouds 8 1018 85 9000 4.12 120 11:58 22.12.2021
6309 Clouds 3 1018 93 6000 3.6 90 09:53 22.12.2021
6310 Mist 2 1018 100 5000 2.57 90 08:58 22.12.2021
6311 Clouds 2 1018 100 6000 2.57 110 07:21 22.12.2021
6312 Mist 2 1018 93 4900 2.57 90 05:39 22.12.2021
6313 Mist 2 1018 93 4900 2.57 90 05:20 22.12.2021
6314 Mist 2 1018 100 5000 1.54 100 04:42 22.12.2021
6315 Mist 2 1018 100 5000 3.09 100 03:54 22.12.2021
6316 Mist 2 1018 100 4700 2.57 100 03:31 22.12.2021
6317 Mist 2 1019 100 3200 1.03 0 23:57 21.12.2021
6318 Mist 3 1018 100 3600 2.06 130 22:44 21.12.2021
6319 Mist 3 1018 100 4500 2.57 90 22:24 21.12.2021
6320 Mist 3 1018 100 4900 2.57 0 21:42 21.12.2021
6321 Mist 4 1019 93 5000 2.57 90 20:44 21.12.2021
6322 Clouds 4 1019 93 6000 2.57 110 20:19 21.12.2021
6323 Clouds 4 1019 87 7000 2.06 100 19:40 21.12.2021
6324 Clear 4 1018 87 10000 2.06 110 18:33 21.12.2021
6325 Clear 5 1018 87 10000 2.57 120 17:59 21.12.2021
6326 Clear 6 1018 81 10000 3.09 100 17:40 21.12.2021
6327 Clouds 7 1018 81 9000 2.57 50 15:46 21.12.2021
6328 Clear 7 1018 76 10000 2.57 110 14:24 21.12.2021
6329 Clear 6 1018 75 10000 2.57 100 13:42 21.12.2021
6330 Clouds 4 1019 87 9000 3.09 110 12:29 21.12.2021
6331 Mist 0 1019 100 5000 2.06 110 10:39 21.12.2021
6332 Fog -1 1019 100 2400 1.54 80 09:56 21.12.2021
6333 Fog -2 1019 100 4700 1.54 80 08:57 21.12.2021
6334 Mist -1 1018 93 5000 2.06 70 07:44 21.12.2021
6335 Mist -1 1018 93 5000 2.57 50 07:22 21.12.2021
6336 Mist -1 1019 100 5000 1.54 50 04:26 21.12.2021
6337 Mist 0 1019 100 4600 3.09 50 02:30 21.12.2021
6338 Fog 0 1020 100 500 2.06 50 23:54 20.12.2021
6339 Fog 0 1020 100 550 1.54 0 22:35 20.12.2021
6340 Fog 0 1020 100 450 1.03 0 21:52 20.12.2021
6341 Fog 0 1020 100 500 2.06 80 21:27 20.12.2021
6342 Fog 0 1020 100 400 1.54 100 20:54 20.12.2021
6343 Fog 0 1020 100 300 1.03 130 20:19 20.12.2021
6344 Fog 2 1020 100 3600 2.06 60 19:38 20.12.2021
6345 Fog 2 1020 100 3600 2.06 60 19:19 20.12.2021
6346 Mist 3 1020 93 5000 2.06 60 18:32 20.12.2021
6347 Clear 4 1020 87 6000 1.54 70 17:49 20.12.2021
6348 Clear 6 1020 81 9000 2.57 40 16:46 20.12.2021
6349 Clear 6 1020 81 9000 2.57 80 15:57 20.12.2021
6350 Clear 6 1021 75 8000 2.06 40 15:35 20.12.2021
6351 Mist 3 1021 87 5000 3.09 50 13:32 20.12.2021
6352 Mist 3 1021 87 5000 3.09 50 13:32 20.12.2021
6353 Mist 1 1022 93 4900 3.09 60 12:30 20.12.2021
6354 Mist -1 1022 100 1400 3.09 50 10:36 20.12.2021
6355 Fog -2 1022 100 650 3.09 50 09:39 20.12.2021
6356 Fog -2 1021 100 1000 3.6 60 08:49 20.12.2021
6357 Fog -2 1021 100 1000 3.6 60 08:31 20.12.2021
6358 Fog -2 1021 100 1200 3.09 50 07:32 20.12.2021
6359 Mist -1 1021 93 5000 2.57 40 06:39 20.12.2021
6360 Mist 0 1023 100 4200 2.06 30 00:20 20.12.2021
6361 Mist 1 1023 93 4900 3.09 40 22:56 19.12.2021
6362 Mist 1 1023 93 5000 3.6 40 22:24 19.12.2021
6363 Clear 2 1023 93 6000 2.57 40 21:32 19.12.2021
6364 Clear 3 1023 87 7000 3.09 40 20:36 19.12.2021
6365 Clear 4 1023 87 8000 2.57 40 19:53 19.12.2021
6366 Clear 4 1023 87 9000 3.09 40 19:34 19.12.2021
6367 Clear 6 1023 85 10000 3.6 40 18:35 19.12.2021
6368 Clear 7 1023 84 10000 2.06 50 17:53 19.12.2021
6369 Clear 9 1023 80 10000 2.06 60 17:28 19.12.2021
6370 Clear 10 1023 75 10000 3.09 50 16:27 19.12.2021
6371 Clear 10 1024 77 10000 3.09 60 16:27 19.12.2021
6372 Clear 10 1024 78 10000 3.09 60 15:51 19.12.2021
6373 Clear 10 1024 78 10000 2.06 40 15:23 19.12.2021
6374 Clear 10 1025 79 10000 2.06 70 14:45 19.12.2021
6375 Clear 8 1025 84 10000 2.57 110 13:26 19.12.2021
6376 Clear 8 1026 87 10000 2.57 100 12:50 19.12.2021
6377 Clear 7 1026 92 8000 2.57 110 12:28 19.12.2021
6378 Mist 5 1027 93 5000 1.54 120 11:30 19.12.2021
6379 Mist 3 1027 100 2300 1.03 50 10:30 19.12.2021
6380 Fog 1 1027 100 700 1.03 40 09:53 19.12.2021
6381 Fog 0 1027 100 550 0 0 08:45 19.12.2021
6382 Mist 2 1028 100 3200 1.54 80 04:45 19.12.2021
6383 Mist 2 1028 100 3900 1.03 70 01:39 19.12.2021
6384 Fog 2 1028 100 3500 1.03 70 00:53 19.12.2021
6385 Mist 3 1028 93 5000 0 0 22:50 18.12.2021
6386 Mist 4 1028 93 5000 1.03 70 22:20 18.12.2021
6387 Clear 4 1028 93 8000 0.51 0 21:41 18.12.2021
6388 Clear 4 1028 93 8000 0.51 0 21:41 18.12.2021
6389 Clear 4 1028 93 8000 0.51 0 21:22 18.12.2021
6390 Clear 6 1028 87 9000 2.06 50 20:20 18.12.2021
6391 Clear 6 1028 87 10000 2.57 30 19:25 18.12.2021
6392 Clear 8 1028 81 10000 2.57 30 18:22 18.12.2021
6393 Clear 9 1027 76 10000 0 0 17:48 18.12.2021
6394 Clear 14 1027 51 10000 0 0 16:26 18.12.2021
6395 Clear 14 1027 51 10000 1.03 0 15:28 18.12.2021
6396 Clear 13 1028 54 10000 0.51 0 14:51 18.12.2021
6397 Clear 10 1028 66 10000 3.09 40 13:29 18.12.2021
6398 Clear 10 1028 66 10000 3.09 40 13:29 18.12.2021
6399 Clear 7 1029 92 10000 1.03 0 11:23 18.12.2021
6400 Fog 2 1029 100 1900 0 0 09:52 18.12.2021
6401 Mist 2 1029 100 4000 1.54 70 08:47 18.12.2021
6402 Mist 2 1029 100 3900 2.06 50 08:27 18.12.2021
6403 Fog 2 1028 100 1100 1.03 50 05:56 18.12.2021
6404 Clear 5 1028 93 10000 3.09 110 00:30 18.12.2021
6405 Clear 5 1028 94 9000 2.57 100 23:46 17.12.2021
6406 Clear 5 1027 95 7000 2.57 100 21:58 17.12.2021
6407 Clear 5 1027 93 7000 2.57 90 21:20 17.12.2021
6408 Clear 5 1027 93 6000 2.06 70 20:41 17.12.2021
6409 Clear 5 1027 93 7000 1.54 60 19:28 17.12.2021
6410 Clear 6 1027 92 8000 1.54 70 18:39 17.12.2021
6411 Clear 7 1027 88 10000 3.6 70 17:33 17.12.2021
6412 Clear 8 1027 85 10000 3.6 60 16:49 17.12.2021
6413 Clear 8 1027 82 10000 3.6 50 16:22 17.12.2021
6414 Clear 8 1027 80 10000 3.09 70 15:25 17.12.2021
6415 Clear 8 1027 76 10000 3.6 100 14:40 17.12.2021
6416 Clear 7 1028 76 10000 3.09 80 13:21 17.12.2021
6417 Clear 5 1029 87 10000 2.57 90 11:50 17.12.2021
6418 Clear 3 1029 87 9000 1.54 70 10:37 17.12.2021
6419 Clear 1 1028 100 7000 2.06 50 09:34 17.12.2021
6420 Clear 1 1028 93 6000 1.54 50 08:30 17.12.2021
6421 Clear 1 1028 100 10000 2.57 50 06:47 17.12.2021
6422 Clear 2 1029 93 10000 2.06 40 02:54 17.12.2021
6423 Clear 3 1030 93 10000 2.57 40 23:40 16.12.2021
6424 Clear 4 1030 93 10000 2.06 40 22:24 16.12.2021
6425 Clear 4 1030 93 10000 2.06 40 22:24 16.12.2021
6426 Clear 4 1030 93 10000 3.09 30 21:50 16.12.2021
6427 Clear 4 1030 93 10000 3.09 30 21:25 16.12.2021
6428 Clear 5 1030 93 10000 4.12 30 20:30 16.12.2021
6429 Clear 6 1030 92 10000 3.09 30 19:44 16.12.2021
6430 Clear 7 1030 84 10000 4.12 30 18:39 16.12.2021
6431 Clear 8 1030 83 10000 4.63 30 17:56 16.12.2021
6432 Clear 9 1030 80 10000 4.12 30 17:30 16.12.2021
6433 Clear 11 1030 73 10000 3.6 40 16:21 16.12.2021
6434 Clear 11 1030 73 10000 2.57 50 14:50 16.12.2021
6435 Clear 9 1031 77 10000 2.57 60 13:25 16.12.2021
6436 Clear 4 1031 87 10000 4.12 40 11:20 16.12.2021
6437 Clear 3 1031 93 10000 4.63 40 10:59 16.12.2021
6438 Clear 3 1031 93 10000 4.12 40 10:20 16.12.2021
6439 Clear 2 1030 93 10000 2.57 40 07:48 16.12.2021
6440 Clear 2 1030 93 10000 2.57 30 06:21 16.12.2021
6441 Clear 3 1029 100 10000 3.6 20 00:54 16.12.2021
6442 Clear 4 1029 100 10000 2.57 20 23:25 15.12.2021
6443 Clear 5 1029 90 10000 2.06 20 22:41 15.12.2021
6444 Clear 6 1028 93 10000 2.06 20 21:55 15.12.2021
6445 Clear 7 1029 92 10000 3.09 20 21:26 15.12.2021
6446 Clear 7 1028 92 10000 3.09 10 20:18 15.12.2021
6447 Clear 7 1028 92 10000 3.09 10 19:45 15.12.2021
6448 Clear 8 1028 88 10000 2.57 10 18:37 15.12.2021
6449 Clear 9 1028 84 10000 3.09 360 17:51 15.12.2021
6450 Clear 9 1028 84 10000 3.09 360 17:51 15.12.2021
6451 Clear 10 1028 82 10000 2.57 10 17:32 15.12.2021
6452 Clear 12 1028 73 10000 3.09 30 16:27 15.12.2021
6453 Clear 12 1028 73 10000 2.57 30 15:46 15.12.2021
6454 Clear 12 1028 73 10000 2.57 30 15:27 15.12.2021
6455 Clear 9 1029 76 10000 2.06 50 14:18 15.12.2021
6456 Clear 7 1029 87 10000 2.06 40 12:32 15.12.2021
6457 Clouds 4 1029 93 9000 1.54 30 10:25 15.12.2021
6458 Fog 2 1028 100 650 2.06 40 08:54 15.12.2021
6459 Clouds 2 1028 100 7000 2.06 40 06:45 15.12.2021
6460 Fog 5 1028 93 500 1.54 40 00:52 15.12.2021
6461 Fog 6 1028 100 5000 2.06 30 23:41 14.12.2021
6462 Fog 6 1028 100 6000 2.57 30 22:48 14.12.2021
6463 Fog 6 1028 100 800 1.54 350 21:51 14.12.2021
6464 Fog 8 1028 93 8000 1.54 0 20:27 14.12.2021
6465 Clear 7 1027 93 10000 1.54 20 19:40 14.12.2021
6466 Clear 9 1027 85 10000 1.03 0 18:42 14.12.2021
6467 Clear 11 1027 79 10000 1.03 30 17:58 14.12.2021
6468 Clear 11 1027 79 10000 1.03 30 17:58 14.12.2021
6469 Clear 13 1027 71 10000 1.54 40 17:27 14.12.2021
6470 Clear 14 1027 67 10000 2.06 40 16:38 14.12.2021
6471 Clear 15 1027 68 10000 1.03 0 14:52 14.12.2021
6472 Clear 12 1028 80 10000 1.54 0 13:31 14.12.2021
6473 Clear 8 1029 87 10000 1.54 100 11:57 14.12.2021
6474 Clear 7 1029 93 8000 1.54 0 11:23 14.12.2021
6475 Mist 3 1028 100 5000 1.03 30 09:56 14.12.2021
6476 Mist 1 1028 100 2800 0 0 09:34 14.12.2021
6477 Fog 1 1027 100 2800 0 0 08:23 14.12.2021
6478 Fog 1 1027 100 4500 1.03 0 07:42 14.12.2021
6479 Fog 2 1026 93 2300 0 0 01:46 14.12.2021
6480 Fog 4 1025 93 1200 0 0 22:49 13.12.2021
6481 Fog 4 1025 100 1100 1.03 0 21:51 13.12.2021
6482 Fog 5 1025 93 1500 0 0 20:58 13.12.2021
6483 Fog 6 1025 93 4600 0 0 20:31 13.12.2021
6484 Fog 7 1025 93 7000 1.03 40 19:51 13.12.2021
6485 Clear 10 1024 88 10000 1.03 80 17:56 13.12.2021
6486 Clear 12 1023 80 10000 1.54 130 17:23 13.12.2021
6487 Clear 12 1023 80 10000 3.09 120 15:49 13.12.2021
6488 Clear 11 1023 82 10000 3.09 130 15:18 13.12.2021
6489 Clouds 8 1024 87 10000 3.6 110 13:38 13.12.2021
6490 Clouds 8 1024 87 10000 4.12 110 12:41 13.12.2021
6491 Clouds 7 1025 93 10000 5.14 110 11:54 13.12.2021
6492 Clouds 6 1025 100 9000 4.12 110 11:34 13.12.2021
6493 Mist 6 1025 100 3400 4.12 110 10:41 13.12.2021
6494 Mist 6 1024 100 1600 4.12 100 08:52 13.12.2021
6495 Mist 7 1024 100 4300 3.6 100 06:56 13.12.2021
6496 Mist 7 1024 100 2400 3.09 90 05:19 13.12.2021
6497 Mist 8 1026 100 3900 4.63 90 00:41 13.12.2021
6498 Clear 8 1026 99 10000 3.09 90 21:59 12.12.2021
6499 Fog 8 1026 95 6000 2.06 80 21:29 12.12.2021
6500 Clouds 10 1026 94 10000 2.57 100 19:38 12.12.2021
6501 Clouds 10 1026 94 10000 3.6 130 18:23 12.12.2021
6502 Clouds 10 1026 95 10000 3.09 130 16:47 12.12.2021
6503 Mist 10 1026 95 4900 5.14 120 16:22 12.12.2021
6504 Clouds 10 1027 93 10000 3.09 140 15:28 12.12.2021
6505 Clouds 11 1027 99 10000 2.57 140 14:54 12.12.2021
6506 Clouds 11 1027 99 10000 2.57 120 14:19 12.12.2021
6507 Clouds 11 1028 99 10000 2.06 130 12:48 12.12.2021
6508 Fog 10 1029 100 900 1.54 120 11:59 12.12.2021
6509 Fog 10 1029 100 700 2.06 110 11:32 12.12.2021
6510 Clouds 10 1028 100 6000 2.06 120 10:44 12.12.2021
6511 Clouds 10 1028 100 6000 2.06 120 10:20 12.12.2021
6512 Mist 9 1028 100 3000 1.03 120 08:46 12.12.2021
6513 Mist 9 1027 100 1600 1.03 140 07:25 12.12.2021
6514 Fog 10 1027 100 1400 2.06 140 05:29 12.12.2021
6515 Fog 10 1027 99 1100 0.51 0 04:51 12.12.2021
6516 Mist 10 1026 99 5000 1.03 190 00:57 12.12.2021
6517 Clouds 10 1026 95 10000 3.09 190 22:56 11.12.2021
6518 Clouds 10 1026 95 10000 2.57 170 22:20 11.12.2021
6519 Clouds 9 1026 98 10000 2.06 180 21:35 11.12.2021
6520 Clouds 10 1026 91 10000 1.03 190 20:18 11.12.2021
6521 Clouds 10 1025 91 10000 2.06 180 19:21 11.12.2021
6522 Clouds 10 1025 90 10000 1.54 180 18:45 11.12.2021
6523 Clouds 11 1025 86 10000 0.51 200 17:54 11.12.2021
6524 Clear 12 1024 71 10000 2.06 200 15:59 11.12.2021
6525 Clouds 12 1023 71 10000 2.57 190 15:40 11.12.2021
6526 Clouds 12 1023 71 10000 2.57 230 14:35 11.12.2021
6527 Clear 11 1024 81 10000 1.03 0 12:31 11.12.2021
6528 Clouds 8 1023 96 10000 1.54 210 10:50 11.12.2021
6529 Clear 6 1022 99 10000 0 0 09:43 11.12.2021
6530 Clouds 7 1019 94 10000 2.57 270 03:58 11.12.2021
6531 Clouds 7 1018 94 10000 0 0 00:48 11.12.2021
6532 Clouds 8 1017 89 10000 2.06 330 23:44 10.12.2021
6533 Clear 9 1016 80 10000 3.09 300 22:39 10.12.2021
6534 Clouds 9 1016 80 10000 2.57 310 21:40 10.12.2021
6535 Clouds 9 1015 79 10000 5.14 310 20:26 10.12.2021
6536 Clouds 10 1014 78 10000 6.17 310 19:18 10.12.2021
6537 Clouds 9 1013 79 10000 5.14 320 17:46 10.12.2021
6538 Clouds 10 1012 79 10000 8.75 310 16:37 10.12.2021
6539 Clouds 10 1011 83 10000 7.72 310 15:45 10.12.2021
6540 Clouds 11 1011 79 10000 7.2 300 15:26 10.12.2021
6541 Clouds 10 1011 78 10000 8.75 290 14:35 10.12.2021
6542 Clouds 10 1011 86 10000 6.17 290 13:49 10.12.2021
6543 Clouds 10 1010 87 10000 4.63 320 12:56 10.12.2021
6544 Rain 9 1010 89 10000 6.17 280 11:41 10.12.2021
6545 Rain 9 1010 90 10000 5.66 290 10:57 10.12.2021
6546 Clouds 9 1009 88 10000 5.14 300 09:46 10.12.2021
6547 Clouds 10 1007 84 10000 7.72 300 07:28 10.12.2021
6548 Clouds 12 1004 89 10000 10.29 300 04:57 10.12.2021
6549 Mist 14 1003 96 3500 9.77 270 02:39 10.12.2021
6550 Mist 13 1006 100 5000 7.72 270 23:40 09.12.2021
6551 Mist 10 1006 100 5000 4.12 220 22:41 09.12.2021
6552 Mist 10 1006 100 5000 4.12 220 22:41 09.12.2021
6553 Rain 9 1007 100 5000 4.63 210 22:21 09.12.2021
6554 Rain 7 1008 100 3500 4.12 200 21:39 09.12.2021
6555 Mist 7 1009 99 4800 4.63 190 20:35 09.12.2021
6556 Clouds 7 1009 99 10000 5.14 180 19:38 09.12.2021
6557 Clouds 7 1009 99 10000 5.14 180 19:20 09.12.2021
6558 Clouds 7 1011 95 10000 4.12 180 18:18 09.12.2021
6559 Clouds 7 1011 95 10000 4.63 180 17:47 09.12.2021
6560 Clouds 7 1011 95 10000 3.6 170 17:24 09.12.2021
6561 Clouds 7 1011 99 10000 3.6 180 16:25 09.12.2021
6562 Mist 7 1012 99 5000 3.6 190 14:59 09.12.2021
6563 Clouds 7 1012 95 9000 3.09 190 13:52 09.12.2021
6564 Rain 7 1013 95 8000 3.09 180 12:47 09.12.2021
6565 Clouds 6 1014 92 10000 4.12 190 11:33 09.12.2021
6566 Clear 4 1014 99 10000 2.06 190 10:20 09.12.2021
6567 Clear 3 1014 95 10000 2.57 230 06:59 09.12.2021
6568 Clear 3 1013 95 10000 3.09 230 03:55 09.12.2021
6569 Clear 4 1012 94 10000 2.57 230 00:25 09.12.2021
6570 Clouds 5 1012 95 10000 3.6 280 23:36 08.12.2021
6571 Rain 5 1011 95 10000 1.54 290 22:57 08.12.2021
6572 Rain 5 1010 95 10000 2.06 260 21:50 08.12.2021
6573 Clear 5 1010 99 10000 2.06 240 21:32 08.12.2021
6574 Clouds 5 1009 95 10000 1.54 230 20:48 08.12.2021
6575 Clouds 5 1008 99 9000 0.51 0 19:56 08.12.2021
6576 Snow 6 1008 99 5000 2.06 340 18:58 08.12.2021
6577 Drizzle 6 1007 98 10000 2.57 220 18:22 08.12.2021
6578 Clouds 6 1006 91 10000 2.06 240 16:49 08.12.2021
6579 Rain 6 1006 93 5000 6.17 310 15:41 08.12.2021
6580 Rain 8 1005 81 10000 6.17 300 15:21 08.12.2021
6581 Clouds 8 1004 91 10000 4.12 220 13:21 08.12.2021
6582 Drizzle 6 1004 95 10000 3.09 270 10:42 08.12.2021
6583 Clear 6 1004 94 10000 2.57 210 09:32 08.12.2021
6584 Clouds 6 1003 94 10000 2.57 180 08:31 08.12.2021
6585 Clouds 7 1003 93 10000 4.12 210 05:37 08.12.2021
6586 Clouds 8 1005 91 10000 3.09 210 00:27 08.12.2021
6587 Clouds 10 1005 91 10000 3.09 240 22:52 07.12.2021
6588 Clouds 11 1004 86 10000 5.66 270 21:25 07.12.2021
6589 Clouds 11 1004 86 10000 5.66 270 21:25 07.12.2021
6590 Clouds 11 1004 94 10000 4.63 250 20:25 07.12.2021
6591 Clouds 11 1004 94 10000 4.63 250 20:25 07.12.2021
6592 Clouds 11 1003 94 10000 5.14 250 18:59 07.12.2021
6593 Rain 11 1005 99 7000 6.17 260 18:21 07.12.2021
6594 Rain 11 1003 95 10000 5.66 180 17:24 07.12.2021
6595 Rain 11 1003 95 10000 5.66 180 16:42 07.12.2021
6596 Clouds 10 1003 99 10000 6.69 180 15:59 07.12.2021
6597 Rain 9 1006 99 5000 5.66 160 14:37 07.12.2021
6598 Rain 9 1008 94 9000 6.17 150 13:38 07.12.2021
6599 Rain 10 1011 86 10000 6.69 160 12:22 07.12.2021
6600 Clear 9 1012 95 10000 3.6 160 10:48 07.12.2021
6601 Clear 8 1014 100 10000 3.09 160 09:20 07.12.2021
6602 Clouds 8 1017 99 10000 3.6 160 06:50 07.12.2021
6603 Clouds 8 1018 100 10000 3.6 180 05:50 07.12.2021
6604 Clouds 9 1021 95 10000 3.09 220 02:35 07.12.2021
6605 Clear 9 1020 94 10000 4.12 260 23:21 06.12.2021
6606 Clouds 10 1020 91 10000 3.6 270 22:40 06.12.2021
6607 Clear 9 1020 94 10000 3.6 280 21:59 06.12.2021
6608 Clear 10 1019 94 10000 4.63 300 21:21 06.12.2021
6609 Clouds 10 1018 94 10000 5.14 310 20:32 06.12.2021
6610 Clouds 11 1017 95 10000 7.2 310 19:24 06.12.2021
6611 Mist 10 1016 95 4900 5.14 210 18:31 06.12.2021
6612 Drizzle 10 1016 99 4100 5.66 200 17:53 06.12.2021
6613 Drizzle 10 1016 95 4500 5.66 200 17:30 06.12.2021
6614 Mist 10 1017 98 4500 4.12 200 15:51 06.12.2021
6615 Clouds 10 1019 85 10000 3.6 180 13:53 06.12.2021
6616 Clouds 10 1021 85 10000 2.57 190 12:40 06.12.2021
6617 Clear 9 1021 86 10000 2.57 190 11:55 06.12.2021
6618 Clouds 5 1021 100 10000 1.03 200 09:44 06.12.2021
6619 Clouds 5 1020 93 10000 3.09 250 07:18 06.12.2021
6620 Clouds 6 1018 89 10000 3.09 270 00:38 06.12.2021
6621 Clouds 6 1017 89 10000 1.54 280 21:54 05.12.2021
6622 Clear 7 1017 90 10000 3.6 280 21:25 05.12.2021
6623 Clouds 7 1016 89 10000 4.63 300 20:20 05.12.2021
6624 Clouds 7 1016 85 10000 6.17 300 19:57 05.12.2021
6625 Clouds 7 1016 85 10000 4.63 310 19:22 05.12.2021
6626 Clouds 8 1015 90 10000 2.57 310 18:25 05.12.2021
6627 Clouds 8 1015 83 10000 4.12 310 17:49 05.12.2021
6628 Rain 9 1014 82 10000 3.6 300 16:57 05.12.2021
6629 Clouds 9 1014 78 10000 4.63 300 16:28 05.12.2021
6630 Clouds 9 1014 81 10000 4.12 300 15:58 05.12.2021
6631 Clouds 9 1014 76 10000 5.14 310 14:45 05.12.2021
6632 Clouds 9 1014 76 10000 5.14 320 14:27 05.12.2021
6633 Clouds 10 1014 74 10000 5.14 330 13:28 05.12.2021
6634 Clouds 9 1014 82 10000 4.63 320 12:41 05.12.2021
6635 Clear 9 1014 81 10000 4.12 320 12:23 05.12.2021
6636 Clouds 7 1014 93 10000 3.09 320 11:37 05.12.2021
6637 Clouds 6 1013 89 10000 5.14 300 10:21 05.12.2021
6638 Clouds 6 1012 90 10000 4.63 320 08:50 05.12.2021
6639 Clouds 7 1011 90 10000 6.17 330 04:56 05.12.2021
6640 Rain 7 1013 89 6000 6.17 310 01:23 05.12.2021
6641 Clouds 7 1015 87 10000 4.12 250 22:32 04.12.2021
6642 Clouds 8 1015 87 10000 3.6 240 21:36 04.12.2021
6643 Clouds 8 1015 83 10000 4.12 280 20:32 04.12.2021
6644 Clouds 8 1015 83 10000 3.09 270 19:33 04.12.2021
6645 Clouds 9 1015 82 10000 3.09 260 18:23 04.12.2021
6646 Clouds 10 1015 79 10000 5.14 290 17:45 04.12.2021
6647 Clouds 10 1015 77 10000 6.69 290 17:20 04.12.2021
6648 Clouds 11 1014 80 10000 6.17 290 16:42 04.12.2021
6649 Clouds 11 1014 81 10000 6.17 290 16:24 04.12.2021
6650 Clouds 13 1013 87 6000 8.23 280 11:56 04.12.2021
6651 Clouds 13 1013 85 10000 6.17 270 11:33 04.12.2021
6652 Clear 12 1012 90 10000 5.66 280 10:57 04.12.2021
6653 Rain 14 1010 95 10000 9.26 260 08:53 04.12.2021
6654 Rain 13 1010 99 9000 9.77 260 08:27 04.12.2021
6655 Rain 12 1011 99 4200 9.77 240 04:42 04.12.2021
6656 Clouds 13 1015 94 10000 8.75 260 00:49 04.12.2021
6657 Clouds 13 1015 95 9000 8.23 250 23:29 03.12.2021
6658 Clouds 13 1015 95 10000 7.72 260 22:50 03.12.2021
6659 Drizzle 13 1015 95 7000 8.23 260 21:50 03.12.2021
6660 Drizzle 13 1016 95 10000 7.72 270 20:56 03.12.2021
6661 Clouds 13 1016 95 8000 8.23 270 20:26 03.12.2021
6662 Mist 12 1016 100 5000 4.63 240 19:20 03.12.2021
6663 Rain 10 1016 99 3300 3.6 220 18:22 03.12.2021
6664 Rain 9 1016 99 4200 5.14 200 17:30 03.12.2021
6665 Clouds 8